<?xml version='1.0' encoding='UTF-8'?><gpx version="1.1" creator="JPX - https://github.com/jenetics/jpx" xmlns="http://www.topografix.com/GPX/1/1"><trk><trkseg><trkpt lat="43.43019269311814" lon="11.890061121586662"><ele>288.0</ele><time>2026-04-12T07:48:39.438Z</time></trkpt><trkpt lat="43.43032770545204" lon="11.890151527026955"><ele>288.0</ele><time>2026-04-12T07:48:50.094Z</time></trkpt><trkpt lat="43.43039663745958" lon="11.89010613247957"><ele>288.0</ele><time>2026-04-12T07:49:07.001Z</time></trkpt><trkpt lat="43.43044659260752" lon="11.889967444490894"><ele>288.0</ele><time>2026-04-12T07:49:09.001Z</time></trkpt><trkpt lat="43.43048863271356" lon="11.889861448842597"><ele>288.0</ele><time>2026-04-12T07:49:10.001Z</time></trkpt><trkpt lat="43.43053858439155" lon="11.889730902046546"><ele>287.5</ele><time>2026-04-12T07:49:11Z</time></trkpt><trkpt lat="43.43057461513094" lon="11.889625007280236"><ele>287.0</ele><time>2026-04-12T07:49:12Z</time></trkpt><trkpt lat="43.43063135801118" lon="11.889539450614766"><ele>286.5</ele><time>2026-04-12T07:49:13Z</time></trkpt><trkpt lat="43.43066746422005" lon="11.889451026188155"><ele>286.0</ele><time>2026-04-12T07:49:14Z</time></trkpt><trkpt lat="43.43067053820043" lon="11.889350862351074"><ele>285.5</ele><time>2026-04-12T07:49:15Z</time></trkpt><trkpt lat="43.430701272240015" lon="11.889271770451483"><ele>285.0</ele><time>2026-04-12T07:49:16Z</time></trkpt><trkpt lat="43.430737486322656" lon="11.889186284120376"><ele>285.0</ele><time>2026-04-12T07:49:17Z</time></trkpt><trkpt lat="43.4308024447785" lon="11.88912886023165"><ele>285.0</ele><time>2026-04-12T07:49:18Z</time></trkpt><trkpt lat="43.43084936286066" lon="11.889053662701539"><ele>285.0</ele><time>2026-04-12T07:49:20Z</time></trkpt><trkpt lat="43.43092757684817" lon="11.889134353597505"><ele>285.0</ele><time>2026-04-12T07:49:22Z</time></trkpt><trkpt lat="43.43099360938804" lon="11.889162186154847"><ele>285.0</ele><time>2026-04-12T07:49:23Z</time></trkpt><trkpt lat="43.431092418979254" lon="11.889203834159812"><ele>285.0</ele><time>2026-04-12T07:49:24Z</time></trkpt><trkpt lat="43.431192109371274" lon="11.889231416556088"><ele>285.0</ele><time>2026-04-12T07:49:25Z</time></trkpt><trkpt lat="43.43129790060994" lon="11.88929339168225"><ele>285.0</ele><time>2026-04-12T07:49:26Z</time></trkpt><trkpt lat="43.43141724027445" lon="11.889361458743194"><ele>285.0</ele><time>2026-04-12T07:49:27Z</time></trkpt><trkpt lat="43.43153376764987" lon="11.88943061087922"><ele>285.0</ele><time>2026-04-12T07:49:28Z</time></trkpt><trkpt lat="43.431649743265815" lon="11.889504387812567"><ele>284.5</ele><time>2026-04-12T07:49:29Z</time></trkpt><trkpt lat="43.43176840545881" lon="11.889576115414846"><ele>284.0</ele><time>2026-04-12T07:49:30Z</time></trkpt><trkpt lat="43.431880391826084" lon="11.889641790884195"><ele>283.5</ele><time>2026-04-12T07:49:31Z</time></trkpt><trkpt lat="43.43198617077634" lon="11.889710763765246"><ele>283.0</ele><time>2026-04-12T07:49:32Z</time></trkpt><trkpt lat="43.432073510879995" lon="11.889803397544283"><ele>282.6</ele><time>2026-04-12T07:49:33Z</time></trkpt><trkpt lat="43.4321599892436" lon="11.889884732268497"><ele>282.20000000000005</ele><time>2026-04-12T07:49:34Z</time></trkpt><trkpt lat="43.432242627944305" lon="11.889968701791114"><ele>281.8</ele><time>2026-04-12T07:49:35Z</time></trkpt><trkpt lat="43.43232245829548" lon="11.89005195130449"><ele>281.40000000000003</ele><time>2026-04-12T07:49:36Z</time></trkpt><trkpt lat="43.43240163959747" lon="11.890135454254251"><ele>281.0</ele><time>2026-04-12T07:49:37Z</time></trkpt><trkpt lat="43.43249105028275" lon="11.890201777010915"><ele>281.0</ele><time>2026-04-12T07:49:38Z</time></trkpt><trkpt lat="43.43259584985624" lon="11.890256273532694"><ele>281.0</ele><time>2026-04-12T07:49:39Z</time></trkpt><trkpt lat="43.432704839437946" lon="11.890341548947745"><ele>281.0</ele><time>2026-04-12T07:49:40Z</time></trkpt><trkpt lat="43.43281997188329" lon="11.890439847340788"><ele>281.0</ele><time>2026-04-12T07:49:41Z</time></trkpt><trkpt lat="43.432937312988535" lon="11.890546431506124"><ele>280.5</ele><time>2026-04-12T07:49:42Z</time></trkpt><trkpt lat="43.43305226158034" lon="11.890663743631917"><ele>280.0</ele><time>2026-04-12T07:49:43Z</time></trkpt><trkpt lat="43.43316396792601" lon="11.890782766213274"><ele>279.5</ele><time>2026-04-12T07:49:44Z</time></trkpt><trkpt lat="43.433282466547766" lon="11.890909135307462"><ele>279.0</ele><time>2026-04-12T07:49:45Z</time></trkpt><trkpt lat="43.43340405892835" lon="11.891034450361596"><ele>278.3333333333333</ele><time>2026-04-12T07:49:46Z</time></trkpt><trkpt lat="43.43352812784714" lon="11.891166956695914"><ele>277.66666666666663</ele><time>2026-04-12T07:49:47Z</time></trkpt><trkpt lat="43.433656285794534" lon="11.891302006249413"><ele>277.0</ele><time>2026-04-12T07:49:48Z</time></trkpt><trkpt lat="43.43378974081205" lon="11.891428513085973"><ele>277.0</ele><time>2026-04-12T07:49:49Z</time></trkpt><trkpt lat="43.43392446304339" lon="11.891545036287622"><ele>277.0</ele><time>2026-04-12T07:49:50Z</time></trkpt><trkpt lat="43.434060699406665" lon="11.891655369317192"><ele>277.0</ele><time>2026-04-12T07:49:51Z</time></trkpt><trkpt lat="43.434188723887814" lon="11.89176605495232"><ele>277.0</ele><time>2026-04-12T07:49:52Z</time></trkpt><trkpt lat="43.43430873817988" lon="11.891863542178735"><ele>277.0</ele><time>2026-04-12T07:49:53Z</time></trkpt><trkpt lat="43.434423106138055" lon="11.891956639829003"><ele>277.0</ele><time>2026-04-12T07:49:54Z</time></trkpt><trkpt lat="43.43451247581025" lon="11.892061275636799"><ele>277.0</ele><time>2026-04-12T07:49:55Z</time></trkpt><trkpt lat="43.43460348900242" lon="11.892118853907837"><ele>277.0</ele><time>2026-04-12T07:49:56Z</time></trkpt><trkpt lat="43.43466287228367" lon="11.892186092739484"><ele>277.0</ele><time>2026-04-12T07:49:57Z</time></trkpt><trkpt lat="43.434736297367074" lon="11.892271422215215"><ele>277.0</ele><time>2026-04-12T07:49:59Z</time></trkpt><trkpt lat="43.43465947402433" lon="11.892414646968518"><ele>277.0</ele><time>2026-04-12T07:50:02Z</time></trkpt><trkpt lat="43.43459509197819" lon="11.892472675651977"><ele>277.0</ele><time>2026-04-12T07:50:04Z</time></trkpt><trkpt lat="43.434694459485996" lon="11.892617330135186"><ele>276.5</ele><time>2026-04-12T07:50:06Z</time></trkpt><trkpt lat="43.434786462623634" lon="11.892646428551865"><ele>276.0</ele><time>2026-04-12T07:50:07Z</time></trkpt><trkpt lat="43.43492253601331" lon="11.89266723330489"><ele>275.5</ele><time>2026-04-12T07:50:08Z</time></trkpt><trkpt lat="43.4350846217841" lon="11.892740790768183"><ele>275.0</ele><time>2026-04-12T07:50:09Z</time></trkpt><trkpt lat="43.43523480573831" lon="11.892795912198931"><ele>275.0</ele><time>2026-04-12T07:50:10Z</time></trkpt><trkpt lat="43.43538820978979" lon="11.892847751642242"><ele>275.0</ele><time>2026-04-12T07:50:11Z</time></trkpt><trkpt lat="43.435558108285605" lon="11.892889476524397"><ele>275.0</ele><time>2026-04-12T07:50:12Z</time></trkpt><trkpt lat="43.4357245716374" lon="11.892952474448474"><ele>274.6666666666667</ele><time>2026-04-12T07:50:13Z</time></trkpt><trkpt lat="43.43588845209833" lon="11.89301456051274"><ele>274.3333333333333</ele><time>2026-04-12T07:50:14Z</time></trkpt><trkpt lat="43.436049889629466" lon="11.893098994831416"><ele>274.0</ele><time>2026-04-12T07:50:15Z</time></trkpt><trkpt lat="43.43622245865723" lon="11.893148391556663"><ele>274.3333333333333</ele><time>2026-04-12T07:50:16Z</time></trkpt><trkpt lat="43.4363939286853" lon="11.893231294154422"><ele>274.6666666666667</ele><time>2026-04-12T07:50:17Z</time></trkpt><trkpt lat="43.43656966933877" lon="11.893259393416667"><ele>275.0</ele><time>2026-04-12T07:50:18Z</time></trkpt><trkpt lat="43.4367405291388" lon="11.893284043585233"><ele>275.0</ele><time>2026-04-12T07:50:19Z</time></trkpt><trkpt lat="43.43689810607978" lon="11.893295523762209"><ele>275.0</ele><time>2026-04-12T07:50:20Z</time></trkpt><trkpt lat="43.43703770640732" lon="11.893304759005915"><ele>275.0</ele><time>2026-04-12T07:50:21Z</time></trkpt><trkpt lat="43.43715111727906" lon="11.89333637429869"><ele>275.0</ele><time>2026-04-12T07:50:22Z</time></trkpt><trkpt lat="43.437241868732436" lon="11.893373415831288"><ele>274.5</ele><time>2026-04-12T07:50:23Z</time></trkpt><trkpt lat="43.43732800827962" lon="11.893416556697893"><ele>274.0</ele><time>2026-04-12T07:50:24.999Z</time></trkpt><trkpt lat="43.43745999030664" lon="11.893470818462841"><ele>273.5</ele><time>2026-04-12T07:50:26.999Z</time></trkpt><trkpt lat="43.43758210967148" lon="11.893527218760052"><ele>273.0</ele><time>2026-04-12T07:50:27.999Z</time></trkpt><trkpt lat="43.437717673553166" lon="11.893591437674015"><ele>274.0</ele><time>2026-04-12T07:50:28.999Z</time></trkpt><trkpt lat="43.43787563988906" lon="11.893649064034232"><ele>275.0</ele><time>2026-04-12T07:50:29.999Z</time></trkpt><trkpt lat="43.438052763996396" lon="11.893672951329375"><ele>276.0</ele><time>2026-04-12T07:50:30.999Z</time></trkpt><trkpt lat="43.43821846200056" lon="11.893678037996835"><ele>276.0</ele><time>2026-04-12T07:50:31.999Z</time></trkpt><trkpt lat="43.43838648641427" lon="11.893673742346413"><ele>276.0</ele><time>2026-04-12T07:50:32.999Z</time></trkpt><trkpt lat="43.4385579805085" lon="11.893640607884192"><ele>276.0</ele><time>2026-04-12T07:50:33.999Z</time></trkpt><trkpt lat="43.438733271946504" lon="11.893621794440902"><ele>276.3333333333333</ele><time>2026-04-12T07:50:34.999Z</time></trkpt><trkpt lat="43.43891337000793" lon="11.893620798025156"><ele>276.66666666666663</ele><time>2026-04-12T07:50:35.999Z</time></trkpt><trkpt lat="43.43910113628406" lon="11.893609321329164"><ele>277.0</ele><time>2026-04-12T07:50:36.999Z</time></trkpt><trkpt lat="43.43929369618934" lon="11.893593496301522"><ele>277.0</ele><time>2026-04-12T07:50:37.999Z</time></trkpt><trkpt lat="43.43949046206507" lon="11.89353952326123"><ele>277.0</ele><time>2026-04-12T07:50:38.999Z</time></trkpt><trkpt lat="43.439692716417035" lon="11.893468070600372"><ele>277.0</ele><time>2026-04-12T07:50:39.999Z</time></trkpt><trkpt lat="43.43989464067679" lon="11.89339954014914"><ele>276.3333333333333</ele><time>2026-04-12T07:50:40.999Z</time></trkpt><trkpt lat="43.44009763055595" lon="11.893347140063273"><ele>275.6666666666667</ele><time>2026-04-12T07:50:41.999Z</time></trkpt><trkpt lat="43.44030912607225" lon="11.893334580473168"><ele>275.0</ele><time>2026-04-12T07:50:42.999Z</time></trkpt><trkpt lat="43.44051947372306" lon="11.893314684162965"><ele>277.0</ele><time>2026-04-12T07:50:43.999Z</time></trkpt><trkpt lat="43.440727284777886" lon="11.893284940263031"><ele>279.0</ele><time>2026-04-12T07:50:44.999Z</time></trkpt><trkpt lat="43.440934692598965" lon="11.893292026034908"><ele>281.0</ele><time>2026-04-12T07:50:45.999Z</time></trkpt><trkpt lat="43.44114195815265" lon="11.893306044670776"><ele>283.0</ele><time>2026-04-12T07:50:46.999Z</time></trkpt><trkpt lat="43.44134519127134" lon="11.89334407219949"><ele>285.0</ele><time>2026-04-12T07:50:47.999Z</time></trkpt><trkpt lat="43.441551198076986" lon="11.893322020707148"><ele>287.0</ele><time>2026-04-12T07:50:48.999Z</time></trkpt><trkpt lat="43.44175277882505" lon="11.893292197152402"><ele>287.0</ele><time>2026-04-12T07:50:49.999Z</time></trkpt><trkpt lat="43.441955551414914" lon="11.893241373171739"><ele>287.0</ele><time>2026-04-12T07:50:50.999Z</time></trkpt><trkpt lat="43.44215573223642" lon="11.893185486280828"><ele>287.0</ele><time>2026-04-12T07:50:51.999Z</time></trkpt><trkpt lat="43.44235192025287" lon="11.893109963528671"><ele>287.6666666666667</ele><time>2026-04-12T07:50:52.999Z</time></trkpt><trkpt lat="43.44254109005938" lon="11.893011691420542"><ele>288.3333333333333</ele><time>2026-04-12T07:50:53.999Z</time></trkpt><trkpt lat="43.44271220019236" lon="11.892900917801237"><ele>289.0</ele><time>2026-04-12T07:50:54.999Z</time></trkpt><trkpt lat="43.442871671925026" lon="11.89281078832842"><ele>290.3333333333333</ele><time>2026-04-12T07:50:55.999Z</time></trkpt><trkpt lat="43.44303331435934" lon="11.892740714065011"><ele>291.6666666666667</ele><time>2026-04-12T07:50:56.999Z</time></trkpt><trkpt lat="43.44320035294362" lon="11.892686163436506"><ele>293.0</ele><time>2026-04-12T07:50:57.999Z</time></trkpt><trkpt lat="43.443368502963125" lon="11.892638341945766"><ele>293.0</ele><time>2026-04-12T07:50:58.999Z</time></trkpt><trkpt lat="43.44352763953341" lon="11.892594206785635"><ele>293.0</ele><time>2026-04-12T07:50:59.999Z</time></trkpt><trkpt lat="43.44367596624826" lon="11.892528779080962"><ele>293.0</ele><time>2026-04-12T07:51:00.999Z</time></trkpt><trkpt lat="43.44379610229825" lon="11.892515155816286"><ele>293.0</ele><time>2026-04-12T07:51:02Z</time></trkpt><trkpt lat="43.44390233182012" lon="11.892484079718733"><ele>291.0</ele><time>2026-04-12T07:51:03Z</time></trkpt><trkpt lat="43.44398504503792" lon="11.892459883007295"><ele>289.0</ele><time>2026-04-12T07:51:04Z</time></trkpt><trkpt lat="43.44404814522662" lon="11.89244142390315"><ele>287.0</ele><time>2026-04-12T07:51:05Z</time></trkpt><trkpt lat="43.44402352181744" lon="11.892163009114821"><ele>285.0</ele><time>2026-04-12T07:51:07Z</time></trkpt><trkpt lat="43.44400432778526" lon="11.892026229576988"><ele>285.0</ele><time>2026-04-12T07:51:08Z</time></trkpt><trkpt lat="43.44397330795932" lon="11.891871876358609"><ele>285.0</ele><time>2026-04-12T07:51:09Z</time></trkpt><trkpt lat="43.443917179182584" lon="11.891702983903022"><ele>285.0</ele><time>2026-04-12T07:51:10Z</time></trkpt><trkpt lat="43.44384777457034" lon="11.8915523529169"><ele>285.0</ele><time>2026-04-12T07:51:11Z</time></trkpt><trkpt lat="43.4437624256083" lon="11.891470475974824"><ele>285.1666666666667</ele><time>2026-04-12T07:51:12Z</time></trkpt><trkpt lat="43.443709203914345" lon="11.891363256203677"><ele>285.3333333333333</ele><time>2026-04-12T07:51:13Z</time></trkpt><trkpt lat="43.44362076488687" lon="11.891404648269726"><ele>285.5</ele><time>2026-04-12T07:51:14Z</time></trkpt><trkpt lat="43.443548493217136" lon="11.891408960978682"><ele>285.66666666666663</ele><time>2026-04-12T07:51:17Z</time></trkpt><trkpt lat="43.4434909035564" lon="11.891451319913491"><ele>285.8333333333333</ele><time>2026-04-12T07:51:19Z</time></trkpt><trkpt lat="43.44345962435447" lon="11.89159611795922"><ele>286.0</ele><time>2026-04-12T07:51:20Z</time></trkpt><trkpt lat="43.443434879629" lon="11.89177996967993"><ele>286.0</ele><time>2026-04-12T07:51:21Z</time></trkpt><trkpt lat="43.443418258452716" lon="11.891977218452503"><ele>286.0</ele><time>2026-04-12T07:51:22Z</time></trkpt><trkpt lat="43.44338874479457" lon="11.892209005437596"><ele>286.0</ele><time>2026-04-12T07:51:23Z</time></trkpt><trkpt lat="43.44334302427526" lon="11.892511471738183"><ele>289.5</ele><time>2026-04-12T07:51:24Z</time></trkpt><trkpt lat="43.44328416938302" lon="11.892887774882453"><ele>293.0</ele><time>2026-04-12T07:51:25Z</time></trkpt><trkpt lat="43.443207336929134" lon="11.893324839519844"><ele>298.0</ele><time>2026-04-12T07:51:26Z</time></trkpt><trkpt lat="43.44313311985286" lon="11.893781025793553"><ele>303.0</ele><time>2026-04-12T07:51:27Z</time></trkpt><trkpt lat="43.443052961919136" lon="11.8942168514917"><ele>301.5</ele><time>2026-04-12T07:51:28Z</time></trkpt><trkpt lat="43.442980473709596" lon="11.894623701203406"><ele>300.0</ele><time>2026-04-12T07:51:29Z</time></trkpt><trkpt lat="43.442921304520986" lon="11.89501357927654"><ele>300.5</ele><time>2026-04-12T07:51:30Z</time></trkpt><trkpt lat="43.44286776249817" lon="11.89540643143643"><ele>301.0</ele><time>2026-04-12T07:51:31Z</time></trkpt><trkpt lat="43.442818029440836" lon="11.895800362444826"><ele>303.5</ele><time>2026-04-12T07:51:32Z</time></trkpt><trkpt lat="43.442765019083986" lon="11.896187937919413"><ele>306.0</ele><time>2026-04-12T07:51:33Z</time></trkpt><trkpt lat="43.442699962464324" lon="11.896561745059538"><ele>310.5</ele><time>2026-04-12T07:51:34Z</time></trkpt><trkpt lat="43.44261478817649" lon="11.896915108201746"><ele>315.0</ele><time>2026-04-12T07:51:35Z</time></trkpt><trkpt lat="43.44249346131898" lon="11.897239157117312"><ele>315.0</ele><time>2026-04-12T07:51:36Z</time></trkpt><trkpt lat="43.44236343050096" lon="11.89754252314636"><ele>315.0</ele><time>2026-04-12T07:51:37Z</time></trkpt><trkpt lat="43.44221399783459" lon="11.89782011733503"><ele>312.5</ele><time>2026-04-12T07:51:38Z</time></trkpt><trkpt lat="43.44205212657387" lon="11.898072339886124"><ele>310.0</ele><time>2026-04-12T07:51:39Z</time></trkpt><trkpt lat="43.441877234138595" lon="11.898299533075836"><ele>317.5</ele><time>2026-04-12T07:51:40Z</time></trkpt><trkpt lat="43.4416903757694" lon="11.898498509684583"><ele>325.0</ele><time>2026-04-12T07:51:41Z</time></trkpt><trkpt lat="43.44149513671427" lon="11.89867402829805"><ele>325.0</ele><time>2026-04-12T07:51:42Z</time></trkpt><trkpt lat="43.44129579242878" lon="11.898821041498366"><ele>325.0</ele><time>2026-04-12T07:51:43Z</time></trkpt><trkpt lat="43.4410942512351" lon="11.89894185788622"><ele>325.0</ele><time>2026-04-12T07:51:44Z</time></trkpt><trkpt lat="43.44087881260342" lon="11.899039308616324"><ele>325.0</ele><time>2026-04-12T07:51:45Z</time></trkpt><trkpt lat="43.440657942904544" lon="11.899113926248113"><ele>325.0</ele><time>2026-04-12T07:51:46Z</time></trkpt><trkpt lat="43.44042077398112" lon="11.899163409522517"><ele>326.5</ele><time>2026-04-12T07:51:47Z</time></trkpt><trkpt lat="43.440177962114795" lon="11.899181557876535"><ele>328.0</ele><time>2026-04-12T07:51:48Z</time></trkpt><trkpt lat="43.43992387549199" lon="11.89918944416772"><ele>328.0</ele><time>2026-04-12T07:51:49Z</time></trkpt><trkpt lat="43.439645458816564" lon="11.899212222219775"><ele>328.0</ele><time>2026-04-12T07:51:50Z</time></trkpt><trkpt lat="43.43939715521776" lon="11.899207356898616"><ele>330.0</ele><time>2026-04-12T07:51:51Z</time></trkpt><trkpt lat="43.43913375574092" lon="11.899237443639255"><ele>332.0</ele><time>2026-04-12T07:51:52Z</time></trkpt><trkpt lat="43.438874887258386" lon="11.899282295307065"><ele>331.0</ele><time>2026-04-12T07:51:53Z</time></trkpt><trkpt lat="43.4385972208294" lon="11.899366500739017"><ele>330.0</ele><time>2026-04-12T07:51:54Z</time></trkpt><trkpt lat="43.43834857655444" lon="11.899500776271772"><ele>330.0</ele><time>2026-04-12T07:51:55Z</time></trkpt><trkpt lat="43.438112636600195" lon="11.899674130745137"><ele>330.0</ele><time>2026-04-12T07:51:56Z</time></trkpt><trkpt lat="43.43789023399335" lon="11.89987606220029"><ele>335.0</ele><time>2026-04-12T07:51:57Z</time></trkpt><trkpt lat="43.43767895539853" lon="11.900093345092937"><ele>340.0</ele><time>2026-04-12T07:51:58Z</time></trkpt><trkpt lat="43.43748723587465" lon="11.900327250343045"><ele>340.0</ele><time>2026-04-12T07:51:59Z</time></trkpt><trkpt lat="43.43731844695654" lon="11.900595901904513"><ele>340.0</ele><time>2026-04-12T07:52:00Z</time></trkpt><trkpt lat="43.437169352723" lon="11.900884039200355"><ele>336.0</ele><time>2026-04-12T07:52:01Z</time></trkpt><trkpt lat="43.43704462883806" lon="11.901185246925426"><ele>332.0</ele><time>2026-04-12T07:52:02Z</time></trkpt><trkpt lat="43.43694255483523" lon="11.901506342277095"><ele>336.0</ele><time>2026-04-12T07:52:03Z</time></trkpt><trkpt lat="43.43686263278133" lon="11.901839122862267"><ele>340.0</ele><time>2026-04-12T07:52:04Z</time></trkpt><trkpt lat="43.43680121435463" lon="11.90217832378336"><ele>340.0</ele><time>2026-04-12T07:52:05Z</time></trkpt><trkpt lat="43.43675811497456" lon="11.90252461172871"><ele>340.0</ele><time>2026-04-12T07:52:06Z</time></trkpt><trkpt lat="43.43674063435404" lon="11.902877925975657"><ele>340.5</ele><time>2026-04-12T07:52:07Z</time></trkpt><trkpt lat="43.43675005869307" lon="11.903229496954811"><ele>341.0</ele><time>2026-04-12T07:52:08Z</time></trkpt><trkpt lat="43.43677214742448" lon="11.90357975300623"><ele>340.0</ele><time>2026-04-12T07:52:09Z</time></trkpt><trkpt lat="43.436795317011494" lon="11.90393235824073"><ele>339.0</ele><time>2026-04-12T07:52:10Z</time></trkpt><trkpt lat="43.43680104369291" lon="11.904291014768756"><ele>345.5</ele><time>2026-04-12T07:52:11Z</time></trkpt><trkpt lat="43.43677099586136" lon="11.904653171318648"><ele>352.0</ele><time>2026-04-12T07:52:12Z</time></trkpt><trkpt lat="43.43672760879871" lon="11.905024159382702"><ele>358.5</ele><time>2026-04-12T07:52:13Z</time></trkpt><trkpt lat="43.43665126285312" lon="11.905396788792787"><ele>365.0</ele><time>2026-04-12T07:52:14Z</time></trkpt><trkpt lat="43.4365555143118" lon="11.905796132535455"><ele>368.5</ele><time>2026-04-12T07:52:15Z</time></trkpt><trkpt lat="43.4364600096437" lon="11.90622724788408"><ele>372.0</ele><time>2026-04-12T07:52:16Z</time></trkpt><trkpt lat="43.436354129506334" lon="11.906652424475007"><ele>376.5</ele><time>2026-04-12T07:52:17Z</time></trkpt><trkpt lat="43.436252074710744" lon="11.90707493065366"><ele>381.0</ele><time>2026-04-12T07:52:18Z</time></trkpt><trkpt lat="43.436153179395696" lon="11.907483924613821"><ele>375.5</ele><time>2026-04-12T07:52:19Z</time></trkpt><trkpt lat="43.436036939372556" lon="11.907870129741289"><ele>370.0</ele><time>2026-04-12T07:52:20Z</time></trkpt><trkpt lat="43.43589784582764" lon="11.908222452480516"><ele>365.5</ele><time>2026-04-12T07:52:21Z</time></trkpt><trkpt lat="43.435718883136616" lon="11.908531395380555"><ele>361.0</ele><time>2026-04-12T07:52:22Z</time></trkpt><trkpt lat="43.43552858560247" lon="11.908819273797404"><ele>364.0</ele><time>2026-04-12T07:52:23Z</time></trkpt><trkpt lat="43.4353207684196" lon="11.909080593722805"><ele>367.0</ele><time>2026-04-12T07:52:24Z</time></trkpt><trkpt lat="43.43509125847406" lon="11.90931468777072"><ele>367.0</ele><time>2026-04-12T07:52:25Z</time></trkpt><trkpt lat="43.43484265411316" lon="11.909523638868444"><ele>367.0</ele><time>2026-04-12T07:52:26Z</time></trkpt><trkpt lat="43.434595777361444" lon="11.909757047851754"><ele>372.0</ele><time>2026-04-12T07:52:27Z</time></trkpt><trkpt lat="43.43433059151075" lon="11.909973681549594"><ele>377.0</ele><time>2026-04-12T07:52:28Z</time></trkpt><trkpt lat="43.434056313373205" lon="11.910199380691338"><ele>383.5</ele><time>2026-04-12T07:52:29Z</time></trkpt><trkpt lat="43.43377111038868" lon="11.91043438420943"><ele>390.0</ele><time>2026-04-12T07:52:30Z</time></trkpt><trkpt lat="43.43348426947253" lon="11.910678329357879"><ele>393.0</ele><time>2026-04-12T07:52:31Z</time></trkpt><trkpt lat="43.43321102302495" lon="11.910926426055639"><ele>396.0</ele><time>2026-04-12T07:52:32Z</time></trkpt><trkpt lat="43.43295649138299" lon="11.911186313722743"><ele>396.0</ele><time>2026-04-12T07:52:33Z</time></trkpt><trkpt lat="43.432722032274285" lon="11.911469399234715"><ele>396.0</ele><time>2026-04-12T07:52:34Z</time></trkpt><trkpt lat="43.43250852955833" lon="11.911771522096899"><ele>396.0</ele><time>2026-04-12T07:52:35Z</time></trkpt><trkpt lat="43.432309764168174" lon="11.912084589981143"><ele>396.0</ele><time>2026-04-12T07:52:36Z</time></trkpt><trkpt lat="43.43212960700787" lon="11.912407463178821"><ele>401.5</ele><time>2026-04-12T07:52:37Z</time></trkpt><trkpt lat="43.43197111047122" lon="11.912743692015637"><ele>407.0</ele><time>2026-04-12T07:52:38Z</time></trkpt><trkpt lat="43.43180210820788" lon="11.913111730186918"><ele>407.5</ele><time>2026-04-12T07:52:39Z</time></trkpt><trkpt lat="43.431657470733796" lon="11.913499099777512"><ele>408.0</ele><time>2026-04-12T07:52:40Z</time></trkpt><trkpt lat="43.431539172770066" lon="11.913852853815719"><ele>408.0</ele><time>2026-04-12T07:52:41Z</time></trkpt><trkpt lat="43.43145954227873" lon="11.914208587234175"><ele>408.0</ele><time>2026-04-12T07:52:42Z</time></trkpt><trkpt lat="43.43136114305983" lon="11.914604543733626"><ele>412.0</ele><time>2026-04-12T07:52:43Z</time></trkpt><trkpt lat="43.43127355951838" lon="11.915025538338206"><ele>416.0</ele><time>2026-04-12T07:52:44Z</time></trkpt><trkpt lat="43.43117762259792" lon="11.915427252754236"><ele>416.0</ele><time>2026-04-12T07:52:45Z</time></trkpt><trkpt lat="43.43105290335518" lon="11.915814754452743"><ele>416.0</ele><time>2026-04-12T07:52:46Z</time></trkpt><trkpt lat="43.43090333594583" lon="11.916185943082638"><ele>409.5</ele><time>2026-04-12T07:52:47Z</time></trkpt><trkpt lat="43.43073171567213" lon="11.916541564485536"><ele>403.0</ele><time>2026-04-12T07:52:48Z</time></trkpt><trkpt lat="43.43052257984837" lon="11.916861292319338"><ele>407.0</ele><time>2026-04-12T07:52:49Z</time></trkpt><trkpt lat="43.430298039814026" lon="11.917156289695669"><ele>411.0</ele><time>2026-04-12T07:52:50Z</time></trkpt><trkpt lat="43.43005507504845" lon="11.917424869249475"><ele>409.5</ele><time>2026-04-12T07:52:51Z</time></trkpt><trkpt lat="43.429806521004" lon="11.917683122141844"><ele>408.0</ele><time>2026-04-12T07:52:52Z</time></trkpt><trkpt lat="43.429531860984866" lon="11.917891177993534"><ele>408.0</ele><time>2026-04-12T07:52:53Z</time></trkpt><trkpt lat="43.429246355543455" lon="11.918066102631704"><ele>408.0</ele><time>2026-04-12T07:52:54Z</time></trkpt><trkpt lat="43.42894842808978" lon="11.918189402169336"><ele>412.0</ele><time>2026-04-12T07:52:55Z</time></trkpt><trkpt lat="43.42865358587524" lon="11.918326455820216"><ele>416.0</ele><time>2026-04-12T07:52:56Z</time></trkpt><trkpt lat="43.42835369411705" lon="11.918428559699796"><ele>410.5</ele><time>2026-04-12T07:52:57Z</time></trkpt><trkpt lat="43.42805452881769" lon="11.918520674817723"><ele>405.0</ele><time>2026-04-12T07:52:58Z</time></trkpt><trkpt lat="43.427753976129814" lon="11.918619785678574"><ele>405.0</ele><time>2026-04-12T07:52:59Z</time></trkpt><trkpt lat="43.4274537132254" lon="11.91872028079923"><ele>405.0</ele><time>2026-04-12T07:53:00Z</time></trkpt><trkpt lat="43.427151701768125" lon="11.918824153372586"><ele>412.5</ele><time>2026-04-12T07:53:01Z</time></trkpt><trkpt lat="43.4268473685643" lon="11.918928024525817"><ele>420.0</ele><time>2026-04-12T07:53:02Z</time></trkpt><trkpt lat="43.42654381835551" lon="11.91903783622837"><ele>423.0</ele><time>2026-04-12T07:53:03Z</time></trkpt><trkpt lat="43.42624411544215" lon="11.919163909635468"><ele>426.0</ele><time>2026-04-12T07:53:04Z</time></trkpt><trkpt lat="43.42595009089008" lon="11.919317750118307"><ele>426.0</ele><time>2026-04-12T07:53:04.999Z</time></trkpt><trkpt lat="43.42566271453318" lon="11.919495775545359"><ele>426.0</ele><time>2026-04-12T07:53:05.999Z</time></trkpt><trkpt lat="43.42538579354691" lon="11.919690223497826"><ele>428.5</ele><time>2026-04-12T07:53:06.999Z</time></trkpt><trkpt lat="43.4251154980589" lon="11.919889467728622"><ele>431.0</ele><time>2026-04-12T07:53:08.001Z</time></trkpt><trkpt lat="43.424846322866536" lon="11.920086534783673"><ele>431.0</ele><time>2026-04-12T07:53:09.001Z</time></trkpt><trkpt lat="43.424574531156" lon="11.920279296476037"><ele>431.0</ele><time>2026-04-12T07:53:10.001Z</time></trkpt><trkpt lat="43.42430384482987" lon="11.920471171135"><ele>431.0</ele><time>2026-04-12T07:53:11.001Z</time></trkpt><trkpt lat="43.42403117867414" lon="11.920664918217131"><ele>431.0</ele><time>2026-04-12T07:53:12.001Z</time></trkpt><trkpt lat="43.423758985827874" lon="11.920854319861052"><ele>435.0</ele><time>2026-04-12T07:53:13.001Z</time></trkpt><trkpt lat="43.423487045849306" lon="11.921046605135118"><ele>439.0</ele><time>2026-04-12T07:53:14.001Z</time></trkpt><trkpt lat="43.42321634052002" lon="11.921240286160513"><ele>445.0</ele><time>2026-04-12T07:53:15.001Z</time></trkpt><trkpt lat="43.42294388305457" lon="11.92143431415705"><ele>451.0</ele><time>2026-04-12T07:53:16.001Z</time></trkpt><trkpt lat="43.422666860876895" lon="11.921632765055982"><ele>455.0</ele><time>2026-04-12T07:53:17.001Z</time></trkpt><trkpt lat="43.42238557684499" lon="11.921833701279038"><ele>459.0</ele><time>2026-04-12T07:53:18Z</time></trkpt><trkpt lat="43.42210103289808" lon="11.922044955468783"><ele>459.0</ele><time>2026-04-12T07:53:19Z</time></trkpt><trkpt lat="43.42181231923019" lon="11.922277617739063"><ele>459.0</ele><time>2026-04-12T07:53:20Z</time></trkpt><trkpt lat="43.42152168842033" lon="11.922539750916632"><ele>453.5</ele><time>2026-04-12T07:53:21Z</time></trkpt><trkpt lat="43.42121673200109" lon="11.922802325319282"><ele>448.0</ele><time>2026-04-12T07:53:22Z</time></trkpt><trkpt lat="43.42091675814684" lon="11.923093764279542"><ele>448.0</ele><time>2026-04-12T07:53:23Z</time></trkpt><trkpt lat="43.42061220696036" lon="11.923395879343474"><ele>448.0</ele><time>2026-04-12T07:53:24Z</time></trkpt><trkpt lat="43.42030470004501" lon="11.923702089218754"><ele>451.5</ele><time>2026-04-12T07:53:25Z</time></trkpt><trkpt lat="43.419995826213515" lon="11.923993004508912"><ele>455.0</ele><time>2026-04-12T07:53:26Z</time></trkpt><trkpt lat="43.41970008000589" lon="11.924288612397397"><ele>467.0</ele><time>2026-04-12T07:53:27Z</time></trkpt><trkpt lat="43.41941389264626" lon="11.924574495510196"><ele>479.0</ele><time>2026-04-12T07:53:28Z</time></trkpt><trkpt lat="43.41913791633862" lon="11.924843049142176"><ele>477.0</ele><time>2026-04-12T07:53:29Z</time></trkpt><trkpt lat="43.41887941381095" lon="11.92510677319509"><ele>475.0</ele><time>2026-04-12T07:53:30Z</time></trkpt><trkpt lat="43.41862532870498" lon="11.92536601174513"><ele>475.0</ele><time>2026-04-12T07:53:31Z</time></trkpt><trkpt lat="43.41837886589806" lon="11.925618262448342"><ele>475.0</ele><time>2026-04-12T07:53:32Z</time></trkpt><trkpt lat="43.41814428754094" lon="11.925885497462698"><ele>482.5</ele><time>2026-04-12T07:53:33Z</time></trkpt><trkpt lat="43.41793201147727" lon="11.926176540108798"><ele>490.0</ele><time>2026-04-12T07:53:34Z</time></trkpt><trkpt lat="43.41773913157975" lon="11.926489715994085"><ele>485.0</ele><time>2026-04-12T07:53:35Z</time></trkpt><trkpt lat="43.41757291582942" lon="11.926823839701541"><ele>480.0</ele><time>2026-04-12T07:53:36Z</time></trkpt><trkpt lat="43.417424332793104" lon="11.92717784766933"><ele>480.0</ele><time>2026-04-12T07:53:37Z</time></trkpt><trkpt lat="43.417301552133964" lon="11.927548110892435"><ele>480.0</ele><time>2026-04-12T07:53:38Z</time></trkpt><trkpt lat="43.41719917837637" lon="11.927935783594506"><ele>489.5</ele><time>2026-04-12T07:53:39Z</time></trkpt><trkpt lat="43.417114071826894" lon="11.92833561633464"><ele>499.0</ele><time>2026-04-12T07:53:40Z</time></trkpt><trkpt lat="43.41703771133238" lon="11.928742770104133"><ele>501.5</ele><time>2026-04-12T07:53:40.999Z</time></trkpt><trkpt lat="43.4169717254891" lon="11.929156159201307"><ele>504.0</ele><time>2026-04-12T07:53:41.999Z</time></trkpt><trkpt lat="43.416901883129604" lon="11.929568945904874"><ele>503.5</ele><time>2026-04-12T07:53:42.999Z</time></trkpt><trkpt lat="43.41682904993078" lon="11.929980484174875"><ele>503.0</ele><time>2026-04-12T07:53:43.999Z</time></trkpt><trkpt lat="43.41675069887888" lon="11.930387772772582"><ele>503.0</ele><time>2026-04-12T07:53:44.999Z</time></trkpt><trkpt lat="43.41667545666581" lon="11.930785425312914"><ele>503.0</ele><time>2026-04-12T07:53:45.999Z</time></trkpt><trkpt lat="43.416600684702814" lon="11.931173163179922"><ele>505.5</ele><time>2026-04-12T07:53:46.999Z</time></trkpt><trkpt lat="43.41653226445496" lon="11.931550086142517"><ele>508.0</ele><time>2026-04-12T07:53:47.999Z</time></trkpt><trkpt lat="43.41648056413521" lon="11.931922478207959"><ele>509.0</ele><time>2026-04-12T07:53:48.999Z</time></trkpt><trkpt lat="43.41645701068987" lon="11.932298385188437"><ele>510.0</ele><time>2026-04-12T07:53:49.999Z</time></trkpt><trkpt lat="43.4164610802969" lon="11.932676168811078"><ele>510.0</ele><time>2026-04-12T07:53:50.999Z</time></trkpt><trkpt lat="43.41649377722659" lon="11.933053019313347"><ele>510.0</ele><time>2026-04-12T07:53:51.999Z</time></trkpt><trkpt lat="43.416560869629066" lon="11.933414115917934"><ele>505.0</ele><time>2026-04-12T07:53:52.999Z</time></trkpt><trkpt lat="43.416648420777825" lon="11.933765543278142"><ele>500.0</ele><time>2026-04-12T07:53:53.999Z</time></trkpt><trkpt lat="43.416766946792194" lon="11.934095462089303"><ele>495.5</ele><time>2026-04-12T07:53:54.999Z</time></trkpt><trkpt lat="43.4169078477722" lon="11.934415233064405"><ele>491.0</ele><time>2026-04-12T07:53:55.999Z</time></trkpt><trkpt lat="43.417071660058504" lon="11.934716484017565"><ele>491.5</ele><time>2026-04-12T07:53:56.999Z</time></trkpt><trkpt lat="43.417249725126304" lon="11.935003493833834"><ele>492.0</ele><time>2026-04-12T07:53:57.999Z</time></trkpt><trkpt lat="43.41744365093508" lon="11.935273838004077"><ele>492.0</ele><time>2026-04-12T07:53:58.999Z</time></trkpt><trkpt lat="43.417643405901416" lon="11.935540567727378"><ele>492.0</ele><time>2026-04-12T07:53:59.999Z</time></trkpt><trkpt lat="43.41784484687387" lon="11.935805522544701"><ele>492.5</ele><time>2026-04-12T07:54:00.999Z</time></trkpt><trkpt lat="43.41804328277416" lon="11.93607623522402"><ele>493.0</ele><time>2026-04-12T07:54:01.999Z</time></trkpt><trkpt lat="43.41824339393065" lon="11.936348780588354"><ele>493.0</ele><time>2026-04-12T07:54:02.999Z</time></trkpt><trkpt lat="43.418443341342616" lon="11.936623687883262"><ele>493.0</ele><time>2026-04-12T07:54:03.999Z</time></trkpt><trkpt lat="43.41864322929038" lon="11.93689256177094"><ele>497.0</ele><time>2026-04-12T07:54:04.999Z</time></trkpt><trkpt lat="43.41884950415347" lon="11.937149408164641"><ele>501.0</ele><time>2026-04-12T07:54:05.999Z</time></trkpt><trkpt lat="43.419065494686116" lon="11.937392384397748"><ele>492.0</ele><time>2026-04-12T07:54:06.999Z</time></trkpt><trkpt lat="43.419292641993906" lon="11.937618603422898"><ele>483.0</ele><time>2026-04-12T07:54:07.999Z</time></trkpt><trkpt lat="43.419529957400215" lon="11.937830209149599"><ele>485.5</ele><time>2026-04-12T07:54:08.999Z</time></trkpt><trkpt lat="43.419777702368364" lon="11.938023740857233"><ele>488.0</ele><time>2026-04-12T07:54:09.999Z</time></trkpt><trkpt lat="43.420035381390754" lon="11.938197305920777"><ele>488.0</ele><time>2026-04-12T07:54:10.999Z</time></trkpt><trkpt lat="43.420302054336176" lon="11.93835365875298"><ele>488.0</ele><time>2026-04-12T07:54:11.999Z</time></trkpt><trkpt lat="43.42057369551508" lon="11.938494200661232"><ele>482.5</ele><time>2026-04-12T07:54:12.999Z</time></trkpt><trkpt lat="43.42085036240585" lon="11.93861586564901"><ele>477.0</ele><time>2026-04-12T07:54:13.999Z</time></trkpt><trkpt lat="43.42112839009695" lon="11.938730105240076"><ele>482.0</ele><time>2026-04-12T07:54:14.999Z</time></trkpt><trkpt lat="43.42140536769312" lon="11.938842125552934"><ele>487.0</ele><time>2026-04-12T07:54:15.999Z</time></trkpt><trkpt lat="43.42168190357595" lon="11.938952570669723"><ele>487.0</ele><time>2026-04-12T07:54:16.999Z</time></trkpt><trkpt lat="43.42195585944054" lon="11.939067476294912"><ele>487.0</ele><time>2026-04-12T07:54:17.999Z</time></trkpt><trkpt lat="43.42222867244399" lon="11.939184366061776"><ele>480.0</ele><time>2026-04-12T07:54:18.999Z</time></trkpt><trkpt lat="43.42250121229772" lon="11.939302896219917"><ele>473.0</ele><time>2026-04-12T07:54:19.999Z</time></trkpt><trkpt lat="43.42277401185453" lon="11.939416126367945"><ele>474.0</ele><time>2026-04-12T07:54:20.999Z</time></trkpt><trkpt lat="43.42304659059032" lon="11.939528572219357"><ele>475.0</ele><time>2026-04-12T07:54:21.999Z</time></trkpt><trkpt lat="43.42331938679984" lon="11.939640814244271"><ele>475.0</ele><time>2026-04-12T07:54:22.999Z</time></trkpt><trkpt lat="43.42359063311164" lon="11.93975443160539"><ele>475.0</ele><time>2026-04-12T07:54:23.999Z</time></trkpt><trkpt lat="43.42386265139882" lon="11.939865774262508"><ele>476.5</ele><time>2026-04-12T07:54:24.999Z</time></trkpt><trkpt lat="43.42413500289898" lon="11.93997761551361"><ele>478.0</ele><time>2026-04-12T07:54:25.999Z</time></trkpt><trkpt lat="43.424406603907684" lon="11.940090168390178"><ele>470.0</ele><time>2026-04-12T07:54:26.999Z</time></trkpt><trkpt lat="43.42467700601247" lon="11.940208024742956"><ele>462.0</ele><time>2026-04-12T07:54:27.999Z</time></trkpt><trkpt lat="43.4249463399166" lon="11.940326657727695"><ele>462.0</ele><time>2026-04-12T07:54:28.999Z</time></trkpt><trkpt lat="43.42521315255398" lon="11.940454492624445"><ele>462.0</ele><time>2026-04-12T07:54:29.999Z</time></trkpt><trkpt lat="43.425475989234286" lon="11.940600883587784"><ele>460.0</ele><time>2026-04-12T07:54:30.999Z</time></trkpt><trkpt lat="43.42572779427594" lon="11.940779175777505"><ele>458.0</ele><time>2026-04-12T07:54:31.999Z</time></trkpt><trkpt lat="43.425967095734215" lon="11.940991589365177"><ele>458.0</ele><time>2026-04-12T07:54:32.999Z</time></trkpt><trkpt lat="43.426195727452324" lon="11.941221404162814"><ele>458.0</ele><time>2026-04-12T07:54:33.999Z</time></trkpt><trkpt lat="43.426407330094605" lon="11.941478800650591"><ele>460.0</ele><time>2026-04-12T07:54:34.999Z</time></trkpt><trkpt lat="43.42660468996903" lon="11.941756661372562"><ele>462.0</ele><time>2026-04-12T07:54:35.999Z</time></trkpt><trkpt lat="43.42678454593241" lon="11.942053568761814"><ele>462.0</ele><time>2026-04-12T07:54:36.999Z</time></trkpt><trkpt lat="43.42694250844656" lon="11.942373834647475"><ele>462.0</ele><time>2026-04-12T07:54:37.999Z</time></trkpt><trkpt lat="43.42708570162042" lon="11.942709941767848"><ele>460.5</ele><time>2026-04-12T07:54:38.999Z</time></trkpt><trkpt lat="43.42721224469337" lon="11.943058269209393"><ele>459.0</ele><time>2026-04-12T07:54:39.999Z</time></trkpt><trkpt lat="43.42731636412853" lon="11.943417461821028"><ele>459.0</ele><time>2026-04-12T07:54:40.999Z</time></trkpt><trkpt lat="43.42739341557592" lon="11.943789581566591"><ele>459.0</ele><time>2026-04-12T07:54:41.999Z</time></trkpt><trkpt lat="43.42745562480262" lon="11.94416616866743"><ele>458.0</ele><time>2026-04-12T07:54:42.999Z</time></trkpt><trkpt lat="43.42749527305876" lon="11.944551029681882"><ele>457.0</ele><time>2026-04-12T07:54:43.999Z</time></trkpt><trkpt lat="43.427514704040924" lon="11.944936674576818"><ele>459.5</ele><time>2026-04-12T07:54:44.999Z</time></trkpt><trkpt lat="43.42750906155612" lon="11.94532401559665"><ele>462.0</ele><time>2026-04-12T07:54:45.999Z</time></trkpt><trkpt lat="43.427483563519694" lon="11.94571033169031"><ele>463.5</ele><time>2026-04-12T07:54:46.999Z</time></trkpt><trkpt lat="43.427433511807536" lon="11.946091903272487"><ele>465.0</ele><time>2026-04-12T07:54:47.999Z</time></trkpt><trkpt lat="43.42735779384881" lon="11.94646626947125"><ele>465.5</ele><time>2026-04-12T07:54:48.999Z</time></trkpt><trkpt lat="43.42727054666299" lon="11.94683581734441"><ele>466.0</ele><time>2026-04-12T07:54:49.999Z</time></trkpt><trkpt lat="43.42716395008454" lon="11.947196507991453"><ele>458.5</ele><time>2026-04-12T07:54:50.999Z</time></trkpt><trkpt lat="43.427039672065675" lon="11.947546676427406"><ele>451.0</ele><time>2026-04-12T07:54:51.999Z</time></trkpt><trkpt lat="43.42691414767898" lon="11.947895201846208"><ele>451.0</ele><time>2026-04-12T07:54:52.999Z</time></trkpt><trkpt lat="43.42679295523463" lon="11.948248791200292"><ele>451.0</ele><time>2026-04-12T07:54:53.999Z</time></trkpt><trkpt lat="43.42667679120897" lon="11.948603558025086"><ele>450.0</ele><time>2026-04-12T07:54:54.999Z</time></trkpt><trkpt lat="43.42655872342482" lon="11.948959903055773"><ele>449.0</ele><time>2026-04-12T07:54:55.999Z</time></trkpt><trkpt lat="43.42644262273683" lon="11.949308983004398"><ele>450.0</ele><time>2026-04-12T07:54:56.999Z</time></trkpt><trkpt lat="43.42633345457178" lon="11.94963909781608"><ele>451.0</ele><time>2026-04-12T07:54:57.999Z</time></trkpt><trkpt lat="43.42622787069409" lon="11.94994971492668"><ele>452.0</ele><time>2026-04-12T07:54:58.999Z</time></trkpt><trkpt lat="43.42612978878921" lon="11.950245143618496"><ele>453.0</ele><time>2026-04-12T07:54:59.999Z</time></trkpt><trkpt lat="43.4260373738803" lon="11.950524935685056"><ele>453.0</ele><time>2026-04-12T07:55:00.999Z</time></trkpt><trkpt lat="43.42595676763171" lon="11.950796550739609"><ele>453.0</ele><time>2026-04-12T07:55:01.999Z</time></trkpt><trkpt lat="43.42588421040741" lon="11.951043179781768"><ele>453.0</ele><time>2026-04-12T07:55:02.999Z</time></trkpt><trkpt lat="43.425811071181364" lon="11.951266579303116"><ele>451.33333333333337</ele><time>2026-04-12T07:55:03.999Z</time></trkpt><trkpt lat="43.42572943308539" lon="11.951462374201157"><ele>449.6666666666667</ele><time>2026-04-12T07:55:04.999Z</time></trkpt><trkpt lat="43.425638539433876" lon="11.95164032151433"><ele>448.0</ele><time>2026-04-12T07:55:05.999Z</time></trkpt><trkpt lat="43.4255740196642" lon="11.951834286094725"><ele>445.33333333333337</ele><time>2026-04-12T07:55:06.999Z</time></trkpt><trkpt lat="43.42555085043469" lon="11.952066257439556"><ele>442.66666666666663</ele><time>2026-04-12T07:55:07.999Z</time></trkpt><trkpt lat="43.425565725660206" lon="11.952340215269093"><ele>440.0</ele><time>2026-04-12T07:55:08.999Z</time></trkpt><trkpt lat="43.42556657243714" lon="11.952644155262591"><ele>439.5</ele><time>2026-04-12T07:55:09.999Z</time></trkpt><trkpt lat="43.42551548027951" lon="11.952966928458979"><ele>439.0</ele><time>2026-04-12T07:55:10.999Z</time></trkpt><trkpt lat="43.425444906350286" lon="11.953303049818444"><ele>440.5</ele><time>2026-04-12T07:55:11.999Z</time></trkpt><trkpt lat="43.4253839924387" lon="11.95365074988224"><ele>442.0</ele><time>2026-04-12T07:55:12.999Z</time></trkpt><trkpt lat="43.4253298580297" lon="11.954008553242774"><ele>439.5</ele><time>2026-04-12T07:55:14Z</time></trkpt><trkpt lat="43.42527274486523" lon="11.954360408830084"><ele>437.0</ele><time>2026-04-12T07:55:15Z</time></trkpt><trkpt lat="43.42521670758232" lon="11.95470930197713"><ele>436.0</ele><time>2026-04-12T07:55:16Z</time></trkpt><trkpt lat="43.425161532787364" lon="11.955053869793156"><ele>435.0</ele><time>2026-04-12T07:55:17Z</time></trkpt><trkpt lat="43.42510811184941" lon="11.955396064321487"><ele>435.0</ele><time>2026-04-12T07:55:18Z</time></trkpt><trkpt lat="43.425050500193095" lon="11.955739216487599"><ele>435.0</ele><time>2026-04-12T07:55:19Z</time></trkpt><trkpt lat="43.42499513345312" lon="11.956082424709283"><ele>436.0</ele><time>2026-04-12T07:55:20Z</time></trkpt><trkpt lat="43.424939658958955" lon="11.956429079846375"><ele>437.0</ele><time>2026-04-12T07:55:21Z</time></trkpt><trkpt lat="43.424884079604595" lon="11.956777706913456"><ele>439.0</ele><time>2026-04-12T07:55:22Z</time></trkpt><trkpt lat="43.42482489880716" lon="11.957126661469257"><ele>441.0</ele><time>2026-04-12T07:55:23Z</time></trkpt><trkpt lat="43.424768494525445" lon="11.957479903955617"><ele>441.0</ele><time>2026-04-12T07:55:24Z</time></trkpt><trkpt lat="43.424710437861165" lon="11.957836272716781"><ele>441.0</ele><time>2026-04-12T07:55:25Z</time></trkpt><trkpt lat="43.42465226222811" lon="11.958193275523843"><ele>434.5</ele><time>2026-04-12T07:55:26Z</time></trkpt><trkpt lat="43.424595431899924" lon="11.958551694538695"><ele>428.0</ele><time>2026-04-12T07:55:27Z</time></trkpt><trkpt lat="43.42453823204502" lon="11.958910279691978"><ele>425.0</ele><time>2026-04-12T07:55:28Z</time></trkpt><trkpt lat="43.42448131906578" lon="11.959270236169433"><ele>422.0</ele><time>2026-04-12T07:55:29Z</time></trkpt><trkpt lat="43.42442347409063" lon="11.959626807093994"><ele>422.0</ele><time>2026-04-12T07:55:30Z</time></trkpt><trkpt lat="43.42436523545538" lon="11.959983524454062"><ele>422.0</ele><time>2026-04-12T07:55:31Z</time></trkpt><trkpt lat="43.424305223374326" lon="11.96034054949165"><ele>423.0</ele><time>2026-04-12T07:55:32Z</time></trkpt><trkpt lat="43.42424504259656" lon="11.960696313290379"><ele>424.0</ele><time>2026-04-12T07:55:33Z</time></trkpt><trkpt lat="43.424186925762" lon="11.961051363112132"><ele>424.5</ele><time>2026-04-12T07:55:34Z</time></trkpt><trkpt lat="43.42412753179138" lon="11.961406951368167"><ele>425.0</ele><time>2026-04-12T07:55:35Z</time></trkpt><trkpt lat="43.42406780331822" lon="11.961763133113804"><ele>424.0</ele><time>2026-04-12T07:55:36Z</time></trkpt><trkpt lat="43.42400975158915" lon="11.962118623881214"><ele>423.0</ele><time>2026-04-12T07:55:37Z</time></trkpt><trkpt lat="43.42395099326317" lon="11.962474570608657"><ele>423.0</ele><time>2026-04-12T07:55:38Z</time></trkpt><trkpt lat="43.42389138020703" lon="11.962829813597093"><ele>423.0</ele><time>2026-04-12T07:55:39Z</time></trkpt><trkpt lat="43.42383233696271" lon="11.963185760076053"><ele>421.5</ele><time>2026-04-12T07:55:40Z</time></trkpt><trkpt lat="43.42377453587463" lon="11.96353942063689"><ele>420.0</ele><time>2026-04-12T07:55:41Z</time></trkpt><trkpt lat="43.423718058415076" lon="11.963898988443354"><ele>420.5</ele><time>2026-04-12T07:55:42Z</time></trkpt><trkpt lat="43.42366016190269" lon="11.964255133347015"><ele>421.0</ele><time>2026-04-12T07:55:43Z</time></trkpt><trkpt lat="43.423600842823696" lon="11.964616359547867"><ele>421.0</ele><time>2026-04-12T07:55:44Z</time></trkpt><trkpt lat="43.423537508547874" lon="11.96497615417294"><ele>421.0</ele><time>2026-04-12T07:55:45Z</time></trkpt><trkpt lat="43.42347120156254" lon="11.965339223789"><ele>422.0</ele><time>2026-04-12T07:55:46Z</time></trkpt><trkpt lat="43.42340234891485" lon="11.965690792324791"><ele>423.0</ele><time>2026-04-12T07:55:47Z</time></trkpt><trkpt lat="43.423336857674045" lon="11.966050945868657"><ele>420.0</ele><time>2026-04-12T07:55:48Z</time></trkpt><trkpt lat="43.423277472533975" lon="11.966417841704624"><ele>417.0</ele><time>2026-04-12T07:55:49Z</time></trkpt><trkpt lat="43.423239256858274" lon="11.96680315514466"><ele>414.0</ele><time>2026-04-12T07:55:50Z</time></trkpt><trkpt lat="43.42318225686317" lon="11.96713770136251"><ele>411.0</ele><time>2026-04-12T07:55:51Z</time></trkpt><trkpt lat="43.42313307228487" lon="11.9674806127082"><ele>409.5</ele><time>2026-04-12T07:55:52Z</time></trkpt><trkpt lat="43.42307892860845" lon="11.967833630408107"><ele>408.0</ele><time>2026-04-12T07:55:53Z</time></trkpt><trkpt lat="43.42302683275509" lon="11.968185927097302"><ele>407.5</ele><time>2026-04-12T07:55:54Z</time></trkpt><trkpt lat="43.422980868629004" lon="11.96854158977595"><ele>407.0</ele><time>2026-04-12T07:55:55Z</time></trkpt><trkpt lat="43.42295197672348" lon="11.968902180487433"><ele>407.0</ele><time>2026-04-12T07:55:56Z</time></trkpt><trkpt lat="43.42294005470825" lon="11.96926544914133"><ele>407.0</ele><time>2026-04-12T07:55:57Z</time></trkpt><trkpt lat="43.42294243978678" lon="11.969627526070191"><ele>407.0</ele><time>2026-04-12T07:55:58Z</time></trkpt><trkpt lat="43.42296202536831" lon="11.969988907432246"><ele>407.0</ele><time>2026-04-12T07:55:59Z</time></trkpt><trkpt lat="43.42299449140981" lon="11.97034841967338"><ele>409.0</ele><time>2026-04-12T07:56:00Z</time></trkpt><trkpt lat="43.423044718101586" lon="11.970704280830551"><ele>411.0</ele><time>2026-04-12T07:56:01Z</time></trkpt><trkpt lat="43.423111431974014" lon="11.971049238507273"><ele>412.0</ele><time>2026-04-12T07:56:02Z</time></trkpt><trkpt lat="43.423199104458455" lon="11.971392713585645"><ele>413.0</ele><time>2026-04-12T07:56:03Z</time></trkpt><trkpt lat="43.42329803816712" lon="11.971731367240407"><ele>411.0</ele><time>2026-04-12T07:56:04Z</time></trkpt><trkpt lat="43.42341338356522" lon="11.972058042109893"><ele>409.0</ele><time>2026-04-12T07:56:05Z</time></trkpt><trkpt lat="43.42353800163798" lon="11.972378476315212"><ele>407.0</ele><time>2026-04-12T07:56:06Z</time></trkpt><trkpt lat="43.42367841519314" lon="11.972687325121889"><ele>405.0</ele><time>2026-04-12T07:56:07Z</time></trkpt><trkpt lat="43.423833583713225" lon="11.972982358748974"><ele>407.5</ele><time>2026-04-12T07:56:08Z</time></trkpt><trkpt lat="43.42400146222975" lon="11.97326464781782"><ele>410.0</ele><time>2026-04-12T07:56:09Z</time></trkpt><trkpt lat="43.42418166870399" lon="11.97353412719294"><ele>410.0</ele><time>2026-04-12T07:56:10Z</time></trkpt><trkpt lat="43.42437413595226" lon="11.973784701326782"><ele>410.0</ele><time>2026-04-12T07:56:11Z</time></trkpt><trkpt lat="43.42457672675486" lon="11.974016640689571"><ele>407.0</ele><time>2026-04-12T07:56:12Z</time></trkpt><trkpt lat="43.42478098018697" lon="11.97424304940121"><ele>404.0</ele><time>2026-04-12T07:56:13Z</time></trkpt><trkpt lat="43.424972068331705" lon="11.974488659938013"><ele>404.0</ele><time>2026-04-12T07:56:14Z</time></trkpt><trkpt lat="43.42521728053957" lon="11.974648242943925"><ele>404.0</ele><time>2026-04-12T07:56:15Z</time></trkpt><trkpt lat="43.425466870268416" lon="11.974791839785128"><ele>403.5</ele><time>2026-04-12T07:56:16Z</time></trkpt><trkpt lat="43.42571381329817" lon="11.974930899743244"><ele>403.0</ele><time>2026-04-12T07:56:17Z</time></trkpt><trkpt lat="43.425963235814486" lon="11.975067092710097"><ele>403.0</ele><time>2026-04-12T07:56:18Z</time></trkpt><trkpt lat="43.42621578182271" lon="11.975194451784066"><ele>403.0</ele><time>2026-04-12T07:56:18.999Z</time></trkpt><trkpt lat="43.426465550170285" lon="11.97531659265702"><ele>403.5</ele><time>2026-04-12T07:56:19.999Z</time></trkpt><trkpt lat="43.42671743621013" lon="11.975443386630289"><ele>404.0</ele><time>2026-04-12T07:56:20.999Z</time></trkpt><trkpt lat="43.42696592983718" lon="11.975572826691153"><ele>407.0</ele><time>2026-04-12T07:56:21.999Z</time></trkpt><trkpt lat="43.42721538144146" lon="11.975702797040473"><ele>410.0</ele><time>2026-04-12T07:56:22.999Z</time></trkpt><trkpt lat="43.42746432565205" lon="11.975832008545387"><ele>405.0</ele><time>2026-04-12T07:56:23.999Z</time></trkpt><trkpt lat="43.4277130980102" lon="11.975959052829554"><ele>400.0</ele><time>2026-04-12T07:56:24.999Z</time></trkpt><trkpt lat="43.427963072031645" lon="11.976084899009981"><ele>400.5</ele><time>2026-04-12T07:56:25.999Z</time></trkpt><trkpt lat="43.428211211552366" lon="11.97621258738055"><ele>401.0</ele><time>2026-04-12T07:56:26.999Z</time></trkpt><trkpt lat="43.42845916238093" lon="11.97634169359146"><ele>401.0</ele><time>2026-04-12T07:56:27.999Z</time></trkpt><trkpt lat="43.42870797901429" lon="11.976472620626804"><ele>401.0</ele><time>2026-04-12T07:56:28.999Z</time></trkpt><trkpt lat="43.428956824605656" lon="11.976603009364693"><ele>398.5</ele><time>2026-04-12T07:56:29.999Z</time></trkpt><trkpt lat="43.42920426348578" lon="11.976733945202897"><ele>396.0</ele><time>2026-04-12T07:56:30.999Z</time></trkpt><trkpt lat="43.429451719683136" lon="11.976865268835883"><ele>396.0</ele><time>2026-04-12T07:56:31.999Z</time></trkpt><trkpt lat="43.429698486470464" lon="11.97699437720704"><ele>396.0</ele><time>2026-04-12T07:56:32.999Z</time></trkpt><trkpt lat="43.42994719673573" lon="11.977119447199714"><ele>396.0</ele><time>2026-04-12T07:56:33.999Z</time></trkpt><trkpt lat="43.430199302156154" lon="11.97723970158335"><ele>396.0</ele><time>2026-04-12T07:56:34.999Z</time></trkpt><trkpt lat="43.43045288281175" lon="11.977348636470442"><ele>396.0</ele><time>2026-04-12T07:56:35.999Z</time></trkpt><trkpt lat="43.43070966919868" lon="11.977446549094905"><ele>396.0</ele><time>2026-04-12T07:56:36.999Z</time></trkpt><trkpt lat="43.43096946717982" lon="11.977521470739932"><ele>396.0</ele><time>2026-04-12T07:56:37.999Z</time></trkpt><trkpt lat="43.43123162214089" lon="11.97757741185139"><ele>396.0</ele><time>2026-04-12T07:56:38.999Z</time></trkpt><trkpt lat="43.43149537659479" lon="11.977621577622111"><ele>395.5</ele><time>2026-04-12T07:56:39.999Z</time></trkpt><trkpt lat="43.431758484208494" lon="11.977643359774252"><ele>395.0</ele><time>2026-04-12T07:56:40.999Z</time></trkpt><trkpt lat="43.432022679496136" lon="11.977650087171085"><ele>395.5</ele><time>2026-04-12T07:56:41.999Z</time></trkpt><trkpt lat="43.43228770758014" lon="11.977638912663007"><ele>396.0</ele><time>2026-04-12T07:56:42.999Z</time></trkpt><trkpt lat="43.4325525332406" lon="11.977619474699042"><ele>396.0</ele><time>2026-04-12T07:56:43.999Z</time></trkpt><trkpt lat="43.43281714194667" lon="11.977599712526214"><ele>396.0</ele><time>2026-04-12T07:56:44.999Z</time></trkpt><trkpt lat="43.433082929732464" lon="11.977578716579208"><ele>398.0</ele><time>2026-04-12T07:56:45.999Z</time></trkpt><trkpt lat="43.43334725417321" lon="11.97755347361695"><ele>400.0</ele><time>2026-04-12T07:56:46.999Z</time></trkpt><trkpt lat="43.43361436547447" lon="11.977525086593609"><ele>414.5</ele><time>2026-04-12T07:56:47.999Z</time></trkpt><trkpt lat="43.43389057845492" lon="11.977490453931937"><ele>429.0</ele><time>2026-04-12T07:56:48.999Z</time></trkpt><trkpt lat="43.43416258857066" lon="11.977450829198881"><ele>429.0</ele><time>2026-04-12T07:56:49.999Z</time></trkpt><trkpt lat="43.43442939968962" lon="11.977404203183749"><ele>429.0</ele><time>2026-04-12T07:56:50.999Z</time></trkpt><trkpt lat="43.43470114334563" lon="11.977360310775842"><ele>431.5</ele><time>2026-04-12T07:56:51.999Z</time></trkpt><trkpt lat="43.4349712573301" lon="11.977316837962071"><ele>434.0</ele><time>2026-04-12T07:56:52.999Z</time></trkpt><trkpt lat="43.43525771923266" lon="11.977275332166009"><ele>419.5</ele><time>2026-04-12T07:56:54.065Z</time></trkpt><trkpt lat="43.43553035736881" lon="11.977231334279642"><ele>405.0</ele><time>2026-04-12T07:56:55.067Z</time></trkpt><trkpt lat="43.43601079016543" lon="11.977300648542398"><ele>405.0</ele><time>2026-04-12T07:56:56.999Z</time></trkpt><trkpt lat="43.43627533504698" lon="11.977281715275897"><ele>405.0</ele><time>2026-04-12T07:56:57.999Z</time></trkpt><trkpt lat="43.43652939338892" lon="11.977269308119952"><ele>399.5</ele><time>2026-04-12T07:56:58.999Z</time></trkpt><trkpt lat="43.43679366755176" lon="11.97727039367131"><ele>394.0</ele><time>2026-04-12T07:56:59.999Z</time></trkpt><trkpt lat="43.437056038019676" lon="11.977301337872534"><ele>393.5</ele><time>2026-04-12T07:57:00.999Z</time></trkpt><trkpt lat="43.43731778066888" lon="11.977348369363298"><ele>393.0</ele><time>2026-04-12T07:57:01.999Z</time></trkpt><trkpt lat="43.437581676136176" lon="11.977411615760488"><ele>393.0</ele><time>2026-04-12T07:57:02.999Z</time></trkpt><trkpt lat="43.43784001460012" lon="11.977495364068238"><ele>393.0</ele><time>2026-04-12T07:57:03.999Z</time></trkpt><trkpt lat="43.43809375113663" lon="11.977601737611975"><ele>393.5</ele><time>2026-04-12T07:57:04.999Z</time></trkpt><trkpt lat="43.438343682847226" lon="11.977722945681798"><ele>394.0</ele><time>2026-04-12T07:57:05.999Z</time></trkpt><trkpt lat="43.43858871456006" lon="11.97786287210391"><ele>393.5</ele><time>2026-04-12T07:57:06.999Z</time></trkpt><trkpt lat="43.438827517511974" lon="11.978024552167453"><ele>393.0</ele><time>2026-04-12T07:57:07.999Z</time></trkpt><trkpt lat="43.43905870276284" lon="11.978204655446868"><ele>400.5</ele><time>2026-04-12T07:57:08.999Z</time></trkpt><trkpt lat="43.439283521848346" lon="11.97840059431098"><ele>408.0</ele><time>2026-04-12T07:57:09.999Z</time></trkpt><trkpt lat="43.43950211955379" lon="11.978609722939666"><ele>406.0</ele><time>2026-04-12T07:57:10.999Z</time></trkpt><trkpt lat="43.43971002339427" lon="11.978837464419977"><ele>404.0</ele><time>2026-04-12T07:57:11.999Z</time></trkpt><trkpt lat="43.43990887849281" lon="11.97907992854691"><ele>413.5</ele><time>2026-04-12T07:57:12.999Z</time></trkpt><trkpt lat="43.44009858070842" lon="11.979334564807836"><ele>423.0</ele><time>2026-04-12T07:57:13.999Z</time></trkpt><trkpt lat="43.44027933586797" lon="11.979601145865043"><ele>423.0</ele><time>2026-04-12T07:57:14.999Z</time></trkpt><trkpt lat="43.44044929413729" lon="11.979879698524803"><ele>423.0</ele><time>2026-04-12T07:57:15.999Z</time></trkpt><trkpt lat="43.44060692769032" lon="11.980176172154893"><ele>406.0</ele><time>2026-04-12T07:57:16.999Z</time></trkpt><trkpt lat="43.44075539280027" lon="11.980480333826485"><ele>389.0</ele><time>2026-04-12T07:57:17.999Z</time></trkpt><trkpt lat="43.44088825179444" lon="11.980794825106123"><ele>390.5</ele><time>2026-04-12T07:57:18.999Z</time></trkpt><trkpt lat="43.4410072727795" lon="11.981121922502963"><ele>392.0</ele><time>2026-04-12T07:57:20Z</time></trkpt><trkpt lat="43.44111775430914" lon="11.981454090605208"><ele>393.0</ele><time>2026-04-12T07:57:21Z</time></trkpt><trkpt lat="43.44121399789511" lon="11.981794154432064"><ele>394.0</ele><time>2026-04-12T07:57:22Z</time></trkpt><trkpt lat="43.44130497412683" lon="11.98213674202037"><ele>400.5</ele><time>2026-04-12T07:57:23Z</time></trkpt><trkpt lat="43.44139497639451" lon="11.982481201614904"><ele>407.0</ele><time>2026-04-12T07:57:24Z</time></trkpt><trkpt lat="43.44148326418443" lon="11.982825413494963"><ele>407.0</ele><time>2026-04-12T07:57:25Z</time></trkpt><trkpt lat="43.44156909957311" lon="11.983171664009507"><ele>407.0</ele><time>2026-04-12T07:57:26Z</time></trkpt><trkpt lat="43.441653271053966" lon="11.9835181804818"><ele>402.5</ele><time>2026-04-12T07:57:27Z</time></trkpt><trkpt lat="43.44174290244956" lon="11.983860927796258"><ele>398.0</ele><time>2026-04-12T07:57:28Z</time></trkpt><trkpt lat="43.44183210854101" lon="11.984206534558409"><ele>396.5</ele><time>2026-04-12T07:57:29Z</time></trkpt><trkpt lat="43.441920101954864" lon="11.984552991259863"><ele>395.0</ele><time>2026-04-12T07:57:30Z</time></trkpt><trkpt lat="43.44200840077953" lon="11.9848969521425"><ele>393.0</ele><time>2026-04-12T07:57:31Z</time></trkpt><trkpt lat="43.4420979225999" lon="11.985241148984256"><ele>391.0</ele><time>2026-04-12T07:57:32Z</time></trkpt><trkpt lat="43.442189834523944" lon="11.985584022392247"><ele>397.0</ele><time>2026-04-12T07:57:33Z</time></trkpt><trkpt lat="43.44227945686744" lon="11.98592909765292"><ele>403.0</ele><time>2026-04-12T07:57:34Z</time></trkpt><trkpt lat="43.44236609976835" lon="11.986275636089596"><ele>403.0</ele><time>2026-04-12T07:57:35Z</time></trkpt><trkpt lat="43.442455088360965" lon="11.986619121432417"><ele>403.0</ele><time>2026-04-12T07:57:36Z</time></trkpt><trkpt lat="43.44254741748999" lon="11.986960823145797"><ele>400.5</ele><time>2026-04-12T07:57:37Z</time></trkpt><trkpt lat="43.44264925691918" lon="11.987296745533182"><ele>398.0</ele><time>2026-04-12T07:57:38Z</time></trkpt><trkpt lat="43.44276148118617" lon="11.98762942068742"><ele>395.5</ele><time>2026-04-12T07:57:39Z</time></trkpt><trkpt lat="43.442886448265185" lon="11.987951181501387"><ele>393.0</ele><time>2026-04-12T07:57:40Z</time></trkpt><trkpt lat="43.44302751249982" lon="11.988257427412659"><ele>395.5</ele><time>2026-04-12T07:57:41Z</time></trkpt><trkpt lat="43.443182746329676" lon="11.988551424081786"><ele>398.0</ele><time>2026-04-12T07:57:42Z</time></trkpt><trkpt lat="43.44334957404163" lon="11.988836156346691"><ele>398.0</ele><time>2026-04-12T07:57:43Z</time></trkpt><trkpt lat="43.44352567657544" lon="11.989103623963928"><ele>398.0</ele><time>2026-04-12T07:57:44Z</time></trkpt><trkpt lat="43.44371310426671" lon="11.989362965539"><ele>399.0</ele><time>2026-04-12T07:57:45Z</time></trkpt><trkpt lat="43.4439005445168" lon="11.989621597414402"><ele>400.0</ele><time>2026-04-12T07:57:46Z</time></trkpt><trkpt lat="43.44408557648469" lon="11.989886810734133"><ele>395.5</ele><time>2026-04-12T07:57:47Z</time></trkpt><trkpt lat="43.44426871918466" lon="11.990154086512145"><ele>391.0</ele><time>2026-04-12T07:57:48Z</time></trkpt><trkpt lat="43.44445257059831" lon="11.99041760820978"><ele>390.5</ele><time>2026-04-12T07:57:49Z</time></trkpt><trkpt lat="43.44463623352715" lon="11.990678662144974"><ele>390.0</ele><time>2026-04-12T07:57:50Z</time></trkpt><trkpt lat="43.444821607067034" lon="11.99094002335438"><ele>390.0</ele><time>2026-04-12T07:57:51Z</time></trkpt><trkpt lat="43.445003711318776" lon="11.991203388001939"><ele>390.0</ele><time>2026-04-12T07:57:52Z</time></trkpt><trkpt lat="43.44518723861945" lon="11.991467232039662"><ele>393.0</ele><time>2026-04-12T07:57:53Z</time></trkpt><trkpt lat="43.44536987188128" lon="11.991732604308906"><ele>396.0</ele><time>2026-04-12T07:57:54Z</time></trkpt><trkpt lat="43.44555241565465" lon="11.991996933584302"><ele>396.0</ele><time>2026-04-12T07:57:55Z</time></trkpt><trkpt lat="43.445730283999644" lon="11.992268867359535"><ele>396.0</ele><time>2026-04-12T07:57:56Z</time></trkpt><trkpt lat="43.4459037169477" lon="11.99254422343945"><ele>390.0</ele><time>2026-04-12T07:57:57Z</time></trkpt><trkpt lat="43.44606514824986" lon="11.99283423325347"><ele>384.0</ele><time>2026-04-12T07:57:58Z</time></trkpt><trkpt lat="43.44622424287874" lon="11.993124618828382"><ele>384.5</ele><time>2026-04-12T07:57:59Z</time></trkpt><trkpt lat="43.446382817692445" lon="11.993416329571138"><ele>385.0</ele><time>2026-04-12T07:58:00Z</time></trkpt><trkpt lat="43.44654333634605" lon="11.993708528560278"><ele>385.0</ele><time>2026-04-12T07:58:01Z</time></trkpt><trkpt lat="43.446703458595685" lon="11.9939990345654"><ele>385.0</ele><time>2026-04-12T07:58:02Z</time></trkpt><trkpt lat="43.446865188159116" lon="11.994289082744457"><ele>385.5</ele><time>2026-04-12T07:58:03Z</time></trkpt><trkpt lat="43.44702650909481" lon="11.994580353704325"><ele>386.0</ele><time>2026-04-12T07:58:04Z</time></trkpt><trkpt lat="43.44718663766244" lon="11.994872277504893"><ele>395.5</ele><time>2026-04-12T07:58:05Z</time></trkpt><trkpt lat="43.4473487545622" lon="11.995162952201364"><ele>405.0</ele><time>2026-04-12T07:58:06Z</time></trkpt><trkpt lat="43.44750888306266" lon="11.995454637374369"><ele>405.0</ele><time>2026-04-12T07:58:07Z</time></trkpt><trkpt lat="43.44766937335531" lon="11.995746169150102"><ele>405.0</ele><time>2026-04-12T07:58:08Z</time></trkpt><trkpt lat="43.44783154034164" lon="11.996035317051014"><ele>394.5</ele><time>2026-04-12T07:58:09Z</time></trkpt><trkpt lat="43.44799371109763" lon="11.996327215094109"><ele>384.0</ele><time>2026-04-12T07:58:10Z</time></trkpt><trkpt lat="43.44815580354014" lon="11.99661646550448"><ele>383.5</ele><time>2026-04-12T07:58:11Z</time></trkpt><trkpt lat="43.44831901511684" lon="11.99690531861012"><ele>383.0</ele><time>2026-04-12T07:58:12Z</time></trkpt><trkpt lat="43.44848280571213" lon="11.9971933650304"><ele>383.0</ele><time>2026-04-12T07:58:13Z</time></trkpt><trkpt lat="43.44864488041147" lon="11.997479746962023"><ele>383.0</ele><time>2026-04-12T07:58:14Z</time></trkpt><trkpt lat="43.44880657084993" lon="11.997769453037032"><ele>384.5</ele><time>2026-04-12T07:58:15Z</time></trkpt><trkpt lat="43.44896558603864" lon="11.99806311480865"><ele>386.0</ele><time>2026-04-12T07:58:16Z</time></trkpt><trkpt lat="43.44912528800896" lon="11.998357155892524"><ele>386.0</ele><time>2026-04-12T07:58:17Z</time></trkpt><trkpt lat="43.44928617777653" lon="11.99864844276594"><ele>386.0</ele><time>2026-04-12T07:58:18Z</time></trkpt><trkpt lat="43.4494472066796" lon="11.998939303705892"><ele>381.0</ele><time>2026-04-12T07:58:19Z</time></trkpt><trkpt lat="43.44960856875224" lon="11.999231687024837"><ele>376.0</ele><time>2026-04-12T07:58:20Z</time></trkpt><trkpt lat="43.4497645482521" lon="11.999510668076981"><ele>376.0</ele><time>2026-04-12T07:58:21Z</time></trkpt><trkpt lat="43.44993301989672" lon="11.999780024333512"><ele>376.0</ele><time>2026-04-12T07:58:22Z</time></trkpt><trkpt lat="43.450097599456896" lon="12.000100283766255"><ele>376.0</ele><time>2026-04-12T07:58:23Z</time></trkpt><trkpt lat="43.450257978387725" lon="12.000393823291807"><ele>376.0</ele><time>2026-04-12T07:58:24Z</time></trkpt><trkpt lat="43.450418474393175" lon="12.000682845890374"><ele>373.0</ele><time>2026-04-12T07:58:25Z</time></trkpt><trkpt lat="43.45058037938695" lon="12.000973107964487"><ele>370.0</ele><time>2026-04-12T07:58:26Z</time></trkpt><trkpt lat="43.45073995627596" lon="12.001264004764945"><ele>370.0</ele><time>2026-04-12T07:58:27Z</time></trkpt><trkpt lat="43.45090132729859" lon="12.001551711945506"><ele>370.0</ele><time>2026-04-12T07:58:28Z</time></trkpt><trkpt lat="43.45106276452488" lon="12.00184410977738"><ele>366.5</ele><time>2026-04-12T07:58:29Z</time></trkpt><trkpt lat="43.451225113478" lon="12.002133722523062"><ele>363.0</ele><time>2026-04-12T07:58:30Z</time></trkpt><trkpt lat="43.45138601882402" lon="12.002422224248841"><ele>366.0</ele><time>2026-04-12T07:58:31Z</time></trkpt><trkpt lat="43.45154895788985" lon="12.002712152735944"><ele>369.0</ele><time>2026-04-12T07:58:32Z</time></trkpt><trkpt lat="43.451706838442234" lon="12.003001920953299"><ele>369.0</ele><time>2026-04-12T07:58:33Z</time></trkpt><trkpt lat="43.451864145528376" lon="12.003298683335514"><ele>369.0</ele><time>2026-04-12T07:58:34Z</time></trkpt><trkpt lat="43.45201422283401" lon="12.003597978014865"><ele>365.5</ele><time>2026-04-12T07:58:35Z</time></trkpt><trkpt lat="43.45215776337225" lon="12.003902063146576"><ele>362.0</ele><time>2026-04-12T07:58:36Z</time></trkpt><trkpt lat="43.45229339289596" lon="12.004212855816654"><ele>362.0</ele><time>2026-04-12T07:58:37Z</time></trkpt><trkpt lat="43.45242376351134" lon="12.004526914501671"><ele>362.0</ele><time>2026-04-12T07:58:38Z</time></trkpt><trkpt lat="43.452557371431425" lon="12.004841817373014"><ele>363.5</ele><time>2026-04-12T07:58:39Z</time></trkpt><trkpt lat="43.4526915070834" lon="12.005162512506635"><ele>365.0</ele><time>2026-04-12T07:58:40Z</time></trkpt><trkpt lat="43.452825255403894" lon="12.005487706483752"><ele>366.0</ele><time>2026-04-12T07:58:41Z</time></trkpt><trkpt lat="43.45295889142708" lon="12.005811671409228"><ele>367.0</ele><time>2026-04-12T07:58:42Z</time></trkpt><trkpt lat="43.45309581903639" lon="12.006142614859552"><ele>370.0</ele><time>2026-04-12T07:58:43Z</time></trkpt><trkpt lat="43.45323594679621" lon="12.006485335520718"><ele>373.0</ele><time>2026-04-12T07:58:44Z</time></trkpt><trkpt lat="43.45337880003945" lon="12.006832320921022"><ele>373.0</ele><time>2026-04-12T07:58:44.999Z</time></trkpt><trkpt lat="43.45352779780674" lon="12.007184228598653"><ele>373.0</ele><time>2026-04-12T07:58:45.999Z</time></trkpt><trkpt lat="43.45368449214658" lon="12.007534223331927"><ele>370.0</ele><time>2026-04-12T07:58:46.999Z</time></trkpt><trkpt lat="43.45384737279104" lon="12.007877626379953"><ele>367.0</ele><time>2026-04-12T07:58:47.999Z</time></trkpt><trkpt lat="43.45401551457152" lon="12.008219831648502"><ele>363.5</ele><time>2026-04-12T07:58:48.999Z</time></trkpt><trkpt lat="43.45419025365712" lon="12.00855918345314"><ele>360.0</ele><time>2026-04-12T07:58:49.999Z</time></trkpt><trkpt lat="43.45437240271483" lon="12.008888618593952"><ele>358.0</ele><time>2026-04-12T07:58:50.999Z</time></trkpt><trkpt lat="43.45456301481707" lon="12.009204255473628"><ele>356.0</ele><time>2026-04-12T07:58:51.999Z</time></trkpt><trkpt lat="43.45475435752312" lon="12.009514229400459"><ele>359.5</ele><time>2026-04-12T07:58:52.999Z</time></trkpt><trkpt lat="43.45494352590755" lon="12.00981795790891"><ele>363.0</ele><time>2026-04-12T07:58:53.999Z</time></trkpt><trkpt lat="43.45512773335137" lon="12.010119747032673"><ele>363.0</ele><time>2026-04-12T07:58:54.999Z</time></trkpt><trkpt lat="43.45531175573089" lon="12.010417596019769"><ele>363.0</ele><time>2026-04-12T07:58:55.999Z</time></trkpt><trkpt lat="43.4554956024354" lon="12.010708116414582"><ele>374.5</ele><time>2026-04-12T07:58:56.999Z</time></trkpt><trkpt lat="43.45567485702937" lon="12.0109979440829"><ele>386.0</ele><time>2026-04-12T07:58:57.999Z</time></trkpt><trkpt lat="43.455851509960084" lon="12.01129488041425"><ele>386.0</ele><time>2026-04-12T07:58:58.999Z</time></trkpt><trkpt lat="43.45602180905194" lon="12.01159807608973"><ele>386.0</ele><time>2026-04-12T07:58:59.999Z</time></trkpt><trkpt lat="43.45618660739992" lon="12.011908182130751"><ele>384.0</ele><time>2026-04-12T07:59:00.999Z</time></trkpt><trkpt lat="43.4563460476859" lon="12.012224137124074"><ele>382.0</ele><time>2026-04-12T07:59:01.999Z</time></trkpt><trkpt lat="43.45649277620467" lon="12.012535222148529"><ele>382.0</ele><time>2026-04-12T07:59:02.999Z</time></trkpt><trkpt lat="43.45663345078435" lon="12.012854831433023"><ele>382.0</ele><time>2026-04-12T07:59:03.999Z</time></trkpt><trkpt lat="43.45677335968452" lon="12.013168821171389"><ele>372.5</ele><time>2026-04-12T07:59:04.999Z</time></trkpt><trkpt lat="43.45691280262577" lon="12.013475215707965"><ele>363.0</ele><time>2026-04-12T07:59:05.999Z</time></trkpt><trkpt lat="43.45704760386992" lon="12.013788715135691"><ele>375.0</ele><time>2026-04-12T07:59:06.999Z</time></trkpt><trkpt lat="43.45717921400588" lon="12.014106891316274"><ele>387.0</ele><time>2026-04-12T07:59:07.999Z</time></trkpt><trkpt lat="43.45731653674542" lon="12.014428241065566"><ele>387.0</ele><time>2026-04-12T07:59:08.999Z</time></trkpt><trkpt lat="43.45746320283063" lon="12.014742899894761"><ele>387.0</ele><time>2026-04-12T07:59:09.999Z</time></trkpt><trkpt lat="43.457627801666305" lon="12.015040129756796"><ele>389.0</ele><time>2026-04-12T07:59:10.999Z</time></trkpt><trkpt lat="43.4578103510225" lon="12.015332810115812"><ele>391.0</ele><time>2026-04-12T07:59:11.999Z</time></trkpt><trkpt lat="43.45800757093134" lon="12.01560670522671"><ele>378.5</ele><time>2026-04-12T07:59:12.999Z</time></trkpt><trkpt lat="43.45820275398061" lon="12.015877841437835"><ele>366.0</ele><time>2026-04-12T07:59:13.999Z</time></trkpt><trkpt lat="43.45843110192735" lon="12.016056436485437"><ele>366.0</ele><time>2026-04-12T07:59:14.999Z</time></trkpt><trkpt lat="43.458660810706824" lon="12.016195846913229"><ele>366.0</ele><time>2026-04-12T07:59:15.999Z</time></trkpt><trkpt lat="43.458908224657705" lon="12.016339595194898"><ele>367.5</ele><time>2026-04-12T07:59:16.999Z</time></trkpt><trkpt lat="43.45914920806647" lon="12.016475710054097"><ele>369.0</ele><time>2026-04-12T07:59:17.999Z</time></trkpt><trkpt lat="43.45945177121344" lon="12.016595772720146"><ele>362.5</ele><time>2026-04-12T07:59:18.999Z</time></trkpt><trkpt lat="43.45972351728681" lon="12.016754184525547"><ele>356.0</ele><time>2026-04-12T07:59:19.999Z</time></trkpt><trkpt lat="43.45996307706203" lon="12.016957945100463"><ele>356.0</ele><time>2026-04-12T07:59:20.999Z</time></trkpt><trkpt lat="43.46018977859404" lon="12.017191587976699"><ele>356.0</ele><time>2026-04-12T07:59:21.999Z</time></trkpt><trkpt lat="43.46040071428225" lon="12.017451625022117"><ele>357.0</ele><time>2026-04-12T07:59:22.999Z</time></trkpt><trkpt lat="43.46059213471031" lon="12.017733402889844"><ele>358.0</ele><time>2026-04-12T07:59:23.999Z</time></trkpt><trkpt lat="43.460771361759726" lon="12.018031706622718"><ele>350.0</ele><time>2026-04-12T07:59:24.999Z</time></trkpt><trkpt lat="43.460937196203254" lon="12.018351155437523"><ele>342.0</ele><time>2026-04-12T07:59:26Z</time></trkpt><trkpt lat="43.46109578505708" lon="12.018677580148713"><ele>342.0</ele><time>2026-04-12T07:59:27Z</time></trkpt><trkpt lat="43.461258004878275" lon="12.018999317971748"><ele>342.0</ele><time>2026-04-12T07:59:28Z</time></trkpt><trkpt lat="43.4614247204696" lon="12.019320367746925"><ele>337.0</ele><time>2026-04-12T07:59:29Z</time></trkpt><trkpt lat="43.4615935960173" lon="12.019641359760087"><ele>332.0</ele><time>2026-04-12T07:59:30.001Z</time></trkpt><trkpt lat="43.46176120662319" lon="12.019960166622386"><ele>330.5</ele><time>2026-04-12T07:59:31.001Z</time></trkpt><trkpt lat="43.46193052507058" lon="12.020282205531885"><ele>329.0</ele><time>2026-04-12T07:59:32.001Z</time></trkpt><trkpt lat="43.46209788366964" lon="12.020601170472148"><ele>330.0</ele><time>2026-04-12T07:59:33.001Z</time></trkpt><trkpt lat="43.46226220263917" lon="12.020920889807687"><ele>331.0</ele><time>2026-04-12T07:59:34.001Z</time></trkpt><trkpt lat="43.46242555773949" lon="12.021238970637786"><ele>331.0</ele><time>2026-04-12T07:59:35.001Z</time></trkpt><trkpt lat="43.46258323131274" lon="12.021556432018324"><ele>331.0</ele><time>2026-04-12T07:59:36.001Z</time></trkpt><trkpt lat="43.46273694761181" lon="12.021872900990122"><ele>331.0</ele><time>2026-04-12T07:59:37.001Z</time></trkpt><trkpt lat="43.46288824156133" lon="12.022189894785214"><ele>331.0</ele><time>2026-04-12T07:59:38.001Z</time></trkpt><trkpt lat="43.463038856046666" lon="12.022507516387687"><ele>334.0</ele><time>2026-04-12T07:59:39.001Z</time></trkpt><trkpt lat="43.463189284337226" lon="12.022822257555903"><ele>337.0</ele><time>2026-04-12T07:59:40.001Z</time></trkpt><trkpt lat="43.46333573589563" lon="12.023141424028104"><ele>333.5</ele><time>2026-04-12T07:59:41.001Z</time></trkpt><trkpt lat="43.4634622786213" lon="12.023473577107799"><ele>330.0</ele><time>2026-04-12T07:59:42.001Z</time></trkpt><trkpt lat="43.46355908754555" lon="12.02382195647678"><ele>328.5</ele><time>2026-04-12T07:59:43Z</time></trkpt><trkpt lat="43.463627384216586" lon="12.024184232440415"><ele>327.0</ele><time>2026-04-12T07:59:44Z</time></trkpt><trkpt lat="43.4636683444286" lon="12.024560395204839"><ele>327.0</ele><time>2026-04-12T07:59:45Z</time></trkpt><trkpt lat="43.46369291002569" lon="12.024939960654526"><ele>327.0</ele><time>2026-04-12T07:59:46Z</time></trkpt><trkpt lat="43.46369892036112" lon="12.025321999947002"><ele>327.0</ele><time>2026-04-12T07:59:47Z</time></trkpt><trkpt lat="43.46368551744468" lon="12.02570699582471"><ele>327.0</ele><time>2026-04-12T07:59:48Z</time></trkpt><trkpt lat="43.463653602516494" lon="12.026091359780601"><ele>327.5</ele><time>2026-04-12T07:59:49Z</time></trkpt><trkpt lat="43.463596316312255" lon="12.026472561156853"><ele>328.0</ele><time>2026-04-12T07:59:50Z</time></trkpt><trkpt lat="43.463518570655474" lon="12.026847697174789"><ele>328.0</ele><time>2026-04-12T07:59:51Z</time></trkpt><trkpt lat="43.46342436205594" lon="12.027214497800994"><ele>328.0</ele><time>2026-04-12T07:59:52Z</time></trkpt><trkpt lat="43.46331122250536" lon="12.027571550208409"><ele>326.5</ele><time>2026-04-12T07:59:53Z</time></trkpt><trkpt lat="43.46317773391559" lon="12.027919398846642"><ele>325.0</ele><time>2026-04-12T07:59:54Z</time></trkpt><trkpt lat="43.463032702791594" lon="12.02825918251938"><ele>327.0</ele><time>2026-04-12T07:59:55Z</time></trkpt><trkpt lat="43.46289073920539" lon="12.02860180982383"><ele>329.0</ele><time>2026-04-12T07:59:56Z</time></trkpt><trkpt lat="43.46277332316505" lon="12.028957430812662"><ele>328.0</ele><time>2026-04-12T07:59:57Z</time></trkpt><trkpt lat="43.46268634845905" lon="12.029332437134553"><ele>327.0</ele><time>2026-04-12T07:59:58Z</time></trkpt><trkpt lat="43.46261792739866" lon="12.029713027925421"><ele>327.0</ele><time>2026-04-12T07:59:59Z</time></trkpt><trkpt lat="43.46257581714584" lon="12.03009688017236"><ele>327.0</ele><time>2026-04-12T08:00:00Z</time></trkpt><trkpt lat="43.46255442203643" lon="12.030483092370305"><ele>326.0</ele><time>2026-04-12T08:00:01Z</time></trkpt><trkpt lat="43.462552185909466" lon="12.030869211685529"><ele>325.0</ele><time>2026-04-12T08:00:02Z</time></trkpt><trkpt lat="43.46257558666725" lon="12.031251639598466"><ele>325.0</ele><time>2026-04-12T08:00:03Z</time></trkpt><trkpt lat="43.462620745530465" lon="12.03162745362585"><ele>325.0</ele><time>2026-04-12T08:00:04Z</time></trkpt><trkpt lat="43.462677514080056" lon="12.03199736299226"><ele>325.0</ele><time>2026-04-12T08:00:05Z</time></trkpt><trkpt lat="43.462746703273666" lon="12.032363568797415"><ele>325.0</ele><time>2026-04-12T08:00:06Z</time></trkpt><trkpt lat="43.46282224885682" lon="12.032727383271537"><ele>325.0</ele><time>2026-04-12T08:00:06.999Z</time></trkpt><trkpt lat="43.46290091276166" lon="12.033090067251692"><ele>325.0</ele><time>2026-04-12T08:00:07.999Z</time></trkpt><trkpt lat="43.462981842898486" lon="12.03345327077829"><ele>325.0</ele><time>2026-04-12T08:00:08.999Z</time></trkpt><trkpt lat="43.46306654160922" lon="12.033816452482569"><ele>325.0</ele><time>2026-04-12T08:00:09.999Z</time></trkpt><trkpt lat="43.46315323011364" lon="12.03417951740107"><ele>325.0</ele><time>2026-04-12T08:00:10.999Z</time></trkpt><trkpt lat="43.463243645482464" lon="12.034542734678816"><ele>325.0</ele><time>2026-04-12T08:00:11.999Z</time></trkpt><trkpt lat="43.463341555832564" lon="12.034902475362614"><ele>324.0</ele><time>2026-04-12T08:00:12.999Z</time></trkpt><trkpt lat="43.46344609352746" lon="12.035260172777953"><ele>323.0</ele><time>2026-04-12T08:00:13.999Z</time></trkpt><trkpt lat="43.46355139275842" lon="12.035615413455483"><ele>322.5</ele><time>2026-04-12T08:00:14.999Z</time></trkpt><trkpt lat="43.46365630770652" lon="12.035972785075307"><ele>322.0</ele><time>2026-04-12T08:00:15.999Z</time></trkpt><trkpt lat="43.46375888411464" lon="12.036331401097218"><ele>323.0</ele><time>2026-04-12T08:00:16.999Z</time></trkpt><trkpt lat="43.463860742374735" lon="12.036690697377622"><ele>324.0</ele><time>2026-04-12T08:00:17.999Z</time></trkpt><trkpt lat="43.46396536544635" lon="12.03704839911228"><ele>324.0</ele><time>2026-04-12T08:00:18.999Z</time></trkpt><trkpt lat="43.46407075430943" lon="12.037403400050383"><ele>324.0</ele><time>2026-04-12T08:00:19.999Z</time></trkpt><trkpt lat="43.46417512223843" lon="12.037759146897532"><ele>323.0</ele><time>2026-04-12T08:00:20.999Z</time></trkpt><trkpt lat="43.46427935561377" lon="12.03811494041045"><ele>322.0</ele><time>2026-04-12T08:00:21.999Z</time></trkpt><trkpt lat="43.4643822742869" lon="12.038467095945439"><ele>321.5</ele><time>2026-04-12T08:00:22.999Z</time></trkpt><trkpt lat="43.464487778719324" lon="12.038817885239744"><ele>321.0</ele><time>2026-04-12T08:00:23.999Z</time></trkpt><trkpt lat="43.464591993996116" lon="12.03916775320416"><ele>320.5</ele><time>2026-04-12T08:00:24.999Z</time></trkpt><trkpt lat="43.464693631876244" lon="12.039520111316907"><ele>320.0</ele><time>2026-04-12T08:00:25.999Z</time></trkpt><trkpt lat="43.464797382357865" lon="12.03987385215597"><ele>320.0</ele><time>2026-04-12T08:00:26.999Z</time></trkpt><trkpt lat="43.464899110747616" lon="12.040230659501834"><ele>320.0</ele><time>2026-04-12T08:00:27.999Z</time></trkpt><trkpt lat="43.46500174450031" lon="12.040588198646622"><ele>320.0</ele><time>2026-04-12T08:00:28.999Z</time></trkpt><trkpt lat="43.46510438606198" lon="12.040944434860153"><ele>320.0</ele><time>2026-04-12T08:00:29.999Z</time></trkpt><trkpt lat="43.465208175761866" lon="12.041301299731751"><ele>319.0</ele><time>2026-04-12T08:00:30.999Z</time></trkpt><trkpt lat="43.465310774362095" lon="12.041659256339416"><ele>318.0</ele><time>2026-04-12T08:00:31.999Z</time></trkpt><trkpt lat="43.46541460746866" lon="12.042015601854416"><ele>318.0</ele><time>2026-04-12T08:00:32.999Z</time></trkpt><trkpt lat="43.46551864274884" lon="12.042373321007895"><ele>318.0</ele><time>2026-04-12T08:00:33.999Z</time></trkpt><trkpt lat="43.46562129580755" lon="12.042729833348865"><ele>318.0</ele><time>2026-04-12T08:00:34.999Z</time></trkpt><trkpt lat="43.465724246279926" lon="12.0430875435534"><ele>318.0</ele><time>2026-04-12T08:00:35.999Z</time></trkpt><trkpt lat="43.465826302394106" lon="12.043442889740323"><ele>318.0</ele><time>2026-04-12T08:00:36.999Z</time></trkpt><trkpt lat="43.465930203978886" lon="12.043800102608289"><ele>318.0</ele><time>2026-04-12T08:00:37.999Z</time></trkpt><trkpt lat="43.46603253774264" lon="12.044155132370825"><ele>318.0</ele><time>2026-04-12T08:00:38.999Z</time></trkpt><trkpt lat="43.46611859738877" lon="12.044531335439247"><ele>318.0</ele><time>2026-04-12T08:00:39.999Z</time></trkpt><trkpt lat="43.46623523505005" lon="12.044863470149018"><ele>325.0</ele><time>2026-04-12T08:00:40.999Z</time></trkpt><trkpt lat="43.46633404542884" lon="12.045215648782708"><ele>332.0</ele><time>2026-04-12T08:00:41.999Z</time></trkpt><trkpt lat="43.466433786899856" lon="12.045564744149683"><ele>329.0</ele><time>2026-04-12T08:00:42.999Z</time></trkpt><trkpt lat="43.466535054657186" lon="12.045913105744447"><ele>326.0</ele><time>2026-04-12T08:00:43.999Z</time></trkpt><trkpt lat="43.466638919823964" lon="12.046256682663817"><ele>326.0</ele><time>2026-04-12T08:00:44.999Z</time></trkpt><trkpt lat="43.46674173752617" lon="12.046602019949388"><ele>326.0</ele><time>2026-04-12T08:00:45.999Z</time></trkpt><trkpt lat="43.46684132148774" lon="12.046946978403462"><ele>322.5</ele><time>2026-04-12T08:00:46.999Z</time></trkpt><trkpt lat="43.46693909557949" lon="12.047292044082164"><ele>319.0</ele><time>2026-04-12T08:00:47.999Z</time></trkpt><trkpt lat="43.4670381092482" lon="12.047636877942956"><ele>317.5</ele><time>2026-04-12T08:00:48.999Z</time></trkpt><trkpt lat="43.467138516415346" lon="12.047982059056245"><ele>316.0</ele><time>2026-04-12T08:00:49.999Z</time></trkpt><trkpt lat="43.467243821667566" lon="12.048324347172299"><ele>316.0</ele><time>2026-04-12T08:00:50.999Z</time></trkpt><trkpt lat="43.46735296487518" lon="12.048665177251614"><ele>316.0</ele><time>2026-04-12T08:00:51.999Z</time></trkpt><trkpt lat="43.46747158665817" lon="12.048999700682183"><ele>315.5</ele><time>2026-04-12T08:00:52.999Z</time></trkpt><trkpt lat="43.46760508838261" lon="12.049319926659084"><ele>315.0</ele><time>2026-04-12T08:00:53.999Z</time></trkpt><trkpt lat="43.46775146381412" lon="12.049636094118544"><ele>315.0</ele><time>2026-04-12T08:00:54.999Z</time></trkpt><trkpt lat="43.46790515549577" lon="12.049944380168755"><ele>315.0</ele><time>2026-04-12T08:00:55.999Z</time></trkpt><trkpt lat="43.468066171518146" lon="12.050248643040634"><ele>315.0</ele><time>2026-04-12T08:00:56.999Z</time></trkpt><trkpt lat="43.46823755112401" lon="12.050540725894038"><ele>315.0</ele><time>2026-04-12T08:00:57.999Z</time></trkpt><trkpt lat="43.46841869062914" lon="12.050823039185044"><ele>315.0</ele><time>2026-04-12T08:00:58.999Z</time></trkpt><trkpt lat="43.46860866819349" lon="12.051092236332632"><ele>315.0</ele><time>2026-04-12T08:00:59.999Z</time></trkpt><trkpt lat="43.46880855936853" lon="12.051346770785738"><ele>315.0</ele><time>2026-04-12T08:01:00.999Z</time></trkpt><trkpt lat="43.469015724892905" lon="12.051597316088902"><ele>315.0</ele><time>2026-04-12T08:01:01.999Z</time></trkpt><trkpt lat="43.469227759701845" lon="12.05183805276519"><ele>315.0</ele><time>2026-04-12T08:01:02.999Z</time></trkpt><trkpt lat="43.469452942679276" lon="12.052063915690862"><ele>315.0</ele><time>2026-04-12T08:01:03.999Z</time></trkpt><trkpt lat="43.46968712898952" lon="12.052273651425573"><ele>314.5</ele><time>2026-04-12T08:01:04.999Z</time></trkpt><trkpt lat="43.4699266466501" lon="12.0524717329739"><ele>314.0</ele><time>2026-04-12T08:01:05.999Z</time></trkpt><trkpt lat="43.470170346816204" lon="12.052662678067373"><ele>314.0</ele><time>2026-04-12T08:01:06.999Z</time></trkpt><trkpt lat="43.47041904903138" lon="12.052845100628673"><ele>314.0</ele><time>2026-04-12T08:01:07.999Z</time></trkpt><trkpt lat="43.470670849452624" lon="12.053024506485212"><ele>314.5</ele><time>2026-04-12T08:01:08.999Z</time></trkpt><trkpt lat="43.47092013073156" lon="12.053207571854673"><ele>315.0</ele><time>2026-04-12T08:01:09.999Z</time></trkpt><trkpt lat="43.471165642462395" lon="12.053391619364822"><ele>314.5</ele><time>2026-04-12T08:01:10.999Z</time></trkpt><trkpt lat="43.47141084158401" lon="12.053573116058386"><ele>314.0</ele><time>2026-04-12T08:01:11.999Z</time></trkpt><trkpt lat="43.47165544957735" lon="12.053754208216455"><ele>314.0</ele><time>2026-04-12T08:01:12.999Z</time></trkpt><trkpt lat="43.47189960408691" lon="12.053936223713047"><ele>314.0</ele><time>2026-04-12T08:01:13.999Z</time></trkpt><trkpt lat="43.47214140330583" lon="12.054118452157994"><ele>313.0</ele><time>2026-04-12T08:01:14.999Z</time></trkpt><trkpt lat="43.47238605689093" lon="12.054300415279643"><ele>312.0</ele><time>2026-04-12T08:01:15.999Z</time></trkpt><trkpt lat="43.47262986043531" lon="12.054480776985855"><ele>312.0</ele><time>2026-04-12T08:01:16.999Z</time></trkpt><trkpt lat="43.47287285840318" lon="12.054660558522736"><ele>312.0</ele><time>2026-04-12T08:01:17.999Z</time></trkpt><trkpt lat="43.47311530754053" lon="12.05484062594099"><ele>311.5</ele><time>2026-04-12T08:01:18.999Z</time></trkpt><trkpt lat="43.4733582357954" lon="12.055023282307346"><ele>311.0</ele><time>2026-04-12T08:01:19.999Z</time></trkpt><trkpt lat="43.473599381699486" lon="12.05520479185223"><ele>312.0</ele><time>2026-04-12T08:01:20.999Z</time></trkpt><trkpt lat="43.47384114978495" lon="12.055385435403526"><ele>313.0</ele><time>2026-04-12T08:01:21.999Z</time></trkpt><trkpt lat="43.47407894725922" lon="12.055567142064211"><ele>313.0</ele><time>2026-04-12T08:01:22.999Z</time></trkpt><trkpt lat="43.474317675169246" lon="12.055747924305885"><ele>313.0</ele><time>2026-04-12T08:01:23.999Z</time></trkpt><trkpt lat="43.47455694868981" lon="12.055926884089818"><ele>313.5</ele><time>2026-04-12T08:01:24.999Z</time></trkpt><trkpt lat="43.47479399418391" lon="12.056102925847917"><ele>314.0</ele><time>2026-04-12T08:01:25.999Z</time></trkpt><trkpt lat="43.47502564268025" lon="12.056285923564392"><ele>314.0</ele><time>2026-04-12T08:01:26.999Z</time></trkpt><trkpt lat="43.4752475247211" lon="12.056485337503679"><ele>314.0</ele><time>2026-04-12T08:01:27.999Z</time></trkpt><trkpt lat="43.47546095309562" lon="12.056704606367212"><ele>313.0</ele><time>2026-04-12T08:01:28.999Z</time></trkpt><trkpt lat="43.475663919450426" lon="12.05694078575144"><ele>312.0</ele><time>2026-04-12T08:01:29.998Z</time></trkpt><trkpt lat="43.4758566487983" lon="12.057188827925563"><ele>312.0</ele><time>2026-04-12T08:01:30.998Z</time></trkpt><trkpt lat="43.47603942100976" lon="12.057449631093142"><ele>312.0</ele><time>2026-04-12T08:01:32Z</time></trkpt><trkpt lat="43.47620776528897" lon="12.05772548066647"><ele>312.0</ele><time>2026-04-12T08:01:33Z</time></trkpt><trkpt lat="43.476362512909304" lon="12.058014069803189"><ele>312.0</ele><time>2026-04-12T08:01:34Z</time></trkpt><trkpt lat="43.47650804933052" lon="12.05831205197606"><ele>312.0</ele><time>2026-04-12T08:01:35Z</time></trkpt><trkpt lat="43.476638242083126" lon="12.058622570459253"><ele>312.0</ele><time>2026-04-12T08:01:36Z</time></trkpt><trkpt lat="43.476751053212425" lon="12.05894430705448"><ele>311.0</ele><time>2026-04-12T08:01:37Z</time></trkpt><trkpt lat="43.47685400425251" lon="12.059275040866343"><ele>310.0</ele><time>2026-04-12T08:01:38Z</time></trkpt><trkpt lat="43.47694331384935" lon="12.059611205968348"><ele>310.0</ele><time>2026-04-12T08:01:39Z</time></trkpt><trkpt lat="43.477022351916304" lon="12.059954510184966"><ele>310.0</ele><time>2026-04-12T08:01:40Z</time></trkpt><trkpt lat="43.47709169269594" lon="12.060294817875427"><ele>309.5</ele><time>2026-04-12T08:01:41Z</time></trkpt><trkpt lat="43.47715699546346" lon="12.06061490674767"><ele>309.0</ele><time>2026-04-12T08:01:42Z</time></trkpt><trkpt lat="43.47722572127217" lon="12.060914101423835"><ele>309.0</ele><time>2026-04-12T08:01:43Z</time></trkpt><trkpt lat="43.47729055563713" lon="12.061200389897706"><ele>309.0</ele><time>2026-04-12T08:01:44Z</time></trkpt><trkpt lat="43.477362763048205" lon="12.061479065755444"><ele>309.0</ele><time>2026-04-12T08:01:45Z</time></trkpt><trkpt lat="43.47743792522342" lon="12.061747146347985"><ele>309.0</ele><time>2026-04-12T08:01:46Z</time></trkpt><trkpt lat="43.477521979409325" lon="12.062001176223992"><ele>309.0</ele><time>2026-04-12T08:01:47Z</time></trkpt><trkpt lat="43.47763346105167" lon="12.062220055247412"><ele>309.0</ele><time>2026-04-12T08:01:48Z</time></trkpt><trkpt lat="43.47777459193458" lon="12.062400778436919"><ele>309.0</ele><time>2026-04-12T08:01:49Z</time></trkpt><trkpt lat="43.47794433592509" lon="12.062534511377685"><ele>309.0</ele><time>2026-04-12T08:01:50Z</time></trkpt><trkpt lat="43.4781301836349" lon="12.062617225260622"><ele>309.0</ele><time>2026-04-12T08:01:51Z</time></trkpt><trkpt lat="43.47832502004893" lon="12.062646317786632"><ele>309.0</ele><time>2026-04-12T08:01:52Z</time></trkpt><trkpt lat="43.47852308418445" lon="12.062633859182862"><ele>309.0</ele><time>2026-04-12T08:01:53Z</time></trkpt><trkpt lat="43.478716843851636" lon="12.062565146023102"><ele>309.0</ele><time>2026-04-12T08:01:54Z</time></trkpt><trkpt lat="43.47890858661948" lon="12.062485746662892"><ele>308.6666666666667</ele><time>2026-04-12T08:01:55Z</time></trkpt><trkpt lat="43.47909560973146" lon="12.062401551565218"><ele>308.33333333333337</ele><time>2026-04-12T08:01:56Z</time></trkpt><trkpt lat="43.47928535063706" lon="12.06231520043328"><ele>308.0</ele><time>2026-04-12T08:01:57Z</time></trkpt><trkpt lat="43.47947895169498" lon="12.062262421138612"><ele>311.0</ele><time>2026-04-12T08:01:58Z</time></trkpt><trkpt lat="43.47965490706337" lon="12.06219928457379"><ele>314.0</ele><time>2026-04-12T08:01:59Z</time></trkpt><trkpt lat="43.47983189394751" lon="12.062211448892343"><ele>317.0</ele><time>2026-04-12T08:02:00Z</time></trkpt><trkpt lat="43.48000501430493" lon="12.062281500637889"><ele>317.0</ele><time>2026-04-12T08:02:01Z</time></trkpt><trkpt lat="43.48016422679961" lon="12.062415903223936"><ele>317.0</ele><time>2026-04-12T08:02:02Z</time></trkpt><trkpt lat="43.480295002483516" lon="12.0626078794273"><ele>317.0</ele><time>2026-04-12T08:02:03Z</time></trkpt><trkpt lat="43.48040287793837" lon="12.0628247518542"><ele>318.0</ele><time>2026-04-12T08:02:04Z</time></trkpt><trkpt lat="43.48049638409156" lon="12.063059132895512"><ele>319.0</ele><time>2026-04-12T08:02:05Z</time></trkpt><trkpt lat="43.48058146216279" lon="12.063304462537886"><ele>320.0</ele><time>2026-04-12T08:02:06Z</time></trkpt><trkpt lat="43.48065844025936" lon="12.063556963867915"><ele>320.0</ele><time>2026-04-12T08:02:07Z</time></trkpt><trkpt lat="43.48072460346041" lon="12.06381688078082"><ele>320.0</ele><time>2026-04-12T08:02:08Z</time></trkpt><trkpt lat="43.48078413901731" lon="12.064077635297604"><ele>320.0</ele><time>2026-04-12T08:02:09Z</time></trkpt><trkpt lat="43.48083429651144" lon="12.064339890324051"><ele>317.6666666666667</ele><time>2026-04-12T08:02:10Z</time></trkpt><trkpt lat="43.48087501290996" lon="12.064601674877833"><ele>315.3333333333333</ele><time>2026-04-12T08:02:11Z</time></trkpt><trkpt lat="43.480906436276136" lon="12.064860390660066"><ele>313.0</ele><time>2026-04-12T08:02:12Z</time></trkpt><trkpt lat="43.48094384343435" lon="12.06511648091171"><ele>312.3333333333333</ele><time>2026-04-12T08:02:13Z</time></trkpt><trkpt lat="43.48098561474438" lon="12.065372993483825"><ele>311.6666666666667</ele><time>2026-04-12T08:02:14Z</time></trkpt><trkpt lat="43.48102410242457" lon="12.065633244865728"><ele>311.0</ele><time>2026-04-12T08:02:15Z</time></trkpt><trkpt lat="43.48106206275443" lon="12.06589352157276"><ele>310.6666666666667</ele><time>2026-04-12T08:02:16Z</time></trkpt><trkpt lat="43.481099196822655" lon="12.0661545949496"><ele>310.3333333333333</ele><time>2026-04-12T08:02:17Z</time></trkpt><trkpt lat="43.481128541870596" lon="12.066417947099648"><ele>310.0</ele><time>2026-04-12T08:02:18Z</time></trkpt><trkpt lat="43.48115363109227" lon="12.066684571816664"><ele>309.66666666666663</ele><time>2026-04-12T08:02:19Z</time></trkpt><trkpt lat="43.48116038135712" lon="12.066951467370314"><ele>309.3333333333333</ele><time>2026-04-12T08:02:20Z</time></trkpt><trkpt lat="43.48116142884532" lon="12.067224032394732"><ele>309.0</ele><time>2026-04-12T08:02:21Z</time></trkpt><trkpt lat="43.48116230482799" lon="12.067494342711688"><ele>308.6666666666667</ele><time>2026-04-12T08:02:22Z</time></trkpt><trkpt lat="43.48116337352228" lon="12.067768201335868"><ele>308.33333333333337</ele><time>2026-04-12T08:02:23Z</time></trkpt><trkpt lat="43.48116728443088" lon="12.06804238674987"><ele>308.0</ele><time>2026-04-12T08:02:23.999Z</time></trkpt><trkpt lat="43.48117782782953" lon="12.06830356973101"><ele>308.0</ele><time>2026-04-12T08:02:24.999Z</time></trkpt><trkpt lat="43.481196409947096" lon="12.068545377359097"><ele>308.0</ele><time>2026-04-12T08:02:25.999Z</time></trkpt><trkpt lat="43.48122796631257" lon="12.068790592302364"><ele>308.0</ele><time>2026-04-12T08:02:26.999Z</time></trkpt><trkpt lat="43.48127106184385" lon="12.069035645339472"><ele>311.6666666666667</ele><time>2026-04-12T08:02:27.999Z</time></trkpt><trkpt lat="43.4813228775071" lon="12.069279980952544"><ele>315.3333333333333</ele><time>2026-04-12T08:02:28.999Z</time></trkpt><trkpt lat="43.481384539063285" lon="12.069524532410478"><ele>319.0</ele><time>2026-04-12T08:02:29.999Z</time></trkpt><trkpt lat="43.48144878512772" lon="12.069768606522493"><ele>316.0</ele><time>2026-04-12T08:02:30.999Z</time></trkpt><trkpt lat="43.48152223813133" lon="12.070007259490326"><ele>313.0</ele><time>2026-04-12T08:02:31.999Z</time></trkpt><trkpt lat="43.48160949178968" lon="12.070233431387079"><ele>310.0</ele><time>2026-04-12T08:02:32.999Z</time></trkpt><trkpt lat="43.4816988648205" lon="12.070439553137765"><ele>310.0</ele><time>2026-04-12T08:02:33.999Z</time></trkpt><trkpt lat="43.48177584807047" lon="12.070638762072424"><ele>310.0</ele><time>2026-04-12T08:02:34.999Z</time></trkpt><trkpt lat="43.48185438259919" lon="12.070841105092672"><ele>310.0</ele><time>2026-04-12T08:02:35.999Z</time></trkpt><trkpt lat="43.48193428945776" lon="12.071035547666812"><ele>310.0</ele><time>2026-04-12T08:02:36.999Z</time></trkpt><trkpt lat="43.4820108485636" lon="12.071230448317621"><ele>310.0</ele><time>2026-04-12T08:02:37.999Z</time></trkpt><trkpt lat="43.482085768271446" lon="12.071418625929597"><ele>310.0</ele><time>2026-04-12T08:02:38.999Z</time></trkpt><trkpt lat="43.482156457933485" lon="12.07160680730166"><ele>314.3333333333333</ele><time>2026-04-12T08:02:39.999Z</time></trkpt><trkpt lat="43.482228574526665" lon="12.07179163225209"><ele>318.6666666666667</ele><time>2026-04-12T08:02:40.999Z</time></trkpt><trkpt lat="43.4822996920165" lon="12.071972325802555"><ele>323.0</ele><time>2026-04-12T08:02:41.999Z</time></trkpt><trkpt lat="43.48237061838526" lon="12.072152190421082"><ele>323.0</ele><time>2026-04-12T08:02:42.999Z</time></trkpt><trkpt lat="43.48244032118848" lon="12.072328996631727"><ele>323.0</ele><time>2026-04-12T08:02:43.999Z</time></trkpt><trkpt lat="43.48250979323074" lon="12.072503343386012"><ele>323.0</ele><time>2026-04-12T08:02:44.999Z</time></trkpt><trkpt lat="43.48257919965914" lon="12.072676864538867"><ele>323.0</ele><time>2026-04-12T08:02:45.999Z</time></trkpt><trkpt lat="43.48264873449758" lon="12.072848575234056"><ele>322.0</ele><time>2026-04-12T08:02:46.999Z</time></trkpt><trkpt lat="43.48272005881196" lon="12.073013543886956"><ele>321.0</ele><time>2026-04-12T08:02:47.999Z</time></trkpt><trkpt lat="43.48279062050356" lon="12.07317905569173"><ele>320.0</ele><time>2026-04-12T08:02:48.999Z</time></trkpt><trkpt lat="43.48286437535071" lon="12.07334438939449"><ele>319.0</ele><time>2026-04-12T08:02:49.999Z</time></trkpt><trkpt lat="43.482941228077195" lon="12.073507554662159"><ele>319.0</ele><time>2026-04-12T08:02:50.999Z</time></trkpt><trkpt lat="43.48302394574707" lon="12.073666541828104"><ele>319.0</ele><time>2026-04-12T08:02:51.999Z</time></trkpt><trkpt lat="43.48311185092954" lon="12.073823754598815"><ele>319.0</ele><time>2026-04-12T08:02:52.999Z</time></trkpt><trkpt lat="43.48320563145379" lon="12.073979547553295"><ele>319.0</ele><time>2026-04-12T08:02:53.999Z</time></trkpt><trkpt lat="43.483300532990896" lon="12.074132697537573"><ele>317.66666666666663</ele><time>2026-04-12T08:02:54.999Z</time></trkpt><trkpt lat="43.48339509650693" lon="12.074293274468602"><ele>316.3333333333333</ele><time>2026-04-12T08:02:55.999Z</time></trkpt><trkpt lat="43.483488295626245" lon="12.074454521007599"><ele>315.0</ele><time>2026-04-12T08:02:56.999Z</time></trkpt><trkpt lat="43.483579563221255" lon="12.074619169940222"><ele>315.0</ele><time>2026-04-12T08:02:57.999Z</time></trkpt><trkpt lat="43.483666797058575" lon="12.074786305277886"><ele>315.0</ele><time>2026-04-12T08:02:58.999Z</time></trkpt><trkpt lat="43.48374867774397" lon="12.074960338312447"><ele>315.0</ele><time>2026-04-12T08:02:59.999Z</time></trkpt><trkpt lat="43.483820060896186" lon="12.075144236382458"><ele>316.0</ele><time>2026-04-12T08:03:00.999Z</time></trkpt><trkpt lat="43.483885603402186" lon="12.075331318856168"><ele>317.0</ele><time>2026-04-12T08:03:01.999Z</time></trkpt><trkpt lat="43.483948746253944" lon="12.075518914092028"><ele>318.0</ele><time>2026-04-12T08:03:02.999Z</time></trkpt><trkpt lat="43.48401260109948" lon="12.075708114039513"><ele>316.3333333333333</ele><time>2026-04-12T08:03:03.999Z</time></trkpt><trkpt lat="43.48407866839349" lon="12.075896321186354"><ele>314.66666666666663</ele><time>2026-04-12T08:03:04.999Z</time></trkpt><trkpt lat="43.48414459025125" lon="12.076082076055522"><ele>313.0</ele><time>2026-04-12T08:03:05.999Z</time></trkpt><trkpt lat="43.48421025601403" lon="12.076269983735383"><ele>313.0</ele><time>2026-04-12T08:03:06.999Z</time></trkpt><trkpt lat="43.48427609787486" lon="12.076460443995579"><ele>313.0</ele><time>2026-04-12T08:03:07.999Z</time></trkpt><trkpt lat="43.484340043501554" lon="12.07665067808584"><ele>313.0</ele><time>2026-04-12T08:03:08.999Z</time></trkpt><trkpt lat="43.48440467926936" lon="12.076840509487722"><ele>313.75</ele><time>2026-04-12T08:03:09.999Z</time></trkpt><trkpt lat="43.484466783613776" lon="12.077022908800563"><ele>314.5</ele><time>2026-04-12T08:03:10.999Z</time></trkpt><trkpt lat="43.484525247598036" lon="12.077197287902266"><ele>315.25</ele><time>2026-04-12T08:03:11.999Z</time></trkpt><trkpt lat="43.48458495320161" lon="12.077367026255846"><ele>316.0</ele><time>2026-04-12T08:03:12.999Z</time></trkpt><trkpt lat="43.48464242900268" lon="12.077535393221162"><ele>316.0</ele><time>2026-04-12T08:03:13.999Z</time></trkpt><trkpt lat="43.484701832097514" lon="12.077696932008795"><ele>316.0</ele><time>2026-04-12T08:03:14.999Z</time></trkpt><trkpt lat="43.48476207595411" lon="12.077850373226916"><ele>316.0</ele><time>2026-04-12T08:03:15.999Z</time></trkpt><trkpt lat="43.48482590031778" lon="12.07798922331081"><ele>316.0</ele><time>2026-04-12T08:03:16.999Z</time></trkpt><trkpt lat="43.48489381714351" lon="12.078097444471277"><ele>316.0</ele><time>2026-04-12T08:03:17.999Z</time></trkpt><trkpt lat="43.48496325159923" lon="12.078177868959266"><ele>316.0</ele><time>2026-04-12T08:03:18.999Z</time></trkpt><trkpt lat="43.485039627017436" lon="12.078271170270096"><ele>316.0</ele><time>2026-04-12T08:03:19.999Z</time></trkpt><trkpt lat="43.485143546999424" lon="12.07835391679901"><ele>316.0</ele><time>2026-04-12T08:03:20.999Z</time></trkpt><trkpt lat="43.48526340117468" lon="12.07844752485744"><ele>317.0</ele><time>2026-04-12T08:03:21.999Z</time></trkpt><trkpt lat="43.485421440182385" lon="12.078493620055266"><ele>318.0</ele><time>2026-04-12T08:03:22.999Z</time></trkpt><trkpt lat="43.485581162418605" lon="12.078572365021879"><ele>319.0</ele><time>2026-04-12T08:03:23.999Z</time></trkpt><trkpt lat="43.485743583239014" lon="12.078662242083652"><ele>319.0</ele><time>2026-04-12T08:03:24.999Z</time></trkpt><trkpt lat="43.48590882720616" lon="12.078781612828458"><ele>319.0</ele><time>2026-04-12T08:03:25.999Z</time></trkpt><trkpt lat="43.486069186361455" lon="12.07892207882268"><ele>319.0</ele><time>2026-04-12T08:03:26.999Z</time></trkpt><trkpt lat="43.486224063318936" lon="12.079081245106442"><ele>320.3333333333333</ele><time>2026-04-12T08:03:27.999Z</time></trkpt><trkpt lat="43.486382052512944" lon="12.079250740121129"><ele>321.6666666666667</ele><time>2026-04-12T08:03:28.999Z</time></trkpt><trkpt lat="43.486537071042825" lon="12.079420648057837"><ele>323.0</ele><time>2026-04-12T08:03:29.999Z</time></trkpt><trkpt lat="43.48668871447869" lon="12.079583411374708"><ele>323.0</ele><time>2026-04-12T08:03:30.999Z</time></trkpt><trkpt lat="43.48683832364619" lon="12.079725998198503"><ele>323.0</ele><time>2026-04-12T08:03:31.999Z</time></trkpt><trkpt lat="43.487025267341195" lon="12.079814083064901"><ele>323.0</ele><time>2026-04-12T08:03:32.999Z</time></trkpt><trkpt lat="43.48718176904582" lon="12.079978954342433"><ele>326.0</ele><time>2026-04-12T08:03:33.999Z</time></trkpt><trkpt lat="43.4873909542781" lon="12.079982855983141"><ele>329.0</ele><time>2026-04-12T08:03:34.999Z</time></trkpt><trkpt lat="43.48759126489569" lon="12.079907088108863"><ele>332.0</ele><time>2026-04-12T08:03:35.999Z</time></trkpt><trkpt lat="43.48778637971485" lon="12.079784429113925"><ele>331.5</ele><time>2026-04-12T08:03:36.999Z</time></trkpt><trkpt lat="43.48794283356804" lon="12.07954211702216"><ele>331.0</ele><time>2026-04-12T08:03:38Z</time></trkpt><trkpt lat="43.48813462315877" lon="12.079390185201344"><ele>331.0</ele><time>2026-04-12T08:03:39Z</time></trkpt><trkpt lat="43.488327168252546" lon="12.079300731289589"><ele>331.0</ele><time>2026-04-12T08:03:40Z</time></trkpt><trkpt lat="43.488524418430174" lon="12.079223881609689"><ele>331.0</ele><time>2026-04-12T08:03:41Z</time></trkpt><trkpt lat="43.48873555729373" lon="12.079176975520564"><ele>327.0</ele><time>2026-04-12T08:03:42Z</time></trkpt><trkpt lat="43.48895793235195" lon="12.079161972946324"><ele>323.0</ele><time>2026-04-12T08:03:43Z</time></trkpt><trkpt lat="43.48918594520355" lon="12.07918536048658"><ele>323.0</ele><time>2026-04-12T08:03:44Z</time></trkpt><trkpt lat="43.48941406936086" lon="12.079237299270636"><ele>323.0</ele><time>2026-04-12T08:03:45Z</time></trkpt><trkpt lat="43.48963935395611" lon="12.079294489422256"><ele>322.0</ele><time>2026-04-12T08:03:46Z</time></trkpt><trkpt lat="43.48984148558627" lon="12.079346696443414"><ele>321.0</ele><time>2026-04-12T08:03:47Z</time></trkpt><trkpt lat="43.49001969148773" lon="12.079372145901424"><ele>320.0</ele><time>2026-04-12T08:03:48Z</time></trkpt><trkpt lat="43.49017936847531" lon="12.079420058255646"><ele>320.0</ele><time>2026-04-12T08:03:49Z</time></trkpt><trkpt lat="43.49033741542271" lon="12.079452646891324"><ele>320.0</ele><time>2026-04-12T08:03:50Z</time></trkpt><trkpt lat="43.49050668477184" lon="12.07951947265461"><ele>320.0</ele><time>2026-04-12T08:03:51Z</time></trkpt><trkpt lat="43.4906910534363" lon="12.079568796999313"><ele>319.33333333333337</ele><time>2026-04-12T08:03:52Z</time></trkpt><trkpt lat="43.490877934639606" lon="12.079625003598304"><ele>318.6666666666667</ele><time>2026-04-12T08:03:53Z</time></trkpt><trkpt lat="43.49106075454906" lon="12.079696198624479"><ele>318.0</ele><time>2026-04-12T08:03:54Z</time></trkpt><trkpt lat="43.49125289896982" lon="12.079791984108825"><ele>319.6666666666667</ele><time>2026-04-12T08:03:55Z</time></trkpt><trkpt lat="43.49144011757451" lon="12.07991218576922"><ele>321.33333333333337</ele><time>2026-04-12T08:03:56Z</time></trkpt><trkpt lat="43.49162205602537" lon="12.080061589790269"><ele>323.0</ele><time>2026-04-12T08:03:57Z</time></trkpt><trkpt lat="43.491812854472784" lon="12.08020919386266"><ele>323.0</ele><time>2026-04-12T08:03:58Z</time></trkpt><trkpt lat="43.49198461148114" lon="12.080406210037372"><ele>323.0</ele><time>2026-04-12T08:03:59Z</time></trkpt><trkpt lat="43.49214537108304" lon="12.080619797506268"><ele>323.0</ele><time>2026-04-12T08:04:00Z</time></trkpt><trkpt lat="43.49229758068649" lon="12.080861512992618"><ele>322.0</ele><time>2026-04-12T08:04:01Z</time></trkpt><trkpt lat="43.49244154926337" lon="12.081115075766625"><ele>321.0</ele><time>2026-04-12T08:04:02Z</time></trkpt><trkpt lat="43.49259529423636" lon="12.08136171159074"><ele>319.0</ele><time>2026-04-12T08:04:03Z</time></trkpt><trkpt lat="43.49275029373053" lon="12.081610890174524"><ele>317.0</ele><time>2026-04-12T08:04:04Z</time></trkpt><trkpt lat="43.492911628997064" lon="12.081854140454647"><ele>324.0</ele><time>2026-04-12T08:04:05Z</time></trkpt><trkpt lat="43.4930904578563" lon="12.082079980145183"><ele>331.0</ele><time>2026-04-12T08:04:06Z</time></trkpt><trkpt lat="43.49329280403986" lon="12.08226573443662"><ele>331.0</ele><time>2026-04-12T08:04:07Z</time></trkpt><trkpt lat="43.49351243780406" lon="12.082400358443167"><ele>331.0</ele><time>2026-04-12T08:04:08Z</time></trkpt><trkpt lat="43.49374172990662" lon="12.082507757707868"><ele>326.5</ele><time>2026-04-12T08:04:09Z</time></trkpt><trkpt lat="43.49397504513777" lon="12.082598263699557"><ele>322.0</ele><time>2026-04-12T08:04:10Z</time></trkpt><trkpt lat="43.494214055435606" lon="12.082678065544215"><ele>322.0</ele><time>2026-04-12T08:04:11Z</time></trkpt><trkpt lat="43.49444777845638" lon="12.082762347997008"><ele>322.0</ele><time>2026-04-12T08:04:12Z</time></trkpt><trkpt lat="43.49467908979007" lon="12.082848257386088"><ele>324.0</ele><time>2026-04-12T08:04:13Z</time></trkpt><trkpt lat="43.49490525837991" lon="12.082939189161971"><ele>326.0</ele><time>2026-04-12T08:04:14Z</time></trkpt><trkpt lat="43.49513262256092" lon="12.083025700749495"><ele>326.0</ele><time>2026-04-12T08:04:15Z</time></trkpt><trkpt lat="43.49535962594817" lon="12.083114685747145"><ele>326.0</ele><time>2026-04-12T08:04:16Z</time></trkpt><trkpt lat="43.4955874357955" lon="12.083206207678483"><ele>326.0</ele><time>2026-04-12T08:04:17Z</time></trkpt><trkpt lat="43.495816171379424" lon="12.08330192747563"><ele>326.0</ele><time>2026-04-12T08:04:18Z</time></trkpt><trkpt lat="43.49604172187731" lon="12.083405887780163"><ele>330.5</ele><time>2026-04-12T08:04:19Z</time></trkpt><trkpt lat="43.49626492651441" lon="12.083518549796295"><ele>335.0</ele><time>2026-04-12T08:04:20Z</time></trkpt><trkpt lat="43.49646982948403" lon="12.083683557921695"><ele>335.0</ele><time>2026-04-12T08:04:21Z</time></trkpt><trkpt lat="43.49667635860506" lon="12.083845568318658"><ele>335.0</ele><time>2026-04-12T08:04:22Z</time></trkpt><trkpt lat="43.49688154630556" lon="12.084007392533534"><ele>332.5</ele><time>2026-04-12T08:04:23Z</time></trkpt><trkpt lat="43.49707202993041" lon="12.084191952713287"><ele>330.0</ele><time>2026-04-12T08:04:24Z</time></trkpt><trkpt lat="43.49726359294021" lon="12.084367122800863"><ele>337.5</ele><time>2026-04-12T08:04:25Z</time></trkpt><trkpt lat="43.497454312956535" lon="12.084518704941416"><ele>345.0</ele><time>2026-04-12T08:04:26Z</time></trkpt><trkpt lat="43.49766956252878" lon="12.084652790035987"><ele>345.0</ele><time>2026-04-12T08:04:27Z</time></trkpt><trkpt lat="43.497899167080206" lon="12.084762767541859"><ele>345.0</ele><time>2026-04-12T08:04:28Z</time></trkpt><trkpt lat="43.49814164951062" lon="12.084886247323318"><ele>343.6666666666667</ele><time>2026-04-12T08:04:29Z</time></trkpt><trkpt lat="43.49834131636214" lon="12.084961495795945"><ele>342.33333333333337</ele><time>2026-04-12T08:04:30Z</time></trkpt><trkpt lat="43.498564567332835" lon="12.08503155606566"><ele>341.0</ele><time>2026-04-12T08:04:31Z</time></trkpt><trkpt lat="43.49879171157653" lon="12.085082740752878"><ele>339.33333333333337</ele><time>2026-04-12T08:04:32Z</time></trkpt><trkpt lat="43.49901567437767" lon="12.085084869940584"><ele>337.6666666666667</ele><time>2026-04-12T08:04:33Z</time></trkpt><trkpt lat="43.49922676497932" lon="12.085045939477359"><ele>336.0</ele><time>2026-04-12T08:04:34Z</time></trkpt><trkpt lat="43.499431931539846" lon="12.084965471230188"><ele>335.6666666666667</ele><time>2026-04-12T08:04:35Z</time></trkpt><trkpt lat="43.499616610431865" lon="12.084842183250283"><ele>335.33333333333337</ele><time>2026-04-12T08:04:36Z</time></trkpt><trkpt lat="43.49978500525918" lon="12.084686342428135"><ele>335.0</ele><time>2026-04-12T08:04:37Z</time></trkpt><trkpt lat="43.499936501346454" lon="12.084511585555191"><ele>335.0</ele><time>2026-04-12T08:04:38Z</time></trkpt><trkpt lat="43.50007024108994" lon="12.08431587793243"><ele>335.0</ele><time>2026-04-12T08:04:39Z</time></trkpt><trkpt lat="43.50018755808964" lon="12.084131720307019"><ele>335.0</ele><time>2026-04-12T08:04:40Z</time></trkpt><trkpt lat="43.50030106469472" lon="12.083959523423621"><ele>336.6666666666667</ele><time>2026-04-12T08:04:41Z</time></trkpt><trkpt lat="43.50041144757269" lon="12.083791422928174"><ele>338.3333333333333</ele><time>2026-04-12T08:04:42Z</time></trkpt><trkpt lat="43.50052290145126" lon="12.083631381946752"><ele>340.0</ele><time>2026-04-12T08:04:43Z</time></trkpt><trkpt lat="43.50065149304857" lon="12.083474082409225"><ele>333.3333333333333</ele><time>2026-04-12T08:04:44Z</time></trkpt><trkpt lat="43.50077949719928" lon="12.083290576788736"><ele>326.6666666666667</ele><time>2026-04-12T08:04:45Z</time></trkpt><trkpt lat="43.50091116827913" lon="12.083101500508016"><ele>320.0</ele><time>2026-04-12T08:04:46Z</time></trkpt><trkpt lat="43.50103641340184" lon="12.082920674804763"><ele>320.0</ele><time>2026-04-12T08:04:47Z</time></trkpt><trkpt lat="43.50115516738825" lon="12.082747129685705"><ele>320.0</ele><time>2026-04-12T08:04:48Z</time></trkpt><trkpt lat="43.50127355203921" lon="12.082585988937746"><ele>320.0</ele><time>2026-04-12T08:04:49Z</time></trkpt><trkpt lat="43.50139961012248" lon="12.082445834150782"><ele>317.0</ele><time>2026-04-12T08:04:50Z</time></trkpt><trkpt lat="43.50153702643856" lon="12.082317462747335"><ele>314.0</ele><time>2026-04-12T08:04:51Z</time></trkpt><trkpt lat="43.501678577961705" lon="12.082205990742347"><ele>311.0</ele><time>2026-04-12T08:04:52Z</time></trkpt><trkpt lat="43.50182263537174" lon="12.082108554126972"><ele>311.0</ele><time>2026-04-12T08:04:53Z</time></trkpt><trkpt lat="43.50196426264166" lon="12.082022738932109"><ele>311.0</ele><time>2026-04-12T08:04:54Z</time></trkpt><trkpt lat="43.50210998771866" lon="12.081962730435748"><ele>311.0</ele><time>2026-04-12T08:04:55Z</time></trkpt><trkpt lat="43.50226344375818" lon="12.081911244770009"><ele>311.0</ele><time>2026-04-12T08:04:55.999Z</time></trkpt><trkpt lat="43.50242365309802" lon="12.081874521142588"><ele>311.0</ele><time>2026-04-12T08:04:56.999Z</time></trkpt><trkpt lat="43.50258597615306" lon="12.081854396775459"><ele>311.0</ele><time>2026-04-12T08:04:57.999Z</time></trkpt><trkpt lat="43.502743879648555" lon="12.081854835102918"><ele>311.0</ele><time>2026-04-12T08:04:58.999Z</time></trkpt><trkpt lat="43.50290182043683" lon="12.08187509971671"><ele>311.0</ele><time>2026-04-12T08:04:59.999Z</time></trkpt><trkpt lat="43.5030642202252" lon="12.081889215685733"><ele>311.0</ele><time>2026-04-12T08:05:00.999Z</time></trkpt><trkpt lat="43.503229954383514" lon="12.081941173383782"><ele>310.33333333333337</ele><time>2026-04-12T08:05:01.999Z</time></trkpt><trkpt lat="43.50340186039724" lon="12.08200548764319"><ele>309.6666666666667</ele><time>2026-04-12T08:05:02.999Z</time></trkpt><trkpt lat="43.50357812055198" lon="12.082071660265553"><ele>309.0</ele><time>2026-04-12T08:05:03.999Z</time></trkpt><trkpt lat="43.503754752573016" lon="12.082145249033553"><ele>309.0</ele><time>2026-04-12T08:05:04.999Z</time></trkpt><trkpt lat="43.50392775883756" lon="12.082207238809353"><ele>309.0</ele><time>2026-04-12T08:05:05.999Z</time></trkpt><trkpt lat="43.504101541010336" lon="12.082273326321486"><ele>309.0</ele><time>2026-04-12T08:05:06.999Z</time></trkpt><trkpt lat="43.50427849561087" lon="12.08235753310191"><ele>309.0</ele><time>2026-04-12T08:05:07.999Z</time></trkpt><trkpt lat="43.50447868304335" lon="12.08243395959"><ele>309.0</ele><time>2026-04-12T08:05:08.999Z</time></trkpt><trkpt lat="43.504678620347455" lon="12.0825104736847"><ele>309.0</ele><time>2026-04-12T08:05:09.999Z</time></trkpt><trkpt lat="43.50488744924872" lon="12.082590234747219"><ele>309.5</ele><time>2026-04-12T08:05:10.999Z</time></trkpt><trkpt lat="43.50510735496961" lon="12.082673603627772"><ele>310.0</ele><time>2026-04-12T08:05:11.999Z</time></trkpt><trkpt lat="43.50533721988646" lon="12.082744463922994"><ele>310.0</ele><time>2026-04-12T08:05:12.999Z</time></trkpt><trkpt lat="43.505572258856404" lon="12.082839481586616"><ele>310.0</ele><time>2026-04-12T08:05:13.999Z</time></trkpt><trkpt lat="43.505816652798714" lon="12.082930932606539"><ele>310.0</ele><time>2026-04-12T08:05:14.999Z</time></trkpt><trkpt lat="43.50607004157782" lon="12.083025833460287"><ele>310.0</ele><time>2026-04-12T08:05:15.999Z</time></trkpt><trkpt lat="43.506342447770734" lon="12.083128300073257"><ele>309.5</ele><time>2026-04-12T08:05:16.999Z</time></trkpt><trkpt lat="43.50664082034248" lon="12.083238328342402"><ele>309.0</ele><time>2026-04-12T08:05:17.999Z</time></trkpt><trkpt lat="43.50695174175624" lon="12.083355050238088"><ele>308.5</ele><time>2026-04-12T08:05:18.999Z</time></trkpt><trkpt lat="43.50727419040288" lon="12.08348034891239"><ele>308.0</ele><time>2026-04-12T08:05:19.999Z</time></trkpt><trkpt lat="43.50758483960876" lon="12.083595773818615"><ele>308.0</ele><time>2026-04-12T08:05:20.999Z</time></trkpt><trkpt lat="43.507884854964175" lon="12.083708176797844"><ele>308.0</ele><time>2026-04-12T08:05:21.999Z</time></trkpt><trkpt lat="43.50817770807843" lon="12.083818851727777"><ele>309.0</ele><time>2026-04-12T08:05:22.999Z</time></trkpt><trkpt lat="43.508461904867055" lon="12.083925240321822"><ele>310.0</ele><time>2026-04-12T08:05:23.999Z</time></trkpt><trkpt lat="43.50874037707751" lon="12.084031827626037"><ele>310.0</ele><time>2026-04-12T08:05:24.999Z</time></trkpt><trkpt lat="43.50901084738334" lon="12.084137612310332"><ele>310.0</ele><time>2026-04-12T08:05:25.999Z</time></trkpt><trkpt lat="43.509278604368205" lon="12.084235981377104"><ele>310.0</ele><time>2026-04-12T08:05:26.999Z</time></trkpt><trkpt lat="43.50954729300154" lon="12.084315772192586"><ele>310.0</ele><time>2026-04-12T08:05:27.999Z</time></trkpt><trkpt lat="43.50981657105441" lon="12.084370334368902"><ele>310.5</ele><time>2026-04-12T08:05:28.999Z</time></trkpt><trkpt lat="43.51008448108452" lon="12.084410961945325"><ele>311.0</ele><time>2026-04-12T08:05:29.999Z</time></trkpt><trkpt lat="43.51034824747109" lon="12.084447176816628"><ele>311.0</ele><time>2026-04-12T08:05:30.999Z</time></trkpt><trkpt lat="43.510608353307966" lon="12.084485801265032"><ele>311.0</ele><time>2026-04-12T08:05:31.999Z</time></trkpt><trkpt lat="43.5108649891117" lon="12.084513037590783"><ele>311.0</ele><time>2026-04-12T08:05:32.999Z</time></trkpt><trkpt lat="43.511118558628425" lon="12.084505415745975"><ele>311.0</ele><time>2026-04-12T08:05:33.999Z</time></trkpt><trkpt lat="43.51136480976948" lon="12.08443568562338"><ele>314.0</ele><time>2026-04-12T08:05:34.999Z</time></trkpt><trkpt lat="43.51160322861265" lon="12.08432478101371"><ele>317.0</ele><time>2026-04-12T08:05:35.999Z</time></trkpt><trkpt lat="43.511826921076334" lon="12.084163423583618"><ele>318.5</ele><time>2026-04-12T08:05:36.999Z</time></trkpt><trkpt lat="43.51203488399545" lon="12.083965439727269"><ele>320.0</ele><time>2026-04-12T08:05:37.999Z</time></trkpt><trkpt lat="43.512224940251166" lon="12.083734613745714"><ele>323.5</ele><time>2026-04-12T08:05:38.999Z</time></trkpt><trkpt lat="43.51240153231649" lon="12.083482565646204"><ele>327.0</ele><time>2026-04-12T08:05:39.999Z</time></trkpt><trkpt lat="43.51258860350771" lon="12.083246612912749"><ele>330.0</ele><time>2026-04-12T08:05:40.999Z</time></trkpt><trkpt lat="43.51277131983004" lon="12.083006835499134"><ele>333.0</ele><time>2026-04-12T08:05:41.999Z</time></trkpt><trkpt lat="43.512946477337756" lon="12.082748757615914"><ele>333.0</ele><time>2026-04-12T08:05:42.999Z</time></trkpt><trkpt lat="43.51314648928519" lon="12.082527281314853"><ele>333.0</ele><time>2026-04-12T08:05:44Z</time></trkpt><trkpt lat="43.513346903505855" lon="12.082307550729253"><ele>334.5</ele><time>2026-04-12T08:05:45Z</time></trkpt><trkpt lat="43.51356879065729" lon="12.082134714293925"><ele>336.0</ele><time>2026-04-12T08:05:46Z</time></trkpt><trkpt lat="43.513801814979324" lon="12.082017974173171"><ele>337.5</ele><time>2026-04-12T08:05:47Z</time></trkpt><trkpt lat="43.51404974155941" lon="12.08195714985195"><ele>339.0</ele><time>2026-04-12T08:05:48Z</time></trkpt><trkpt lat="43.51428491330313" lon="12.081942039814415"><ele>339.0</ele><time>2026-04-12T08:05:49Z</time></trkpt><trkpt lat="43.51450067270915" lon="12.081941777304845"><ele>339.0</ele><time>2026-04-12T08:05:50Z</time></trkpt><trkpt lat="43.51469548655088" lon="12.081927381168589"><ele>339.0</ele><time>2026-04-12T08:05:51Z</time></trkpt><trkpt lat="43.51487052227012" lon="12.081923987610596"><ele>341.25</ele><time>2026-04-12T08:05:52Z</time></trkpt><trkpt lat="43.51502931543443" lon="12.081926424341619"><ele>343.5</ele><time>2026-04-12T08:05:53Z</time></trkpt><trkpt lat="43.515174377073336" lon="12.081946732399798"><ele>345.75</ele><time>2026-04-12T08:05:54Z</time></trkpt><trkpt lat="43.515307976131275" lon="12.081926665362529"><ele>348.0</ele><time>2026-04-12T08:05:55Z</time></trkpt><trkpt lat="43.51543274572217" lon="12.081935391900586"><ele>349.0</ele><time>2026-04-12T08:05:56Z</time></trkpt><trkpt lat="43.51555572803014" lon="12.081965827271869"><ele>350.0</ele><time>2026-04-12T08:05:57Z</time></trkpt><trkpt lat="43.515671065617596" lon="12.082034569561182"><ele>351.0</ele><time>2026-04-12T08:05:58Z</time></trkpt><trkpt lat="43.515777210223064" lon="12.082123418762842"><ele>352.0</ele><time>2026-04-12T08:05:59Z</time></trkpt><trkpt lat="43.51588103870663" lon="12.082180434045746"><ele>352.0</ele><time>2026-04-12T08:06:00Z</time></trkpt><trkpt lat="43.515981971428445" lon="12.08216566204797"><ele>352.0</ele><time>2026-04-12T08:06:01Z</time></trkpt><trkpt lat="43.51607496669848" lon="12.082098922984413"><ele>352.0</ele><time>2026-04-12T08:06:02Z</time></trkpt><trkpt lat="43.51617623903643" lon="12.081992253268542"><ele>352.0</ele><time>2026-04-12T08:06:03Z</time></trkpt><trkpt lat="43.51629195991323" lon="12.08185171496989"><ele>352.66666666666663</ele><time>2026-04-12T08:06:04Z</time></trkpt><trkpt lat="43.51643511712743" lon="12.081683218413417"><ele>353.3333333333333</ele><time>2026-04-12T08:06:05Z</time></trkpt><trkpt lat="43.51661990626256" lon="12.08153225812538"><ele>354.0</ele><time>2026-04-12T08:06:06Z</time></trkpt><trkpt lat="43.5167840656552" lon="12.081317175863168"><ele>354.0</ele><time>2026-04-12T08:06:07Z</time></trkpt><trkpt lat="43.516966726877364" lon="12.08110848649351"><ele>354.0</ele><time>2026-04-12T08:06:08Z</time></trkpt><trkpt lat="43.51714651689377" lon="12.080897226250451"><ele>354.0</ele><time>2026-04-12T08:06:09Z</time></trkpt><trkpt lat="43.51734061866244" lon="12.080690026012846"><ele>354.0</ele><time>2026-04-12T08:06:10Z</time></trkpt><trkpt lat="43.5175153038268" lon="12.080463049030236"><ele>354.0</ele><time>2026-04-12T08:06:11Z</time></trkpt><trkpt lat="43.51770166184512" lon="12.08024013637135"><ele>354.0</ele><time>2026-04-12T08:06:12Z</time></trkpt><trkpt lat="43.517891682712" lon="12.080014397028954"><ele>351.0</ele><time>2026-04-12T08:06:13Z</time></trkpt><trkpt lat="43.51809904089331" lon="12.079818151476"><ele>348.0</ele><time>2026-04-12T08:06:14Z</time></trkpt><trkpt lat="43.51830437294727" lon="12.07963107603098"><ele>348.0</ele><time>2026-04-12T08:06:15Z</time></trkpt><trkpt lat="43.51852475968954" lon="12.079477411389156"><ele>348.0</ele><time>2026-04-12T08:06:16Z</time></trkpt><trkpt lat="43.51874731301824" lon="12.07936169883587"><ele>343.5</ele><time>2026-04-12T08:06:17Z</time></trkpt><trkpt lat="43.518988492570244" lon="12.079283528196381"><ele>339.0</ele><time>2026-04-12T08:06:18Z</time></trkpt><trkpt lat="43.51924584782457" lon="12.079223757933562"><ele>339.0</ele><time>2026-04-12T08:06:19Z</time></trkpt><trkpt lat="43.51954017024706" lon="12.079159915686661"><ele>339.0</ele><time>2026-04-12T08:06:20Z</time></trkpt><trkpt lat="43.5198160197817" lon="12.079101671655826"><ele>344.0</ele><time>2026-04-12T08:06:21Z</time></trkpt><trkpt lat="43.52004987503426" lon="12.07905259518049"><ele>349.0</ele><time>2026-04-12T08:06:22Z</time></trkpt><trkpt lat="43.52027730843759" lon="12.079004983466355"><ele>346.0</ele><time>2026-04-12T08:06:23Z</time></trkpt><trkpt lat="43.52051568213063" lon="12.078954812475741"><ele>343.0</ele><time>2026-04-12T08:06:24Z</time></trkpt><trkpt lat="43.52075341054856" lon="12.078905113440515"><ele>343.0</ele><time>2026-04-12T08:06:25Z</time></trkpt><trkpt lat="43.520995749409046" lon="12.078852877127519"><ele>343.0</ele><time>2026-04-12T08:06:26Z</time></trkpt><trkpt lat="43.52123933270266" lon="12.078798970812958"><ele>343.5</ele><time>2026-04-12T08:06:27Z</time></trkpt><trkpt lat="43.52148432185531" lon="12.078744753384674"><ele>344.0</ele><time>2026-04-12T08:06:28Z</time></trkpt><trkpt lat="43.52173152605301" lon="12.078690045756044"><ele>344.0</ele><time>2026-04-12T08:06:29Z</time></trkpt><trkpt lat="43.52197872018118" lon="12.078635337819273"><ele>344.0</ele><time>2026-04-12T08:06:30Z</time></trkpt><trkpt lat="43.522229038486046" lon="12.07857993738027"><ele>347.0</ele><time>2026-04-12T08:06:31Z</time></trkpt><trkpt lat="43.52247587186477" lon="12.07850610754714"><ele>350.0</ele><time>2026-04-12T08:06:32Z</time></trkpt><trkpt lat="43.5227236476181" lon="12.078452886927296"><ele>352.5</ele><time>2026-04-12T08:06:33Z</time></trkpt><trkpt lat="43.522972608171884" lon="12.0783965093574"><ele>355.0</ele><time>2026-04-12T08:06:34Z</time></trkpt><trkpt lat="43.523220914534235" lon="12.078342535706021"><ele>355.0</ele><time>2026-04-12T08:06:35Z</time></trkpt><trkpt lat="43.52346773492926" lon="12.07828895467214"><ele>355.0</ele><time>2026-04-12T08:06:36Z</time></trkpt><trkpt lat="43.52371287045604" lon="12.078236124896437"><ele>356.0</ele><time>2026-04-12T08:06:37Z</time></trkpt><trkpt lat="43.5239591441259" lon="12.078186398030656"><ele>357.0</ele><time>2026-04-12T08:06:38Z</time></trkpt><trkpt lat="43.52420464790717" lon="12.078135117448726"><ele>357.0</ele><time>2026-04-12T08:06:39Z</time></trkpt><trkpt lat="43.52444921071219" lon="12.078083376204978"><ele>357.0</ele><time>2026-04-12T08:06:40Z</time></trkpt><trkpt lat="43.524690253400095" lon="12.078029083631153"><ele>359.0</ele><time>2026-04-12T08:06:41Z</time></trkpt><trkpt lat="43.52492912371291" lon="12.07797507177676"><ele>361.0</ele><time>2026-04-12T08:06:42Z</time></trkpt><trkpt lat="43.525166953713786" lon="12.077922999577568"><ele>363.5</ele><time>2026-04-12T08:06:43Z</time></trkpt><trkpt lat="43.52540319955936" lon="12.077871148029542"><ele>366.0</ele><time>2026-04-12T08:06:44Z</time></trkpt><trkpt lat="43.52563986188365" lon="12.077819578272537"><ele>366.0</ele><time>2026-04-12T08:06:45Z</time></trkpt><trkpt lat="43.52587334367873" lon="12.077768089737269"><ele>366.0</ele><time>2026-04-12T08:06:46Z</time></trkpt><trkpt lat="43.52610968926732" lon="12.077716745779718"><ele>368.5</ele><time>2026-04-12T08:06:47Z</time></trkpt><trkpt lat="43.52634731123045" lon="12.07766463606792"><ele>371.0</ele><time>2026-04-12T08:06:48Z</time></trkpt><trkpt lat="43.526588114591725" lon="12.07761346357697"><ele>371.0</ele><time>2026-04-12T08:06:49Z</time></trkpt><trkpt lat="43.52683356029114" lon="12.077584718943058"><ele>371.0</ele><time>2026-04-12T08:06:50Z</time></trkpt><trkpt lat="43.527074325226536" lon="12.07753473532619"><ele>370.5</ele><time>2026-04-12T08:06:51Z</time></trkpt><trkpt lat="43.5273092521017" lon="12.077459202081595"><ele>370.0</ele><time>2026-04-12T08:06:52Z</time></trkpt><trkpt lat="43.52754921237693" lon="12.077409208034366"><ele>370.0</ele><time>2026-04-12T08:06:53Z</time></trkpt><trkpt lat="43.527787837280776" lon="12.077372980761211"><ele>370.0</ele><time>2026-04-12T08:06:54Z</time></trkpt><trkpt lat="43.52802361046286" lon="12.077389141966785"><ele>372.0</ele><time>2026-04-12T08:06:55Z</time></trkpt><trkpt lat="43.52825572212514" lon="12.077431790273613"><ele>374.0</ele><time>2026-04-12T08:06:56Z</time></trkpt><trkpt lat="43.52847900267176" lon="12.077518287218574"><ele>376.0</ele><time>2026-04-12T08:06:56.999Z</time></trkpt><trkpt lat="43.52869141714854" lon="12.07764549347718"><ele>378.0</ele><time>2026-04-12T08:06:57.999Z</time></trkpt><trkpt lat="43.52889197414991" lon="12.077811623952433"><ele>378.0</ele><time>2026-04-12T08:06:58.999Z</time></trkpt><trkpt lat="43.52908507192406" lon="12.077993664764715"><ele>378.0</ele><time>2026-04-12T08:06:59.999Z</time></trkpt><trkpt lat="43.52923519033116" lon="12.078255014678001"><ele>377.5</ele><time>2026-04-12T08:07:00.999Z</time></trkpt><trkpt lat="43.52938214746769" lon="12.078519964488859"><ele>377.0</ele><time>2026-04-12T08:07:01.999Z</time></trkpt><trkpt lat="43.529491629675974" lon="12.078819189986392"><ele>374.0</ele><time>2026-04-12T08:07:02.999Z</time></trkpt><trkpt lat="43.52956127545944" lon="12.07914649363422"><ele>371.0</ele><time>2026-04-12T08:07:03.999Z</time></trkpt><trkpt lat="43.52960080323273" lon="12.079488518843661"><ele>371.0</ele><time>2026-04-12T08:07:04.999Z</time></trkpt><trkpt lat="43.529616114569045" lon="12.07983735051324"><ele>371.0</ele><time>2026-04-12T08:07:05.999Z</time></trkpt><trkpt lat="43.52962937612262" lon="12.080180109922821"><ele>369.0</ele><time>2026-04-12T08:07:06.999Z</time></trkpt><trkpt lat="43.52965154115829" lon="12.080527588049927"><ele>367.0</ele><time>2026-04-12T08:07:07.999Z</time></trkpt><trkpt lat="43.52967836603886" lon="12.080873935723782"><ele>361.0</ele><time>2026-04-12T08:07:08.999Z</time></trkpt><trkpt lat="43.52970284197752" lon="12.081219596491612"><ele>355.0</ele><time>2026-04-12T08:07:09.999Z</time></trkpt><trkpt lat="43.52972966771743" lon="12.081567742442731"><ele>355.0</ele><time>2026-04-12T08:07:10.999Z</time></trkpt><trkpt lat="43.52975877489597" lon="12.081913181365417"><ele>355.0</ele><time>2026-04-12T08:07:11.999Z</time></trkpt><trkpt lat="43.529787690831625" lon="12.082263672709255"><ele>355.5</ele><time>2026-04-12T08:07:12.999Z</time></trkpt><trkpt lat="43.529812263841045" lon="12.082615041914028"><ele>356.0</ele><time>2026-04-12T08:07:13.999Z</time></trkpt><trkpt lat="43.52983636164194" lon="12.082966626690716"><ele>353.0</ele><time>2026-04-12T08:07:14.999Z</time></trkpt><trkpt lat="43.52986016761107" lon="12.083315056189576"><ele>350.0</ele><time>2026-04-12T08:07:15.999Z</time></trkpt><trkpt lat="43.52988411219385" lon="12.0836597776454"><ele>350.0</ele><time>2026-04-12T08:07:16.999Z</time></trkpt><trkpt lat="43.52990990510361" lon="12.084003982018457"><ele>350.0</ele><time>2026-04-12T08:07:17.999Z</time></trkpt><trkpt lat="43.52993503109214" lon="12.084349904815278"><ele>345.5</ele><time>2026-04-12T08:07:18.999Z</time></trkpt><trkpt lat="43.529961088234856" lon="12.084693592353577"><ele>341.0</ele><time>2026-04-12T08:07:19.999Z</time></trkpt><trkpt lat="43.529985996346085" lon="12.085037510155438"><ele>338.5</ele><time>2026-04-12T08:07:20.999Z</time></trkpt><trkpt lat="43.53000927682361" lon="12.085379834549402"><ele>336.0</ele><time>2026-04-12T08:07:21.999Z</time></trkpt><trkpt lat="43.530032221112" lon="12.085720696290963"><ele>333.5</ele><time>2026-04-12T08:07:22.999Z</time></trkpt><trkpt lat="43.530056493774566" lon="12.086059877044427"><ele>331.0</ele><time>2026-04-12T08:07:23.999Z</time></trkpt><trkpt lat="43.5300818882138" lon="12.086398458485279"><ele>328.0</ele><time>2026-04-12T08:07:24.999Z</time></trkpt><trkpt lat="43.53010797556568" lon="12.086735121037153"><ele>325.0</ele><time>2026-04-12T08:07:25.999Z</time></trkpt><trkpt lat="43.53014499944315" lon="12.087067052160862"><ele>325.0</ele><time>2026-04-12T08:07:26.999Z</time></trkpt><trkpt lat="43.530208086593504" lon="12.087387264819789"><ele>325.0</ele><time>2026-04-12T08:07:27.999Z</time></trkpt><trkpt lat="43.530295775100555" lon="12.087697780487893"><ele>322.5</ele><time>2026-04-12T08:07:28.998Z</time></trkpt><trkpt lat="43.53040473260682" lon="12.087992308858741"><ele>320.0</ele><time>2026-04-12T08:07:29.998Z</time></trkpt><trkpt lat="43.53053951138452" lon="12.088264309208444"><ele>319.5</ele><time>2026-04-12T08:07:30.998Z</time></trkpt><trkpt lat="43.53068990661526" lon="12.088512544204901"><ele>319.0</ele><time>2026-04-12T08:07:31.998Z</time></trkpt><trkpt lat="43.53085959431064" lon="12.088740107464924"><ele>319.0</ele><time>2026-04-12T08:07:32.998Z</time></trkpt><trkpt lat="43.531047277124365" lon="12.088942737532035"><ele>319.0</ele><time>2026-04-12T08:07:33.998Z</time></trkpt><trkpt lat="43.53124127996942" lon="12.0891296625996"><ele>319.0</ele><time>2026-04-12T08:07:34.998Z</time></trkpt><trkpt lat="43.531445903056984" lon="12.089299802118278"><ele>319.0</ele><time>2026-04-12T08:07:35.998Z</time></trkpt><trkpt lat="43.531643556164056" lon="12.089466196269633"><ele>319.0</ele><time>2026-04-12T08:07:36.998Z</time></trkpt><trkpt lat="43.5318312013048" lon="12.08962776533138"><ele>319.0</ele><time>2026-04-12T08:07:37.998Z</time></trkpt><trkpt lat="43.53200342622016" lon="12.089804486657245"><ele>319.0</ele><time>2026-04-12T08:07:38.998Z</time></trkpt><trkpt lat="43.5322011357603" lon="12.089972288402462"><ele>318.66666666666663</ele><time>2026-04-12T08:07:39.998Z</time></trkpt><trkpt lat="43.53237169294768" lon="12.090120414392054"><ele>318.3333333333333</ele><time>2026-04-12T08:07:40.998Z</time></trkpt><trkpt lat="43.53252970187565" lon="12.090263460916471"><ele>318.0</ele><time>2026-04-12T08:07:41.998Z</time></trkpt><trkpt lat="43.53268058305696" lon="12.090398727652508"><ele>318.0</ele><time>2026-04-12T08:07:42.998Z</time></trkpt><trkpt lat="43.532832998801915" lon="12.09053201601338"><ele>318.0</ele><time>2026-04-12T08:07:43.998Z</time></trkpt><trkpt lat="43.53298882006462" lon="12.090671895729027"><ele>318.0</ele><time>2026-04-12T08:07:44.998Z</time></trkpt><trkpt lat="43.53314950457672" lon="12.0908155761081"><ele>319.0</ele><time>2026-04-12T08:07:45.998Z</time></trkpt><trkpt lat="43.5333045750259" lon="12.090955476862478"><ele>320.0</ele><time>2026-04-12T08:07:46.998Z</time></trkpt><trkpt lat="43.53345864883886" lon="12.091094640754093"><ele>321.0</ele><time>2026-04-12T08:07:47.998Z</time></trkpt><trkpt lat="43.533616571209826" lon="12.091229772678545"><ele>321.3333333333333</ele><time>2026-04-12T08:07:49Z</time></trkpt><trkpt lat="43.53377225303049" lon="12.091368318714391"><ele>321.66666666666663</ele><time>2026-04-12T08:07:50Z</time></trkpt><trkpt lat="43.53392938751865" lon="12.091506438515601"><ele>322.0</ele><time>2026-04-12T08:07:51Z</time></trkpt><trkpt lat="43.53408763542851" lon="12.091644804844963"><ele>322.66666666666663</ele><time>2026-04-12T08:07:52Z</time></trkpt><trkpt lat="43.53424782899725" lon="12.091777353228897"><ele>323.3333333333333</ele><time>2026-04-12T08:07:53Z</time></trkpt><trkpt lat="43.53441372231783" lon="12.091913536715216"><ele>324.0</ele><time>2026-04-12T08:07:54Z</time></trkpt><trkpt lat="43.53456929537323" lon="12.09207317052209"><ele>322.3333333333333</ele><time>2026-04-12T08:07:55Z</time></trkpt><trkpt lat="43.53472260528135" lon="12.092205718193902"><ele>320.66666666666663</ele><time>2026-04-12T08:07:56Z</time></trkpt><trkpt lat="43.534868230040075" lon="12.09233365812313"><ele>319.0</ele><time>2026-04-12T08:07:57Z</time></trkpt><trkpt lat="43.535019171042975" lon="12.092469648461941"><ele>319.0</ele><time>2026-04-12T08:07:58Z</time></trkpt><trkpt lat="43.535157264438126" lon="12.09261911083069"><ele>319.0</ele><time>2026-04-12T08:07:59Z</time></trkpt><trkpt lat="43.53528962890044" lon="12.092810001593122"><ele>319.0</ele><time>2026-04-12T08:08:00Z</time></trkpt><trkpt lat="43.53540480652687" lon="12.093009903824502"><ele>316.3333333333333</ele><time>2026-04-12T08:08:01Z</time></trkpt><trkpt lat="43.53553234113227" lon="12.093200352983635"><ele>313.6666666666667</ele><time>2026-04-12T08:08:02Z</time></trkpt><trkpt lat="43.53565278228208" lon="12.093414102973872"><ele>311.0</ele><time>2026-04-12T08:08:03Z</time></trkpt><trkpt lat="43.53577494380559" lon="12.093625870634192"><ele>311.0</ele><time>2026-04-12T08:08:04Z</time></trkpt><trkpt lat="43.53589555060154" lon="12.093833203238622"><ele>311.0</ele><time>2026-04-12T08:08:05Z</time></trkpt><trkpt lat="43.536019134180606" lon="12.094040054549811"><ele>311.0</ele><time>2026-04-12T08:08:06Z</time></trkpt><trkpt lat="43.53614921483846" lon="12.094244485810188"><ele>310.33333333333337</ele><time>2026-04-12T08:08:07Z</time></trkpt><trkpt lat="43.536291888048154" lon="12.094442847992669"><ele>309.6666666666667</ele><time>2026-04-12T08:08:08Z</time></trkpt><trkpt lat="43.536444005233946" lon="12.094644195619034"><ele>309.0</ele><time>2026-04-12T08:08:09Z</time></trkpt><trkpt lat="43.53660059904992" lon="12.094850935453092"><ele>309.0</ele><time>2026-04-12T08:08:10Z</time></trkpt><trkpt lat="43.53675977895475" lon="12.095063148533074"><ele>309.0</ele><time>2026-04-12T08:08:11Z</time></trkpt><trkpt lat="43.53691812598439" lon="12.095278282349671"><ele>309.0</ele><time>2026-04-12T08:08:12Z</time></trkpt><trkpt lat="43.53708003144959" lon="12.095495893010082"><ele>309.0</ele><time>2026-04-12T08:08:13Z</time></trkpt><trkpt lat="43.53724302454593" lon="12.095717155696917"><ele>309.0</ele><time>2026-04-12T08:08:14Z</time></trkpt><trkpt lat="43.537409650103115" lon="12.095936299369576"><ele>309.0</ele><time>2026-04-12T08:08:15Z</time></trkpt><trkpt lat="43.537578755762944" lon="12.096158517726336"><ele>309.0</ele><time>2026-04-12T08:08:16Z</time></trkpt><trkpt lat="43.537745720892396" lon="12.096380997698445"><ele>309.5</ele><time>2026-04-12T08:08:17Z</time></trkpt><trkpt lat="43.537915407756564" lon="12.096602185996039"><ele>310.0</ele><time>2026-04-12T08:08:18Z</time></trkpt><trkpt lat="43.5380843725542" lon="12.09682402087565"><ele>310.0</ele><time>2026-04-12T08:08:19Z</time></trkpt><trkpt lat="43.538248447381804" lon="12.097045184357041"><ele>310.0</ele><time>2026-04-12T08:08:20Z</time></trkpt><trkpt lat="43.538408924531765" lon="12.097260466189125"><ele>310.0</ele><time>2026-04-12T08:08:21Z</time></trkpt><trkpt lat="43.53856096371974" lon="12.097462369977018"><ele>310.0</ele><time>2026-04-12T08:08:22Z</time></trkpt><trkpt lat="43.53870953101991" lon="12.097662004767741"><ele>310.0</ele><time>2026-04-12T08:08:22.999Z</time></trkpt><trkpt lat="43.53885291740176" lon="12.097854216383586"><ele>309.66666666666663</ele><time>2026-04-12T08:08:23.999Z</time></trkpt><trkpt lat="43.538990946992946" lon="12.098037052580137"><ele>309.3333333333333</ele><time>2026-04-12T08:08:24.999Z</time></trkpt><trkpt lat="43.53912471939096" lon="12.098210108001092"><ele>309.0</ele><time>2026-04-12T08:08:25.999Z</time></trkpt><trkpt lat="43.5392687225125" lon="12.098367722667092"><ele>309.0</ele><time>2026-04-12T08:08:26.999Z</time></trkpt><trkpt lat="43.539428789392765" lon="12.098500111138653"><ele>309.0</ele><time>2026-04-12T08:08:27.999Z</time></trkpt><trkpt lat="43.5396057964964" lon="12.09861749332529"><ele>309.0</ele><time>2026-04-12T08:08:28.999Z</time></trkpt><trkpt lat="43.53980299025978" lon="12.09873464914083"><ele>309.0</ele><time>2026-04-12T08:08:29.999Z</time></trkpt><trkpt lat="43.54001320645009" lon="12.09884559970618"><ele>309.0</ele><time>2026-04-12T08:08:30.999Z</time></trkpt><trkpt lat="43.54022716086041" lon="12.098955890072732"><ele>308.5</ele><time>2026-04-12T08:08:31.999Z</time></trkpt><trkpt lat="43.54044744634055" lon="12.099069743952368"><ele>308.0</ele><time>2026-04-12T08:08:32.999Z</time></trkpt><trkpt lat="43.540670560952066" lon="12.099185351153201"><ele>308.0</ele><time>2026-04-12T08:08:33.999Z</time></trkpt><trkpt lat="43.540895536988536" lon="12.099304298880595"><ele>308.0</ele><time>2026-04-12T08:08:34.999Z</time></trkpt><trkpt lat="43.541128849637964" lon="12.09940281832828"><ele>308.0</ele><time>2026-04-12T08:08:35.999Z</time></trkpt><trkpt lat="43.54135955901572" lon="12.099526457015436"><ele>308.0</ele><time>2026-04-12T08:08:36.999Z</time></trkpt><trkpt lat="43.54159038779592" lon="12.099647864191198"><ele>308.0</ele><time>2026-04-12T08:08:37.999Z</time></trkpt><trkpt lat="43.54182042547684" lon="12.099769889156109"><ele>308.0</ele><time>2026-04-12T08:08:38.999Z</time></trkpt><trkpt lat="43.54205189545345" lon="12.099893458127765"><ele>307.5</ele><time>2026-04-12T08:08:39.999Z</time></trkpt><trkpt lat="43.542284576645955" lon="12.100016806293956"><ele>307.0</ele><time>2026-04-12T08:08:40.999Z</time></trkpt><trkpt lat="43.54251771959486" lon="12.10014023884216"><ele>307.0</ele><time>2026-04-12T08:08:41.999Z</time></trkpt><trkpt lat="43.542752715433934" lon="12.100262797501054"><ele>307.0</ele><time>2026-04-12T08:08:42.999Z</time></trkpt><trkpt lat="43.54298808422387" lon="12.100386108743361"><ele>307.5</ele><time>2026-04-12T08:08:43.999Z</time></trkpt><trkpt lat="43.54322388155869" lon="12.100509718258767"><ele>308.0</ele><time>2026-04-12T08:08:44.999Z</time></trkpt><trkpt lat="43.543461417792045" lon="12.10063286819058"><ele>307.5</ele><time>2026-04-12T08:08:45.999Z</time></trkpt><trkpt lat="43.543699613324115" lon="12.100753516255292"><ele>307.0</ele><time>2026-04-12T08:08:46.999Z</time></trkpt><trkpt lat="43.54393639899517" lon="12.100878471408876"><ele>307.0</ele><time>2026-04-12T08:08:47.999Z</time></trkpt><trkpt lat="43.54417254447289" lon="12.101001879021142"><ele>307.0</ele><time>2026-04-12T08:08:48.999Z</time></trkpt><trkpt lat="43.54441059683136" lon="12.101126951922817"><ele>307.0</ele><time>2026-04-12T08:08:49.999Z</time></trkpt><trkpt lat="43.54464681432281" lon="12.101250781212968"><ele>307.0</ele><time>2026-04-12T08:08:50.999Z</time></trkpt><trkpt lat="43.544883786186524" lon="12.101373560231629"><ele>307.0</ele><time>2026-04-12T08:08:51.999Z</time></trkpt><trkpt lat="43.54512039490482" lon="12.101496509140715"><ele>307.0</ele><time>2026-04-12T08:08:52.999Z</time></trkpt><trkpt lat="43.54535654662785" lon="12.101620365477727"><ele>307.0</ele><time>2026-04-12T08:08:53.999Z</time></trkpt><trkpt lat="43.545593700253846" lon="12.101742043857602"><ele>307.0</ele><time>2026-04-12T08:08:54.999Z</time></trkpt><trkpt lat="43.545830270692754" lon="12.101866557731258"><ele>307.0</ele><time>2026-04-12T08:08:55.999Z</time></trkpt><trkpt lat="43.54606634383399" lon="12.101989276502348"><ele>307.0</ele><time>2026-04-12T08:08:56.999Z</time></trkpt><trkpt lat="43.54630319046245" lon="12.102113588767013"><ele>307.0</ele><time>2026-04-12T08:08:57.999Z</time></trkpt><trkpt lat="43.54653850489774" lon="12.10224002958993"><ele>307.0</ele><time>2026-04-12T08:08:58.999Z</time></trkpt><trkpt lat="43.546774792508664" lon="12.102364302731749"><ele>307.0</ele><time>2026-04-12T08:08:59.999Z</time></trkpt><trkpt lat="43.54700898119116" lon="12.10249371433965"><ele>307.0</ele><time>2026-04-12T08:09:00.999Z</time></trkpt><trkpt lat="43.547244082976626" lon="12.102625250036633"><ele>307.5</ele><time>2026-04-12T08:09:01.999Z</time></trkpt><trkpt lat="43.54747822627662" lon="12.102757384075657"><ele>308.0</ele><time>2026-04-12T08:09:02.999Z</time></trkpt><trkpt lat="43.54771085421945" lon="12.102895160201014"><ele>308.5</ele><time>2026-04-12T08:09:03.999Z</time></trkpt><trkpt lat="43.54794197213527" lon="12.103036675250195"><ele>309.0</ele><time>2026-04-12T08:09:04.999Z</time></trkpt><trkpt lat="43.54817161226685" lon="12.103180837944686"><ele>308.5</ele><time>2026-04-12T08:09:05.999Z</time></trkpt><trkpt lat="43.548401079708505" lon="12.103325748151223"><ele>308.0</ele><time>2026-04-12T08:09:06.999Z</time></trkpt><trkpt lat="43.54862867838527" lon="12.103474840133162"><ele>307.5</ele><time>2026-04-12T08:09:07.999Z</time></trkpt><trkpt lat="43.548857376260244" lon="12.103621355895948"><ele>307.0</ele><time>2026-04-12T08:09:08.999Z</time></trkpt><trkpt lat="43.54908574961922" lon="12.103769272728531"><ele>307.0</ele><time>2026-04-12T08:09:09.999Z</time></trkpt><trkpt lat="43.549313128230594" lon="12.103918226570295"><ele>307.0</ele><time>2026-04-12T08:09:10.999Z</time></trkpt><trkpt lat="43.54954109044257" lon="12.104069979284278"><ele>307.0</ele><time>2026-04-12T08:09:11.999Z</time></trkpt><trkpt lat="43.549768005654826" lon="12.104220057517376"><ele>307.0</ele><time>2026-04-12T08:09:12.999Z</time></trkpt><trkpt lat="43.54999600812801" lon="12.104369475839832"><ele>307.0</ele><time>2026-04-12T08:09:13.999Z</time></trkpt><trkpt lat="43.550224523522736" lon="12.104517269089305"><ele>307.0</ele><time>2026-04-12T08:09:14.999Z</time></trkpt><trkpt lat="43.550452259366125" lon="12.104666363208361"><ele>307.5</ele><time>2026-04-12T08:09:15.999Z</time></trkpt><trkpt lat="43.55068034832254" lon="12.10481679851788"><ele>308.0</ele><time>2026-04-12T08:09:16.999Z</time></trkpt><trkpt lat="43.55090830254793" lon="12.10496675313327"><ele>308.0</ele><time>2026-04-12T08:09:17.999Z</time></trkpt><trkpt lat="43.551135984760634" lon="12.105117533573829"><ele>308.0</ele><time>2026-04-12T08:09:18.999Z</time></trkpt><trkpt lat="43.55136397404712" lon="12.105269384582385"><ele>307.5</ele><time>2026-04-12T08:09:19.999Z</time></trkpt><trkpt lat="43.55159198637998" lon="12.105419240837591"><ele>307.0</ele><time>2026-04-12T08:09:20.999Z</time></trkpt><trkpt lat="43.55181912358516" lon="12.105571615859409"><ele>307.0</ele><time>2026-04-12T08:09:21.999Z</time></trkpt><trkpt lat="43.55204756031827" lon="12.105721386664069"><ele>307.0</ele><time>2026-04-12T08:09:22.999Z</time></trkpt><trkpt lat="43.55227532550032" lon="12.105874024677988"><ele>307.5</ele><time>2026-04-12T08:09:23.999Z</time></trkpt><trkpt lat="43.55250330219952" lon="12.106022303486323"><ele>308.0</ele><time>2026-04-12T08:09:24.999Z</time></trkpt><trkpt lat="43.55273237780687" lon="12.10617372583459"><ele>308.0</ele><time>2026-04-12T08:09:25.999Z</time></trkpt><trkpt lat="43.55295629791102" lon="12.106324260984373"><ele>308.0</ele><time>2026-04-12T08:09:26.999Z</time></trkpt><trkpt lat="43.55316504211104" lon="12.106461335869053"><ele>308.0</ele><time>2026-04-12T08:09:27.999Z</time></trkpt><trkpt lat="43.55336336032438" lon="12.106587697756877"><ele>308.0</ele><time>2026-04-12T08:09:28.999Z</time></trkpt><trkpt lat="43.55354861584307" lon="12.106708422267609"><ele>308.0</ele><time>2026-04-12T08:09:29.999Z</time></trkpt><trkpt lat="43.55371766412831" lon="12.106828154128888"><ele>308.33333333333337</ele><time>2026-04-12T08:09:30.999Z</time></trkpt><trkpt lat="43.553874823164975" lon="12.106945682237118"><ele>308.6666666666667</ele><time>2026-04-12T08:09:31.999Z</time></trkpt><trkpt lat="43.55402008773059" lon="12.107057855933476"><ele>309.0</ele><time>2026-04-12T08:09:32.999Z</time></trkpt><trkpt lat="43.55415186094383" lon="12.107162010367109"><ele>309.0</ele><time>2026-04-12T08:09:33.999Z</time></trkpt><trkpt lat="43.55426645486813" lon="12.107277094557437"><ele>309.0</ele><time>2026-04-12T08:09:34.999Z</time></trkpt><trkpt lat="43.55435047572396" lon="12.107414919403789"><ele>309.0</ele><time>2026-04-12T08:09:35.999Z</time></trkpt><trkpt lat="43.55440924874954" lon="12.107571942547848"><ele>309.0</ele><time>2026-04-12T08:09:36.999Z</time></trkpt><trkpt lat="43.554465843256814" lon="12.107719126527275"><ele>309.5</ele><time>2026-04-12T08:09:37.999Z</time></trkpt><trkpt lat="43.554556318539504" lon="12.107821208317748"><ele>310.0</ele><time>2026-04-12T08:09:38.999Z</time></trkpt><trkpt lat="43.55468385369646" lon="12.107885935018295"><ele>310.5</ele><time>2026-04-12T08:09:39.999Z</time></trkpt><trkpt lat="43.554836361036706" lon="12.10792857939493"><ele>311.0</ele><time>2026-04-12T08:09:40.999Z</time></trkpt><trkpt lat="43.5549779386198" lon="12.10800572084346"><ele>311.0</ele><time>2026-04-12T08:09:41.999Z</time></trkpt><trkpt lat="43.55511129332814" lon="12.108129137805985"><ele>311.0</ele><time>2026-04-12T08:09:42.999Z</time></trkpt><trkpt lat="43.55523863006926" lon="12.108287272955554"><ele>311.0</ele><time>2026-04-12T08:09:43.999Z</time></trkpt><trkpt lat="43.55536893769731" lon="12.108453230676107"><ele>311.0</ele><time>2026-04-12T08:09:44.999Z</time></trkpt><trkpt lat="43.555502763574665" lon="12.108611900132093"><ele>311.0</ele><time>2026-04-12T08:09:45.999Z</time></trkpt><trkpt lat="43.555646450678054" lon="12.108782999090979"><ele>311.0</ele><time>2026-04-12T08:09:46.999Z</time></trkpt><trkpt lat="43.55579954711568" lon="12.108970039984898"><ele>309.5</ele><time>2026-04-12T08:09:47.999Z</time></trkpt><trkpt lat="43.5559657363255" lon="12.109167839035027"><ele>308.0</ele><time>2026-04-12T08:09:48.999Z</time></trkpt><trkpt lat="43.55614603173526" lon="12.109389485087801"><ele>308.5</ele><time>2026-04-12T08:09:49.999Z</time></trkpt><trkpt lat="43.55634277679743" lon="12.109641664557172"><ele>309.0</ele><time>2026-04-12T08:09:50.999Z</time></trkpt><trkpt lat="43.55653376536903" lon="12.10989735011498"><ele>309.0</ele><time>2026-04-12T08:09:51.999Z</time></trkpt><trkpt lat="43.55671025276844" lon="12.110127961529022"><ele>309.0</ele><time>2026-04-12T08:09:52.999Z</time></trkpt><trkpt lat="43.556883178839236" lon="12.110339229014969"><ele>309.6666666666667</ele><time>2026-04-12T08:09:54Z</time></trkpt><trkpt lat="43.55705060202348" lon="12.110541299834635"><ele>310.33333333333337</ele><time>2026-04-12T08:09:55Z</time></trkpt><trkpt lat="43.55720768042265" lon="12.11073947124728"><ele>311.0</ele><time>2026-04-12T08:09:56Z</time></trkpt><trkpt lat="43.557360359259704" lon="12.110926817464431"><ele>311.0</ele><time>2026-04-12T08:09:57Z</time></trkpt><trkpt lat="43.55750452802189" lon="12.11110202099751"><ele>311.0</ele><time>2026-04-12T08:09:58Z</time></trkpt><trkpt lat="43.55763817745181" lon="12.111264210153992"><ele>311.0</ele><time>2026-04-12T08:09:59Z</time></trkpt><trkpt lat="43.557758720746776" lon="12.111418810753923"><ele>311.0</ele><time>2026-04-12T08:10:00Z</time></trkpt><trkpt lat="43.55786381435814" lon="12.111571548665948"><ele>311.0</ele><time>2026-04-12T08:10:01Z</time></trkpt><trkpt lat="43.55794784102853" lon="12.111734876098671"><ele>311.0</ele><time>2026-04-12T08:10:02Z</time></trkpt><trkpt lat="43.558004407098416" lon="12.111909456859733"><ele>311.0</ele><time>2026-04-12T08:10:03Z</time></trkpt><trkpt lat="43.55802816362778" lon="12.1120879959224"><ele>311.0</ele><time>2026-04-12T08:10:04Z</time></trkpt><trkpt lat="43.55805836443614" lon="12.112252328288216"><ele>311.0</ele><time>2026-04-12T08:10:05Z</time></trkpt><trkpt lat="43.55812602246707" lon="12.112385519851694"><ele>311.0</ele><time>2026-04-12T08:10:06Z</time></trkpt><trkpt lat="43.55822359097202" lon="12.112488917671355"><ele>311.0</ele><time>2026-04-12T08:10:07Z</time></trkpt><trkpt lat="43.55834751841102" lon="12.112555015500128"><ele>310.6666666666667</ele><time>2026-04-12T08:10:08Z</time></trkpt><trkpt lat="43.55849255077842" lon="12.112600704603516"><ele>310.3333333333333</ele><time>2026-04-12T08:10:09Z</time></trkpt><trkpt lat="43.558652371811355" lon="12.11266494531967"><ele>310.0</ele><time>2026-04-12T08:10:10Z</time></trkpt><trkpt lat="43.55881056800029" lon="12.112788874307032"><ele>310.0</ele><time>2026-04-12T08:10:11Z</time></trkpt><trkpt lat="43.55897045986735" lon="12.112968047084296"><ele>310.0</ele><time>2026-04-12T08:10:12Z</time></trkpt><trkpt lat="43.55911460914443" lon="12.113181368406417"><ele>310.0</ele><time>2026-04-12T08:10:13Z</time></trkpt><trkpt lat="43.55923755142935" lon="12.113412365251088"><ele>310.0</ele><time>2026-04-12T08:10:14Z</time></trkpt><trkpt lat="43.55936582276443" lon="12.113624479649681"><ele>310.0</ele><time>2026-04-12T08:10:15Z</time></trkpt><trkpt lat="43.55951632018252" lon="12.1138148334964"><ele>310.0</ele><time>2026-04-12T08:10:16Z</time></trkpt><trkpt lat="43.55966847223272" lon="12.11399614037204"><ele>310.0</ele><time>2026-04-12T08:10:17Z</time></trkpt><trkpt lat="43.55980801392676" lon="12.114169179342445"><ele>310.0</ele><time>2026-04-12T08:10:18Z</time></trkpt><trkpt lat="43.559944894918125" lon="12.114336691115318"><ele>310.0</ele><time>2026-04-12T08:10:19Z</time></trkpt><trkpt lat="43.56007888146897" lon="12.114504835078229"><ele>310.0</ele><time>2026-04-12T08:10:20Z</time></trkpt><trkpt lat="43.56021180919499" lon="12.114668665819472"><ele>310.0</ele><time>2026-04-12T08:10:21Z</time></trkpt><trkpt lat="43.56034405518955" lon="12.114824106378553"><ele>310.0</ele><time>2026-04-12T08:10:22Z</time></trkpt><trkpt lat="43.560462311308136" lon="12.114977982967929"><ele>309.5</ele><time>2026-04-12T08:10:23Z</time></trkpt><trkpt lat="43.56058077937959" lon="12.115112191186038"><ele>309.0</ele><time>2026-04-12T08:10:24Z</time></trkpt><trkpt lat="43.56069362897549" lon="12.115210205893783"><ele>308.5</ele><time>2026-04-12T08:10:25Z</time></trkpt><trkpt lat="43.56079632559244" lon="12.115314500490868"><ele>308.0</ele><time>2026-04-12T08:10:26Z</time></trkpt><trkpt lat="43.56088646041319" lon="12.11542739579827"><ele>308.0</ele><time>2026-04-12T08:10:27Z</time></trkpt><trkpt lat="43.56097360951324" lon="12.115555570852864"><ele>308.0</ele><time>2026-04-12T08:10:28Z</time></trkpt><trkpt lat="43.56107956069067" lon="12.11567255043686"><ele>308.0</ele><time>2026-04-12T08:10:29Z</time></trkpt><trkpt lat="43.56121453452826" lon="12.115756142610707"><ele>308.0</ele><time>2026-04-12T08:10:30Z</time></trkpt><trkpt lat="43.56134683537908" lon="12.1158739329472"><ele>308.33333333333337</ele><time>2026-04-12T08:10:31Z</time></trkpt><trkpt lat="43.561469323889185" lon="12.116034786559768"><ele>308.6666666666667</ele><time>2026-04-12T08:10:32Z</time></trkpt><trkpt lat="43.56159320847722" lon="12.116201983548391"><ele>309.0</ele><time>2026-04-12T08:10:33Z</time></trkpt><trkpt lat="43.561714540529124" lon="12.116361646806851"><ele>309.0</ele><time>2026-04-12T08:10:34Z</time></trkpt><trkpt lat="43.56183962640673" lon="12.116519332622378"><ele>309.0</ele><time>2026-04-12T08:10:35Z</time></trkpt><trkpt lat="43.56196529188933" lon="12.116671119984135"><ele>309.0</ele><time>2026-04-12T08:10:36Z</time></trkpt><trkpt lat="43.562072505672816" lon="12.116848095140837"><ele>310.0</ele><time>2026-04-12T08:10:37Z</time></trkpt><trkpt lat="43.5621940806101" lon="12.117007901775752"><ele>311.0</ele><time>2026-04-12T08:10:38Z</time></trkpt><trkpt lat="43.56232986226463" lon="12.117159548909507"><ele>312.0</ele><time>2026-04-12T08:10:39Z</time></trkpt><trkpt lat="43.56245029908168" lon="12.117344385526373"><ele>311.0</ele><time>2026-04-12T08:10:40Z</time></trkpt><trkpt lat="43.56257617006373" lon="12.117533205853373"><ele>310.0</ele><time>2026-04-12T08:10:41Z</time></trkpt><trkpt lat="43.56270766428442" lon="12.117722302668362"><ele>309.0</ele><time>2026-04-12T08:10:42Z</time></trkpt><trkpt lat="43.5628377973059" lon="12.117913394848404"><ele>309.0</ele><time>2026-04-12T08:10:43Z</time></trkpt><trkpt lat="43.56296490598917" lon="12.118101718513747"><ele>309.0</ele><time>2026-04-12T08:10:44Z</time></trkpt><trkpt lat="43.56309200373909" lon="12.118293812285655"><ele>309.0</ele><time>2026-04-12T08:10:45Z</time></trkpt><trkpt lat="43.56322159906981" lon="12.118488166076311"><ele>309.0</ele><time>2026-04-12T08:10:46Z</time></trkpt><trkpt lat="43.56335006746796" lon="12.118683393620831"><ele>309.0</ele><time>2026-04-12T08:10:47Z</time></trkpt><trkpt lat="43.563477173975365" lon="12.11888023303374"><ele>309.0</ele><time>2026-04-12T08:10:48Z</time></trkpt><trkpt lat="43.56360718762817" lon="12.119079355102675"><ele>309.3333333333333</ele><time>2026-04-12T08:10:49Z</time></trkpt><trkpt lat="43.56373353195865" lon="12.11927840709037"><ele>309.66666666666663</ele><time>2026-04-12T08:10:50Z</time></trkpt><trkpt lat="43.56386000825267" lon="12.11947375220225"><ele>310.0</ele><time>2026-04-12T08:10:51Z</time></trkpt><trkpt lat="43.56398729158249" lon="12.119664333207146"><ele>310.0</ele><time>2026-04-12T08:10:52Z</time></trkpt><trkpt lat="43.5641121027702" lon="12.119840577392292"><ele>310.0</ele><time>2026-04-12T08:10:53Z</time></trkpt><trkpt lat="43.56422582083556" lon="12.119991355794998"><ele>310.0</ele><time>2026-04-12T08:10:54Z</time></trkpt><trkpt lat="43.56433412360076" lon="12.12012333045374"><ele>309.75</ele><time>2026-04-12T08:10:55Z</time></trkpt><trkpt lat="43.56444810467306" lon="12.120238287833095"><ele>309.5</ele><time>2026-04-12T08:10:56Z</time></trkpt><trkpt lat="43.564559730694604" lon="12.120338955203124"><ele>309.25</ele><time>2026-04-12T08:10:57Z</time></trkpt><trkpt lat="43.5646776266104" lon="12.120434737454849"><ele>309.0</ele><time>2026-04-12T08:10:58Z</time></trkpt><trkpt lat="43.564798975871476" lon="12.120509889135207"><ele>309.0</ele><time>2026-04-12T08:10:58.999Z</time></trkpt><trkpt lat="43.5649217457586" lon="12.120570843116747"><ele>309.0</ele><time>2026-04-12T08:10:59.999Z</time></trkpt><trkpt lat="43.565046421554214" lon="12.120633948028294"><ele>309.0</ele><time>2026-04-12T08:11:00.999Z</time></trkpt><trkpt lat="43.56517255887322" lon="12.120706576103046"><ele>309.0</ele><time>2026-04-12T08:11:01.999Z</time></trkpt><trkpt lat="43.565297418680785" lon="12.120807303480602"><ele>309.25</ele><time>2026-04-12T08:11:02.999Z</time></trkpt><trkpt lat="43.56541231555543" lon="12.120810695017745"><ele>309.5</ele><time>2026-04-12T08:11:03.999Z</time></trkpt><trkpt lat="43.565532204007795" lon="12.120873355904665"><ele>309.75</ele><time>2026-04-12T08:11:04.999Z</time></trkpt><trkpt lat="43.565650511533235" lon="12.120927620083648"><ele>310.0</ele><time>2026-04-12T08:11:05.999Z</time></trkpt><trkpt lat="43.565766860593605" lon="12.120985529841642"><ele>310.0</ele><time>2026-04-12T08:11:06.999Z</time></trkpt><trkpt lat="43.56588076357881" lon="12.121041738465486"><ele>310.0</ele><time>2026-04-12T08:11:07.999Z</time></trkpt><trkpt lat="43.565983305771766" lon="12.121091900663638"><ele>310.0</ele><time>2026-04-12T08:11:08.999Z</time></trkpt><trkpt lat="43.56608475762606" lon="12.121139931315527"><ele>310.0</ele><time>2026-04-12T08:11:09.999Z</time></trkpt><trkpt lat="43.56619045918679" lon="12.121193390861722"><ele>309.75</ele><time>2026-04-12T08:11:10.999Z</time></trkpt><trkpt lat="43.56629362334098" lon="12.121247085005162"><ele>309.5</ele><time>2026-04-12T08:11:11.999Z</time></trkpt><trkpt lat="43.56640694894105" lon="12.121307800130259"><ele>309.25</ele><time>2026-04-12T08:11:12.999Z</time></trkpt><trkpt lat="43.56652378773899" lon="12.121365703614801"><ele>309.0</ele><time>2026-04-12T08:11:13.999Z</time></trkpt><trkpt lat="43.566637050624635" lon="12.121426088276605"><ele>309.0</ele><time>2026-04-12T08:11:14.999Z</time></trkpt><trkpt lat="43.5667397561134" lon="12.121480273278484"><ele>309.0</ele><time>2026-04-12T08:11:15.999Z</time></trkpt><trkpt lat="43.56683718517237" lon="12.121530309303198"><ele>309.0</ele><time>2026-04-12T08:11:16.999Z</time></trkpt><trkpt lat="43.566934678709195" lon="12.121578700878496"><ele>309.0</ele><time>2026-04-12T08:11:17.999Z</time></trkpt><trkpt lat="43.56702845804519" lon="12.121644043142313"><ele>309.0</ele><time>2026-04-12T08:11:18.999Z</time></trkpt><trkpt lat="43.567123508121696" lon="12.121713472979332"><ele>308.75</ele><time>2026-04-12T08:11:19.999Z</time></trkpt><trkpt lat="43.567220378272125" lon="12.121796192809072"><ele>308.5</ele><time>2026-04-12T08:11:20.999Z</time></trkpt><trkpt lat="43.56731732992118" lon="12.121890012983643"><ele>308.25</ele><time>2026-04-12T08:11:21.999Z</time></trkpt><trkpt lat="43.567416193740335" lon="12.121986830327094"><ele>308.0</ele><time>2026-04-12T08:11:22.999Z</time></trkpt><trkpt lat="43.56751614332096" lon="12.122086063762135"><ele>308.0</ele><time>2026-04-12T08:11:23.999Z</time></trkpt><trkpt lat="43.56761006391994" lon="12.122201649022742"><ele>308.0</ele><time>2026-04-12T08:11:24.999Z</time></trkpt><trkpt lat="43.56770756830132" lon="12.12232827982665"><ele>308.0</ele><time>2026-04-12T08:11:25.999Z</time></trkpt><trkpt lat="43.56780326894664" lon="12.122468226872936"><ele>308.0</ele><time>2026-04-12T08:11:26.999Z</time></trkpt><trkpt lat="43.567903766210215" lon="12.122607852739986"><ele>308.75</ele><time>2026-04-12T08:11:27.999Z</time></trkpt><trkpt lat="43.567998508667955" lon="12.122749923924184"><ele>309.5</ele><time>2026-04-12T08:11:28.999Z</time></trkpt><trkpt lat="43.56809409038673" lon="12.122899138756031"><ele>310.25</ele><time>2026-04-12T08:11:29.999Z</time></trkpt><trkpt lat="43.56817713256636" lon="12.123042084591475"><ele>311.0</ele><time>2026-04-12T08:11:30.999Z</time></trkpt><trkpt lat="43.56823021233811" lon="12.123183941228893"><ele>311.0</ele><time>2026-04-12T08:11:31.999Z</time></trkpt><trkpt lat="43.56829227677823" lon="12.123291535112743"><ele>311.0</ele><time>2026-04-12T08:11:32.999Z</time></trkpt><trkpt lat="43.568318243943025" lon="12.123408251855107"><ele>311.0</ele><time>2026-04-12T08:11:33.999Z</time></trkpt><trkpt lat="43.56837632887576" lon="12.123514336115534"><ele>311.0</ele><time>2026-04-12T08:11:34.999Z</time></trkpt><trkpt lat="43.56842598092286" lon="12.123605135310996"><ele>311.0</ele><time>2026-04-12T08:11:35.999Z</time></trkpt><trkpt lat="43.56846863045885" lon="12.123712070748772"><ele>311.0</ele><time>2026-04-12T08:11:36.999Z</time></trkpt><trkpt lat="43.568508141672886" lon="12.123827457874382"><ele>311.0</ele><time>2026-04-12T08:11:37.999Z</time></trkpt><trkpt lat="43.56854554228299" lon="12.123944150715058"><ele>311.0</ele><time>2026-04-12T08:11:38.999Z</time></trkpt><trkpt lat="43.568566895005915" lon="12.124030148257793"><ele>311.0</ele><time>2026-04-12T08:11:39.999Z</time></trkpt><trkpt lat="43.56858472721449" lon="12.124125827786468"><ele>311.0</ele><time>2026-04-12T08:11:42.999Z</time></trkpt><trkpt lat="43.568585055806786" lon="12.12422782849286"><ele>311.0</ele><time>2026-04-12T08:11:44.999Z</time></trkpt><trkpt lat="43.56857645619188" lon="12.12431968686129"><ele>311.0</ele><time>2026-04-12T08:11:45.999Z</time></trkpt><trkpt lat="43.56857634936843" lon="12.124425142199078"><ele>311.0</ele><time>2026-04-12T08:11:46.999Z</time></trkpt><trkpt lat="43.568603394781" lon="12.124520323785816"><ele>311.0</ele><time>2026-04-12T08:11:47.999Z</time></trkpt><trkpt lat="43.56865946823084" lon="12.124600095127267"><ele>311.0</ele><time>2026-04-12T08:11:48.999Z</time></trkpt><trkpt lat="43.5687397418018" lon="12.124634415226206"><ele>311.0</ele><time>2026-04-12T08:11:49.999Z</time></trkpt><trkpt lat="43.56882039008852" lon="12.124621606022881"><ele>311.0</ele><time>2026-04-12T08:11:50.999Z</time></trkpt><trkpt lat="43.56889857781657" lon="12.124568718555649"><ele>311.25</ele><time>2026-04-12T08:11:51.999Z</time></trkpt><trkpt lat="43.56896448773301" lon="12.124477569260945"><ele>311.5</ele><time>2026-04-12T08:11:52.999Z</time></trkpt><trkpt lat="43.569010625038366" lon="12.124336431635236"><ele>311.75</ele><time>2026-04-12T08:11:53.999Z</time></trkpt><trkpt lat="43.56906357270473" lon="12.12418416828664"><ele>312.0</ele><time>2026-04-12T08:11:54.999Z</time></trkpt><trkpt lat="43.569142918190806" lon="12.124019315464956"><ele>312.0</ele><time>2026-04-12T08:11:55.999Z</time></trkpt><trkpt lat="43.569265785322884" lon="12.12387942282996"><ele>312.0</ele><time>2026-04-12T08:11:56.999Z</time></trkpt><trkpt lat="43.56941568043868" lon="12.12374840065233"><ele>312.0</ele><time>2026-04-12T08:11:57.999Z</time></trkpt><trkpt lat="43.56957536937083" lon="12.123584099537483"><ele>313.3333333333333</ele><time>2026-04-12T08:11:58.999Z</time></trkpt><trkpt lat="43.569751144111265" lon="12.12344166362487"><ele>314.66666666666663</ele><time>2026-04-12T08:12:00Z</time></trkpt><trkpt lat="43.56992609137127" lon="12.12328796498293"><ele>316.0</ele><time>2026-04-12T08:12:01Z</time></trkpt><trkpt lat="43.57011235155871" lon="12.123147343964618"><ele>316.0</ele><time>2026-04-12T08:12:02Z</time></trkpt><trkpt lat="43.57027433824897" lon="12.123002158236284"><ele>316.0</ele><time>2026-04-12T08:12:03Z</time></trkpt><trkpt lat="43.570452955817174" lon="12.122924907986814"><ele>316.0</ele><time>2026-04-12T08:12:04Z</time></trkpt><trkpt lat="43.57064015932346" lon="12.1228943524339"><ele>315.3333333333333</ele><time>2026-04-12T08:12:05Z</time></trkpt><trkpt lat="43.57082728724965" lon="12.122927451112613"><ele>314.6666666666667</ele><time>2026-04-12T08:12:06Z</time></trkpt><trkpt lat="43.57100753059287" lon="12.123006122843194"><ele>314.0</ele><time>2026-04-12T08:12:07Z</time></trkpt><trkpt lat="43.5711838180986" lon="12.123134114510027"><ele>314.6666666666667</ele><time>2026-04-12T08:12:08Z</time></trkpt><trkpt lat="43.5713571181035" lon="12.123282696729895"><ele>315.3333333333333</ele><time>2026-04-12T08:12:09Z</time></trkpt><trkpt lat="43.57153399905014" lon="12.123427870886312"><ele>316.0</ele><time>2026-04-12T08:12:10Z</time></trkpt><trkpt lat="43.57171626881262" lon="12.123569544082915"><ele>316.0</ele><time>2026-04-12T08:12:11Z</time></trkpt><trkpt lat="43.57190214837473" lon="12.123708578942482"><ele>316.0</ele><time>2026-04-12T08:12:12Z</time></trkpt><trkpt lat="43.57209346546012" lon="12.123835750864746"><ele>316.0</ele><time>2026-04-12T08:12:13Z</time></trkpt><trkpt lat="43.57229295050249" lon="12.12395074255444"><ele>316.0</ele><time>2026-04-12T08:12:14Z</time></trkpt><trkpt lat="43.57249626987514" lon="12.124043818275812"><ele>316.0</ele><time>2026-04-12T08:12:15Z</time></trkpt><trkpt lat="43.572706343930044" lon="12.12411920928683"><ele>316.0</ele><time>2026-04-12T08:12:16Z</time></trkpt><trkpt lat="43.57291972686708" lon="12.124166804292809"><ele>316.66666666666663</ele><time>2026-04-12T08:12:17Z</time></trkpt><trkpt lat="43.57313380467593" lon="12.12419254827197"><ele>317.3333333333333</ele><time>2026-04-12T08:12:18Z</time></trkpt><trkpt lat="43.573346058971865" lon="12.124191717266822"><ele>318.0</ele><time>2026-04-12T08:12:19Z</time></trkpt><trkpt lat="43.57355849020523" lon="12.12416919268069"><ele>318.0</ele><time>2026-04-12T08:12:20Z</time></trkpt><trkpt lat="43.57377403279285" lon="12.124124945599567"><ele>318.0</ele><time>2026-04-12T08:12:21Z</time></trkpt><trkpt lat="43.573987184640465" lon="12.124071394881552"><ele>318.0</ele><time>2026-04-12T08:12:22Z</time></trkpt><trkpt lat="43.57420125897992" lon="12.124013453455538"><ele>318.0</ele><time>2026-04-12T08:12:23Z</time></trkpt><trkpt lat="43.574418257698284" lon="12.12396690066792"><ele>318.0</ele><time>2026-04-12T08:12:24Z</time></trkpt><trkpt lat="43.57463362060447" lon="12.12391486285406"><ele>318.0</ele><time>2026-04-12T08:12:25Z</time></trkpt><trkpt lat="43.574847981797724" lon="12.123863047812629"><ele>318.6666666666667</ele><time>2026-04-12T08:12:26Z</time></trkpt><trkpt lat="43.575062778172914" lon="12.123816070748004"><ele>319.33333333333337</ele><time>2026-04-12T08:12:27Z</time></trkpt><trkpt lat="43.57527852781637" lon="12.123769853808188"><ele>320.0</ele><time>2026-04-12T08:12:28Z</time></trkpt><trkpt lat="43.57549356643731" lon="12.123734589066792"><ele>320.6666666666667</ele><time>2026-04-12T08:12:29Z</time></trkpt><trkpt lat="43.57570856474423" lon="12.123717590983661"><ele>321.3333333333333</ele><time>2026-04-12T08:12:30Z</time></trkpt><trkpt lat="43.57592431222171" lon="12.12373419380988"><ele>322.0</ele><time>2026-04-12T08:12:31Z</time></trkpt><trkpt lat="43.576134833123874" lon="12.12378410660473"><ele>322.66666666666663</ele><time>2026-04-12T08:12:32Z</time></trkpt><trkpt lat="43.57634215253162" lon="12.123859254406522"><ele>323.3333333333333</ele><time>2026-04-12T08:12:33Z</time></trkpt><trkpt lat="43.57654631070863" lon="12.123941847250359"><ele>324.0</ele><time>2026-04-12T08:12:34Z</time></trkpt><trkpt lat="43.576754348891775" lon="12.124028454687553"><ele>324.0</ele><time>2026-04-12T08:12:35Z</time></trkpt><trkpt lat="43.57696775280853" lon="12.12410644000862"><ele>324.0</ele><time>2026-04-12T08:12:36Z</time></trkpt><trkpt lat="43.577180159068384" lon="12.124182852623585"><ele>324.0</ele><time>2026-04-12T08:12:37Z</time></trkpt><trkpt lat="43.57739033209452" lon="12.124262584089724"><ele>325.0</ele><time>2026-04-12T08:12:38Z</time></trkpt><trkpt lat="43.57760129226654" lon="12.124342874118415"><ele>326.0</ele><time>2026-04-12T08:12:39Z</time></trkpt><trkpt lat="43.57779747820235" lon="12.124435236444066"><ele>327.0</ele><time>2026-04-12T08:12:40Z</time></trkpt><trkpt lat="43.57801106541559" lon="12.124502054051153"><ele>327.3333333333333</ele><time>2026-04-12T08:12:41Z</time></trkpt><trkpt lat="43.578207135151686" lon="12.124577146014923"><ele>327.66666666666663</ele><time>2026-04-12T08:12:42Z</time></trkpt><trkpt lat="43.57840485960373" lon="12.124649299072964"><ele>328.0</ele><time>2026-04-12T08:12:43Z</time></trkpt><trkpt lat="43.5786058843403" lon="12.12472213828013"><ele>329.3333333333333</ele><time>2026-04-12T08:12:44Z</time></trkpt><trkpt lat="43.578808839053906" lon="12.124794894370657"><ele>330.6666666666667</ele><time>2026-04-12T08:12:45Z</time></trkpt><trkpt lat="43.5790098976892" lon="12.124869325546284"><ele>332.0</ele><time>2026-04-12T08:12:46Z</time></trkpt><trkpt lat="43.57920436102996" lon="12.12494011732881"><ele>332.0</ele><time>2026-04-12T08:12:47Z</time></trkpt><trkpt lat="43.57937920327716" lon="12.125006556913172"><ele>332.0</ele><time>2026-04-12T08:12:48Z</time></trkpt><trkpt lat="43.57954205414059" lon="12.125067706310496"><ele>332.0</ele><time>2026-04-12T08:12:49Z</time></trkpt><trkpt lat="43.5796945179122" lon="12.125123200212371"><ele>332.25</ele><time>2026-04-12T08:12:50Z</time></trkpt><trkpt lat="43.579834655922916" lon="12.125179194927505"><ele>332.5</ele><time>2026-04-12T08:12:51Z</time></trkpt><trkpt lat="43.57996085203851" lon="12.12523065263269"><ele>332.75</ele><time>2026-04-12T08:12:52Z</time></trkpt><trkpt lat="43.580065577586424" lon="12.125275402956941"><ele>333.0</ele><time>2026-04-12T08:12:53Z</time></trkpt><trkpt lat="43.58014801079735" lon="12.125329286951597"><ele>333.0</ele><time>2026-04-12T08:12:54Z</time></trkpt><trkpt lat="43.580213619255375" lon="12.125405697974573"><ele>333.0</ele><time>2026-04-12T08:12:55Z</time></trkpt><trkpt lat="43.58030789111883" lon="12.125467541492297"><ele>333.0</ele><time>2026-04-12T08:12:57Z</time></trkpt><trkpt lat="43.580372137478214" lon="12.125770276663403"><ele>333.0</ele><time>2026-04-12T08:12:59Z</time></trkpt><trkpt lat="43.580432321730186" lon="12.125799628069514"><ele>333.79999999999995</ele><time>2026-04-12T08:13:00Z</time></trkpt><trkpt lat="43.58053123483542" lon="12.12583090070403"><ele>334.6</ele><time>2026-04-12T08:13:02Z</time></trkpt><trkpt lat="43.58066295596571" lon="12.125802600595462"><ele>335.4</ele><time>2026-04-12T08:13:04Z</time></trkpt><trkpt lat="43.58075507787872" lon="12.125769258236428"><ele>336.20000000000005</ele><time>2026-04-12T08:13:05Z</time></trkpt><trkpt lat="43.580864513659144" lon="12.125745474270712"><ele>337.0</ele><time>2026-04-12T08:13:06Z</time></trkpt><trkpt lat="43.58098782227418" lon="12.125736336903138"><ele>337.0</ele><time>2026-04-12T08:13:07Z</time></trkpt><trkpt lat="43.581125952350966" lon="12.125743302957888"><ele>337.0</ele><time>2026-04-12T08:13:08Z</time></trkpt><trkpt lat="43.58127181612205" lon="12.125763700561608"><ele>337.0</ele><time>2026-04-12T08:13:09Z</time></trkpt><trkpt lat="43.581417779362496" lon="12.125788677659173"><ele>337.0</ele><time>2026-04-12T08:13:10Z</time></trkpt><trkpt lat="43.5815666000673" lon="12.125795107638636"><ele>338.0</ele><time>2026-04-12T08:13:11Z</time></trkpt><trkpt lat="43.58172216967724" lon="12.125783480892494"><ele>339.0</ele><time>2026-04-12T08:13:12Z</time></trkpt><trkpt lat="43.58187689332577" lon="12.125742211114025"><ele>340.0</ele><time>2026-04-12T08:13:13Z</time></trkpt><trkpt lat="43.58203007357587" lon="12.125673016672112"><ele>340.3333333333333</ele><time>2026-04-12T08:13:14Z</time></trkpt><trkpt lat="43.58218363684508" lon="12.125592860865273"><ele>340.6666666666667</ele><time>2026-04-12T08:13:15Z</time></trkpt><trkpt lat="43.58234538400446" lon="12.125519239416773"><ele>341.0</ele><time>2026-04-12T08:13:16Z</time></trkpt><trkpt lat="43.58251590750523" lon="12.125452254116329"><ele>341.0</ele><time>2026-04-12T08:13:17Z</time></trkpt><trkpt lat="43.5826938416829" lon="12.125401234652184"><ele>341.0</ele><time>2026-04-12T08:13:18Z</time></trkpt><trkpt lat="43.58287675948888" lon="12.125378701928245"><ele>341.0</ele><time>2026-04-12T08:13:19Z</time></trkpt><trkpt lat="43.583062948302334" lon="12.125365970422077"><ele>341.6666666666667</ele><time>2026-04-12T08:13:20Z</time></trkpt><trkpt lat="43.583251150287104" lon="12.125361889181194"><ele>342.3333333333333</ele><time>2026-04-12T08:13:21Z</time></trkpt><trkpt lat="43.5834385059175" lon="12.125363809466826"><ele>343.0</ele><time>2026-04-12T08:13:22Z</time></trkpt><trkpt lat="43.583627878444766" lon="12.125368793524348"><ele>344.3333333333333</ele><time>2026-04-12T08:13:23Z</time></trkpt><trkpt lat="43.58381778800382" lon="12.12537148789964"><ele>345.6666666666667</ele><time>2026-04-12T08:13:24Z</time></trkpt><trkpt lat="43.584011203709956" lon="12.125373174564164"><ele>347.0</ele><time>2026-04-12T08:13:25Z</time></trkpt><trkpt lat="43.58420150232279" lon="12.125383565876866"><ele>347.0</ele><time>2026-04-12T08:13:26Z</time></trkpt><trkpt lat="43.58440083724802" lon="12.12539410088204"><ele>347.0</ele><time>2026-04-12T08:13:27Z</time></trkpt><trkpt lat="43.58460205183644" lon="12.125413641822648"><ele>347.0</ele><time>2026-04-12T08:13:28Z</time></trkpt><trkpt lat="43.584797399639584" lon="12.125426605841621"><ele>347.33333333333337</ele><time>2026-04-12T08:13:29Z</time></trkpt><trkpt lat="43.58499280950277" lon="12.125440538406394"><ele>347.6666666666667</ele><time>2026-04-12T08:13:30Z</time></trkpt><trkpt lat="43.585184306418796" lon="12.125456636166946"><ele>348.0</ele><time>2026-04-12T08:13:31Z</time></trkpt><trkpt lat="43.585357753557034" lon="12.125469426773007"><ele>349.0</ele><time>2026-04-12T08:13:32Z</time></trkpt><trkpt lat="43.58551316179727" lon="12.125462360462658"><ele>350.0</ele><time>2026-04-12T08:13:33Z</time></trkpt><trkpt lat="43.58564822443333" lon="12.125409983041452"><ele>351.0</ele><time>2026-04-12T08:13:34Z</time></trkpt><trkpt lat="43.58576176250375" lon="12.125301442271189"><ele>352.0</ele><time>2026-04-12T08:13:35Z</time></trkpt><trkpt lat="43.58584063953673" lon="12.125134378525978"><ele>352.0</ele><time>2026-04-12T08:13:36Z</time></trkpt><trkpt lat="43.58588569188319" lon="12.12494286271374"><ele>352.0</ele><time>2026-04-12T08:13:37Z</time></trkpt><trkpt lat="43.58588259464863" lon="12.124716378914561"><ele>352.0</ele><time>2026-04-12T08:13:38Z</time></trkpt><trkpt lat="43.585866705079425" lon="12.124464464388954"><ele>353.3333333333333</ele><time>2026-04-12T08:13:39Z</time></trkpt><trkpt lat="43.58586388090422" lon="12.124200264381004"><ele>354.6666666666667</ele><time>2026-04-12T08:13:40Z</time></trkpt><trkpt lat="43.585878836905614" lon="12.123929887053064"><ele>356.0</ele><time>2026-04-12T08:13:40.999Z</time></trkpt><trkpt lat="43.58589722969445" lon="12.123647700630384"><ele>357.0</ele><time>2026-04-12T08:13:41.999Z</time></trkpt><trkpt lat="43.58592235266804" lon="12.123363537467252"><ele>358.0</ele><time>2026-04-12T08:13:42.999Z</time></trkpt><trkpt lat="43.58596781609353" lon="12.12307872004369"><ele>359.0</ele><time>2026-04-12T08:13:43.999Z</time></trkpt><trkpt lat="43.58603186114067" lon="12.12279640349608"><ele>359.0</ele><time>2026-04-12T08:13:44.999Z</time></trkpt><trkpt lat="43.586109378248615" lon="12.122512556229424"><ele>359.0</ele><time>2026-04-12T08:13:45.999Z</time></trkpt><trkpt lat="43.586196432391354" lon="12.122225856479023"><ele>359.0</ele><time>2026-04-12T08:13:46.998Z</time></trkpt><trkpt lat="43.58630229512108" lon="12.121925690793852"><ele>363.0</ele><time>2026-04-12T08:13:47.998Z</time></trkpt><trkpt lat="43.586407456506635" lon="12.121677568837965"><ele>367.0</ele><time>2026-04-12T08:13:48.998Z</time></trkpt><trkpt lat="43.58650823940139" lon="12.121416860381506"><ele>371.0</ele><time>2026-04-12T08:13:49.998Z</time></trkpt><trkpt lat="43.58659580653888" lon="12.121168884643282"><ele>371.0</ele><time>2026-04-12T08:13:50.998Z</time></trkpt><trkpt lat="43.58667808794091" lon="12.120943874708553"><ele>371.0</ele><time>2026-04-12T08:13:51.998Z</time></trkpt><trkpt lat="43.58677622059997" lon="12.120750507593502"><ele>371.0</ele><time>2026-04-12T08:13:52.998Z</time></trkpt><trkpt lat="43.586911153424786" lon="12.1205874441931"><ele>374.33333333333337</ele><time>2026-04-12T08:13:53.998Z</time></trkpt><trkpt lat="43.58708099067499" lon="12.120471271205489"><ele>377.6666666666667</ele><time>2026-04-12T08:13:54.998Z</time></trkpt><trkpt lat="43.58726125533722" lon="12.120378888488844"><ele>381.0</ele><time>2026-04-12T08:13:55.998Z</time></trkpt><trkpt lat="43.587427977162676" lon="12.120249555328433"><ele>381.0</ele><time>2026-04-12T08:13:56.998Z</time></trkpt><trkpt lat="43.587572682305954" lon="12.120064188662036"><ele>381.0</ele><time>2026-04-12T08:13:57.998Z</time></trkpt><trkpt lat="43.58769886547122" lon="12.11984322738517"><ele>381.0</ele><time>2026-04-12T08:13:58.998Z</time></trkpt><trkpt lat="43.58779967428111" lon="12.119603150291228"><ele>385.0</ele><time>2026-04-12T08:13:59.998Z</time></trkpt><trkpt lat="43.58790686142149" lon="12.11937446940499"><ele>389.0</ele><time>2026-04-12T08:14:00.998Z</time></trkpt><trkpt lat="43.587976843476724" lon="12.119118429957403"><ele>393.0</ele><time>2026-04-12T08:14:01.998Z</time></trkpt><trkpt lat="43.5880295754665" lon="12.118864707625779"><ele>393.33333333333337</ele><time>2026-04-12T08:14:02.998Z</time></trkpt><trkpt lat="43.588048813380574" lon="12.118608157772684"><ele>393.6666666666667</ele><time>2026-04-12T08:14:03.998Z</time></trkpt><trkpt lat="43.588041734074736" lon="12.118353565281124"><ele>394.0</ele><time>2026-04-12T08:14:04.998Z</time></trkpt><trkpt lat="43.58805555728145" lon="12.118119358726615"><ele>393.0</ele><time>2026-04-12T08:14:06Z</time></trkpt><trkpt lat="43.58810117188413" lon="12.117905049033057"><ele>392.0</ele><time>2026-04-12T08:14:07Z</time></trkpt><trkpt lat="43.58820877993285" lon="12.11772020853948"><ele>391.0</ele><time>2026-04-12T08:14:08Z</time></trkpt><trkpt lat="43.588337570235474" lon="12.117540696490625"><ele>389.0</ele><time>2026-04-12T08:14:09Z</time></trkpt><trkpt lat="43.58849755510773" lon="12.11739344055213"><ele>387.0</ele><time>2026-04-12T08:14:10Z</time></trkpt><trkpt lat="43.58867155940264" lon="12.117289230720607"><ele>385.0</ele><time>2026-04-12T08:14:11Z</time></trkpt><trkpt lat="43.588843618890955" lon="12.117169403649358"><ele>390.33333333333337</ele><time>2026-04-12T08:14:12Z</time></trkpt><trkpt lat="43.589007434528504" lon="12.117058525987014"><ele>395.66666666666663</ele><time>2026-04-12T08:14:13Z</time></trkpt><trkpt lat="43.58915506665918" lon="12.116892422123886"><ele>401.0</ele><time>2026-04-12T08:14:14Z</time></trkpt><trkpt lat="43.58927580299843" lon="12.11666861750738"><ele>403.0</ele><time>2026-04-12T08:14:15Z</time></trkpt><trkpt lat="43.589397948952964" lon="12.116454383955807"><ele>405.0</ele><time>2026-04-12T08:14:16Z</time></trkpt><trkpt lat="43.589521525218764" lon="12.11622685195068"><ele>407.0</ele><time>2026-04-12T08:14:17Z</time></trkpt><trkpt lat="43.589638117704546" lon="12.116018747606569"><ele>407.0</ele><time>2026-04-12T08:14:18Z</time></trkpt><trkpt lat="43.589774761356225" lon="12.115850922124524"><ele>407.0</ele><time>2026-04-12T08:14:19Z</time></trkpt><trkpt lat="43.589938677597154" lon="12.115706838224686"><ele>407.0</ele><time>2026-04-12T08:14:20Z</time></trkpt><trkpt lat="43.59012037313109" lon="12.11558432588126"><ele>408.0</ele><time>2026-04-12T08:14:21Z</time></trkpt><trkpt lat="43.590314155351116" lon="12.115490985160612"><ele>409.0</ele><time>2026-04-12T08:14:22Z</time></trkpt><trkpt lat="43.590512902359116" lon="12.115452203770204"><ele>410.0</ele><time>2026-04-12T08:14:23Z</time></trkpt><trkpt lat="43.59071134165956" lon="12.115460899973979"><ele>410.0</ele><time>2026-04-12T08:14:24Z</time></trkpt><trkpt lat="43.59090381762434" lon="12.115488985789645"><ele>410.0</ele><time>2026-04-12T08:14:25Z</time></trkpt><trkpt lat="43.591073071277805" lon="12.115518495043055"><ele>410.0</ele><time>2026-04-12T08:14:26Z</time></trkpt><trkpt lat="43.591216512266726" lon="12.115561221323587"><ele>412.25</ele><time>2026-04-12T08:14:27Z</time></trkpt><trkpt lat="43.591348052143935" lon="12.115581593031107"><ele>414.5</ele><time>2026-04-12T08:14:28Z</time></trkpt><trkpt lat="43.59146179631054" lon="12.115567541516723"><ele>416.75</ele><time>2026-04-12T08:14:29Z</time></trkpt><trkpt lat="43.59156383196639" lon="12.115496069173743"><ele>419.0</ele><time>2026-04-12T08:14:29.999Z</time></trkpt><trkpt lat="43.59164251902055" lon="12.115352136926777"><ele>419.0</ele><time>2026-04-12T08:14:30.999Z</time></trkpt><trkpt lat="43.59170823413205" lon="12.115165705952334"><ele>419.0</ele><time>2026-04-12T08:14:31.999Z</time></trkpt><trkpt lat="43.591764143193295" lon="12.114936629711009"><ele>419.0</ele><time>2026-04-12T08:14:32.999Z</time></trkpt><trkpt lat="43.59182856853607" lon="12.11468703154777"><ele>418.3333333333333</ele><time>2026-04-12T08:14:33.999Z</time></trkpt><trkpt lat="43.59191241510416" lon="12.114464995168424"><ele>417.66666666666663</ele><time>2026-04-12T08:14:34.999Z</time></trkpt><trkpt lat="43.59198804853772" lon="12.1142227720357"><ele>417.0</ele><time>2026-04-12T08:14:35.999Z</time></trkpt><trkpt lat="43.59206658152769" lon="12.11397472629339"><ele>420.66666666666663</ele><time>2026-04-12T08:14:36.999Z</time></trkpt><trkpt lat="43.59213405659888" lon="12.113749530968082"><ele>424.3333333333333</ele><time>2026-04-12T08:14:37.999Z</time></trkpt><trkpt lat="43.59220901607056" lon="12.113567527511549"><ele>428.0</ele><time>2026-04-12T08:14:38.999Z</time></trkpt><trkpt lat="43.59231134055887" lon="12.113437049056202"><ele>428.0</ele><time>2026-04-12T08:14:39.999Z</time></trkpt><trkpt lat="43.59244618610339" lon="12.113353035640742"><ele>428.0</ele><time>2026-04-12T08:14:40.999Z</time></trkpt><trkpt lat="43.59260471037961" lon="12.113343911882668"><ele>428.0</ele><time>2026-04-12T08:14:41.999Z</time></trkpt><trkpt lat="43.59277751808561" lon="12.113361970447567"><ele>429.3333333333333</ele><time>2026-04-12T08:14:42.999Z</time></trkpt><trkpt lat="43.592952088523866" lon="12.11338875219632"><ele>430.66666666666663</ele><time>2026-04-12T08:14:43.999Z</time></trkpt><trkpt lat="43.593108273038766" lon="12.11343543546566"><ele>432.0</ele><time>2026-04-12T08:14:44.999Z</time></trkpt><trkpt lat="43.59321845797755" lon="12.11357873780656"><ele>432.0</ele><time>2026-04-12T08:14:45.999Z</time></trkpt><trkpt lat="43.593324512213165" lon="12.113706339093286"><ele>432.0</ele><time>2026-04-12T08:14:46.999Z</time></trkpt><trkpt lat="43.59339984359431" lon="12.113839463309409"><ele>432.0</ele><time>2026-04-12T08:14:47.999Z</time></trkpt><trkpt lat="43.59348908016034" lon="12.113902676541962"><ele>432.0</ele><time>2026-04-12T08:14:48.999Z</time></trkpt><trkpt lat="43.59359816784582" lon="12.113897216413466"><ele>434.0</ele><time>2026-04-12T08:14:49.999Z</time></trkpt><trkpt lat="43.593703936525856" lon="12.113822984865916"><ele>436.0</ele><time>2026-04-12T08:14:50.999Z</time></trkpt><trkpt lat="43.59379026242855" lon="12.113678495520189"><ele>438.0</ele><time>2026-04-12T08:14:51.999Z</time></trkpt><trkpt lat="43.59385708974861" lon="12.11348842122781"><ele>440.0</ele><time>2026-04-12T08:14:52.999Z</time></trkpt><trkpt lat="43.593938260719966" lon="12.11329502608632"><ele>440.0</ele><time>2026-04-12T08:14:53.999Z</time></trkpt><trkpt lat="43.594096924803615" lon="12.11320526930564"><ele>440.0</ele><time>2026-04-12T08:14:54.999Z</time></trkpt><trkpt lat="43.59428034116367" lon="12.113112349009612"><ele>440.0</ele><time>2026-04-12T08:14:55.999Z</time></trkpt><trkpt lat="43.59443251033306" lon="12.112996954511285"><ele>442.66666666666663</ele><time>2026-04-12T08:14:56.999Z</time></trkpt><trkpt lat="43.59454883068537" lon="12.11284303091089"><ele>445.33333333333337</ele><time>2026-04-12T08:14:57.999Z</time></trkpt><trkpt lat="43.594632832492074" lon="12.112638628486604"><ele>448.0</ele><time>2026-04-12T08:14:58.999Z</time></trkpt><trkpt lat="43.594700824975014" lon="12.112403008806709"><ele>448.0</ele><time>2026-04-12T08:14:59.999Z</time></trkpt><trkpt lat="43.59476388707457" lon="12.112162441130055"><ele>448.0</ele><time>2026-04-12T08:15:00.999Z</time></trkpt><trkpt lat="43.59484485799829" lon="12.11193745988386"><ele>448.0</ele><time>2026-04-12T08:15:01.999Z</time></trkpt><trkpt lat="43.59493127247758" lon="12.111712855929362"><ele>447.6666666666667</ele><time>2026-04-12T08:15:02.999Z</time></trkpt><trkpt lat="43.59502755468687" lon="12.111495303261055"><ele>447.33333333333337</ele><time>2026-04-12T08:15:03.999Z</time></trkpt><trkpt lat="43.59512780990465" lon="12.111280794124227"><ele>447.0</ele><time>2026-04-12T08:15:04.999Z</time></trkpt><trkpt lat="43.595245407552085" lon="12.111090891526738"><ele>448.33333333333337</ele><time>2026-04-12T08:15:05.999Z</time></trkpt><trkpt lat="43.59536810948212" lon="12.110914125914325"><ele>449.6666666666667</ele><time>2026-04-12T08:15:06.999Z</time></trkpt><trkpt lat="43.595509844847456" lon="12.110765055828386"><ele>451.0</ele><time>2026-04-12T08:15:07.999Z</time></trkpt><trkpt lat="43.59566924319058" lon="12.110643460457675"><ele>451.0</ele><time>2026-04-12T08:15:08.999Z</time></trkpt><trkpt lat="43.59583867139342" lon="12.110554468110681"><ele>451.0</ele><time>2026-04-12T08:15:09.999Z</time></trkpt><trkpt lat="43.596008065424805" lon="12.110473355072225"><ele>451.0</ele><time>2026-04-12T08:15:10.999Z</time></trkpt><trkpt lat="43.596186864163094" lon="12.110484761755522"><ele>454.33333333333337</ele><time>2026-04-12T08:15:11.999Z</time></trkpt><trkpt lat="43.596347789148226" lon="12.110462558282814"><ele>457.66666666666663</ele><time>2026-04-12T08:15:12.999Z</time></trkpt><trkpt lat="43.59649017832072" lon="12.110433880431652"><ele>461.0</ele><time>2026-04-12T08:15:13.999Z</time></trkpt><trkpt lat="43.59662347654319" lon="12.110347639801216"><ele>461.0</ele><time>2026-04-12T08:15:14.999Z</time></trkpt><trkpt lat="43.59672549243212" lon="12.110192980121845"><ele>461.0</ele><time>2026-04-12T08:15:15.999Z</time></trkpt><trkpt lat="43.5967982550127" lon="12.11002534664662"><ele>461.0</ele><time>2026-04-12T08:15:16.999Z</time></trkpt><trkpt lat="43.59684174307258" lon="12.10982906667756"><ele>461.0</ele><time>2026-04-12T08:15:17.999Z</time></trkpt><trkpt lat="43.596862680102866" lon="12.109543832472514"><ele>461.0</ele><time>2026-04-12T08:15:18.999Z</time></trkpt><trkpt lat="43.59691025530483" lon="12.10927403398847"><ele>461.0</ele><time>2026-04-12T08:15:19.999Z</time></trkpt><trkpt lat="43.59697184789938" lon="12.109016027584191"><ele>461.0</ele><time>2026-04-12T08:15:20.999Z</time></trkpt><trkpt lat="43.59702849211874" lon="12.108746178285662"><ele>465.66666666666663</ele><time>2026-04-12T08:15:21.999Z</time></trkpt><trkpt lat="43.597081005139614" lon="12.108468891128243"><ele>470.33333333333337</ele><time>2026-04-12T08:15:22.999Z</time></trkpt><trkpt lat="43.59712630733457" lon="12.108181514613204"><ele>475.0</ele><time>2026-04-12T08:15:23.999Z</time></trkpt><trkpt lat="43.59717157451925" lon="12.107895631152706"><ele>475.0</ele><time>2026-04-12T08:15:24.999Z</time></trkpt><trkpt lat="43.59719914817815" lon="12.107635066746191"><ele>475.0</ele><time>2026-04-12T08:15:25.999Z</time></trkpt><trkpt lat="43.5972341817205" lon="12.10742192429134"><ele>475.0</ele><time>2026-04-12T08:15:26.999Z</time></trkpt><trkpt lat="43.59728282436463" lon="12.107127455163873"><ele>473.75</ele><time>2026-04-12T08:15:27.999Z</time></trkpt><trkpt lat="43.597347816822115" lon="12.106936398897098"><ele>472.5</ele><time>2026-04-12T08:15:28.999Z</time></trkpt><trkpt lat="43.59742606609126" lon="12.106785725611124"><ele>471.25</ele><time>2026-04-12T08:15:29.999Z</time></trkpt><trkpt lat="43.59757024465921" lon="12.106719505916626"><ele>470.0</ele><time>2026-04-12T08:15:30.999Z</time></trkpt><trkpt lat="43.59771923126097" lon="12.106668858206481"><ele>471.0</ele><time>2026-04-12T08:15:31.999Z</time></trkpt><trkpt lat="43.59786932984157" lon="12.106678709390158"><ele>472.0</ele><time>2026-04-12T08:15:32.999Z</time></trkpt><trkpt lat="43.598027684727825" lon="12.106751272018638"><ele>473.0</ele><time>2026-04-12T08:15:33.999Z</time></trkpt><trkpt lat="43.59818380734234" lon="12.106863007822689"><ele>473.0</ele><time>2026-04-12T08:15:34.999Z</time></trkpt><trkpt lat="43.598351472807146" lon="12.106992238514593"><ele>473.0</ele><time>2026-04-12T08:15:35.999Z</time></trkpt><trkpt lat="43.59851292132808" lon="12.107129926979255"><ele>473.0</ele><time>2026-04-12T08:15:36.999Z</time></trkpt><trkpt lat="43.59868511536654" lon="12.107274456393545"><ele>473.0</ele><time>2026-04-12T08:15:37.999Z</time></trkpt><trkpt lat="43.59883546051833" lon="12.107389463722921"><ele>473.0</ele><time>2026-04-12T08:15:38.999Z</time></trkpt><trkpt lat="43.599006126781205" lon="12.107529773522566"><ele>473.0</ele><time>2026-04-12T08:15:39.999Z</time></trkpt><trkpt lat="43.59915463935405" lon="12.107674494701884"><ele>473.0</ele><time>2026-04-12T08:15:40.999Z</time></trkpt><trkpt lat="43.59929691103985" lon="12.107773092278434"><ele>473.0</ele><time>2026-04-12T08:15:41.999Z</time></trkpt><trkpt lat="43.59944328365501" lon="12.107801390358716"><ele>473.0</ele><time>2026-04-12T08:15:42.999Z</time></trkpt><trkpt lat="43.59959946956662" lon="12.107765264896415"><ele>474.3333333333333</ele><time>2026-04-12T08:15:43.999Z</time></trkpt><trkpt lat="43.599769591508135" lon="12.107678553781676"><ele>475.66666666666663</ele><time>2026-04-12T08:15:44.999Z</time></trkpt><trkpt lat="43.59995032260661" lon="12.10756944533076"><ele>477.0</ele><time>2026-04-12T08:15:45.999Z</time></trkpt><trkpt lat="43.600124982988994" lon="12.107449727819837"><ele>477.0</ele><time>2026-04-12T08:15:46.999Z</time></trkpt><trkpt lat="43.6003154542607" lon="12.10730381968858"><ele>477.0</ele><time>2026-04-12T08:15:47.999Z</time></trkpt><trkpt lat="43.600514662223446" lon="12.107169304001237"><ele>477.0</ele><time>2026-04-12T08:15:48.999Z</time></trkpt><trkpt lat="43.60069507103017" lon="12.107035447261934"><ele>477.0</ele><time>2026-04-12T08:15:49.999Z</time></trkpt><trkpt lat="43.60087970294427" lon="12.106928306391458"><ele>477.0</ele><time>2026-04-12T08:15:50.999Z</time></trkpt><trkpt lat="43.601071517824685" lon="12.106896739347036"><ele>477.0</ele><time>2026-04-12T08:15:51.999Z</time></trkpt><trkpt lat="43.6012759647867" lon="12.106928506629862"><ele>478.0</ele><time>2026-04-12T08:15:52.999Z</time></trkpt><trkpt lat="43.60149749587159" lon="12.10695711661126"><ele>479.0</ele><time>2026-04-12T08:15:53.999Z</time></trkpt><trkpt lat="43.60172516784531" lon="12.106982828108228"><ele>479.0</ele><time>2026-04-12T08:15:54.999Z</time></trkpt><trkpt lat="43.601941070669035" lon="12.107007208749003"><ele>479.0</ele><time>2026-04-12T08:15:55.999Z</time></trkpt><trkpt lat="43.60214856665548" lon="12.107030640043773"><ele>479.0</ele><time>2026-04-12T08:15:56.999Z</time></trkpt><trkpt lat="43.60233476945127" lon="12.107036286544345"><ele>479.3333333333333</ele><time>2026-04-12T08:15:57.999Z</time></trkpt><trkpt lat="43.602512113657724" lon="12.107054071908486"><ele>479.66666666666663</ele><time>2026-04-12T08:15:58.999Z</time></trkpt><trkpt lat="43.60267294410662" lon="12.107104513395493"><ele>480.0</ele><time>2026-04-12T08:15:59.999Z</time></trkpt><trkpt lat="43.60281399457224" lon="12.107180589035524"><ele>479.66666666666663</ele><time>2026-04-12T08:16:00.999Z</time></trkpt><trkpt lat="43.60291887353234" lon="12.107328892085043"><ele>479.3333333333333</ele><time>2026-04-12T08:16:01.999Z</time></trkpt><trkpt lat="43.6030096516705" lon="12.107511858785418"><ele>479.0</ele><time>2026-04-12T08:16:02.999Z</time></trkpt><trkpt lat="43.60306008372719" lon="12.107725382633486"><ele>479.0</ele><time>2026-04-12T08:16:03.999Z</time></trkpt><trkpt lat="43.60309443758364" lon="12.107938338624377"><ele>479.0</ele><time>2026-04-12T08:16:04.999Z</time></trkpt><trkpt lat="43.603143555813155" lon="12.108113220908807"><ele>479.0</ele><time>2026-04-12T08:16:05.999Z</time></trkpt><trkpt lat="43.60320568367982" lon="12.108240113389389"><ele>479.0</ele><time>2026-04-12T08:16:06.999Z</time></trkpt><trkpt lat="43.60332646216972" lon="12.108331977510119"><ele>479.0</ele><time>2026-04-12T08:16:07.999Z</time></trkpt><trkpt lat="43.60347945221339" lon="12.108385831372114"><ele>479.0</ele><time>2026-04-12T08:16:08.999Z</time></trkpt><trkpt lat="43.60365416432046" lon="12.108421499612895"><ele>479.0</ele><time>2026-04-12T08:16:09.999Z</time></trkpt><trkpt lat="43.60383607059678" lon="12.108457806875128"><ele>479.0</ele><time>2026-04-12T08:16:10.999Z</time></trkpt><trkpt lat="43.60401886966915" lon="12.10850346120694"><ele>479.0</ele><time>2026-04-12T08:16:12Z</time></trkpt><trkpt lat="43.60419929091364" lon="12.108556690245033"><ele>479.0</ele><time>2026-04-12T08:16:13Z</time></trkpt><trkpt lat="43.60435878432815" lon="12.108629034499716"><ele>479.5</ele><time>2026-04-12T08:16:14Z</time></trkpt><trkpt lat="43.60450385050256" lon="12.10870399998436"><ele>480.0</ele><time>2026-04-12T08:16:15Z</time></trkpt><trkpt lat="43.604641309267826" lon="12.108724187124851"><ele>480.5</ele><time>2026-04-12T08:16:16Z</time></trkpt><trkpt lat="43.60479465411739" lon="12.108681965593874"><ele>481.0</ele><time>2026-04-12T08:16:17Z</time></trkpt><trkpt lat="43.60495540707123" lon="12.108567942134007"><ele>481.0</ele><time>2026-04-12T08:16:18Z</time></trkpt><trkpt lat="43.60510479755309" lon="12.108428073757436"><ele>481.0</ele><time>2026-04-12T08:16:19Z</time></trkpt><trkpt lat="43.605249953825805" lon="12.108358759139847"><ele>481.0</ele><time>2026-04-12T08:16:20Z</time></trkpt><trkpt lat="43.6053980800416" lon="12.10832106419465"><ele>480.6666666666667</ele><time>2026-04-12T08:16:21Z</time></trkpt><trkpt lat="43.605542472727976" lon="12.108392950290565"><ele>480.33333333333337</ele><time>2026-04-12T08:16:22Z</time></trkpt><trkpt lat="43.605695367542275" lon="12.108500319175828"><ele>480.0</ele><time>2026-04-12T08:16:23Z</time></trkpt><trkpt lat="43.60583830198826" lon="12.108603778662845"><ele>480.0</ele><time>2026-04-12T08:16:24Z</time></trkpt><trkpt lat="43.60596964836937" lon="12.10866360541345"><ele>480.0</ele><time>2026-04-12T08:16:25Z</time></trkpt><trkpt lat="43.60611387534796" lon="12.108628169347323"><ele>480.0</ele><time>2026-04-12T08:16:26Z</time></trkpt><trkpt lat="43.606252349494994" lon="12.108530466656493"><ele>480.0</ele><time>2026-04-12T08:16:27Z</time></trkpt><trkpt lat="43.60637866197096" lon="12.108400185038002"><ele>479.0</ele><time>2026-04-12T08:16:28Z</time></trkpt><trkpt lat="43.60651743623699" lon="12.108359462658957"><ele>478.0</ele><time>2026-04-12T08:16:29Z</time></trkpt><trkpt lat="43.60666273242129" lon="12.108417773327883"><ele>477.0</ele><time>2026-04-12T08:16:30Z</time></trkpt><trkpt lat="43.606813468351824" lon="12.108531957985374"><ele>477.0</ele><time>2026-04-12T08:16:31Z</time></trkpt><trkpt lat="43.606946303767636" lon="12.10867974595429"><ele>477.0</ele><time>2026-04-12T08:16:32Z</time></trkpt><trkpt lat="43.607063009283166" lon="12.108858641095898"><ele>477.0</ele><time>2026-04-12T08:16:33Z</time></trkpt><trkpt lat="43.60715020164357" lon="12.109075455027172"><ele>476.33333333333337</ele><time>2026-04-12T08:16:34Z</time></trkpt><trkpt lat="43.60723255399915" lon="12.109297047840727"><ele>475.6666666666667</ele><time>2026-04-12T08:16:35Z</time></trkpt><trkpt lat="43.60729560387591" lon="12.10949948875065"><ele>475.0</ele><time>2026-04-12T08:16:36Z</time></trkpt><trkpt lat="43.6073829295208" lon="12.109672965326647"><ele>475.0</ele><time>2026-04-12T08:16:37Z</time></trkpt><trkpt lat="43.60750049052289" lon="12.109803695914481"><ele>475.0</ele><time>2026-04-12T08:16:38Z</time></trkpt><trkpt lat="43.607654915117976" lon="12.109869013666817"><ele>475.0</ele><time>2026-04-12T08:16:39Z</time></trkpt><trkpt lat="43.607811335284644" lon="12.109901345397315"><ele>472.6666666666667</ele><time>2026-04-12T08:16:40Z</time></trkpt><trkpt lat="43.607977578564956" lon="12.109856716152349"><ele>470.33333333333337</ele><time>2026-04-12T08:16:41Z</time></trkpt><trkpt lat="43.60813387325877" lon="12.109833952581319"><ele>468.0</ele><time>2026-04-12T08:16:42Z</time></trkpt><trkpt lat="43.6082742860449" lon="12.10984691773808"><ele>472.0</ele><time>2026-04-12T08:16:43Z</time></trkpt><trkpt lat="43.60839227867075" lon="12.10995428033819"><ele>476.0</ele><time>2026-04-12T08:16:44Z</time></trkpt><trkpt lat="43.608463911404414" lon="12.110158224124467"><ele>480.0</ele><time>2026-04-12T08:16:45Z</time></trkpt><trkpt lat="43.60854432262423" lon="12.11033946797677"><ele>480.0</ele><time>2026-04-12T08:16:46Z</time></trkpt><trkpt lat="43.608622467775845" lon="12.110511037848761"><ele>480.0</ele><time>2026-04-12T08:16:47Z</time></trkpt><trkpt lat="43.60869739224767" lon="12.110635308467034"><ele>480.0</ele><time>2026-04-12T08:16:48Z</time></trkpt><trkpt lat="43.60876049126037" lon="12.110734522629338"><ele>480.0</ele><time>2026-04-12T08:16:49Z</time></trkpt><trkpt lat="43.60885897985023" lon="12.110779699380402"><ele>480.0</ele><time>2026-04-12T08:16:50Z</time></trkpt><trkpt lat="43.608974938008515" lon="12.110748415732267"><ele>480.0</ele><time>2026-04-12T08:16:51Z</time></trkpt><trkpt lat="43.60909548042979" lon="12.11065484361022"><ele>480.0</ele><time>2026-04-12T08:16:52Z</time></trkpt><trkpt lat="43.60921983730333" lon="12.110597203367007"><ele>480.0</ele><time>2026-04-12T08:16:53Z</time></trkpt><trkpt lat="43.60934318266921" lon="12.110635010752198"><ele>480.0</ele><time>2026-04-12T08:16:54Z</time></trkpt><trkpt lat="43.609416952125365" lon="12.110786279983168"><ele>480.0</ele><time>2026-04-12T08:16:55Z</time></trkpt><trkpt lat="43.609469258586465" lon="12.11095502494507"><ele>480.0</ele><time>2026-04-12T08:16:56Z</time></trkpt><trkpt lat="43.60954918018604" lon="12.111098919366341"><ele>480.0</ele><time>2026-04-12T08:16:57Z</time></trkpt><trkpt lat="43.609645646923724" lon="12.111228279496475"><ele>478.66666666666663</ele><time>2026-04-12T08:16:58Z</time></trkpt><trkpt lat="43.60978454192441" lon="12.111289719250477"><ele>477.3333333333333</ele><time>2026-04-12T08:16:59Z</time></trkpt><trkpt lat="43.609939135136" lon="12.11127266088179"><ele>476.0</ele><time>2026-04-12T08:17:00Z</time></trkpt><trkpt lat="43.610093162756115" lon="12.111194122858599"><ele>476.0</ele><time>2026-04-12T08:17:01Z</time></trkpt><trkpt lat="43.6102410861545" lon="12.111080926343949"><ele>476.0</ele><time>2026-04-12T08:17:02Z</time></trkpt><trkpt lat="43.61039903176069" lon="12.111048045955679"><ele>476.0</ele><time>2026-04-12T08:17:03Z</time></trkpt><trkpt lat="43.610544083236576" lon="12.111116776325515"><ele>473.66666666666663</ele><time>2026-04-12T08:17:04Z</time></trkpt><trkpt lat="43.610693509684104" lon="12.111223552658197"><ele>471.33333333333337</ele><time>2026-04-12T08:17:05Z</time></trkpt><trkpt lat="43.610858777100816" lon="12.111370423390468"><ele>469.0</ele><time>2026-04-12T08:17:06Z</time></trkpt><trkpt lat="43.61100865045976" lon="12.111556599060751"><ele>467.0</ele><time>2026-04-12T08:17:07Z</time></trkpt><trkpt lat="43.61114616526652" lon="12.111774537625594"><ele>465.0</ele><time>2026-04-12T08:17:08Z</time></trkpt><trkpt lat="43.61128978075245" lon="12.11201455284928"><ele>463.0</ele><time>2026-04-12T08:17:09Z</time></trkpt><trkpt lat="43.61144622125147" lon="12.112279908548008"><ele>469.5</ele><time>2026-04-12T08:17:10Z</time></trkpt><trkpt lat="43.611625795281796" lon="12.112569656122245"><ele>476.0</ele><time>2026-04-12T08:17:10.999Z</time></trkpt><trkpt lat="43.61185209404283" lon="12.11283441470593"><ele>474.5</ele><time>2026-04-12T08:17:11.999Z</time></trkpt><trkpt lat="43.612053185682974" lon="12.113075145159085"><ele>473.0</ele><time>2026-04-12T08:17:12.999Z</time></trkpt><trkpt lat="43.61221374861437" lon="12.113327340578056"><ele>473.0</ele><time>2026-04-12T08:17:13.999Z</time></trkpt><trkpt lat="43.61236111635395" lon="12.113570512140505"><ele>473.0</ele><time>2026-04-12T08:17:14.999Z</time></trkpt><trkpt lat="43.612496815259405" lon="12.113797432653273"><ele>473.0</ele><time>2026-04-12T08:17:15.999Z</time></trkpt><trkpt lat="43.61261751032096" lon="12.114010527869235"><ele>470.75</ele><time>2026-04-12T08:17:16.999Z</time></trkpt><trkpt lat="43.61270062413292" lon="12.114211704461766"><ele>468.5</ele><time>2026-04-12T08:17:17.999Z</time></trkpt><trkpt lat="43.61276243926677" lon="12.114407024181741"><ele>466.25</ele><time>2026-04-12T08:17:18.999Z</time></trkpt><trkpt lat="43.61282803266401" lon="12.114550646396495"><ele>464.0</ele><time>2026-04-12T08:17:19.999Z</time></trkpt><trkpt lat="43.612912887743484" lon="12.114668455359357"><ele>464.0</ele><time>2026-04-12T08:17:20.999Z</time></trkpt><trkpt lat="43.613055746939324" lon="12.114740885023329"><ele>464.0</ele><time>2026-04-12T08:17:21.999Z</time></trkpt><trkpt lat="43.613232226164016" lon="12.114768695445047"><ele>464.0</ele><time>2026-04-12T08:17:22.999Z</time></trkpt><trkpt lat="43.61342530285843" lon="12.114784205960564"><ele>464.0</ele><time>2026-04-12T08:17:23.999Z</time></trkpt><trkpt lat="43.61361974811352" lon="12.11481802777946"><ele>464.0</ele><time>2026-04-12T08:17:24.999Z</time></trkpt><trkpt lat="43.61379581953779" lon="12.114855879949728"><ele>464.0</ele><time>2026-04-12T08:17:25.999Z</time></trkpt><trkpt lat="43.61395686102382" lon="12.114888898658275"><ele>466.25</ele><time>2026-04-12T08:17:26.999Z</time></trkpt><trkpt lat="43.614091744093855" lon="12.114950143682808"><ele>468.5</ele><time>2026-04-12T08:17:27.999Z</time></trkpt><trkpt lat="43.614210767373145" lon="12.11501587373177"><ele>470.75</ele><time>2026-04-12T08:17:28.999Z</time></trkpt><trkpt lat="43.61429355535009" lon="12.115141176209441"><ele>473.0</ele><time>2026-04-12T08:17:29.999Z</time></trkpt><trkpt lat="43.61432592987425" lon="12.115297968242796"><ele>473.0</ele><time>2026-04-12T08:17:30.999Z</time></trkpt><trkpt lat="43.61429354837245" lon="12.115469449141543"><ele>473.0</ele><time>2026-04-12T08:17:31.999Z</time></trkpt><trkpt lat="43.614241506778335" lon="12.115657267122703"><ele>473.0</ele><time>2026-04-12T08:17:32.999Z</time></trkpt><trkpt lat="43.61419378221479" lon="12.115863003479559"><ele>473.0</ele><time>2026-04-12T08:17:33.999Z</time></trkpt><trkpt lat="43.61414595991003" lon="12.116056165012848"><ele>471.25</ele><time>2026-04-12T08:17:34.999Z</time></trkpt><trkpt lat="43.614197352121295" lon="12.116220105238169"><ele>469.5</ele><time>2026-04-12T08:17:35.999Z</time></trkpt><trkpt lat="43.61429282573247" lon="12.116348199455219"><ele>467.75</ele><time>2026-04-12T08:17:36.999Z</time></trkpt><trkpt lat="43.614431864832184" lon="12.116433747122786"><ele>466.0</ele><time>2026-04-12T08:17:37.999Z</time></trkpt><trkpt lat="43.6145984328543" lon="12.116518546697856"><ele>468.6666666666667</ele><time>2026-04-12T08:17:38.999Z</time></trkpt><trkpt lat="43.614763923751426" lon="12.116683013090709"><ele>471.33333333333337</ele><time>2026-04-12T08:17:39.999Z</time></trkpt><trkpt lat="43.614891717551735" lon="12.116900939927952"><ele>474.0</ele><time>2026-04-12T08:17:40.999Z</time></trkpt><trkpt lat="43.61503539839577" lon="12.117111092791479"><ele>474.0</ele><time>2026-04-12T08:17:41.999Z</time></trkpt><trkpt lat="43.615178261847674" lon="12.117293028920542"><ele>474.0</ele><time>2026-04-12T08:17:42.999Z</time></trkpt><trkpt lat="43.61529833882962" lon="12.117472091524284"><ele>474.0</ele><time>2026-04-12T08:17:43.999Z</time></trkpt><trkpt lat="43.61542340264061" lon="12.117608986136329"><ele>472.66666666666663</ele><time>2026-04-12T08:17:44.999Z</time></trkpt><trkpt lat="43.615574195897025" lon="12.117686171112208"><ele>471.3333333333333</ele><time>2026-04-12T08:17:45.999Z</time></trkpt><trkpt lat="43.61575300864301" lon="12.117699838779437"><ele>470.0</ele><time>2026-04-12T08:17:46.999Z</time></trkpt><trkpt lat="43.61593836565246" lon="12.11766709768923"><ele>470.0</ele><time>2026-04-12T08:17:47.999Z</time></trkpt><trkpt lat="43.61610352707893" lon="12.117636477682215"><ele>470.0</ele><time>2026-04-12T08:17:48.999Z</time></trkpt><trkpt lat="43.61624103261927" lon="12.117700361435011"><ele>470.0</ele><time>2026-04-12T08:17:49.999Z</time></trkpt><trkpt lat="43.61633502032477" lon="12.117789210349564"><ele>470.0</ele><time>2026-04-12T08:17:50.999Z</time></trkpt><trkpt lat="43.6163789041997" lon="12.117923048011226"><ele>469.0</ele><time>2026-04-12T08:17:51.999Z</time></trkpt><trkpt lat="43.61637512808024" lon="12.11807283823506"><ele>468.0</ele><time>2026-04-12T08:17:52.999Z</time></trkpt><trkpt lat="43.616355437061955" lon="12.11827283302773"><ele>467.0</ele><time>2026-04-12T08:17:53.999Z</time></trkpt><trkpt lat="43.61630122075174" lon="12.118494926557204"><ele>466.0</ele><time>2026-04-12T08:17:54.999Z</time></trkpt><trkpt lat="43.616212625901724" lon="12.118663584030928"><ele>467.25</ele><time>2026-04-12T08:17:55.999Z</time></trkpt><trkpt lat="43.61614419345481" lon="12.118824675191261"><ele>468.5</ele><time>2026-04-12T08:17:56.999Z</time></trkpt><trkpt lat="43.61611366593615" lon="12.118987397460602"><ele>469.75</ele><time>2026-04-12T08:17:57.999Z</time></trkpt><trkpt lat="43.61612546705687" lon="12.119139442152203"><ele>471.0</ele><time>2026-04-12T08:17:58.999Z</time></trkpt><trkpt lat="43.616189069845724" lon="12.119274838532714"><ele>471.0</ele><time>2026-04-12T08:17:59.999Z</time></trkpt><trkpt lat="43.6163070876384" lon="12.119370943903926"><ele>471.0</ele><time>2026-04-12T08:18:00.999Z</time></trkpt><trkpt lat="43.61645923518316" lon="12.119381754317676"><ele>471.0</ele><time>2026-04-12T08:18:01.999Z</time></trkpt><trkpt lat="43.616613719916955" lon="12.119314472429089"><ele>471.0</ele><time>2026-04-12T08:18:02.999Z</time></trkpt><trkpt lat="43.616751689399486" lon="12.119166310058144"><ele>471.0</ele><time>2026-04-12T08:18:03.999Z</time></trkpt><trkpt lat="43.61686587097858" lon="12.118938315394733"><ele>471.0</ele><time>2026-04-12T08:18:04.999Z</time></trkpt><trkpt lat="43.616952227394584" lon="12.118625873742443"><ele>470.66666666666663</ele><time>2026-04-12T08:18:05.999Z</time></trkpt><trkpt lat="43.617068597171055" lon="12.118388855512023"><ele>470.3333333333333</ele><time>2026-04-12T08:18:06.999Z</time></trkpt><trkpt lat="43.617207428246736" lon="12.118187575567429"><ele>470.0</ele><time>2026-04-12T08:18:07.999Z</time></trkpt><trkpt lat="43.61734884271294" lon="12.118012793827457"><ele>466.66666666666663</ele><time>2026-04-12T08:18:08.999Z</time></trkpt><trkpt lat="43.6175013339695" lon="12.117864058712348"><ele>463.33333333333337</ele><time>2026-04-12T08:18:09.999Z</time></trkpt><trkpt lat="43.61767292335692" lon="12.117774570064839"><ele>460.0</ele><time>2026-04-12T08:18:10.999Z</time></trkpt><trkpt lat="43.61786680449116" lon="12.117743499988766"><ele>459.6666666666667</ele><time>2026-04-12T08:18:11.999Z</time></trkpt><trkpt lat="43.61806879630357" lon="12.117754796942798"><ele>459.33333333333337</ele><time>2026-04-12T08:18:12.999Z</time></trkpt><trkpt lat="43.61827204486886" lon="12.117753022657046"><ele>459.0</ele><time>2026-04-12T08:18:13.999Z</time></trkpt><trkpt lat="43.61847649055211" lon="12.117779892542995"><ele>459.66666666666663</ele><time>2026-04-12T08:18:14.999Z</time></trkpt><trkpt lat="43.61868508650745" lon="12.117779106477698"><ele>460.3333333333333</ele><time>2026-04-12T08:18:15.999Z</time></trkpt><trkpt lat="43.61886677951259" lon="12.117757249810579"><ele>461.0</ele><time>2026-04-12T08:18:17Z</time></trkpt><trkpt lat="43.619051135375386" lon="12.117713407349397"><ele>461.0</ele><time>2026-04-12T08:18:18Z</time></trkpt><trkpt lat="43.61921487383129" lon="12.117630839979922"><ele>461.0</ele><time>2026-04-12T08:18:19Z</time></trkpt><trkpt lat="43.61937451529111" lon="12.117517166754741"><ele>461.0</ele><time>2026-04-12T08:18:20Z</time></trkpt><trkpt lat="43.61952258460565" lon="12.117440010382555"><ele>461.0</ele><time>2026-04-12T08:18:21Z</time></trkpt><trkpt lat="43.619668281434464" lon="12.11736611720868"><ele>461.0</ele><time>2026-04-12T08:18:22Z</time></trkpt><trkpt lat="43.619791999387076" lon="12.117329687449917"><ele>461.0</ele><time>2026-04-12T08:18:23Z</time></trkpt><trkpt lat="43.61991128911711" lon="12.117391014312718"><ele>461.0</ele><time>2026-04-12T08:18:24Z</time></trkpt><trkpt lat="43.61999408533463" lon="12.117516949251511"><ele>461.0</ele><time>2026-04-12T08:18:25Z</time></trkpt><trkpt lat="43.620065110531044" lon="12.117685554651214"><ele>461.0</ele><time>2026-04-12T08:18:26Z</time></trkpt><trkpt lat="43.62015242024063" lon="12.117890890329393"><ele>461.0</ele><time>2026-04-12T08:18:27Z</time></trkpt><trkpt lat="43.620242915172796" lon="12.11810001030395"><ele>462.66666666666663</ele><time>2026-04-12T08:18:28Z</time></trkpt><trkpt lat="43.620344758776724" lon="12.118284184093655"><ele>464.33333333333337</ele><time>2026-04-12T08:18:29Z</time></trkpt><trkpt lat="43.62045673445434" lon="12.118477133600104"><ele>466.0</ele><time>2026-04-12T08:18:30Z</time></trkpt><trkpt lat="43.620595996790584" lon="12.118635557291634"><ele>466.0</ele><time>2026-04-12T08:18:31Z</time></trkpt><trkpt lat="43.62075183814226" lon="12.11876569529911"><ele>466.0</ele><time>2026-04-12T08:18:32Z</time></trkpt><trkpt lat="43.62092292520806" lon="12.118895820541667"><ele>466.0</ele><time>2026-04-12T08:18:33Z</time></trkpt><trkpt lat="43.6210802210168" lon="12.119028390464461"><ele>467.33333333333337</ele><time>2026-04-12T08:18:34Z</time></trkpt><trkpt lat="43.621239794823836" lon="12.119109741705323"><ele>468.66666666666663</ele><time>2026-04-12T08:18:35Z</time></trkpt><trkpt lat="43.621402701151155" lon="12.119139796226339"><ele>470.0</ele><time>2026-04-12T08:18:36Z</time></trkpt><trkpt lat="43.621573516035035" lon="12.119107790766579"><ele>470.0</ele><time>2026-04-12T08:18:37Z</time></trkpt><trkpt lat="43.621747010177245" lon="12.119069448416356"><ele>470.0</ele><time>2026-04-12T08:18:38Z</time></trkpt><trkpt lat="43.621922115716494" lon="12.119033008016604"><ele>470.0</ele><time>2026-04-12T08:18:39Z</time></trkpt><trkpt lat="43.62210005468702" lon="12.119011020595389"><ele>469.66666666666663</ele><time>2026-04-12T08:18:40Z</time></trkpt><trkpt lat="43.62228268611188" lon="12.119007891179606"><ele>469.33333333333337</ele><time>2026-04-12T08:18:41Z</time></trkpt><trkpt lat="43.622469295891904" lon="12.119021132815575"><ele>469.0</ele><time>2026-04-12T08:18:42Z</time></trkpt><trkpt lat="43.622657458315906" lon="12.11903562343592"><ele>470.6666666666667</ele><time>2026-04-12T08:18:43Z</time></trkpt><trkpt lat="43.62285031221511" lon="12.119047723103487"><ele>472.33333333333337</ele><time>2026-04-12T08:18:44Z</time></trkpt><trkpt lat="43.62305248239289" lon="12.119056306723367"><ele>474.0</ele><time>2026-04-12T08:18:45Z</time></trkpt><trkpt lat="43.623250960885976" lon="12.119066980687501"><ele>477.66666666666663</ele><time>2026-04-12T08:18:46Z</time></trkpt><trkpt lat="43.62344933808083" lon="12.119075340150337"><ele>481.3333333333333</ele><time>2026-04-12T08:18:47Z</time></trkpt><trkpt lat="43.62364888087268" lon="12.11908628827179"><ele>485.0</ele><time>2026-04-12T08:18:48Z</time></trkpt><trkpt lat="43.623848027493096" lon="12.119095308294009"><ele>487.0</ele><time>2026-04-12T08:18:49Z</time></trkpt><trkpt lat="43.62405167031159" lon="12.119101083495861"><ele>489.0</ele><time>2026-04-12T08:18:50Z</time></trkpt><trkpt lat="43.62425746511437" lon="12.119107766319258"><ele>491.0</ele><time>2026-04-12T08:18:51Z</time></trkpt><trkpt lat="43.62446729416781" lon="12.1191108569498"><ele>488.0</ele><time>2026-04-12T08:18:52Z</time></trkpt><trkpt lat="43.62467491123465" lon="12.119094657328812"><ele>485.0</ele><time>2026-04-12T08:18:53Z</time></trkpt><trkpt lat="43.62488267037658" lon="12.119049131903145"><ele>482.0</ele><time>2026-04-12T08:18:54Z</time></trkpt><trkpt lat="43.62508815899426" lon="12.118987031440811"><ele>482.0</ele><time>2026-04-12T08:18:55Z</time></trkpt><trkpt lat="43.625292016469935" lon="12.118933225431851"><ele>482.0</ele><time>2026-04-12T08:18:56Z</time></trkpt><trkpt lat="43.62548832464827" lon="12.11888856439335"><ele>482.0</ele><time>2026-04-12T08:18:57Z</time></trkpt><trkpt lat="43.62568194433335" lon="12.118839500428072"><ele>485.66666666666663</ele><time>2026-04-12T08:18:58Z</time></trkpt><trkpt lat="43.625865878602994" lon="12.118793722421916"><ele>489.33333333333337</ele><time>2026-04-12T08:18:59Z</time></trkpt><trkpt lat="43.62603486130413" lon="12.118751458162347"><ele>493.0</ele><time>2026-04-12T08:19:00Z</time></trkpt><trkpt lat="43.626196608948604" lon="12.118757020275892"><ele>494.0</ele><time>2026-04-12T08:19:01Z</time></trkpt><trkpt lat="43.62636263684034" lon="12.118772973450234"><ele>495.0</ele><time>2026-04-12T08:19:02Z</time></trkpt><trkpt lat="43.62653048857144" lon="12.11878226752207"><ele>496.0</ele><time>2026-04-12T08:19:03Z</time></trkpt><trkpt lat="43.626678285321724" lon="12.118798725336571"><ele>496.0</ele><time>2026-04-12T08:19:04Z</time></trkpt><trkpt lat="43.62681185927315" lon="12.118764862802832"><ele>496.0</ele><time>2026-04-12T08:19:05Z</time></trkpt><trkpt lat="43.62694459137153" lon="12.118671703063493"><ele>496.0</ele><time>2026-04-12T08:19:06Z</time></trkpt><trkpt lat="43.62707869124676" lon="12.118526212232112"><ele>494.6666666666667</ele><time>2026-04-12T08:19:07Z</time></trkpt><trkpt lat="43.62722277023672" lon="12.118369425218619"><ele>493.33333333333337</ele><time>2026-04-12T08:19:08Z</time></trkpt><trkpt lat="43.627379088160914" lon="12.118212758958347"><ele>492.0</ele><time>2026-04-12T08:19:09Z</time></trkpt><trkpt lat="43.62753555525425" lon="12.118048189760206"><ele>492.0</ele><time>2026-04-12T08:19:10Z</time></trkpt><trkpt lat="43.62769852572962" lon="12.11788687572436"><ele>492.0</ele><time>2026-04-12T08:19:11Z</time></trkpt><trkpt lat="43.62785749922389" lon="12.117723707430716"><ele>492.0</ele><time>2026-04-12T08:19:12Z</time></trkpt><trkpt lat="43.62802440207968" lon="12.117606014683451"><ele>494.66666666666663</ele><time>2026-04-12T08:19:13Z</time></trkpt><trkpt lat="43.62817948791985" lon="12.11751103794564"><ele>497.3333333333333</ele><time>2026-04-12T08:19:14Z</time></trkpt><trkpt lat="43.628343101829685" lon="12.11751684114538"><ele>500.0</ele><time>2026-04-12T08:19:15Z</time></trkpt><trkpt lat="43.6285062972427" lon="12.11755901506028"><ele>502.66666666666663</ele><time>2026-04-12T08:19:16Z</time></trkpt><trkpt lat="43.62867314300116" lon="12.117560604886368"><ele>505.33333333333337</ele><time>2026-04-12T08:19:17Z</time></trkpt><trkpt lat="43.62882822995357" lon="12.117509979411421"><ele>508.0</ele><time>2026-04-12T08:19:18Z</time></trkpt><trkpt lat="43.628976151306425" lon="12.117390137939942"><ele>502.6666666666667</ele><time>2026-04-12T08:19:19Z</time></trkpt><trkpt lat="43.629109157646006" lon="12.11722701224339"><ele>497.33333333333337</ele><time>2026-04-12T08:19:20Z</time></trkpt><trkpt lat="43.629266453092015" lon="12.117121636499103"><ele>492.0</ele><time>2026-04-12T08:19:21Z</time></trkpt><trkpt lat="43.62943898016264" lon="12.117040016443939"><ele>494.33333333333337</ele><time>2026-04-12T08:19:22Z</time></trkpt><trkpt lat="43.629623944756176" lon="12.11701195979098"><ele>496.6666666666667</ele><time>2026-04-12T08:19:23Z</time></trkpt><trkpt lat="43.629822375209" lon="12.117035090054443"><ele>499.0</ele><time>2026-04-12T08:19:24Z</time></trkpt><trkpt lat="43.63002086910138" lon="12.117106812317077"><ele>499.0</ele><time>2026-04-12T08:19:25Z</time></trkpt><trkpt lat="43.63019830697884" lon="12.117192364493182"><ele>499.0</ele><time>2026-04-12T08:19:26Z</time></trkpt><trkpt lat="43.630367255402625" lon="12.11728247522368"><ele>499.0</ele><time>2026-04-12T08:19:27Z</time></trkpt><trkpt lat="43.630514050369655" lon="12.117347382870726"><ele>501.75</ele><time>2026-04-12T08:19:28Z</time></trkpt><trkpt lat="43.63064074970153" lon="12.117425929397776"><ele>504.5</ele><time>2026-04-12T08:19:29Z</time></trkpt><trkpt lat="43.63074836616441" lon="12.117482742553486"><ele>507.25</ele><time>2026-04-12T08:19:30Z</time></trkpt><trkpt lat="43.630851844023155" lon="12.117479449311055"><ele>510.0</ele><time>2026-04-12T08:19:31Z</time></trkpt><trkpt lat="43.63094629691318" lon="12.117426024057139"><ele>508.5</ele><time>2026-04-12T08:19:32Z</time></trkpt><trkpt lat="43.631015718482296" lon="12.117318352073738"><ele>507.0</ele><time>2026-04-12T08:19:33Z</time></trkpt><trkpt lat="43.63106939847836" lon="12.11718035191666"><ele>505.5</ele><time>2026-04-12T08:19:34Z</time></trkpt><trkpt lat="43.63109111816122" lon="12.117027146162325"><ele>504.0</ele><time>2026-04-12T08:19:35Z</time></trkpt><trkpt lat="43.63104459032818" lon="12.116870747116986"><ele>504.0</ele><time>2026-04-12T08:19:36Z</time></trkpt><trkpt lat="43.63092767675448" lon="12.116754817788236"><ele>504.0</ele><time>2026-04-12T08:19:37Z</time></trkpt><trkpt lat="43.63078872093141" lon="12.116706215772542"><ele>504.0</ele><time>2026-04-12T08:19:38Z</time></trkpt><trkpt lat="43.63071503217826" lon="12.116635515483093"><ele>504.0</ele><time>2026-04-12T08:19:39Z</time></trkpt><trkpt lat="43.630640599001424" lon="12.11652720929043"><ele>504.0</ele><time>2026-04-12T08:19:40Z</time></trkpt><trkpt lat="43.630788445174225" lon="12.116441229296226"><ele>504.0</ele><time>2026-04-12T08:19:41Z</time></trkpt><trkpt lat="43.630890268884016" lon="12.116386286331283"><ele>504.0</ele><time>2026-04-12T08:19:42Z</time></trkpt><trkpt lat="43.63097748823885" lon="12.116469477778896"><ele>504.0</ele><time>2026-04-12T08:19:43Z</time></trkpt><trkpt lat="43.63107282636965" lon="12.11657089674014"><ele>508.33333333333337</ele><time>2026-04-12T08:19:44Z</time></trkpt><trkpt lat="43.63123034033089" lon="12.11668606024973"><ele>512.6666666666667</ele><time>2026-04-12T08:19:45Z</time></trkpt><trkpt lat="43.631435200270104" lon="12.116822839745865"><ele>517.0</ele><time>2026-04-12T08:19:46Z</time></trkpt><trkpt lat="43.63167344711954" lon="12.11699771407252"><ele>523.5</ele><time>2026-04-12T08:19:47Z</time></trkpt><trkpt lat="43.63197402122249" lon="12.117139779540324"><ele>530.0</ele><time>2026-04-12T08:19:48Z</time></trkpt><trkpt lat="43.63231029374067" lon="12.117284843636739"><ele>530.0</ele><time>2026-04-12T08:19:49Z</time></trkpt><trkpt lat="43.63264392535496" lon="12.117408136403036"><ele>530.0</ele><time>2026-04-12T08:19:49.999Z</time></trkpt><trkpt lat="43.63290292217099" lon="12.117560186440308"><ele>530.0</ele><time>2026-04-12T08:19:50.999Z</time></trkpt><trkpt lat="43.63312693272287" lon="12.11765959644657"><ele>530.0</ele><time>2026-04-12T08:19:51.999Z</time></trkpt><trkpt lat="43.63332344588818" lon="12.117763140943943"><ele>530.0</ele><time>2026-04-12T08:19:52.999Z</time></trkpt><trkpt lat="43.63348987189482" lon="12.117854209107353"><ele>530.0</ele><time>2026-04-12T08:19:53.999Z</time></trkpt><trkpt lat="43.63362196927107" lon="12.117921441987646"><ele>530.0</ele><time>2026-04-12T08:19:54.999Z</time></trkpt><trkpt lat="43.63371050413713" lon="12.117958759428713"><ele>530.0</ele><time>2026-04-12T08:19:55.999Z</time></trkpt><trkpt lat="43.63378874897805" lon="12.117930237561366"><ele>530.0</ele><time>2026-04-12T08:19:56.999Z</time></trkpt><trkpt lat="43.633847939876645" lon="12.117824083612966"><ele>530.0</ele><time>2026-04-12T08:19:57.999Z</time></trkpt><trkpt lat="43.63385534900729" lon="12.117679734360877"><ele>533.0</ele><time>2026-04-12T08:19:58.999Z</time></trkpt><trkpt lat="43.6338027442117" lon="12.117529751983552"><ele>536.0</ele><time>2026-04-12T08:19:59.999Z</time></trkpt><trkpt lat="43.63370358326358" lon="12.117395769621801"><ele>539.0</ele><time>2026-04-12T08:20:00.999Z</time></trkpt><trkpt lat="43.63355936195184" lon="12.117274715544749"><ele>542.0</ele><time>2026-04-12T08:20:01.999Z</time></trkpt><trkpt lat="43.633373923991996" lon="12.11713328113957"><ele>542.0</ele><time>2026-04-12T08:20:02.999Z</time></trkpt><trkpt lat="43.6332079956053" lon="12.116978605300972"><ele>542.0</ele><time>2026-04-12T08:20:03.999Z</time></trkpt><trkpt lat="43.63306313406323" lon="12.116820452750432"><ele>542.0</ele><time>2026-04-12T08:20:04.999Z</time></trkpt><trkpt lat="43.63296720642261" lon="12.116621949299814"><ele>544.0</ele><time>2026-04-12T08:20:05.999Z</time></trkpt><trkpt lat="43.63292108114224" lon="12.116438881263337"><ele>546.0</ele><time>2026-04-12T08:20:06.999Z</time></trkpt><trkpt lat="43.632936402773105" lon="12.116242962598728"><ele>548.0</ele><time>2026-04-12T08:20:07.999Z</time></trkpt><trkpt lat="43.63298895763" lon="12.11602061821169"><ele>548.0</ele><time>2026-04-12T08:20:08.999Z</time></trkpt><trkpt lat="43.63306236108909" lon="12.115805399830185"><ele>548.0</ele><time>2026-04-12T08:20:09.999Z</time></trkpt><trkpt lat="43.63314960108338" lon="12.11557671136832"><ele>548.0</ele><time>2026-04-12T08:20:10.999Z</time></trkpt><trkpt lat="43.63325126220184" lon="12.115335474484807"><ele>547.0</ele><time>2026-04-12T08:20:11.999Z</time></trkpt><trkpt lat="43.633361030489205" lon="12.115097182456337"><ele>546.0</ele><time>2026-04-12T08:20:12.999Z</time></trkpt><trkpt lat="43.63348117192031" lon="12.114855192615472"><ele>545.0</ele><time>2026-04-12T08:20:13.999Z</time></trkpt><trkpt lat="43.633613797421106" lon="12.114644891885598"><ele>547.6666666666666</ele><time>2026-04-12T08:20:14.999Z</time></trkpt><trkpt lat="43.63375951489469" lon="12.114454523806303"><ele>550.3333333333334</ele><time>2026-04-12T08:20:15.999Z</time></trkpt><trkpt lat="43.63390610409393" lon="12.114272378406675"><ele>553.0</ele><time>2026-04-12T08:20:16.999Z</time></trkpt><trkpt lat="43.63404038764268" lon="12.11411135406321"><ele>550.3333333333334</ele><time>2026-04-12T08:20:17.999Z</time></trkpt><trkpt lat="43.63416789284447" lon="12.113977536418966"><ele>547.6666666666666</ele><time>2026-04-12T08:20:18.999Z</time></trkpt><trkpt lat="43.63430252605328" lon="12.113900893854066"><ele>545.0</ele><time>2026-04-12T08:20:19.999Z</time></trkpt><trkpt lat="43.634455721315334" lon="12.113880118495825"><ele>548.0</ele><time>2026-04-12T08:20:20.999Z</time></trkpt><trkpt lat="43.63463811257599" lon="12.113872883690657"><ele>551.0</ele><time>2026-04-12T08:20:21.999Z</time></trkpt><trkpt lat="43.63482921916067" lon="12.113867561856436"><ele>554.0</ele><time>2026-04-12T08:20:23.001Z</time></trkpt><trkpt lat="43.635022942607364" lon="12.113885477092866"><ele>554.0</ele><time>2026-04-12T08:20:24.001Z</time></trkpt><trkpt lat="43.63520790722913" lon="12.11392861470451"><ele>554.0</ele><time>2026-04-12T08:20:25.001Z</time></trkpt><trkpt lat="43.63537320296721" lon="12.114011739340347"><ele>554.0</ele><time>2026-04-12T08:20:26.001Z</time></trkpt><trkpt lat="43.635517663271656" lon="12.11410112036049"><ele>556.5</ele><time>2026-04-12T08:20:27.001Z</time></trkpt><trkpt lat="43.63564484436633" lon="12.11419152581487"><ele>559.0</ele><time>2026-04-12T08:20:28.001Z</time></trkpt><trkpt lat="43.635761641154446" lon="12.114247605759795"><ele>561.5</ele><time>2026-04-12T08:20:29.001Z</time></trkpt><trkpt lat="43.635861029153155" lon="12.11426214735475"><ele>564.0</ele><time>2026-04-12T08:20:30.001Z</time></trkpt><trkpt lat="43.63594778201368" lon="12.114195413899166"><ele>564.5</ele><time>2026-04-12T08:20:31.001Z</time></trkpt><trkpt lat="43.63601077702653" lon="12.114067390531003"><ele>565.0</ele><time>2026-04-12T08:20:32.001Z</time></trkpt><trkpt lat="43.636039471450374" lon="12.113902673995723"><ele>565.5</ele><time>2026-04-12T08:20:33.001Z</time></trkpt><trkpt lat="43.636004373276776" lon="12.113723467798684"><ele>566.0</ele><time>2026-04-12T08:20:34.001Z</time></trkpt><trkpt lat="43.63590343712564" lon="12.11358313945009"><ele>566.0</ele><time>2026-04-12T08:20:35.001Z</time></trkpt><trkpt lat="43.635788249365916" lon="12.113498247174048"><ele>566.0</ele><time>2026-04-12T08:20:36.001Z</time></trkpt><trkpt lat="43.63571678261817" lon="12.113408919757774"><ele>566.0</ele><time>2026-04-12T08:20:37Z</time></trkpt><trkpt lat="43.63571306475136" lon="12.113274458075455"><ele>566.0</ele><time>2026-04-12T08:20:38Z</time></trkpt><trkpt lat="43.63576909805386" lon="12.113152809127854"><ele>566.0</ele><time>2026-04-12T08:20:39Z</time></trkpt><trkpt lat="43.63589163062223" lon="12.113124438888638"><ele>564.3333333333333</ele><time>2026-04-12T08:20:39.999Z</time></trkpt><trkpt lat="43.63603016640533" lon="12.11315811981016"><ele>562.6666666666666</ele><time>2026-04-12T08:20:40.999Z</time></trkpt><trkpt lat="43.63620815513488" lon="12.113153119611487"><ele>561.0</ele><time>2026-04-12T08:20:41.999Z</time></trkpt><trkpt lat="43.636397033852134" lon="12.113141171991941"><ele>561.0</ele><time>2026-04-12T08:20:42.999Z</time></trkpt><trkpt lat="43.63659386492591" lon="12.1131303856907"><ele>561.0</ele><time>2026-04-12T08:20:43.999Z</time></trkpt><trkpt lat="43.63681569935826" lon="12.113089874821446"><ele>561.0</ele><time>2026-04-12T08:20:44.999Z</time></trkpt><trkpt lat="43.63702851017668" lon="12.113007308968852"><ele>564.0</ele><time>2026-04-12T08:20:45.999Z</time></trkpt><trkpt lat="43.63723116090004" lon="12.11289845376389"><ele>567.0</ele><time>2026-04-12T08:20:46.999Z</time></trkpt><trkpt lat="43.637413325928634" lon="12.112814510136674"><ele>570.0</ele><time>2026-04-12T08:20:47.999Z</time></trkpt><trkpt lat="43.637574076645905" lon="12.112754353817937"><ele>570.0</ele><time>2026-04-12T08:20:48.999Z</time></trkpt><trkpt lat="43.63772661321032" lon="12.112767234597419"><ele>570.0</ele><time>2026-04-12T08:20:49.999Z</time></trkpt><trkpt lat="43.6378732796238" lon="12.112847094880605"><ele>570.0</ele><time>2026-04-12T08:20:50.999Z</time></trkpt><trkpt lat="43.63803610386691" lon="12.112979872751309"><ele>570.6666666666666</ele><time>2026-04-12T08:20:51.999Z</time></trkpt><trkpt lat="43.638211502085746" lon="12.113094596880561"><ele>571.3333333333333</ele><time>2026-04-12T08:20:52.999Z</time></trkpt><trkpt lat="43.63839689157025" lon="12.11314954858611"><ele>572.0</ele><time>2026-04-12T08:20:53.999Z</time></trkpt><trkpt lat="43.63859550359641" lon="12.11316278747923"><ele>574.0</ele><time>2026-04-12T08:20:54.999Z</time></trkpt><trkpt lat="43.63879297722121" lon="12.113116340203248"><ele>576.0</ele><time>2026-04-12T08:20:55.999Z</time></trkpt><trkpt lat="43.638989016487464" lon="12.11303664032592"><ele>578.0</ele><time>2026-04-12T08:20:56.999Z</time></trkpt><trkpt lat="43.63918822961472" lon="12.112942324431234"><ele>578.0</ele><time>2026-04-12T08:20:57.999Z</time></trkpt><trkpt lat="43.639373688954024" lon="12.112826338077733"><ele>578.0</ele><time>2026-04-12T08:20:58.999Z</time></trkpt><trkpt lat="43.639540677212544" lon="12.11271963944213"><ele>578.0</ele><time>2026-04-12T08:20:59.999Z</time></trkpt><trkpt lat="43.639709972135" lon="12.112693239591009"><ele>580.5</ele><time>2026-04-12T08:21:00.999Z</time></trkpt><trkpt lat="43.639881152417125" lon="12.112677384242648"><ele>583.0</ele><time>2026-04-12T08:21:01.999Z</time></trkpt><trkpt lat="43.64002609986902" lon="12.112711610460694"><ele>585.5</ele><time>2026-04-12T08:21:02.999Z</time></trkpt><trkpt lat="43.640154596227326" lon="12.11270306563723"><ele>588.0</ele><time>2026-04-12T08:21:03.999Z</time></trkpt><trkpt lat="43.640262981775145" lon="12.112673048240783"><ele>591.75</ele><time>2026-04-12T08:21:04.999Z</time></trkpt><trkpt lat="43.640343439313476" lon="12.112548390797947"><ele>595.5</ele><time>2026-04-12T08:21:05.999Z</time></trkpt><trkpt lat="43.6403805774437" lon="12.112365192336494"><ele>599.25</ele><time>2026-04-12T08:21:06.999Z</time></trkpt><trkpt lat="43.640364426789354" lon="12.112138944417836"><ele>603.0</ele><time>2026-04-12T08:21:07.999Z</time></trkpt><trkpt lat="43.64030612736189" lon="12.111893899240735"><ele>600.3333333333334</ele><time>2026-04-12T08:21:08.999Z</time></trkpt><trkpt lat="43.64023851473923" lon="12.1116349761198"><ele>597.6666666666667</ele><time>2026-04-12T08:21:09.999Z</time></trkpt><trkpt lat="43.64017748012953" lon="12.111345320397207"><ele>595.0</ele><time>2026-04-12T08:21:10.999Z</time></trkpt><trkpt lat="43.6401260799218" lon="12.111055347310531"><ele>595.0</ele><time>2026-04-12T08:21:11.999Z</time></trkpt><trkpt lat="43.640073270379986" lon="12.11075524561508"><ele>595.0</ele><time>2026-04-12T08:21:12.999Z</time></trkpt><trkpt lat="43.64001020606015" lon="12.110467031660853"><ele>595.0</ele><time>2026-04-12T08:21:13.999Z</time></trkpt><trkpt lat="43.63994037748624" lon="12.110216974460782"><ele>596.5</ele><time>2026-04-12T08:21:14.999Z</time></trkpt><trkpt lat="43.639900920976785" lon="12.109989660281727"><ele>598.0</ele><time>2026-04-12T08:21:15.999Z</time></trkpt><trkpt lat="43.63987195933311" lon="12.109794669877708"><ele>599.5</ele><time>2026-04-12T08:21:16.999Z</time></trkpt><trkpt lat="43.63987228219077" lon="12.109629195258247"><ele>601.0</ele><time>2026-04-12T08:21:17.999Z</time></trkpt><trkpt lat="43.639923724487865" lon="12.109485788200184"><ele>601.3333333333334</ele><time>2026-04-12T08:21:18.999Z</time></trkpt><trkpt lat="43.64003076854586" lon="12.109388963706524"><ele>601.6666666666666</ele><time>2026-04-12T08:21:19.999Z</time></trkpt><trkpt lat="43.64018152506621" lon="12.109310073853214"><ele>602.0</ele><time>2026-04-12T08:21:20.999Z</time></trkpt><trkpt lat="43.64037203685884" lon="12.109221819157028"><ele>604.5</ele><time>2026-04-12T08:21:21.999Z</time></trkpt><trkpt lat="43.64057284678742" lon="12.109091663781692"><ele>607.0</ele><time>2026-04-12T08:21:22.999Z</time></trkpt><trkpt lat="43.640781454777624" lon="12.10896119767674"><ele>607.0</ele><time>2026-04-12T08:21:23.999Z</time></trkpt><trkpt lat="43.64098797752331" lon="12.108775216542693"><ele>607.0</ele><time>2026-04-12T08:21:24.999Z</time></trkpt><trkpt lat="43.641187398035335" lon="12.108574660620686"><ele>609.0</ele><time>2026-04-12T08:21:25.999Z</time></trkpt><trkpt lat="43.64139015469935" lon="12.108374222810042"><ele>611.0</ele><time>2026-04-12T08:21:26.999Z</time></trkpt><trkpt lat="43.64158712808499" lon="12.108189301507565"><ele>611.0</ele><time>2026-04-12T08:21:27.999Z</time></trkpt><trkpt lat="43.641774472398865" lon="12.108001781749332"><ele>611.0</ele><time>2026-04-12T08:21:28.999Z</time></trkpt><trkpt lat="43.641962523172886" lon="12.107847948828583"><ele>613.0</ele><time>2026-04-12T08:21:29.999Z</time></trkpt><trkpt lat="43.642149832139296" lon="12.10770663367336"><ele>615.0</ele><time>2026-04-12T08:21:30.999Z</time></trkpt><trkpt lat="43.642352511429614" lon="12.10762261858415"><ele>617.0</ele><time>2026-04-12T08:21:31.999Z</time></trkpt><trkpt lat="43.642575017540295" lon="12.107538943022435"><ele>617.0</ele><time>2026-04-12T08:21:32.999Z</time></trkpt><trkpt lat="43.6427962870416" lon="12.107433337466144"><ele>617.0</ele><time>2026-04-12T08:21:33.999Z</time></trkpt><trkpt lat="43.64301783109054" lon="12.107352984036634"><ele>616.6666666666666</ele><time>2026-04-12T08:21:34.999Z</time></trkpt><trkpt lat="43.64321978093376" lon="12.10729732990149"><ele>616.3333333333334</ele><time>2026-04-12T08:21:35.999Z</time></trkpt><trkpt lat="43.643389658869246" lon="12.10722040634317"><ele>616.0</ele><time>2026-04-12T08:21:36.999Z</time></trkpt><trkpt lat="43.64355504793954" lon="12.107188973407185"><ele>618.0</ele><time>2026-04-12T08:21:37.999Z</time></trkpt><trkpt lat="43.643716922510855" lon="12.10722021886962"><ele>620.0</ele><time>2026-04-12T08:21:38.999Z</time></trkpt><trkpt lat="43.64386660869264" lon="12.10727405701689"><ele>622.0</ele><time>2026-04-12T08:21:39.999Z</time></trkpt><trkpt lat="43.644022758657705" lon="12.107318010437757"><ele>622.0</ele><time>2026-04-12T08:21:40.999Z</time></trkpt><trkpt lat="43.64417282332324" lon="12.107299663580594"><ele>622.0</ele><time>2026-04-12T08:21:41.999Z</time></trkpt><trkpt lat="43.644337313448666" lon="12.107213985054436"><ele>622.0</ele><time>2026-04-12T08:21:42.999Z</time></trkpt><trkpt lat="43.644509550507436" lon="12.107069366347474"><ele>625.3333333333334</ele><time>2026-04-12T08:21:43.999Z</time></trkpt><trkpt lat="43.64467766992237" lon="12.106922545064029"><ele>628.6666666666666</ele><time>2026-04-12T08:21:44.999Z</time></trkpt><trkpt lat="43.64483903206835" lon="12.106747013756522"><ele>632.0</ele><time>2026-04-12T08:21:45.999Z</time></trkpt><trkpt lat="43.64498673468632" lon="12.106530337950813"><ele>632.0</ele><time>2026-04-12T08:21:46.999Z</time></trkpt><trkpt lat="43.645108969560994" lon="12.106289117757157"><ele>632.0</ele><time>2026-04-12T08:21:47.999Z</time></trkpt><trkpt lat="43.64521264122384" lon="12.10604438391067"><ele>632.0</ele><time>2026-04-12T08:21:48.999Z</time></trkpt><trkpt lat="43.64533092238678" lon="12.105875484697"><ele>637.0</ele><time>2026-04-12T08:21:49.999Z</time></trkpt><trkpt lat="43.645478666515004" lon="12.105717283666143"><ele>642.0</ele><time>2026-04-12T08:21:50.999Z</time></trkpt><trkpt lat="43.64553666648143" lon="12.10560893007748"><ele>647.0</ele><time>2026-04-12T08:21:51.999Z</time></trkpt><trkpt lat="43.645590114417" lon="12.10546984151239"><ele>652.0</ele><time>2026-04-12T08:21:52.999Z</time></trkpt><trkpt lat="43.645593768909535" lon="12.105296654567347"><ele>652.0</ele><time>2026-04-12T08:21:53.999Z</time></trkpt><trkpt lat="43.64553776697178" lon="12.105093093927826"><ele>652.0</ele><time>2026-04-12T08:21:54.999Z</time></trkpt><trkpt lat="43.64545710533625" lon="12.104883516835384"><ele>652.0</ele><time>2026-04-12T08:21:55.999Z</time></trkpt><trkpt lat="43.645402944698674" lon="12.10464053201983"><ele>653.0</ele><time>2026-04-12T08:21:56.999Z</time></trkpt><trkpt lat="43.64538665282868" lon="12.104364693792663"><ele>654.0</ele><time>2026-04-12T08:21:57.999Z</time></trkpt><trkpt lat="43.64537789330081" lon="12.104080037951444"><ele>655.0</ele><time>2026-04-12T08:21:58.999Z</time></trkpt><trkpt lat="43.64537487666155" lon="12.103803684971846"><ele>654.6666666666667</ele><time>2026-04-12T08:21:59.999Z</time></trkpt><trkpt lat="43.64537106203168" lon="12.103544653239263"><ele>654.3333333333334</ele><time>2026-04-12T08:22:00.999Z</time></trkpt><trkpt lat="43.6453770358769" lon="12.10329828599696"><ele>654.0</ele><time>2026-04-12T08:22:01.999Z</time></trkpt><trkpt lat="43.64545075168483" lon="12.103076499021078"><ele>654.0</ele><time>2026-04-12T08:22:02.999Z</time></trkpt><trkpt lat="43.64554173039082" lon="12.10286796754703"><ele>654.0</ele><time>2026-04-12T08:22:03.999Z</time></trkpt><trkpt lat="43.64566863638679" lon="12.102666263073148"><ele>654.0</ele><time>2026-04-12T08:22:04.999Z</time></trkpt><trkpt lat="43.64582787566582" lon="12.102488776839422"><ele>652.5</ele><time>2026-04-12T08:22:05.999Z</time></trkpt><trkpt lat="43.64600807887992" lon="12.102304698563175"><ele>651.0</ele><time>2026-04-12T08:22:06.999Z</time></trkpt><trkpt lat="43.646193012208286" lon="12.102110778024958"><ele>656.5</ele><time>2026-04-12T08:22:07.999Z</time></trkpt><trkpt lat="43.64637163120164" lon="12.101909972006409"><ele>662.0</ele><time>2026-04-12T08:22:08.999Z</time></trkpt><trkpt lat="43.6465607590323" lon="12.101724170001527"><ele>661.6666666666666</ele><time>2026-04-12T08:22:09.999Z</time></trkpt><trkpt lat="43.6467375158073" lon="12.101533613926692"><ele>661.3333333333334</ele><time>2026-04-12T08:22:10.999Z</time></trkpt><trkpt lat="43.64687861407273" lon="12.101333440911416"><ele>661.0</ele><time>2026-04-12T08:22:11.999Z</time></trkpt><trkpt lat="43.646992829317156" lon="12.10110825237554"><ele>664.6666666666667</ele><time>2026-04-12T08:22:12.999Z</time></trkpt><trkpt lat="43.64705838770508" lon="12.100862368031567"><ele>668.3333333333334</ele><time>2026-04-12T08:22:13.999Z</time></trkpt><trkpt lat="43.64709124146908" lon="12.100607488771676"><ele>672.0</ele><time>2026-04-12T08:22:14.999Z</time></trkpt><trkpt lat="43.64714020819395" lon="12.100394774050159"><ele>672.5</ele><time>2026-04-12T08:22:15.999Z</time></trkpt><trkpt lat="43.64719511110043" lon="12.100211085459652"><ele>673.0</ele><time>2026-04-12T08:22:16.999Z</time></trkpt><trkpt lat="43.64720597600874" lon="12.100043432736756"><ele>673.5</ele><time>2026-04-12T08:22:17.999Z</time></trkpt><trkpt lat="43.647155720121305" lon="12.099876609665582"><ele>674.0</ele><time>2026-04-12T08:22:18.999Z</time></trkpt><trkpt lat="43.6470598887084" lon="12.099730655773595"><ele>675.75</ele><time>2026-04-12T08:22:19.999Z</time></trkpt><trkpt lat="43.64693875433882" lon="12.099624570475228"><ele>677.5</ele><time>2026-04-12T08:22:20.998Z</time></trkpt><trkpt lat="43.646871207090776" lon="12.0995009611007"><ele>679.25</ele><time>2026-04-12T08:22:21.998Z</time></trkpt><trkpt lat="43.64691564079605" lon="12.099333736723802"><ele>681.0</ele><time>2026-04-12T08:22:22.998Z</time></trkpt><trkpt lat="43.64701175066137" lon="12.09920740632221"><ele>682.6666666666666</ele><time>2026-04-12T08:22:23.998Z</time></trkpt><trkpt lat="43.647152164256376" lon="12.099033479890158"><ele>684.3333333333333</ele><time>2026-04-12T08:22:24.998Z</time></trkpt><trkpt lat="43.647273813922354" lon="12.098865449756527"><ele>686.0</ele><time>2026-04-12T08:22:25.998Z</time></trkpt><trkpt lat="43.64737423432872" lon="12.098677275246526"><ele>686.0</ele><time>2026-04-12T08:22:26.998Z</time></trkpt><trkpt lat="43.64741516484672" lon="12.098450119208088"><ele>686.0</ele><time>2026-04-12T08:22:27.998Z</time></trkpt><trkpt lat="43.64739709947183" lon="12.09819829740017"><ele>686.0</ele><time>2026-04-12T08:22:29Z</time></trkpt><trkpt lat="43.647343692459266" lon="12.097921249409334"><ele>686.3333333333333</ele><time>2026-04-12T08:22:30Z</time></trkpt><trkpt lat="43.64730288173961" lon="12.097629568829758"><ele>686.6666666666666</ele><time>2026-04-12T08:22:31Z</time></trkpt><trkpt lat="43.647278054481774" lon="12.097342585891065"><ele>687.0</ele><time>2026-04-12T08:22:32Z</time></trkpt><trkpt lat="43.64727931861514" lon="12.097063470488907"><ele>687.0</ele><time>2026-04-12T08:22:33Z</time></trkpt><trkpt lat="43.64733326957763" lon="12.096806219034248"><ele>687.0</ele><time>2026-04-12T08:22:34Z</time></trkpt><trkpt lat="43.647352748530864" lon="12.096549103505533"><ele>687.0</ele><time>2026-04-12T08:22:35Z</time></trkpt><trkpt lat="43.647373966838614" lon="12.096303507631704"><ele>685.5</ele><time>2026-04-12T08:22:36Z</time></trkpt><trkpt lat="43.64737054758897" lon="12.096085212719032"><ele>684.0</ele><time>2026-04-12T08:22:37Z</time></trkpt><trkpt lat="43.64735957878075" lon="12.095908856737157"><ele>682.5</ele><time>2026-04-12T08:22:38Z</time></trkpt><trkpt lat="43.647353546137104" lon="12.095741589845854"><ele>681.0</ele><time>2026-04-12T08:22:39Z</time></trkpt><trkpt lat="43.64736657456065" lon="12.095598785728912"><ele>679.5</ele><time>2026-04-12T08:22:40Z</time></trkpt><trkpt lat="43.64746091480372" lon="12.095491418069289"><ele>678.0</ele><time>2026-04-12T08:22:41Z</time></trkpt><trkpt lat="43.6476038625911" lon="12.095483406985545"><ele>676.5</ele><time>2026-04-12T08:22:42Z</time></trkpt><trkpt lat="43.64776572246923" lon="12.095459861113797"><ele>675.0</ele><time>2026-04-12T08:22:43Z</time></trkpt><trkpt lat="43.647937562676724" lon="12.095501692075274"><ele>675.0</ele><time>2026-04-12T08:22:44Z</time></trkpt><trkpt lat="43.6480922359939" lon="12.095607599862415"><ele>675.0</ele><time>2026-04-12T08:22:45Z</time></trkpt><trkpt lat="43.64821576868136" lon="12.095773334136293"><ele>675.0</ele><time>2026-04-12T08:22:46Z</time></trkpt><trkpt lat="43.64826804945902" lon="12.096017221245825"><ele>679.0</ele><time>2026-04-12T08:22:47Z</time></trkpt><trkpt lat="43.648360606645255" lon="12.096233765625191"><ele>683.0</ele><time>2026-04-12T08:22:48Z</time></trkpt><trkpt lat="43.64846544122443" lon="12.096427852798257"><ele>687.0</ele><time>2026-04-12T08:22:49Z</time></trkpt><trkpt lat="43.6485810537521" lon="12.096584742831425"><ele>690.3333333333334</ele><time>2026-04-12T08:22:50Z</time></trkpt><trkpt lat="43.648703069104585" lon="12.096701033750817"><ele>693.6666666666667</ele><time>2026-04-12T08:22:51Z</time></trkpt><trkpt lat="43.64885497037803" lon="12.096759921122688"><ele>697.0</ele><time>2026-04-12T08:22:52Z</time></trkpt><trkpt lat="43.649028349628914" lon="12.096761454570103"><ele>697.0</ele><time>2026-04-12T08:22:53Z</time></trkpt><trkpt lat="43.64920561978013" lon="12.09671881233169"><ele>697.0</ele><time>2026-04-12T08:22:54Z</time></trkpt><trkpt lat="43.649373433839024" lon="12.096673919411"><ele>697.0</ele><time>2026-04-12T08:22:55Z</time></trkpt><trkpt lat="43.64951901266308" lon="12.096666601463042"><ele>695.0</ele><time>2026-04-12T08:22:56Z</time></trkpt><trkpt lat="43.649640372731845" lon="12.096722727522613"><ele>693.0</ele><time>2026-04-12T08:22:57Z</time></trkpt><trkpt lat="43.649727806590654" lon="12.096839045974638"><ele>691.0</ele><time>2026-04-12T08:22:58Z</time></trkpt><trkpt lat="43.64977517740795" lon="12.096993454696538"><ele>689.0</ele><time>2026-04-12T08:22:59Z</time></trkpt><trkpt lat="43.64973716923661" lon="12.09716728035481"><ele>689.0</ele><time>2026-04-12T08:23:00Z</time></trkpt><trkpt lat="43.649712846811646" lon="12.097368193406894"><ele>689.0</ele><time>2026-04-12T08:23:01Z</time></trkpt><trkpt lat="43.64969992786941" lon="12.097581876765659"><ele>689.0</ele><time>2026-04-12T08:23:02Z</time></trkpt><trkpt lat="43.64976307035594" lon="12.097798729621385"><ele>692.3333333333333</ele><time>2026-04-12T08:23:03Z</time></trkpt><trkpt lat="43.64987792662792" lon="12.097987880095905"><ele>695.6666666666666</ele><time>2026-04-12T08:23:04Z</time></trkpt><trkpt lat="43.65001152254885" lon="12.098152988297917"><ele>699.0</ele><time>2026-04-12T08:23:05Z</time></trkpt><trkpt lat="43.65010215714672" lon="12.098332649492768"><ele>703.0</ele><time>2026-04-12T08:23:06Z</time></trkpt><trkpt lat="43.6501343095344" lon="12.098541513999606"><ele>707.0</ele><time>2026-04-12T08:23:07Z</time></trkpt><trkpt lat="43.65014722825418" lon="12.098788375091829"><ele>711.0</ele><time>2026-04-12T08:23:08Z</time></trkpt><trkpt lat="43.6501604333969" lon="12.099052874498556"><ele>712.3333333333334</ele><time>2026-04-12T08:23:09Z</time></trkpt><trkpt lat="43.650175896165365" lon="12.09932876478544"><ele>713.6666666666667</ele><time>2026-04-12T08:23:10Z</time></trkpt><trkpt lat="43.65019219690304" lon="12.099614117740812"><ele>715.0</ele><time>2026-04-12T08:23:11Z</time></trkpt><trkpt lat="43.65020889221294" lon="12.099906377978757"><ele>714.3333333333334</ele><time>2026-04-12T08:23:11.999Z</time></trkpt><trkpt lat="43.65022542516733" lon="12.100192450346507"><ele>713.6666666666666</ele><time>2026-04-12T08:23:12.999Z</time></trkpt><trkpt lat="43.650241981664564" lon="12.100475780864926"><ele>713.0</ele><time>2026-04-12T08:23:13.999Z</time></trkpt><trkpt lat="43.65025917425343" lon="12.100753919513455"><ele>712.6666666666666</ele><time>2026-04-12T08:23:14.999Z</time></trkpt><trkpt lat="43.65027537173138" lon="12.101009699825873"><ele>712.3333333333334</ele><time>2026-04-12T08:23:15.999Z</time></trkpt><trkpt lat="43.650306468603475" lon="12.101253326648159"><ele>712.0</ele><time>2026-04-12T08:23:16.999Z</time></trkpt><trkpt lat="43.65030484574789" lon="12.10149161958137"><ele>712.6666666666667</ele><time>2026-04-12T08:23:17.999Z</time></trkpt><trkpt lat="43.65024570190766" lon="12.101715475164301"><ele>713.3333333333334</ele><time>2026-04-12T08:23:18.999Z</time></trkpt><trkpt lat="43.650156857163694" lon="12.101919983717913"><ele>714.0</ele><time>2026-04-12T08:23:19.999Z</time></trkpt><trkpt lat="43.65007485400557" lon="12.10212750690955"><ele>714.0</ele><time>2026-04-12T08:23:20.999Z</time></trkpt><trkpt lat="43.65000350128179" lon="12.10231423123028"><ele>714.0</ele><time>2026-04-12T08:23:21.999Z</time></trkpt><trkpt lat="43.64997843001525" lon="12.102507801683211"><ele>714.0</ele><time>2026-04-12T08:23:22.999Z</time></trkpt><trkpt lat="43.650003913932366" lon="12.102704726399608"><ele>714.0</ele><time>2026-04-12T08:23:23.999Z</time></trkpt><trkpt lat="43.65008260364975" lon="12.102893899186999"><ele>715.3333333333334</ele><time>2026-04-12T08:23:24.999Z</time></trkpt><trkpt lat="43.65020059202904" lon="12.103056199638054"><ele>716.6666666666667</ele><time>2026-04-12T08:23:25.999Z</time></trkpt><trkpt lat="43.65034864120429" lon="12.103178470216688"><ele>718.0</ele><time>2026-04-12T08:23:26.999Z</time></trkpt><trkpt lat="43.65050887428095" lon="12.103283373210743"><ele>722.0</ele><time>2026-04-12T08:23:27.999Z</time></trkpt><trkpt lat="43.650668544367385" lon="12.103391935356482"><ele>726.0</ele><time>2026-04-12T08:23:28.999Z</time></trkpt><trkpt lat="43.65082003830149" lon="12.103507627936011"><ele>730.0</ele><time>2026-04-12T08:23:29.999Z</time></trkpt><trkpt lat="43.650956998022735" lon="12.103663081840494"><ele>730.0</ele><time>2026-04-12T08:23:30.999Z</time></trkpt><trkpt lat="43.65103962690933" lon="12.10386995665974"><ele>730.0</ele><time>2026-04-12T08:23:31.999Z</time></trkpt><trkpt lat="43.651087804060026" lon="12.104096309547074"><ele>730.0</ele><time>2026-04-12T08:23:32.999Z</time></trkpt><trkpt lat="43.651098224058764" lon="12.10434485876272"><ele>729.3333333333334</ele><time>2026-04-12T08:23:33.999Z</time></trkpt><trkpt lat="43.65110157682995" lon="12.104609602499165"><ele>728.6666666666666</ele><time>2026-04-12T08:23:34.999Z</time></trkpt><trkpt lat="43.65112244765876" lon="12.104872338371768"><ele>728.0</ele><time>2026-04-12T08:23:35.999Z</time></trkpt><trkpt lat="43.65115069232638" lon="12.105121940812522"><ele>733.0</ele><time>2026-04-12T08:23:36.999Z</time></trkpt><trkpt lat="43.65120198824419" lon="12.105343785108422"><ele>738.0</ele><time>2026-04-12T08:23:37.999Z</time></trkpt><trkpt lat="43.651288142368834" lon="12.105542770376848"><ele>743.0</ele><time>2026-04-12T08:23:38.999Z</time></trkpt><trkpt lat="43.65140565592623" lon="12.10572552481664"><ele>743.0</ele><time>2026-04-12T08:23:39.999Z</time></trkpt><trkpt lat="43.65154745557809" lon="12.1058728734585"><ele>743.0</ele><time>2026-04-12T08:23:40.999Z</time></trkpt><trkpt lat="43.65168164593709" lon="12.106025708528842"><ele>743.0</ele><time>2026-04-12T08:23:41.999Z</time></trkpt><trkpt lat="43.65173956742723" lon="12.106245901044623"><ele>743.0</ele><time>2026-04-12T08:23:42.999Z</time></trkpt><trkpt lat="43.651766346857876" lon="12.106494254604641"><ele>743.0</ele><time>2026-04-12T08:23:43.999Z</time></trkpt><trkpt lat="43.65179700478344" lon="12.106738617910011"><ele>743.0</ele><time>2026-04-12T08:23:44.999Z</time></trkpt><trkpt lat="43.65182399116631" lon="12.106970153958496"><ele>743.6666666666666</ele><time>2026-04-12T08:23:45.999Z</time></trkpt><trkpt lat="43.6518105697227" lon="12.10719412005309"><ele>744.3333333333334</ele><time>2026-04-12T08:23:46.999Z</time></trkpt><trkpt lat="43.651738485595374" lon="12.107388767099197"><ele>745.0</ele><time>2026-04-12T08:23:47.999Z</time></trkpt><trkpt lat="43.65160526069873" lon="12.107548355042102"><ele>746.3333333333334</ele><time>2026-04-12T08:23:48.999Z</time></trkpt><trkpt lat="43.65146299535132" lon="12.107738458740076"><ele>747.6666666666666</ele><time>2026-04-12T08:23:49.999Z</time></trkpt><trkpt lat="43.65132051783213" lon="12.107940790393839"><ele>749.0</ele><time>2026-04-12T08:23:50.999Z</time></trkpt><trkpt lat="43.65117305588904" lon="12.10812958977159"><ele>748.6666666666666</ele><time>2026-04-12T08:23:51.999Z</time></trkpt><trkpt lat="43.65103757871381" lon="12.108303472441632"><ele>748.3333333333334</ele><time>2026-04-12T08:23:52.999Z</time></trkpt><trkpt lat="43.650910016778234" lon="12.108460064475182"><ele>748.0</ele><time>2026-04-12T08:23:53.999Z</time></trkpt><trkpt lat="43.65079469965226" lon="12.108602395336774"><ele>748.0</ele><time>2026-04-12T08:23:54.999Z</time></trkpt><trkpt lat="43.65069476141013" lon="12.108737260023075"><ele>748.0</ele><time>2026-04-12T08:23:55.999Z</time></trkpt><trkpt lat="43.65063510868852" lon="12.108872297471628"><ele>748.0</ele><time>2026-04-12T08:23:56.999Z</time></trkpt><trkpt lat="43.65061763760075" lon="12.109015297954837"><ele>748.0</ele><time>2026-04-12T08:23:57.999Z</time></trkpt><trkpt lat="43.65064804204666" lon="12.109152682446945"><ele>748.75</ele><time>2026-04-12T08:23:58.999Z</time></trkpt><trkpt lat="43.65074408811885" lon="12.109261312589357"><ele>749.5</ele><time>2026-04-12T08:23:59.999Z</time></trkpt><trkpt lat="43.65087105981432" lon="12.109329208228305"><ele>750.25</ele><time>2026-04-12T08:24:00.999Z</time></trkpt><trkpt lat="43.65102006063767" lon="12.109346758061589"><ele>751.0</ele><time>2026-04-12T08:24:01.999Z</time></trkpt><trkpt lat="43.651171657284145" lon="12.10935056908179"><ele>755.0</ele><time>2026-04-12T08:24:02.999Z</time></trkpt><trkpt lat="43.65132381284977" lon="12.109408403850296"><ele>759.0</ele><time>2026-04-12T08:24:03.999Z</time></trkpt><trkpt lat="43.651472794507406" lon="12.109444404933797"><ele>763.0</ele><time>2026-04-12T08:24:04.999Z</time></trkpt><trkpt lat="43.65161782110061" lon="12.109482820267615"><ele>763.0</ele><time>2026-04-12T08:24:05.999Z</time></trkpt><trkpt lat="43.65172748186293" lon="12.1095903602294"><ele>763.0</ele><time>2026-04-12T08:24:06.999Z</time></trkpt><trkpt lat="43.651799475427666" lon="12.109731624274588"><ele>763.0</ele><time>2026-04-12T08:24:07.999Z</time></trkpt><trkpt lat="43.65181632510478" lon="12.109912217899216"><ele>763.0</ele><time>2026-04-12T08:24:08.999Z</time></trkpt><trkpt lat="43.65184305152744" lon="12.110100849996593"><ele>762.0</ele><time>2026-04-12T08:24:09.999Z</time></trkpt><trkpt lat="43.651854890086014" lon="12.11030584385086"><ele>761.0</ele><time>2026-04-12T08:24:10.999Z</time></trkpt><trkpt lat="43.6519192551373" lon="12.110488847781133"><ele>760.0</ele><time>2026-04-12T08:24:11.999Z</time></trkpt><trkpt lat="43.65203213395072" lon="12.110631510279768"><ele>759.0</ele><time>2026-04-12T08:24:12.999Z</time></trkpt><trkpt lat="43.652177115541996" lon="12.110724078946037"><ele>763.6666666666667</ele><time>2026-04-12T08:24:13.999Z</time></trkpt><trkpt lat="43.65233277120143" lon="12.110778760026623"><ele>768.3333333333334</ele><time>2026-04-12T08:24:14.999Z</time></trkpt><trkpt lat="43.65249028207142" lon="12.110842514120213"><ele>773.0</ele><time>2026-04-12T08:24:15.999Z</time></trkpt><trkpt lat="43.65263059166847" lon="12.110946027551696"><ele>773.0</ele><time>2026-04-12T08:24:16.999Z</time></trkpt><trkpt lat="43.65273146667224" lon="12.111116743364644"><ele>773.0</ele><time>2026-04-12T08:24:17.999Z</time></trkpt><trkpt lat="43.652801892946954" lon="12.111340817623582"><ele>773.0</ele><time>2026-04-12T08:24:18.999Z</time></trkpt><trkpt lat="43.65287946366532" lon="12.11158118848455"><ele>775.0</ele><time>2026-04-12T08:24:19.999Z</time></trkpt><trkpt lat="43.65297500020113" lon="12.111817228610667"><ele>777.0</ele><time>2026-04-12T08:24:20.999Z</time></trkpt><trkpt lat="43.65306009724277" lon="12.11206952946525"><ele>779.0</ele><time>2026-04-12T08:24:21.999Z</time></trkpt><trkpt lat="43.65314683198458" lon="12.112330824060539"><ele>779.3333333333334</ele><time>2026-04-12T08:24:22.999Z</time></trkpt><trkpt lat="43.65323424047222" lon="12.11259821576234"><ele>779.6666666666667</ele><time>2026-04-12T08:24:23.999Z</time></trkpt><trkpt lat="43.653314256399376" lon="12.112887104909378"><ele>780.0</ele><time>2026-04-12T08:24:24.999Z</time></trkpt><trkpt lat="43.65340581928177" lon="12.113164655419066"><ele>781.0</ele><time>2026-04-12T08:24:25.999Z</time></trkpt><trkpt lat="43.65351441248367" lon="12.1134183869706"><ele>782.0</ele><time>2026-04-12T08:24:26.999Z</time></trkpt><trkpt lat="43.653584305396905" lon="12.11366631824749"><ele>783.0</ele><time>2026-04-12T08:24:27.999Z</time></trkpt><trkpt lat="43.65365889279436" lon="12.113888319354094"><ele>787.3333333333333</ele><time>2026-04-12T08:24:28.999Z</time></trkpt><trkpt lat="43.653708362341675" lon="12.11411725483644"><ele>791.6666666666666</ele><time>2026-04-12T08:24:29.999Z</time></trkpt><trkpt lat="43.65372396458423" lon="12.114363386232043"><ele>796.0</ele><time>2026-04-12T08:24:30.999Z</time></trkpt><trkpt lat="43.65370229647746" lon="12.114593922143658"><ele>796.0</ele><time>2026-04-12T08:24:31.999Z</time></trkpt><trkpt lat="43.65369108910833" lon="12.114798558174456"><ele>796.0</ele><time>2026-04-12T08:24:32.999Z</time></trkpt><trkpt lat="43.653671252781024" lon="12.11497829419608"><ele>796.0</ele><time>2026-04-12T08:24:34Z</time></trkpt><trkpt lat="43.65367898318729" lon="12.115135893885144"><ele>796.0</ele><time>2026-04-12T08:24:35Z</time></trkpt><trkpt lat="43.65371864667783" lon="12.115277305904097"><ele>796.75</ele><time>2026-04-12T08:24:36Z</time></trkpt><trkpt lat="43.65380657407098" lon="12.115377431192323"><ele>797.5</ele><time>2026-04-12T08:24:37Z</time></trkpt><trkpt lat="43.65392848018136" lon="12.115405791645857"><ele>798.25</ele><time>2026-04-12T08:24:38Z</time></trkpt><trkpt lat="43.654046091748896" lon="12.115347785202385"><ele>799.0</ele><time>2026-04-12T08:24:39Z</time></trkpt><trkpt lat="43.65414387217298" lon="12.115209282750003"><ele>799.0</ele><time>2026-04-12T08:24:40Z</time></trkpt><trkpt lat="43.65421885474614" lon="12.11499905513721"><ele>799.0</ele><time>2026-04-12T08:24:41Z</time></trkpt><trkpt lat="43.65429072554736" lon="12.114757465721196"><ele>799.0</ele><time>2026-04-12T08:24:42Z</time></trkpt><trkpt lat="43.65437166221839" lon="12.114539878482454"><ele>798.0</ele><time>2026-04-12T08:24:43Z</time></trkpt><trkpt lat="43.65445058433262" lon="12.11434425703149"><ele>797.0</ele><time>2026-04-12T08:24:44Z</time></trkpt><trkpt lat="43.65453992607508" lon="12.114189300774406"><ele>796.0</ele><time>2026-04-12T08:24:45Z</time></trkpt><trkpt lat="43.654669725565014" lon="12.114071893124796"><ele>796.6666666666666</ele><time>2026-04-12T08:24:46Z</time></trkpt><trkpt lat="43.654839654197104" lon="12.114044690977709"><ele>797.3333333333333</ele><time>2026-04-12T08:24:47Z</time></trkpt><trkpt lat="43.65502742558141" lon="12.113980871535793"><ele>798.0</ele><time>2026-04-12T08:24:48Z</time></trkpt><trkpt lat="43.65522237116115" lon="12.113940422963132"><ele>800.6666666666667</ele><time>2026-04-12T08:24:49Z</time></trkpt><trkpt lat="43.65543005048739" lon="12.113890658457986"><ele>803.3333333333334</ele><time>2026-04-12T08:24:50Z</time></trkpt><trkpt lat="43.655637135546094" lon="12.113845026069065"><ele>806.0</ele><time>2026-04-12T08:24:51Z</time></trkpt><trkpt lat="43.655848960450285" lon="12.11378429508652"><ele>806.0</ele><time>2026-04-12T08:24:52Z</time></trkpt><trkpt lat="43.65605957358976" lon="12.113736544759155"><ele>806.0</ele><time>2026-04-12T08:24:53Z</time></trkpt><trkpt lat="43.656260766035786" lon="12.113697409512556"><ele>806.0</ele><time>2026-04-12T08:24:54Z</time></trkpt><trkpt lat="43.65643532801862" lon="12.11365954880826"><ele>810.3333333333334</ele><time>2026-04-12T08:24:55Z</time></trkpt><trkpt lat="43.65659369856074" lon="12.11362337000394"><ele>814.6666666666667</ele><time>2026-04-12T08:24:56Z</time></trkpt><trkpt lat="43.65674179483973" lon="12.113579530729636"><ele>819.0</ele><time>2026-04-12T08:24:57Z</time></trkpt><trkpt lat="43.656871653012566" lon="12.113499149973975"><ele>823.0</ele><time>2026-04-12T08:24:58Z</time></trkpt><trkpt lat="43.6569696670164" lon="12.113351003205548"><ele>827.0</ele><time>2026-04-12T08:24:59Z</time></trkpt><trkpt lat="43.65702963018904" lon="12.1131442881911"><ele>831.0</ele><time>2026-04-12T08:25:00Z</time></trkpt><trkpt lat="43.65706231572941" lon="12.112897936882945"><ele>831.0</ele><time>2026-04-12T08:25:01Z</time></trkpt><trkpt lat="43.65708952252316" lon="12.11263786796342"><ele>831.0</ele><time>2026-04-12T08:25:02Z</time></trkpt><trkpt lat="43.65711883175356" lon="12.11236797057236"><ele>831.0</ele><time>2026-04-12T08:25:03Z</time></trkpt><trkpt lat="43.657139737451395" lon="12.11207608498086"><ele>831.6666666666667</ele><time>2026-04-12T08:25:04Z</time></trkpt><trkpt lat="43.657122479767885" lon="12.11176682954105"><ele>832.3333333333334</ele><time>2026-04-12T08:25:05Z</time></trkpt><trkpt lat="43.65710343293172" lon="12.111472398585777"><ele>833.0</ele><time>2026-04-12T08:25:06Z</time></trkpt><trkpt lat="43.65709197460677" lon="12.11121609595603"><ele>831.6666666666667</ele><time>2026-04-12T08:25:07Z</time></trkpt><trkpt lat="43.65705757563541" lon="12.110983488104402"><ele>830.3333333333333</ele><time>2026-04-12T08:25:08Z</time></trkpt><trkpt lat="43.6569684458051" lon="12.110776338906504"><ele>829.0</ele><time>2026-04-12T08:25:09Z</time></trkpt><trkpt lat="43.656869575930514" lon="12.110579649660504"><ele>829.0</ele><time>2026-04-12T08:25:10Z</time></trkpt><trkpt lat="43.656819876188095" lon="12.110416036037254"><ele>829.0</ele><time>2026-04-12T08:25:11Z</time></trkpt><trkpt lat="43.65679771514481" lon="12.11026068510958"><ele>829.0</ele><time>2026-04-12T08:25:12Z</time></trkpt><trkpt lat="43.656854257657876" lon="12.11011822001959"><ele>829.0</ele><time>2026-04-12T08:25:13Z</time></trkpt><trkpt lat="43.65697331982995" lon="12.109995006253616"><ele>831.0</ele><time>2026-04-12T08:25:14Z</time></trkpt><trkpt lat="43.65711349353958" lon="12.109922949845592"><ele>833.0</ele><time>2026-04-12T08:25:15Z</time></trkpt><trkpt lat="43.657282217230666" lon="12.109866863567586"><ele>835.0</ele><time>2026-04-12T08:25:16Z</time></trkpt><trkpt lat="43.657462457420465" lon="12.109804827633345"><ele>835.0</ele><time>2026-04-12T08:25:17Z</time></trkpt><trkpt lat="43.65762938105507" lon="12.109735246521913"><ele>835.0</ele><time>2026-04-12T08:25:18Z</time></trkpt><trkpt lat="43.65777508872539" lon="12.109628236832913"><ele>835.0</ele><time>2026-04-12T08:25:19Z</time></trkpt><trkpt lat="43.65788570053141" lon="12.109473228905768"><ele>838.6666666666666</ele><time>2026-04-12T08:25:20Z</time></trkpt><trkpt lat="43.65795747526282" lon="12.109258955503448"><ele>842.3333333333333</ele><time>2026-04-12T08:25:21Z</time></trkpt><trkpt lat="43.65798091943058" lon="12.109001532571623"><ele>846.0</ele><time>2026-04-12T08:25:22Z</time></trkpt><trkpt lat="43.6579728873218" lon="12.108722272441682"><ele>847.3333333333333</ele><time>2026-04-12T08:25:23Z</time></trkpt><trkpt lat="43.6579728540657" lon="12.10842885329552"><ele>848.6666666666666</ele><time>2026-04-12T08:25:24Z</time></trkpt><trkpt lat="43.65798166340469" lon="12.108123780993527"><ele>850.0</ele><time>2026-04-12T08:25:25Z</time></trkpt><trkpt lat="43.657991087380516" lon="12.107834607610664"><ele>850.0</ele><time>2026-04-12T08:25:26Z</time></trkpt><trkpt lat="43.65800128776551" lon="12.107580542436644"><ele>850.0</ele><time>2026-04-12T08:25:27Z</time></trkpt><trkpt lat="43.658004249695864" lon="12.107356227481418"><ele>850.0</ele><time>2026-04-12T08:25:28Z</time></trkpt><trkpt lat="43.65801145507285" lon="12.10716633051703"><ele>849.25</ele><time>2026-04-12T08:25:29Z</time></trkpt><trkpt lat="43.658041237189074" lon="12.107010253554227"><ele>848.5</ele><time>2026-04-12T08:25:30Z</time></trkpt><trkpt lat="43.6581229925715" lon="12.10691026296485"><ele>847.75</ele><time>2026-04-12T08:25:31Z</time></trkpt><trkpt lat="43.65824297770499" lon="12.106860287582608"><ele>847.0</ele><time>2026-04-12T08:25:32Z</time></trkpt><trkpt lat="43.658380639594554" lon="12.106889990180575"><ele>847.0</ele><time>2026-04-12T08:25:33Z</time></trkpt><trkpt lat="43.65853840355018" lon="12.106937045564734"><ele>847.0</ele><time>2026-04-12T08:25:34Z</time></trkpt><trkpt lat="43.65872365668915" lon="12.106976005607066"><ele>847.0</ele><time>2026-04-12T08:25:35Z</time></trkpt><trkpt lat="43.658933621588254" lon="12.107029749141253"><ele>848.6666666666666</ele><time>2026-04-12T08:25:36Z</time></trkpt><trkpt lat="43.659148842598256" lon="12.10706657470961"><ele>850.3333333333333</ele><time>2026-04-12T08:25:37Z</time></trkpt><trkpt lat="43.659347764545885" lon="12.10709015078355"><ele>852.0</ele><time>2026-04-12T08:25:38Z</time></trkpt><trkpt lat="43.65953442208775" lon="12.107057885925238"><ele>853.6666666666667</ele><time>2026-04-12T08:25:39Z</time></trkpt><trkpt lat="43.659707515583406" lon="12.106959347975177"><ele>855.3333333333334</ele><time>2026-04-12T08:25:40Z</time></trkpt><trkpt lat="43.65988721092582" lon="12.106822313154185"><ele>857.0</ele><time>2026-04-12T08:25:41Z</time></trkpt><trkpt lat="43.66008165333398" lon="12.106665675351055"><ele>852.5</ele><time>2026-04-12T08:25:42Z</time></trkpt><trkpt lat="43.66028971477232" lon="12.106565706459891"><ele>848.0</ele><time>2026-04-12T08:25:43Z</time></trkpt><trkpt lat="43.66051741169905" lon="12.106509509176842"><ele>848.0</ele><time>2026-04-12T08:25:44Z</time></trkpt><trkpt lat="43.66075368658315" lon="12.10645592970685"><ele>848.0</ele><time>2026-04-12T08:25:45Z</time></trkpt><trkpt lat="43.660992529657776" lon="12.106443287267567"><ele>852.6666666666667</ele><time>2026-04-12T08:25:46Z</time></trkpt><trkpt lat="43.6612155102287" lon="12.106416211225884"><ele>857.3333333333333</ele><time>2026-04-12T08:25:47Z</time></trkpt><trkpt lat="43.66142020403909" lon="12.10637521381525"><ele>862.0</ele><time>2026-04-12T08:25:48Z</time></trkpt><trkpt lat="43.66160979873212" lon="12.106282405650079"><ele>862.0</ele><time>2026-04-12T08:25:49Z</time></trkpt><trkpt lat="43.66178209300581" lon="12.106127048040294"><ele>862.0</ele><time>2026-04-12T08:25:50Z</time></trkpt><trkpt lat="43.66193852477083" lon="12.10593604573132"><ele>862.0</ele><time>2026-04-12T08:25:51Z</time></trkpt><trkpt lat="43.662066208843946" lon="12.105698545566792"><ele>865.6666666666666</ele><time>2026-04-12T08:25:51.999Z</time></trkpt><trkpt lat="43.66216436551146" lon="12.105440435542391"><ele>869.3333333333333</ele><time>2026-04-12T08:25:52.999Z</time></trkpt><trkpt lat="43.66225800323335" lon="12.105222858878918"><ele>873.0</ele><time>2026-04-12T08:25:53.999Z</time></trkpt><trkpt lat="43.66234414591189" lon="12.10503580068805"><ele>872.25</ele><time>2026-04-12T08:25:54.999Z</time></trkpt><trkpt lat="43.662438159390334" lon="12.104897533024957"><ele>871.5</ele><time>2026-04-12T08:25:55.999Z</time></trkpt><trkpt lat="43.66255597680613" lon="12.1048134474782"><ele>870.75</ele><time>2026-04-12T08:25:56.999Z</time></trkpt><trkpt lat="43.66268966969772" lon="12.104753532333925"><ele>870.0</ele><time>2026-04-12T08:25:57.999Z</time></trkpt><trkpt lat="43.6628295268083" lon="12.104810973591297"><ele>870.0</ele><time>2026-04-12T08:25:58.999Z</time></trkpt><trkpt lat="43.662945873008226" lon="12.104883109087899"><ele>870.0</ele><time>2026-04-12T08:25:59.999Z</time></trkpt><trkpt lat="43.66301417964519" lon="12.105032135892115"><ele>870.0</ele><time>2026-04-12T08:26:00.999Z</time></trkpt><trkpt lat="43.66301259869075" lon="12.105222888660798"><ele>870.0</ele><time>2026-04-12T08:26:01.999Z</time></trkpt><trkpt lat="43.663028886324604" lon="12.105437828822785"><ele>870.3333333333333</ele><time>2026-04-12T08:26:02.999Z</time></trkpt><trkpt lat="43.66306293378438" lon="12.105679038542672"><ele>870.6666666666666</ele><time>2026-04-12T08:26:03.999Z</time></trkpt><trkpt lat="43.663169800654984" lon="12.105942075175678"><ele>871.0</ele><time>2026-04-12T08:26:04.999Z</time></trkpt><trkpt lat="43.663321204150776" lon="12.106196300639269"><ele>874.0</ele><time>2026-04-12T08:26:05.999Z</time></trkpt><trkpt lat="43.66348326221839" lon="12.106461704906835"><ele>877.0</ele><time>2026-04-12T08:26:06.999Z</time></trkpt><trkpt lat="43.663634518767566" lon="12.106731108119579"><ele>877.0</ele><time>2026-04-12T08:26:07.999Z</time></trkpt><trkpt lat="43.66379067954935" lon="12.10700147942879"><ele>877.0</ele><time>2026-04-12T08:26:08.999Z</time></trkpt><trkpt lat="43.66395209623209" lon="12.107257676519994"><ele>883.5</ele><time>2026-04-12T08:26:09.999Z</time></trkpt><trkpt lat="43.66412711705361" lon="12.107493158402924"><ele>890.0</ele><time>2026-04-12T08:26:10.999Z</time></trkpt><trkpt lat="43.66431458521279" lon="12.107708412100616"><ele>881.5</ele><time>2026-04-12T08:26:11.999Z</time></trkpt><trkpt lat="43.66450506736485" lon="12.107913253341243"><ele>873.0</ele><time>2026-04-12T08:26:12.999Z</time></trkpt><trkpt lat="43.6646887894574" lon="12.10812029319157"><ele>879.6666666666667</ele><time>2026-04-12T08:26:13.999Z</time></trkpt><trkpt lat="43.66485366513161" lon="12.108327274623315"><ele>886.3333333333334</ele><time>2026-04-12T08:26:14.999Z</time></trkpt><trkpt lat="43.66499388159464" lon="12.108538691555669"><ele>893.0</ele><time>2026-04-12T08:26:15.999Z</time></trkpt><trkpt lat="43.66511130114779" lon="12.108747722712778"><ele>893.0</ele><time>2026-04-12T08:26:16.999Z</time></trkpt><trkpt lat="43.665239569210954" lon="12.108935297910197"><ele>893.0</ele><time>2026-04-12T08:26:17.999Z</time></trkpt><trkpt lat="43.66540713391959" lon="12.109084203942476"><ele>893.0</ele><time>2026-04-12T08:26:18.999Z</time></trkpt><trkpt lat="43.66558969710658" lon="12.109206795800352"><ele>894.6666666666667</ele><time>2026-04-12T08:26:19.999Z</time></trkpt><trkpt lat="43.665779149232996" lon="12.109296610123154"><ele>896.3333333333333</ele><time>2026-04-12T08:26:20.999Z</time></trkpt><trkpt lat="43.66594616246669" lon="12.109402845035836"><ele>898.0</ele><time>2026-04-12T08:26:21.999Z</time></trkpt><trkpt lat="43.66608298153188" lon="12.109507700715067"><ele>897.3333333333333</ele><time>2026-04-12T08:26:22.999Z</time></trkpt><trkpt lat="43.66617697153736" lon="12.10967166602499"><ele>896.6666666666667</ele><time>2026-04-12T08:26:23.999Z</time></trkpt><trkpt lat="43.666267775898135" lon="12.109891109628824"><ele>896.0</ele><time>2026-04-12T08:26:24.999Z</time></trkpt><trkpt lat="43.66636106111136" lon="12.110131922558194"><ele>896.0</ele><time>2026-04-12T08:26:25.999Z</time></trkpt><trkpt lat="43.666467333983" lon="12.11039236595106"><ele>896.0</ele><time>2026-04-12T08:26:26.999Z</time></trkpt><trkpt lat="43.66656678150548" lon="12.110646223007242"><ele>896.0</ele><time>2026-04-12T08:26:27.999Z</time></trkpt><trkpt lat="43.666644947678094" lon="12.110880196379993"><ele>899.3333333333334</ele><time>2026-04-12T08:26:28.999Z</time></trkpt><trkpt lat="43.666677675790346" lon="12.111113756312905"><ele>902.6666666666667</ele><time>2026-04-12T08:26:29.999Z</time></trkpt><trkpt lat="43.666665369191854" lon="12.111366537720054"><ele>906.0</ele><time>2026-04-12T08:26:30.999Z</time></trkpt><trkpt lat="43.66662253732076" lon="12.11162113072389"><ele>906.6666666666667</ele><time>2026-04-12T08:26:31.999Z</time></trkpt><trkpt lat="43.66657180319784" lon="12.111897397621467"><ele>907.3333333333334</ele><time>2026-04-12T08:26:32.999Z</time></trkpt><trkpt lat="43.66653464764064" lon="12.112191617054886"><ele>908.0</ele><time>2026-04-12T08:26:33.999Z</time></trkpt><trkpt lat="43.66653133115075" lon="12.112497576910357"><ele>908.0</ele><time>2026-04-12T08:26:34.999Z</time></trkpt><trkpt lat="43.666556678190865" lon="12.112776770917636"><ele>908.0</ele><time>2026-04-12T08:26:35.999Z</time></trkpt><trkpt lat="43.6665564218102" lon="12.113038776219758"><ele>908.0</ele><time>2026-04-12T08:26:36.999Z</time></trkpt><trkpt lat="43.666592449132125" lon="12.113290155462924"><ele>909.0</ele><time>2026-04-12T08:26:37.999Z</time></trkpt><trkpt lat="43.6666820819038" lon="12.113516558179269"><ele>910.0</ele><time>2026-04-12T08:26:38.999Z</time></trkpt><trkpt lat="43.666791500902555" lon="12.113736439725997"><ele>911.0</ele><time>2026-04-12T08:26:40Z</time></trkpt><trkpt lat="43.666929163486664" lon="12.11394317787191"><ele>910.6666666666667</ele><time>2026-04-12T08:26:41Z</time></trkpt><trkpt lat="43.66706878541214" lon="12.114137883629056"><ele>910.3333333333333</ele><time>2026-04-12T08:26:42Z</time></trkpt><trkpt lat="43.667181603455106" lon="12.114328426345352"><ele>910.0</ele><time>2026-04-12T08:26:43Z</time></trkpt><trkpt lat="43.66730510429741" lon="12.114475341645262"><ele>910.0</ele><time>2026-04-12T08:26:44Z</time></trkpt><trkpt lat="43.66739874883304" lon="12.114625430249763"><ele>910.0</ele><time>2026-04-12T08:26:45Z</time></trkpt><trkpt lat="43.66750143745545" lon="12.11473692454626"><ele>910.0</ele><time>2026-04-12T08:26:46Z</time></trkpt><trkpt lat="43.66762543378635" lon="12.114779479208547"><ele>910.0</ele><time>2026-04-12T08:26:47Z</time></trkpt><trkpt lat="43.667760046792054" lon="12.114765778310831"><ele>908.5</ele><time>2026-04-12T08:26:48Z</time></trkpt><trkpt lat="43.66788522469748" lon="12.114672707465418"><ele>907.0</ele><time>2026-04-12T08:26:49Z</time></trkpt><trkpt lat="43.66800395629136" lon="12.114578406104513"><ele>905.5</ele><time>2026-04-12T08:26:50Z</time></trkpt><trkpt lat="43.668137077917436" lon="12.114619064252619"><ele>904.0</ele><time>2026-04-12T08:26:51Z</time></trkpt><trkpt lat="43.6682866394549" lon="12.11471928368436"><ele>904.0</ele><time>2026-04-12T08:26:52Z</time></trkpt><trkpt lat="43.66845452936184" lon="12.114808816458224"><ele>904.0</ele><time>2026-04-12T08:26:53Z</time></trkpt><trkpt lat="43.66862687505467" lon="12.114901776121386"><ele>904.0</ele><time>2026-04-12T08:26:54Z</time></trkpt><trkpt lat="43.668806965148995" lon="12.114930501434772"><ele>906.6666666666666</ele><time>2026-04-12T08:26:55Z</time></trkpt><trkpt lat="43.66897865419646" lon="12.11496760888233"><ele>909.3333333333333</ele><time>2026-04-12T08:26:56Z</time></trkpt><trkpt lat="43.669136547640946" lon="12.115001734663158"><ele>912.0</ele><time>2026-04-12T08:26:57Z</time></trkpt><trkpt lat="43.66930760385809" lon="12.114767061678132"><ele>912.0</ele><time>2026-04-12T08:26:58Z</time></trkpt><trkpt lat="43.6694337606956" lon="12.114829751357597"><ele>912.0</ele><time>2026-04-12T08:26:59Z</time></trkpt><trkpt lat="43.66954957301704" lon="12.114965407055672"><ele>912.0</ele><time>2026-04-12T08:27:00Z</time></trkpt><trkpt lat="43.66967552292244" lon="12.115114000317437"><ele>915.25</ele><time>2026-04-12T08:27:01Z</time></trkpt><trkpt lat="43.66980936748973" lon="12.115219820903995"><ele>918.5</ele><time>2026-04-12T08:27:02Z</time></trkpt><trkpt lat="43.66995171738174" lon="12.11525883260372"><ele>921.75</ele><time>2026-04-12T08:27:03Z</time></trkpt><trkpt lat="43.6700944069276" lon="12.115238588431133"><ele>925.0</ele><time>2026-04-12T08:27:04Z</time></trkpt><trkpt lat="43.670224081181495" lon="12.11514472670677"><ele>924.75</ele><time>2026-04-12T08:27:05Z</time></trkpt><trkpt lat="43.670340525789285" lon="12.115040025000406"><ele>924.5</ele><time>2026-04-12T08:27:06Z</time></trkpt><trkpt lat="43.670455250779185" lon="12.115009159075361"><ele>924.25</ele><time>2026-04-12T08:27:07Z</time></trkpt><trkpt lat="43.67056387861733" lon="12.115083336360279"><ele>924.0</ele><time>2026-04-12T08:27:08Z</time></trkpt><trkpt lat="43.670647510132056" lon="12.11524039551525"><ele>924.0</ele><time>2026-04-12T08:27:09Z</time></trkpt><trkpt lat="43.670688574206466" lon="12.11544021023354"><ele>924.0</ele><time>2026-04-12T08:27:10Z</time></trkpt><trkpt lat="43.67071451937797" lon="12.115642907773283"><ele>924.0</ele><time>2026-04-12T08:27:11Z</time></trkpt><trkpt lat="43.6707320820866" lon="12.115820357431849"><ele>924.0</ele><time>2026-04-12T08:27:12Z</time></trkpt><trkpt lat="43.67077580212956" lon="12.115966468916941"><ele>927.25</ele><time>2026-04-12T08:27:13Z</time></trkpt><trkpt lat="43.670861651014945" lon="12.116068634378825"><ele>930.5</ele><time>2026-04-12T08:27:14Z</time></trkpt><trkpt lat="43.67097614212545" lon="12.116095534911844"><ele>933.75</ele><time>2026-04-12T08:27:15Z</time></trkpt><trkpt lat="43.671100779255916" lon="12.116037999137433"><ele>937.0</ele><time>2026-04-12T08:27:16Z</time></trkpt><trkpt lat="43.671223842233076" lon="12.115910061742994"><ele>933.0</ele><time>2026-04-12T08:27:17Z</time></trkpt><trkpt lat="43.67135938241187" lon="12.115735217383788"><ele>929.0</ele><time>2026-04-12T08:27:18Z</time></trkpt><trkpt lat="43.67151282705592" lon="12.115598740499665"><ele>925.0</ele><time>2026-04-12T08:27:19Z</time></trkpt><trkpt lat="43.67167036217262" lon="12.11550201659775"><ele>925.0</ele><time>2026-04-12T08:27:20Z</time></trkpt><trkpt lat="43.67182106975155" lon="12.115442794737504"><ele>925.0</ele><time>2026-04-12T08:27:21Z</time></trkpt><trkpt lat="43.67196039975265" lon="12.115441691768606"><ele>925.0</ele><time>2026-04-12T08:27:22Z</time></trkpt><trkpt lat="43.67208730445075" lon="12.115494807873153"><ele>925.0</ele><time>2026-04-12T08:27:23Z</time></trkpt><trkpt lat="43.67220464057485" lon="12.11562225186511"><ele>930.3333333333333</ele><time>2026-04-12T08:27:24Z</time></trkpt><trkpt lat="43.67230326255776" lon="12.115818684966277"><ele>935.6666666666667</ele><time>2026-04-12T08:27:25Z</time></trkpt><trkpt lat="43.672416225382925" lon="12.116022871478666"><ele>941.0</ele><time>2026-04-12T08:27:25.999Z</time></trkpt><trkpt lat="43.67256164165452" lon="12.116189801258686"><ele>941.0</ele><time>2026-04-12T08:27:26.999Z</time></trkpt><trkpt lat="43.672720291666614" lon="12.116308923270548"><ele>941.0</ele><time>2026-04-12T08:27:27.999Z</time></trkpt><trkpt lat="43.67287707715503" lon="12.116407601351128"><ele>941.0</ele><time>2026-04-12T08:27:28.999Z</time></trkpt><trkpt lat="43.67301809359136" lon="12.116499804745825"><ele>940.3333333333334</ele><time>2026-04-12T08:27:29.999Z</time></trkpt><trkpt lat="43.67317424331559" lon="12.11653397825495"><ele>939.6666666666667</ele><time>2026-04-12T08:27:30.999Z</time></trkpt><trkpt lat="43.67334165690367" lon="12.116515417718182"><ele>939.0</ele><time>2026-04-12T08:27:31.999Z</time></trkpt><trkpt lat="43.67351914369798" lon="12.116436649817809"><ele>940.3333333333333</ele><time>2026-04-12T08:27:32.999Z</time></trkpt><trkpt lat="43.67369714582371" lon="12.116352137076671"><ele>941.6666666666666</ele><time>2026-04-12T08:27:33.999Z</time></trkpt><trkpt lat="43.67388307217403" lon="12.116294669419968"><ele>943.0</ele><time>2026-04-12T08:27:34.999Z</time></trkpt><trkpt lat="43.67407322136186" lon="12.116279331163117"><ele>943.0</ele><time>2026-04-12T08:27:35.999Z</time></trkpt><trkpt lat="43.67426507587885" lon="12.116321911755144"><ele>943.0</ele><time>2026-04-12T08:27:36.999Z</time></trkpt><trkpt lat="43.6744618506577" lon="12.116414000184633"><ele>943.0</ele><time>2026-04-12T08:27:37.999Z</time></trkpt><trkpt lat="43.67466039196474" lon="12.116512284868401"><ele>946.3333333333333</ele><time>2026-04-12T08:27:38.999Z</time></trkpt><trkpt lat="43.67486530679052" lon="12.116599043934857"><ele>949.6666666666667</ele><time>2026-04-12T08:27:39.999Z</time></trkpt><trkpt lat="43.67505897290046" lon="12.116680911986748"><ele>953.0</ele><time>2026-04-12T08:27:40.999Z</time></trkpt><trkpt lat="43.67522996088553" lon="12.116754054237282"><ele>957.6666666666667</ele><time>2026-04-12T08:27:41.999Z</time></trkpt><trkpt lat="43.675386379937756" lon="12.116772376991864"><ele>962.3333333333333</ele><time>2026-04-12T08:27:42.999Z</time></trkpt><trkpt lat="43.675546487689395" lon="12.116716284340175"><ele>967.0</ele><time>2026-04-12T08:27:43.999Z</time></trkpt><trkpt lat="43.67570401483042" lon="12.116576288364017"><ele>963.0</ele><time>2026-04-12T08:27:44.999Z</time></trkpt><trkpt lat="43.67586027789225" lon="12.11639454730991"><ele>959.0</ele><time>2026-04-12T08:27:45.999Z</time></trkpt><trkpt lat="43.67604645123165" lon="12.11629273255532"><ele>955.0</ele><time>2026-04-12T08:27:46.999Z</time></trkpt><trkpt lat="43.67625169719846" lon="12.116243007641629"><ele>955.0</ele><time>2026-04-12T08:27:47.999Z</time></trkpt><trkpt lat="43.67648416444302" lon="12.116210264726897"><ele>955.0</ele><time>2026-04-12T08:27:48.999Z</time></trkpt><trkpt lat="43.676726438566604" lon="12.116181770394528"><ele>956.5</ele><time>2026-04-12T08:27:49.999Z</time></trkpt><trkpt lat="43.6769630266654" lon="12.116154599148917"><ele>958.0</ele><time>2026-04-12T08:27:50.999Z</time></trkpt><trkpt lat="43.67719555783998" lon="12.116111777194762"><ele>958.0</ele><time>2026-04-12T08:27:51.999Z</time></trkpt><trkpt lat="43.677429086345995" lon="12.116158077774935"><ele>958.0</ele><time>2026-04-12T08:27:52.999Z</time></trkpt><trkpt lat="43.67766671765634" lon="12.116199335010448"><ele>961.5</ele><time>2026-04-12T08:27:53.999Z</time></trkpt><trkpt lat="43.677900702089126" lon="12.116219091848668"><ele>965.0</ele><time>2026-04-12T08:27:54.999Z</time></trkpt><trkpt lat="43.678115055552404" lon="12.116263245511883"><ele>965.0</ele><time>2026-04-12T08:27:55.999Z</time></trkpt><trkpt lat="43.678295158531746" lon="12.116358795151854"><ele>965.0</ele><time>2026-04-12T08:27:56.999Z</time></trkpt><trkpt lat="43.67843714359259" lon="12.116469510487896"><ele>965.0</ele><time>2026-04-12T08:27:57.999Z</time></trkpt><trkpt lat="43.6785788894146" lon="12.116553744078992"><ele>964.3333333333334</ele><time>2026-04-12T08:27:58.999Z</time></trkpt><trkpt lat="43.67871883591722" lon="12.116623846953942"><ele>963.6666666666667</ele><time>2026-04-12T08:27:59.999Z</time></trkpt><trkpt lat="43.67887789878498" lon="12.116597601275338"><ele>963.0</ele><time>2026-04-12T08:28:00.999Z</time></trkpt><trkpt lat="43.67904441233697" lon="12.11650092387337"><ele>963.0</ele><time>2026-04-12T08:28:01.999Z</time></trkpt><trkpt lat="43.679211027675876" lon="12.11635233884293"><ele>963.0</ele><time>2026-04-12T08:28:02.999Z</time></trkpt><trkpt lat="43.67937162212538" lon="12.116212499010977"><ele>963.0</ele><time>2026-04-12T08:28:03.999Z</time></trkpt><trkpt lat="43.67954595089076" lon="12.116126898359589"><ele>965.0</ele><time>2026-04-12T08:28:04.999Z</time></trkpt><trkpt lat="43.679722584092644" lon="12.116055316426785"><ele>967.0</ele><time>2026-04-12T08:28:05.999Z</time></trkpt><trkpt lat="43.67989896924971" lon="12.116058398612763"><ele>969.0</ele><time>2026-04-12T08:28:06.999Z</time></trkpt><trkpt lat="43.68006909766472" lon="12.11613620968295"><ele>969.0</ele><time>2026-04-12T08:28:07.999Z</time></trkpt><trkpt lat="43.68024953334341" lon="12.116222135705883"><ele>969.0</ele><time>2026-04-12T08:28:08.999Z</time></trkpt><trkpt lat="43.68042432695553" lon="12.116299811504067"><ele>969.0</ele><time>2026-04-12T08:28:09.999Z</time></trkpt><trkpt lat="43.68059051602438" lon="12.116385482113193"><ele>968.3333333333333</ele><time>2026-04-12T08:28:10.999Z</time></trkpt><trkpt lat="43.680753286338444" lon="12.11646097981201"><ele>967.6666666666666</ele><time>2026-04-12T08:28:11.999Z</time></trkpt><trkpt lat="43.68091846592749" lon="12.116517263136902"><ele>967.0</ele><time>2026-04-12T08:28:12.999Z</time></trkpt><trkpt lat="43.6810868006301" lon="12.116539694295557"><ele>968.6666666666666</ele><time>2026-04-12T08:28:13.999Z</time></trkpt><trkpt lat="43.68125555496831" lon="12.116519711891222"><ele>970.3333333333333</ele><time>2026-04-12T08:28:14.999Z</time></trkpt><trkpt lat="43.68141322640751" lon="12.116488599229342"><ele>972.0</ele><time>2026-04-12T08:28:15.999Z</time></trkpt><trkpt lat="43.681556369519" lon="12.116471139613054"><ele>972.0</ele><time>2026-04-12T08:28:16.999Z</time></trkpt><trkpt lat="43.68168455545323" lon="12.116455594037774"><ele>972.0</ele><time>2026-04-12T08:28:17.999Z</time></trkpt><trkpt lat="43.6817993546476" lon="12.116442520821874"><ele>972.0</ele><time>2026-04-12T08:28:18.999Z</time></trkpt><trkpt lat="43.681896839665455" lon="12.116438537296156"><ele>972.0</ele><time>2026-04-12T08:28:19.999Z</time></trkpt><trkpt lat="43.68197815235714" lon="12.116429888428442"><ele>972.0</ele><time>2026-04-12T08:28:20.999Z</time></trkpt><trkpt lat="43.6820507776932" lon="12.11641996931595"><ele>973.5</ele><time>2026-04-12T08:28:21.999Z</time></trkpt><trkpt lat="43.6821528060333" lon="12.116409607871311"><ele>975.0</ele><time>2026-04-12T08:28:23.999Z</time></trkpt><trkpt lat="43.682232751816166" lon="12.116387174996216"><ele>976.5</ele><time>2026-04-12T08:28:25.999Z</time></trkpt><trkpt lat="43.68230856838831" lon="12.116389608867745"><ele>978.0</ele><time>2026-04-12T08:28:27.999Z</time></trkpt><trkpt lat="43.682382861522676" lon="12.11638369936641"><ele>979.5</ele><time>2026-04-12T08:28:30.998Z</time></trkpt><trkpt lat="43.682402383196894" lon="12.116286663617263"><ele>981.0</ele><time>2026-04-12T08:34:12Z</time></trkpt><trkpt lat="43.68233253094145" lon="12.116374216349302"><ele>981.0</ele><time>2026-04-12T08:34:16Z</time></trkpt><trkpt lat="43.682247280524926" lon="12.116372784394537"><ele>980.9999999999999</ele><time>2026-04-12T08:34:17Z</time></trkpt><trkpt lat="43.68215242799063" lon="12.11637389561849"><ele>980.9999999999999</ele><time>2026-04-12T08:34:18Z</time></trkpt><trkpt lat="43.68203770693658" lon="12.116391478225351"><ele>981.0</ele><time>2026-04-12T08:34:19Z</time></trkpt><trkpt lat="43.681902644525245" lon="12.116407098371543"><ele>981.0</ele><time>2026-04-12T08:34:20Z</time></trkpt><trkpt lat="43.681762139438" lon="12.116418532944481"><ele>978.0</ele><time>2026-04-12T08:34:21Z</time></trkpt><trkpt lat="43.681605828366116" lon="12.116435292748001"><ele>975.0</ele><time>2026-04-12T08:34:22Z</time></trkpt><trkpt lat="43.68143875002856" lon="12.116453902525572"><ele>972.0</ele><time>2026-04-12T08:34:23Z</time></trkpt><trkpt lat="43.681275573891654" lon="12.116478161861691"><ele>972.0</ele><time>2026-04-12T08:34:24Z</time></trkpt><trkpt lat="43.68110811368348" lon="12.116501939113096"><ele>972.0</ele><time>2026-04-12T08:34:25Z</time></trkpt><trkpt lat="43.68094718273891" lon="12.116491541452135"><ele>972.0</ele><time>2026-04-12T08:34:26Z</time></trkpt><trkpt lat="43.68078606511675" lon="12.116451370170438"><ele>970.3333333333333</ele><time>2026-04-12T08:34:27Z</time></trkpt><trkpt lat="43.68063484944199" lon="12.116375817680762"><ele>968.6666666666666</ele><time>2026-04-12T08:34:28Z</time></trkpt><trkpt lat="43.68047163778225" lon="12.116289822873965"><ele>967.0</ele><time>2026-04-12T08:34:29Z</time></trkpt><trkpt lat="43.680300136713605" lon="12.116217637832996"><ele>967.6666666666666</ele><time>2026-04-12T08:34:30Z</time></trkpt><trkpt lat="43.68014143992117" lon="12.116128877293491"><ele>968.3333333333333</ele><time>2026-04-12T08:34:31Z</time></trkpt><trkpt lat="43.679989517886725" lon="12.116049789312937"><ele>969.0</ele><time>2026-04-12T08:34:32Z</time></trkpt><trkpt lat="43.67983999601379" lon="12.115991446427099"><ele>969.0</ele><time>2026-04-12T08:34:33Z</time></trkpt><trkpt lat="43.679682203592115" lon="12.115978551461454"><ele>969.0</ele><time>2026-04-12T08:34:34Z</time></trkpt><trkpt lat="43.679522040868775" lon="12.116037985088546"><ele>969.0</ele><time>2026-04-12T08:34:35Z</time></trkpt><trkpt lat="43.67936202131809" lon="12.116144420980824"><ele>967.0</ele><time>2026-04-12T08:34:36Z</time></trkpt><trkpt lat="43.67920295162595" lon="12.116280446087526"><ele>965.0</ele><time>2026-04-12T08:34:37Z</time></trkpt><trkpt lat="43.679053523050406" lon="12.116420665929937"><ele>963.0</ele><time>2026-04-12T08:34:38Z</time></trkpt><trkpt lat="43.678908572712665" lon="12.116519638202128"><ele>963.5</ele><time>2026-04-12T08:34:39Z</time></trkpt><trkpt lat="43.67877030621506" lon="12.116570791866021"><ele>964.0</ele><time>2026-04-12T08:34:40Z</time></trkpt><trkpt lat="43.67863141652692" lon="12.116575860654235"><ele>964.5</ele><time>2026-04-12T08:34:41Z</time></trkpt><trkpt lat="43.678507025263855" lon="12.116476304082287"><ele>965.0</ele><time>2026-04-12T08:34:42Z</time></trkpt><trkpt lat="43.6783557218796" lon="12.116356934574776"><ele>965.0</ele><time>2026-04-12T08:34:43Z</time></trkpt><trkpt lat="43.67818161887325" lon="12.116253646846836"><ele>965.0</ele><time>2026-04-12T08:34:44Z</time></trkpt><trkpt lat="43.67798730849538" lon="12.116209912890954"><ele>965.0</ele><time>2026-04-12T08:34:45Z</time></trkpt><trkpt lat="43.67778404690037" lon="12.116164436787452"><ele>962.6666666666667</ele><time>2026-04-12T08:34:46Z</time></trkpt><trkpt lat="43.67757589689113" lon="12.11612861312938"><ele>960.3333333333333</ele><time>2026-04-12T08:34:47Z</time></trkpt><trkpt lat="43.67736222142814" lon="12.116093299254228"><ele>958.0</ele><time>2026-04-12T08:34:48Z</time></trkpt><trkpt lat="43.677148840896585" lon="12.116079834804664"><ele>956.5</ele><time>2026-04-12T08:34:49Z</time></trkpt><trkpt lat="43.67691825289663" lon="12.116116553850519"><ele>955.0</ele><time>2026-04-12T08:34:50Z</time></trkpt><trkpt lat="43.676695860562" lon="12.11614435170409"><ele>955.0</ele><time>2026-04-12T08:34:51Z</time></trkpt><trkpt lat="43.67648341657723" lon="12.116168391533368"><ele>955.0</ele><time>2026-04-12T08:34:52Z</time></trkpt><trkpt lat="43.67628077793209" lon="12.116194589022065"><ele>955.0</ele><time>2026-04-12T08:34:53Z</time></trkpt><trkpt lat="43.67608829407795" lon="12.116233867938588"><ele>953.3333333333333</ele><time>2026-04-12T08:34:53.999Z</time></trkpt><trkpt lat="43.67592143803554" lon="12.11630017161502"><ele>951.6666666666667</ele><time>2026-04-12T08:34:54.999Z</time></trkpt><trkpt lat="43.675765172662985" lon="12.116419932530182"><ele>950.0</ele><time>2026-04-12T08:34:55.999Z</time></trkpt><trkpt lat="43.67561664697019" lon="12.116570266886393"><ele>951.0</ele><time>2026-04-12T08:34:56.999Z</time></trkpt><trkpt lat="43.67547948372558" lon="12.11668971613919"><ele>952.0</ele><time>2026-04-12T08:34:57.999Z</time></trkpt><trkpt lat="43.6753334807498" lon="12.116743569446585"><ele>953.0</ele><time>2026-04-12T08:34:58.999Z</time></trkpt><trkpt lat="43.67517728798665" lon="12.116704409871833"><ele>953.0</ele><time>2026-04-12T08:34:59.999Z</time></trkpt><trkpt lat="43.675004703073185" lon="12.116621495963335"><ele>953.0</ele><time>2026-04-12T08:35:00.999Z</time></trkpt><trkpt lat="43.674815426531104" lon="12.116541659751173"><ele>953.0</ele><time>2026-04-12T08:35:01.999Z</time></trkpt><trkpt lat="43.67461286321774" lon="12.116466319337768"><ele>949.6666666666667</ele><time>2026-04-12T08:35:02.999Z</time></trkpt><trkpt lat="43.674416870293406" lon="12.116383132053173"><ele>946.3333333333333</ele><time>2026-04-12T08:35:03.999Z</time></trkpt><trkpt lat="43.674238733059056" lon="12.11631220057341"><ele>943.0</ele><time>2026-04-12T08:35:04.999Z</time></trkpt><trkpt lat="43.674066112344704" lon="12.11627014495089"><ele>943.0</ele><time>2026-04-12T08:35:05.999Z</time></trkpt><trkpt lat="43.67388343469705" lon="12.116272609866227"><ele>943.0</ele><time>2026-04-12T08:35:06.999Z</time></trkpt><trkpt lat="43.673692695238245" lon="12.116321424049781"><ele>943.0</ele><time>2026-04-12T08:35:07.999Z</time></trkpt><trkpt lat="43.67350172555398" lon="12.116398953966854"><ele>941.6666666666666</ele><time>2026-04-12T08:35:08.999Z</time></trkpt><trkpt lat="43.673325702414424" lon="12.116472833019225"><ele>940.3333333333333</ele><time>2026-04-12T08:35:09.999Z</time></trkpt><trkpt lat="43.67315252372168" lon="12.11650835658938"><ele>939.0</ele><time>2026-04-12T08:35:10.999Z</time></trkpt><trkpt lat="43.67297966717174" lon="12.116473919808671"><ele>939.0</ele><time>2026-04-12T08:35:11.999Z</time></trkpt><trkpt lat="43.67281869674541" lon="12.116323335265502"><ele>939.0</ele><time>2026-04-12T08:35:12.999Z</time></trkpt><trkpt lat="43.672640591212385" lon="12.116193967541161"><ele>939.0</ele><time>2026-04-12T08:35:13.999Z</time></trkpt><trkpt lat="43.67246904971129" lon="12.116038117012318"><ele>939.6666666666667</ele><time>2026-04-12T08:35:14.999Z</time></trkpt><trkpt lat="43.67233773310549" lon="12.11585401209872"><ele>940.3333333333334</ele><time>2026-04-12T08:35:15.999Z</time></trkpt><trkpt lat="43.67222121837368" lon="12.115682195887167"><ele>941.0</ele><time>2026-04-12T08:35:16.999Z</time></trkpt><trkpt lat="43.67213079236598" lon="12.11552697492712"><ele>938.75</ele><time>2026-04-12T08:35:17.999Z</time></trkpt><trkpt lat="43.67201651736841" lon="12.115429543572352"><ele>936.5</ele><time>2026-04-12T08:35:18.999Z</time></trkpt><trkpt lat="43.67187744305883" lon="12.115397396333025"><ele>934.25</ele><time>2026-04-12T08:35:19.999Z</time></trkpt><trkpt lat="43.67172145793778" lon="12.115439803712881"><ele>932.0</ele><time>2026-04-12T08:35:20.999Z</time></trkpt><trkpt lat="43.671561111770934" lon="12.115536944750945"><ele>929.6666666666667</ele><time>2026-04-12T08:35:21.999Z</time></trkpt><trkpt lat="43.67140724321814" lon="12.11566446598647"><ele>927.3333333333333</ele><time>2026-04-12T08:35:22.999Z</time></trkpt><trkpt lat="43.67126026872718" lon="12.115801696087281"><ele>925.0</ele><time>2026-04-12T08:35:23.999Z</time></trkpt><trkpt lat="43.67114375562858" lon="12.115928856051994"><ele>928.0</ele><time>2026-04-12T08:35:25Z</time></trkpt><trkpt lat="43.67103961675934" lon="12.116013412125502"><ele>931.0</ele><time>2026-04-12T08:35:26Z</time></trkpt><trkpt lat="43.67093170624892" lon="12.116042016831809"><ele>934.0</ele><time>2026-04-12T08:35:26.999Z</time></trkpt><trkpt lat="43.67082939895629" lon="12.1159871012724"><ele>937.0</ele><time>2026-04-12T08:35:27.999Z</time></trkpt><trkpt lat="43.67074220792517" lon="12.115872549827603"><ele>933.75</ele><time>2026-04-12T08:35:28.999Z</time></trkpt><trkpt lat="43.67073705320307" lon="12.115689926732356"><ele>930.5</ele><time>2026-04-12T08:35:29.999Z</time></trkpt><trkpt lat="43.67070429548565" lon="12.11550060835544"><ele>927.25</ele><time>2026-04-12T08:35:30.999Z</time></trkpt><trkpt lat="43.67068917601988" lon="12.1153032231701"><ele>924.0</ele><time>2026-04-12T08:35:32Z</time></trkpt><trkpt lat="43.670629432559885" lon="12.115143485849332"><ele>924.0</ele><time>2026-04-12T08:35:32.999Z</time></trkpt><trkpt lat="43.67053632092583" lon="12.115029723947025"><ele>924.0</ele><time>2026-04-12T08:35:33.999Z</time></trkpt><trkpt lat="43.670439896476566" lon="12.11496505379533"><ele>924.0</ele><time>2026-04-12T08:35:35Z</time></trkpt><trkpt lat="43.6703220422107" lon="12.114977590235123"><ele>924.0</ele><time>2026-04-12T08:35:35.999Z</time></trkpt><trkpt lat="43.67019642720916" lon="12.11505978915614"><ele>924.3333333333333</ele><time>2026-04-12T08:35:37Z</time></trkpt><trkpt lat="43.6700603578625" lon="12.11517127543599"><ele>924.6666666666666</ele><time>2026-04-12T08:35:38Z</time></trkpt><trkpt lat="43.669914371103694" lon="12.115225952533232"><ele>925.0</ele><time>2026-04-12T08:35:39Z</time></trkpt><trkpt lat="43.66977348626592" lon="12.115155618758479"><ele>925.0</ele><time>2026-04-12T08:35:39.999Z</time></trkpt><trkpt lat="43.66964225579992" lon="12.11504054645647"><ele>925.0</ele><time>2026-04-12T08:35:40.999Z</time></trkpt><trkpt lat="43.669504103859815" lon="12.114909267908722"><ele>925.0</ele><time>2026-04-12T08:35:41.999Z</time></trkpt><trkpt lat="43.66939154883214" lon="12.11478533190176"><ele>921.75</ele><time>2026-04-12T08:35:42.999Z</time></trkpt><trkpt lat="43.66927250962208" lon="12.114729189267834"><ele>918.5</ele><time>2026-04-12T08:35:43.999Z</time></trkpt><trkpt lat="43.669134838100405" lon="12.114730527716102"><ele>915.25</ele><time>2026-04-12T08:35:44.999Z</time></trkpt><trkpt lat="43.66897972903964" lon="12.11478933414275"><ele>912.0</ele><time>2026-04-12T08:35:45.999Z</time></trkpt><trkpt lat="43.66880647588376" lon="12.114860449595321"><ele>912.0</ele><time>2026-04-12T08:35:46.999Z</time></trkpt><trkpt lat="43.66862623164649" lon="12.11486274298847"><ele>912.0</ele><time>2026-04-12T08:35:47.999Z</time></trkpt><trkpt lat="43.668444082700134" lon="12.11480086199551"><ele>912.0</ele><time>2026-04-12T08:35:48.999Z</time></trkpt><trkpt lat="43.66828018526701" lon="12.11468979251845"><ele>911.5</ele><time>2026-04-12T08:35:49.999Z</time></trkpt><trkpt lat="43.66813962317894" lon="12.114580054910036"><ele>911.0</ele><time>2026-04-12T08:35:50.999Z</time></trkpt><trkpt lat="43.668007251921686" lon="12.114535629302994"><ele>910.5</ele><time>2026-04-12T08:35:51.999Z</time></trkpt><trkpt lat="43.66786848778775" lon="12.114577516331972"><ele>910.0</ele><time>2026-04-12T08:35:52.999Z</time></trkpt><trkpt lat="43.667748940703206" lon="12.114665982790505"><ele>910.0</ele><time>2026-04-12T08:35:53.999Z</time></trkpt><trkpt lat="43.66763426717599" lon="12.114727331281223"><ele>910.0</ele><time>2026-04-12T08:35:54.999Z</time></trkpt><trkpt lat="43.66750746749027" lon="12.114690500833596"><ele>910.0</ele><time>2026-04-12T08:35:55.999Z</time></trkpt><trkpt lat="43.66737442312161" lon="12.114549629269517"><ele>910.0</ele><time>2026-04-12T08:35:56.999Z</time></trkpt><trkpt lat="43.66725196327608" lon="12.11436234378411"><ele>910.0</ele><time>2026-04-12T08:35:57.999Z</time></trkpt><trkpt lat="43.66712175917411" lon="12.114184993302006"><ele>910.0</ele><time>2026-04-12T08:35:58.999Z</time></trkpt><trkpt lat="43.66699410549338" lon="12.113994573921381"><ele>910.0</ele><time>2026-04-12T08:35:59.999Z</time></trkpt><trkpt lat="43.66685846331989" lon="12.113802935359917"><ele>910.3333333333333</ele><time>2026-04-12T08:36:00.999Z</time></trkpt><trkpt lat="43.66673655806914" lon="12.113600672363313"><ele>910.6666666666667</ele><time>2026-04-12T08:36:01.999Z</time></trkpt><trkpt lat="43.66664004060109" lon="12.113385963673833"><ele>911.0</ele><time>2026-04-12T08:36:02.999Z</time></trkpt><trkpt lat="43.66659926637875" lon="12.113129448778658"><ele>910.0</ele><time>2026-04-12T08:36:03.999Z</time></trkpt><trkpt lat="43.66657959875694" lon="12.112853855750021"><ele>909.0</ele><time>2026-04-12T08:36:04.999Z</time></trkpt><trkpt lat="43.66655500637578" lon="12.112564345635274"><ele>908.0</ele><time>2026-04-12T08:36:05.999Z</time></trkpt><trkpt lat="43.66655155772036" lon="12.112281800053976"><ele>908.0</ele><time>2026-04-12T08:36:06.999Z</time></trkpt><trkpt lat="43.66658709013729" lon="12.11201435864282"><ele>908.0</ele><time>2026-04-12T08:36:07.999Z</time></trkpt><trkpt lat="43.66661759167712" lon="12.111756489777392"><ele>908.0</ele><time>2026-04-12T08:36:08.999Z</time></trkpt><trkpt lat="43.666672711461636" lon="12.11151581295466"><ele>907.3333333333334</ele><time>2026-04-12T08:36:09.999Z</time></trkpt><trkpt lat="43.66671033159057" lon="12.111284966078976"><ele>906.6666666666667</ele><time>2026-04-12T08:36:10.999Z</time></trkpt><trkpt lat="43.66671514709119" lon="12.111056143332268"><ele>906.0</ele><time>2026-04-12T08:36:11.999Z</time></trkpt><trkpt lat="43.66667944527155" lon="12.110817625268306"><ele>902.6666666666667</ele><time>2026-04-12T08:36:12.999Z</time></trkpt><trkpt lat="43.666602513573764" lon="12.11057366273502"><ele>899.3333333333334</ele><time>2026-04-12T08:36:13.999Z</time></trkpt><trkpt lat="43.66649841366154" lon="12.110338293701748"><ele>896.0</ele><time>2026-04-12T08:36:14.999Z</time></trkpt><trkpt lat="43.66639207800078" lon="12.110101478532334"><ele>890.0</ele><time>2026-04-12T08:36:15.999Z</time></trkpt><trkpt lat="43.66630268354346" lon="12.109875016698878"><ele>884.0</ele><time>2026-04-12T08:36:16.999Z</time></trkpt><trkpt lat="43.66622634089976" lon="12.109675840723723"><ele>878.0</ele><time>2026-04-12T08:36:17.999Z</time></trkpt><trkpt lat="43.66614096005965" lon="12.109509623453183"><ele>884.6666666666667</ele><time>2026-04-12T08:36:18.999Z</time></trkpt><trkpt lat="43.666030302375994" lon="12.109378965147483"><ele>891.3333333333333</ele><time>2026-04-12T08:36:19.999Z</time></trkpt><trkpt lat="43.66589031622805" lon="12.109286962479525"><ele>898.0</ele><time>2026-04-12T08:36:20.999Z</time></trkpt><trkpt lat="43.665728252610734" lon="12.109216532393019"><ele>898.0</ele><time>2026-04-12T08:36:21.999Z</time></trkpt><trkpt lat="43.66555920690303" lon="12.109142313928286"><ele>898.0</ele><time>2026-04-12T08:36:22.999Z</time></trkpt><trkpt lat="43.66540367211298" lon="12.109047623783416"><ele>898.0</ele><time>2026-04-12T08:36:23.999Z</time></trkpt><trkpt lat="43.6652651030901" lon="12.108926249745982"><ele>896.3333333333333</ele><time>2026-04-12T08:36:24.999Z</time></trkpt><trkpt lat="43.66514847024598" lon="12.108742707518623"><ele>894.6666666666667</ele><time>2026-04-12T08:36:25.999Z</time></trkpt><trkpt lat="43.66502202519341" lon="12.10854756182246"><ele>893.0</ele><time>2026-04-12T08:36:26.999Z</time></trkpt><trkpt lat="43.664884449133744" lon="12.108330323825532"><ele>883.0</ele><time>2026-04-12T08:36:27.999Z</time></trkpt><trkpt lat="43.66471877700223" lon="12.108123861072244"><ele>873.0</ele><time>2026-04-12T08:36:28.999Z</time></trkpt><trkpt lat="43.664530756991" lon="12.107936936293909"><ele>881.5</ele><time>2026-04-12T08:36:29.999Z</time></trkpt><trkpt lat="43.66435506966539" lon="12.107726879130954"><ele>890.0</ele><time>2026-04-12T08:36:30.999Z</time></trkpt><trkpt lat="43.66417883415002" lon="12.107514864754087"><ele>883.5</ele><time>2026-04-12T08:36:31.999Z</time></trkpt><trkpt lat="43.664008026453544" lon="12.10729718523248"><ele>877.0</ele><time>2026-04-12T08:36:32.999Z</time></trkpt><trkpt lat="43.66385102040165" lon="12.107069750133917"><ele>877.0</ele><time>2026-04-12T08:36:33.999Z</time></trkpt><trkpt lat="43.66370518173509" lon="12.106828366987466"><ele>877.0</ele><time>2026-04-12T08:36:34.999Z</time></trkpt><trkpt lat="43.663580457724954" lon="12.106570163312256"><ele>877.6666666666666</ele><time>2026-04-12T08:36:35.999Z</time></trkpt><trkpt lat="43.66344043322499" lon="12.106346984556014"><ele>878.3333333333333</ele><time>2026-04-12T08:36:36.999Z</time></trkpt><trkpt lat="43.66332149893009" lon="12.106126780110804"><ele>879.0</ele><time>2026-04-12T08:36:37.999Z</time></trkpt><trkpt lat="43.663206673141666" lon="12.105935689674636"><ele>879.0</ele><time>2026-04-12T08:36:38.999Z</time></trkpt><trkpt lat="43.66311088610656" lon="12.105747545285602"><ele>879.0</ele><time>2026-04-12T08:36:39.999Z</time></trkpt><trkpt lat="43.6630645031769" lon="12.105530980758877"><ele>879.0</ele><time>2026-04-12T08:36:40.999Z</time></trkpt><trkpt lat="43.66304923884861" lon="12.105315537641937"><ele>877.0</ele><time>2026-04-12T08:36:41.999Z</time></trkpt><trkpt lat="43.66303138716483" lon="12.105114275734703"><ele>875.0</ele><time>2026-04-12T08:36:42.999Z</time></trkpt><trkpt lat="43.66300472878573" lon="12.104946189817465"><ele>873.0</ele><time>2026-04-12T08:36:43.999Z</time></trkpt><trkpt lat="43.662927830707396" lon="12.104809111556651"><ele>871.0</ele><time>2026-04-12T08:36:44.999Z</time></trkpt><trkpt lat="43.662803728519044" lon="12.104734645639311"><ele>869.3333333333333</ele><time>2026-04-12T08:36:45.999Z</time></trkpt><trkpt lat="43.66266001620131" lon="12.104719844295373"><ele>867.6666666666667</ele><time>2026-04-12T08:36:46.999Z</time></trkpt><trkpt lat="43.66251016651356" lon="12.104779301509211"><ele>866.0</ele><time>2026-04-12T08:36:47.999Z</time></trkpt><trkpt lat="43.66238113197522" lon="12.104890704103083"><ele>868.3333333333334</ele><time>2026-04-12T08:36:48.999Z</time></trkpt><trkpt lat="43.6622699528339" lon="12.105061266885635"><ele>870.6666666666667</ele><time>2026-04-12T08:36:49.999Z</time></trkpt><trkpt lat="43.66217925115301" lon="12.105294772602749"><ele>873.0</ele><time>2026-04-12T08:36:50.999Z</time></trkpt><trkpt lat="43.66209288312451" lon="12.105531939782558"><ele>873.0</ele><time>2026-04-12T08:36:51.999Z</time></trkpt><trkpt lat="43.661980423151974" lon="12.105742044495136"><ele>873.0</ele><time>2026-04-12T08:36:52.999Z</time></trkpt><trkpt lat="43.6618764093062" lon="12.105959783413994"><ele>873.0</ele><time>2026-04-12T08:36:53.999Z</time></trkpt><trkpt lat="43.66172752853398" lon="12.106141776565547"><ele>869.3333333333333</ele><time>2026-04-12T08:36:54.999Z</time></trkpt><trkpt lat="43.66153820689875" lon="12.10626703200492"><ele>865.6666666666666</ele><time>2026-04-12T08:36:55.999Z</time></trkpt><trkpt lat="43.66133105460437" lon="12.106353248309157"><ele>862.0</ele><time>2026-04-12T08:36:56.999Z</time></trkpt><trkpt lat="43.6611048618299" lon="12.10638800752934"><ele>855.0</ele><time>2026-04-12T08:36:57.999Z</time></trkpt><trkpt lat="43.66087000350778" lon="12.10643040237659"><ele>848.0</ele><time>2026-04-12T08:36:58.999Z</time></trkpt><trkpt lat="43.66064673948811" lon="12.106444329890378"><ele>848.0</ele><time>2026-04-12T08:36:59.999Z</time></trkpt><trkpt lat="43.6604403168397" lon="12.106473530182345"><ele>848.0</ele><time>2026-04-12T08:37:00.999Z</time></trkpt><trkpt lat="43.66024634602308" lon="12.106537822138215"><ele>848.0</ele><time>2026-04-12T08:37:01.999Z</time></trkpt><trkpt lat="43.660055288409794" lon="12.10664713601274"><ele>851.0</ele><time>2026-04-12T08:37:02.999Z</time></trkpt><trkpt lat="43.6598773971255" lon="12.10678170281778"><ele>854.0</ele><time>2026-04-12T08:37:03.999Z</time></trkpt><trkpt lat="43.65971011585319" lon="12.106923421066481"><ele>857.0</ele><time>2026-04-12T08:37:04.999Z</time></trkpt><trkpt lat="43.65952531166478" lon="12.107002873452078"><ele>855.3333333333334</ele><time>2026-04-12T08:37:05.999Z</time></trkpt><trkpt lat="43.65933256110492" lon="12.107041042526909"><ele>853.6666666666667</ele><time>2026-04-12T08:37:06.999Z</time></trkpt><trkpt lat="43.65912331062941" lon="12.107029681600748"><ele>852.0</ele><time>2026-04-12T08:37:07.999Z</time></trkpt><trkpt lat="43.65891647723383" lon="12.107017541752583"><ele>852.0</ele><time>2026-04-12T08:37:08.999Z</time></trkpt><trkpt lat="43.65873019491974" lon="12.106955963754169"><ele>852.0</ele><time>2026-04-12T08:37:09.999Z</time></trkpt><trkpt lat="43.658559550983384" lon="12.106900292607955"><ele>852.0</ele><time>2026-04-12T08:37:10.999Z</time></trkpt><trkpt lat="43.65841001911023" lon="12.106851336014063"><ele>850.75</ele><time>2026-04-12T08:37:11.999Z</time></trkpt><trkpt lat="43.658278679526944" lon="12.106822437969784"><ele>849.5</ele><time>2026-04-12T08:37:12.999Z</time></trkpt><trkpt lat="43.6581650843745" lon="12.10683352350519"><ele>848.25</ele><time>2026-04-12T08:37:13.999Z</time></trkpt><trkpt lat="43.65806696261749" lon="12.106908594604766"><ele>847.0</ele><time>2026-04-12T08:37:14.999Z</time></trkpt><trkpt lat="43.6579957145348" lon="12.107052089610123"><ele>847.0</ele><time>2026-04-12T08:37:15.999Z</time></trkpt><trkpt lat="43.65796695992179" lon="12.107256670893888"><ele>847.0</ele><time>2026-04-12T08:37:16.999Z</time></trkpt><trkpt lat="43.65797155293958" lon="12.107512593507794"><ele>847.0</ele><time>2026-04-12T08:37:17.999Z</time></trkpt><trkpt lat="43.6579800452336" lon="12.10779368156883"><ele>848.0</ele><time>2026-04-12T08:37:18.999Z</time></trkpt><trkpt lat="43.65797363066034" lon="12.108081357896628"><ele>849.0</ele><time>2026-04-12T08:37:19.999Z</time></trkpt><trkpt lat="43.65796334042443" lon="12.108367628077874"><ele>850.0</ele><time>2026-04-12T08:37:20.999Z</time></trkpt><trkpt lat="43.65793595366613" lon="12.108642302982338"><ele>850.3333333333333</ele><time>2026-04-12T08:37:21.999Z</time></trkpt><trkpt lat="43.6579253299643" lon="12.108898154076309"><ele>850.6666666666667</ele><time>2026-04-12T08:37:22.999Z</time></trkpt><trkpt lat="43.65791381778739" lon="12.109128651323736"><ele>851.0</ele><time>2026-04-12T08:37:23.999Z</time></trkpt><trkpt lat="43.65789258826531" lon="12.109323893214"><ele>849.3333333333334</ele><time>2026-04-12T08:37:24.999Z</time></trkpt><trkpt lat="43.657821505028814" lon="12.109497915208726"><ele>847.6666666666667</ele><time>2026-04-12T08:37:25.998Z</time></trkpt><trkpt lat="43.657690896210674" lon="12.109628147856675"><ele>846.0</ele><time>2026-04-12T08:37:26.998Z</time></trkpt><trkpt lat="43.65751821643092" lon="12.109741315185195"><ele>843.0</ele><time>2026-04-12T08:37:27.998Z</time></trkpt><trkpt lat="43.65732965570252" lon="12.109803718024642"><ele>840.0</ele><time>2026-04-12T08:37:28.998Z</time></trkpt><trkpt lat="43.65716050761396" lon="12.109879393699437"><ele>837.0</ele><time>2026-04-12T08:37:29.998Z</time></trkpt><trkpt lat="43.65702103483296" lon="12.109910595416764"><ele>835.0</ele><time>2026-04-12T08:37:31Z</time></trkpt><trkpt lat="43.65690797524702" lon="12.1099864567636"><ele>833.0</ele><time>2026-04-12T08:37:32Z</time></trkpt><trkpt lat="43.65682623166984" lon="12.110117182288427"><ele>831.0</ele><time>2026-04-12T08:37:33Z</time></trkpt><trkpt lat="43.656777221492646" lon="12.110276393929722"><ele>829.0</ele><time>2026-04-12T08:37:34Z</time></trkpt><trkpt lat="43.65677748173075" lon="12.11045743158328"><ele>829.0</ele><time>2026-04-12T08:37:35Z</time></trkpt><trkpt lat="43.656829588581616" lon="12.110640347531064"><ele>829.0</ele><time>2026-04-12T08:37:36Z</time></trkpt><trkpt lat="43.656939738961086" lon="12.11081852353649"><ele>829.0</ele><time>2026-04-12T08:37:37Z</time></trkpt><trkpt lat="43.65705415645835" lon="12.111017795323278"><ele>830.3333333333333</ele><time>2026-04-12T08:37:38Z</time></trkpt><trkpt lat="43.65705742776611" lon="12.111285772620759"><ele>831.6666666666667</ele><time>2026-04-12T08:37:39Z</time></trkpt><trkpt lat="43.657073114380694" lon="12.111541807227036"><ele>833.0</ele><time>2026-04-12T08:37:40Z</time></trkpt><trkpt lat="43.657084951232434" lon="12.111798800981346"><ele>833.0</ele><time>2026-04-12T08:37:41Z</time></trkpt><trkpt lat="43.65709713887824" lon="12.11205442143495"><ele>833.0</ele><time>2026-04-12T08:37:42Z</time></trkpt><trkpt lat="43.6570932058864" lon="12.112306639155657"><ele>833.0</ele><time>2026-04-12T08:37:43Z</time></trkpt><trkpt lat="43.657064295312345" lon="12.112561617870012"><ele>832.3333333333334</ele><time>2026-04-12T08:37:44Z</time></trkpt><trkpt lat="43.65702631167618" lon="12.11281570949934"><ele>831.6666666666667</ele><time>2026-04-12T08:37:45Z</time></trkpt><trkpt lat="43.65698581249204" lon="12.113054044318599"><ele>831.0</ele><time>2026-04-12T08:37:46Z</time></trkpt><trkpt lat="43.65694413526815" lon="12.113260236585923"><ele>828.0</ele><time>2026-04-12T08:37:47Z</time></trkpt><trkpt lat="43.65688572034191" lon="12.113437741867214"><ele>825.0</ele><time>2026-04-12T08:37:48Z</time></trkpt><trkpt lat="43.656757062273435" lon="12.113534212510368"><ele>822.0</ele><time>2026-04-12T08:37:49Z</time></trkpt><trkpt lat="43.65660669634803" lon="12.11357491271655"><ele>819.0</ele><time>2026-04-12T08:37:50Z</time></trkpt><trkpt lat="43.6564305536007" lon="12.113617762579965"><ele>819.0</ele><time>2026-04-12T08:37:51Z</time></trkpt><trkpt lat="43.65624079864305" lon="12.113664606602546"><ele>819.0</ele><time>2026-04-12T08:37:52Z</time></trkpt><trkpt lat="43.6560525733233" lon="12.113710640892773"><ele>819.0</ele><time>2026-04-12T08:37:53Z</time></trkpt><trkpt lat="43.65585762323838" lon="12.113762119549557"><ele>814.6666666666667</ele><time>2026-04-12T08:37:54Z</time></trkpt><trkpt lat="43.65565370193982" lon="12.113809885603022"><ele>810.3333333333334</ele><time>2026-04-12T08:37:55Z</time></trkpt><trkpt lat="43.6554506267875" lon="12.11385666539231"><ele>806.0</ele><time>2026-04-12T08:37:56Z</time></trkpt><trkpt lat="43.65525734616794" lon="12.113896378070915"><ele>803.3333333333334</ele><time>2026-04-12T08:37:57Z</time></trkpt><trkpt lat="43.65507228174013" lon="12.113935009412263"><ele>800.6666666666667</ele><time>2026-04-12T08:37:58Z</time></trkpt><trkpt lat="43.65489843084084" lon="12.113973248118738"><ele>798.0</ele><time>2026-04-12T08:37:59Z</time></trkpt><trkpt lat="43.65474431606209" lon="12.114013945086482"><ele>797.3333333333333</ele><time>2026-04-12T08:38:00Z</time></trkpt><trkpt lat="43.65460447145622" lon="12.114083298325536"><ele>796.6666666666666</ele><time>2026-04-12T08:38:01Z</time></trkpt><trkpt lat="43.654485375773845" lon="12.11420563663879"><ele>796.0</ele><time>2026-04-12T08:38:02Z</time></trkpt><trkpt lat="43.654392979759066" lon="12.114384557080855"><ele>796.0</ele><time>2026-04-12T08:38:03Z</time></trkpt><trkpt lat="43.654318245387465" lon="12.114599609688387"><ele>796.0</ele><time>2026-04-12T08:38:04Z</time></trkpt><trkpt lat="43.654246085686005" lon="12.11481369594461"><ele>796.0</ele><time>2026-04-12T08:38:05Z</time></trkpt><trkpt lat="43.65416324426755" lon="12.114986620360964"><ele>796.5999999999999</ele><time>2026-04-12T08:38:06Z</time></trkpt><trkpt lat="43.65410191834867" lon="12.115127528459508"><ele>797.2</ele><time>2026-04-12T08:38:07Z</time></trkpt><trkpt lat="43.654045192834154" lon="12.115245719442678"><ele>797.8</ele><time>2026-04-12T08:38:08Z</time></trkpt><trkpt lat="43.65397506093195" lon="12.115339597397766"><ele>798.4000000000001</ele><time>2026-04-12T08:38:09Z</time></trkpt><trkpt lat="43.65386477318716" lon="12.115354349383278"><ele>799.0</ele><time>2026-04-12T08:38:10Z</time></trkpt><trkpt lat="43.653756461980684" lon="12.11527988019671"><ele>799.0</ele><time>2026-04-12T08:38:11Z</time></trkpt><trkpt lat="43.65369119305453" lon="12.115126530641986"><ele>799.0</ele><time>2026-04-12T08:38:12Z</time></trkpt><trkpt lat="43.653686006445376" lon="12.114910917525185"><ele>799.0</ele><time>2026-04-12T08:38:12.999Z</time></trkpt><trkpt lat="43.65371687551865" lon="12.114682724896262"><ele>798.0</ele><time>2026-04-12T08:38:13.999Z</time></trkpt><trkpt lat="43.653756169569014" lon="12.114447286436933"><ele>797.0</ele><time>2026-04-12T08:38:14.999Z</time></trkpt><trkpt lat="43.65375951655575" lon="12.114195808285709"><ele>796.0</ele><time>2026-04-12T08:38:15.999Z</time></trkpt><trkpt lat="43.653717544464925" lon="12.113926626539344"><ele>794.0</ele><time>2026-04-12T08:38:16.999Z</time></trkpt><trkpt lat="43.65363434323621" lon="12.113662905663789"><ele>792.0</ele><time>2026-04-12T08:38:17.999Z</time></trkpt><trkpt lat="43.65353247307" lon="12.113396260402068"><ele>790.0</ele><time>2026-04-12T08:38:18.999Z</time></trkpt><trkpt lat="43.65343029039836" lon="12.113122631685453"><ele>786.6666666666666</ele><time>2026-04-12T08:38:19.999Z</time></trkpt><trkpt lat="43.65333309584258" lon="12.112847992319635"><ele>783.3333333333333</ele><time>2026-04-12T08:38:20.999Z</time></trkpt><trkpt lat="43.6532392117745" lon="12.112567861472579"><ele>780.0</ele><time>2026-04-12T08:38:21.999Z</time></trkpt><trkpt lat="43.65315294511907" lon="12.112295629299986"><ele>779.6666666666667</ele><time>2026-04-12T08:38:22.999Z</time></trkpt><trkpt lat="43.65306772921453" lon="12.11204216083248"><ele>779.3333333333334</ele><time>2026-04-12T08:38:23.999Z</time></trkpt><trkpt lat="43.652987022031745" lon="12.111795940320569"><ele>779.0</ele><time>2026-04-12T08:38:24.999Z</time></trkpt><trkpt lat="43.65290884682209" lon="12.111557475193557"><ele>779.6666666666667</ele><time>2026-04-12T08:38:25.999Z</time></trkpt><trkpt lat="43.65283621071928" lon="12.111337224328365"><ele>780.3333333333333</ele><time>2026-04-12T08:38:26.999Z</time></trkpt><trkpt lat="43.652763564047426" lon="12.111138353659072"><ele>781.0</ele><time>2026-04-12T08:38:27.999Z</time></trkpt><trkpt lat="43.65268192231795" lon="12.11097269494949"><ele>779.0</ele><time>2026-04-12T08:38:28.999Z</time></trkpt><trkpt lat="43.65257168461696" lon="12.110842368466221"><ele>777.0</ele><time>2026-04-12T08:38:29.999Z</time></trkpt><trkpt lat="43.65242668709449" lon="12.110759104712988"><ele>775.0</ele><time>2026-04-12T08:38:30.999Z</time></trkpt><trkpt lat="43.6522700286154" lon="12.110694412741626"><ele>775.0</ele><time>2026-04-12T08:38:31.999Z</time></trkpt><trkpt lat="43.652122670591595" lon="12.110632856105648"><ele>775.0</ele><time>2026-04-12T08:38:32.999Z</time></trkpt><trkpt lat="43.652004812266206" lon="12.110535963002869"><ele>775.0</ele><time>2026-04-12T08:38:33.999Z</time></trkpt><trkpt lat="43.651908473059386" lon="12.110388832737133"><ele>775.0</ele><time>2026-04-12T08:38:34.999Z</time></trkpt><trkpt lat="43.651871097064124" lon="12.1101844739958"><ele>772.0</ele><time>2026-04-12T08:38:35.999Z</time></trkpt><trkpt lat="43.65184684208309" lon="12.109965570734117"><ele>769.0</ele><time>2026-04-12T08:38:36.999Z</time></trkpt><trkpt lat="43.65182181719746" lon="12.10977094417975"><ele>766.0</ele><time>2026-04-12T08:38:37.999Z</time></trkpt><trkpt lat="43.65177615047988" lon="12.109603615405705"><ele>763.0</ele><time>2026-04-12T08:38:38.999Z</time></trkpt><trkpt lat="43.65167986606356" lon="12.10947164369064"><ele>763.0</ele><time>2026-04-12T08:38:39.999Z</time></trkpt><trkpt lat="43.651531402595836" lon="12.10939447696199"><ele>763.0</ele><time>2026-04-12T08:38:40.999Z</time></trkpt><trkpt lat="43.65136040592932" lon="12.10935201790475"><ele>763.0</ele><time>2026-04-12T08:38:41.999Z</time></trkpt><trkpt lat="43.65117315663619" lon="12.109329818820852"><ele>760.0</ele><time>2026-04-12T08:38:42.999Z</time></trkpt><trkpt lat="43.65099799072079" lon="12.109303064350025"><ele>757.0</ele><time>2026-04-12T08:38:43.999Z</time></trkpt><trkpt lat="43.65085188148804" lon="12.109242832346963"><ele>754.0</ele><time>2026-04-12T08:38:44.999Z</time></trkpt><trkpt lat="43.65073587823938" lon="12.109201928304882"><ele>751.0</ele><time>2026-04-12T08:38:45.999Z</time></trkpt><trkpt lat="43.65066013665184" lon="12.10909240048651"><ele>750.25</ele><time>2026-04-12T08:38:46.999Z</time></trkpt><trkpt lat="43.65063123501397" lon="12.108940069359155"><ele>749.5</ele><time>2026-04-12T08:38:47.999Z</time></trkpt><trkpt lat="43.650681572911715" lon="12.108775894313661"><ele>748.75</ele><time>2026-04-12T08:38:48.999Z</time></trkpt><trkpt lat="43.65078810301357" lon="12.10866418775564"><ele>748.0</ele><time>2026-04-12T08:38:49.999Z</time></trkpt><trkpt lat="43.65090029758698" lon="12.108519520686711"><ele>748.0</ele><time>2026-04-12T08:38:50.999Z</time></trkpt><trkpt lat="43.65102548210434" lon="12.108359678043067"><ele>748.0</ele><time>2026-04-12T08:38:51.999Z</time></trkpt><trkpt lat="43.65116266495545" lon="12.108183645745813"><ele>748.0</ele><time>2026-04-12T08:38:52.999Z</time></trkpt><trkpt lat="43.65129664900901" lon="12.10801210834147"><ele>748.3333333333334</ele><time>2026-04-12T08:38:53.999Z</time></trkpt><trkpt lat="43.651430754176076" lon="12.107830282918531"><ele>748.6666666666666</ele><time>2026-04-12T08:38:54.999Z</time></trkpt><trkpt lat="43.65156025810601" lon="12.107663379808534"><ele>749.0</ele><time>2026-04-12T08:38:55.999Z</time></trkpt><trkpt lat="43.65168047371647" lon="12.107511417910642"><ele>748.0</ele><time>2026-04-12T08:38:56.999Z</time></trkpt><trkpt lat="43.651777383877416" lon="12.107368824358868"><ele>747.0</ele><time>2026-04-12T08:38:57.999Z</time></trkpt><trkpt lat="43.65184646100506" lon="12.107209845364585"><ele>746.0</ele><time>2026-04-12T08:38:58.999Z</time></trkpt><trkpt lat="43.65187194990542" lon="12.107016813654488"><ele>745.0</ele><time>2026-04-12T08:38:59.999Z</time></trkpt><trkpt lat="43.651854625561306" lon="12.106780438252178"><ele>744.3333333333334</ele><time>2026-04-12T08:39:00.999Z</time></trkpt><trkpt lat="43.65181818022366" lon="12.106533571029557"><ele>743.6666666666666</ele><time>2026-04-12T08:39:01.999Z</time></trkpt><trkpt lat="43.651783519445765" lon="12.106306664867109"><ele>743.0</ele><time>2026-04-12T08:39:02.999Z</time></trkpt><trkpt lat="43.65173871303743" lon="12.106101624679603"><ele>743.0</ele><time>2026-04-12T08:39:03.999Z</time></trkpt><trkpt lat="43.65164997849921" lon="12.105915628581867"><ele>743.0</ele><time>2026-04-12T08:39:04.999Z</time></trkpt><trkpt lat="43.651517982001224" lon="12.105759741213374"><ele>743.0</ele><time>2026-04-12T08:39:05.999Z</time></trkpt><trkpt lat="43.651372562110794" lon="12.105615734899677"><ele>743.0</ele><time>2026-04-12T08:39:06.999Z</time></trkpt><trkpt lat="43.65126329118904" lon="12.105433548442207"><ele>743.0</ele><time>2026-04-12T08:39:07.999Z</time></trkpt><trkpt lat="43.65118347313285" lon="12.105213156653743"><ele>743.0</ele><time>2026-04-12T08:39:08.999Z</time></trkpt><trkpt lat="43.651159739734666" lon="12.104946775594358"><ele>743.0</ele><time>2026-04-12T08:39:09.999Z</time></trkpt><trkpt lat="43.65112246691365" lon="12.104684733940688"><ele>743.0</ele><time>2026-04-12T08:39:10.999Z</time></trkpt><trkpt lat="43.65112125665051" lon="12.104432638839858"><ele>743.0</ele><time>2026-04-12T08:39:11.999Z</time></trkpt><trkpt lat="43.651128762982665" lon="12.10419972603815"><ele>738.6666666666666</ele><time>2026-04-12T08:39:12.999Z</time></trkpt><trkpt lat="43.651106884577906" lon="12.103974119827571"><ele>734.3333333333334</ele><time>2026-04-12T08:39:13.999Z</time></trkpt><trkpt lat="43.65104049549937" lon="12.103759519919338"><ele>730.0</ele><time>2026-04-12T08:39:14.999Z</time></trkpt><trkpt lat="43.65092256824579" lon="12.103570366698586"><ele>730.0</ele><time>2026-04-12T08:39:15.999Z</time></trkpt><trkpt lat="43.65076726689993" lon="12.103414494970233"><ele>730.0</ele><time>2026-04-12T08:39:16.999Z</time></trkpt><trkpt lat="43.65059848498178" lon="12.103282433855906"><ele>730.0</ele><time>2026-04-12T08:39:17.999Z</time></trkpt><trkpt lat="43.6504229196688" lon="12.103181829199396"><ele>727.0</ele><time>2026-04-12T08:39:18.999Z</time></trkpt><trkpt lat="43.65028686304245" lon="12.103053889520945"><ele>724.0</ele><time>2026-04-12T08:39:19.999Z</time></trkpt><trkpt lat="43.650170147195595" lon="12.102944635947457"><ele>721.0</ele><time>2026-04-12T08:39:20.999Z</time></trkpt><trkpt lat="43.65007743010699" lon="12.102797071149496"><ele>718.0</ele><time>2026-04-12T08:39:21.999Z</time></trkpt><trkpt lat="43.650031354141134" lon="12.102617509369454"><ele>718.0</ele><time>2026-04-12T08:39:22.999Z</time></trkpt><trkpt lat="43.65000792460676" lon="12.102438919769384"><ele>718.0</ele><time>2026-04-12T08:39:23.999Z</time></trkpt><trkpt lat="43.65006252356973" lon="12.102262033031222"><ele>718.0</ele><time>2026-04-12T08:39:24.999Z</time></trkpt><trkpt lat="43.65013000578545" lon="12.102075273353007"><ele>718.0</ele><time>2026-04-12T08:39:25.999Z</time></trkpt><trkpt lat="43.650206051120584" lon="12.101865757612702"><ele>718.0</ele><time>2026-04-12T08:39:26.999Z</time></trkpt><trkpt lat="43.65029470157742" lon="12.101656872462078"><ele>718.0</ele><time>2026-04-12T08:39:27.999Z</time></trkpt><trkpt lat="43.650328013264776" lon="12.101409161431784"><ele>718.0</ele><time>2026-04-12T08:39:28.999Z</time></trkpt><trkpt lat="43.650326361242" lon="12.101137473018936"><ele>718.0</ele><time>2026-04-12T08:39:29.999Z</time></trkpt><trkpt lat="43.65029384202484" lon="12.10084307865736"><ele>718.0</ele><time>2026-04-12T08:39:30.999Z</time></trkpt><trkpt lat="43.65026883175113" lon="12.100540592247818"><ele>718.0</ele><time>2026-04-12T08:39:31.999Z</time></trkpt><trkpt lat="43.6502477388075" lon="12.100229826037024"><ele>716.5</ele><time>2026-04-12T08:39:32.999Z</time></trkpt><trkpt lat="43.65023341348782" lon="12.099918149208511"><ele>715.0</ele><time>2026-04-12T08:39:33.999Z</time></trkpt><trkpt lat="43.65021744348047" lon="12.09960525397583"><ele>715.0</ele><time>2026-04-12T08:39:34.999Z</time></trkpt><trkpt lat="43.65020046970405" lon="12.099309023062089"><ele>715.0</ele><time>2026-04-12T08:39:35.999Z</time></trkpt><trkpt lat="43.65018982104287" lon="12.099034726234901"><ele>715.0</ele><time>2026-04-12T08:39:37Z</time></trkpt><trkpt lat="43.65018030721555" lon="12.09878373396966"><ele>713.6666666666667</ele><time>2026-04-12T08:39:38Z</time></trkpt><trkpt lat="43.650166617883585" lon="12.09854392445389"><ele>712.3333333333334</ele><time>2026-04-12T08:39:39Z</time></trkpt><trkpt lat="43.6501322372038" lon="12.098331207431789"><ele>711.0</ele><time>2026-04-12T08:39:40Z</time></trkpt><trkpt lat="43.65005866328859" lon="12.098134289841214"><ele>707.0</ele><time>2026-04-12T08:39:41Z</time></trkpt><trkpt lat="43.649937297202925" lon="12.097955892106235"><ele>703.0</ele><time>2026-04-12T08:39:42Z</time></trkpt><trkpt lat="43.649806425633614" lon="12.097789476053913"><ele>699.0</ele><time>2026-04-12T08:39:43Z</time></trkpt><trkpt lat="43.64974116053736" lon="12.09761501592529"><ele>699.0</ele><time>2026-04-12T08:39:44Z</time></trkpt><trkpt lat="43.649705855045156" lon="12.097436022370475"><ele>699.0</ele><time>2026-04-12T08:39:45Z</time></trkpt><trkpt lat="43.649750824803704" lon="12.09725199356909"><ele>699.0</ele><time>2026-04-12T08:39:46Z</time></trkpt><trkpt lat="43.64977548119649" lon="12.097078341233676"><ele>699.0</ele><time>2026-04-12T08:39:47Z</time></trkpt><trkpt lat="43.64979177971622" lon="12.09692328149943"><ele>698.5</ele><time>2026-04-12T08:39:48Z</time></trkpt><trkpt lat="43.6497389183849" lon="12.096778893691665"><ele>698.0</ele><time>2026-04-12T08:39:49Z</time></trkpt><trkpt lat="43.649637422914985" lon="12.096664713224566"><ele>697.5</ele><time>2026-04-12T08:39:50Z</time></trkpt><trkpt lat="43.64950027721965" lon="12.09660734381163"><ele>697.0</ele><time>2026-04-12T08:39:51Z</time></trkpt><trkpt lat="43.64932986594692" lon="12.09661058262529"><ele>697.0</ele><time>2026-04-12T08:39:52Z</time></trkpt><trkpt lat="43.64916304490141" lon="12.096659684398617"><ele>697.0</ele><time>2026-04-12T08:39:53Z</time></trkpt><trkpt lat="43.64900107559131" lon="12.096702689023909"><ele>697.0</ele><time>2026-04-12T08:39:54Z</time></trkpt><trkpt lat="43.648852234398554" lon="12.096706098257451"><ele>697.0</ele><time>2026-04-12T08:39:55Z</time></trkpt><trkpt lat="43.64871323906112" lon="12.096658582551525"><ele>697.0</ele><time>2026-04-12T08:39:56Z</time></trkpt><trkpt lat="43.64860338494018" lon="12.096523487258345"><ele>697.0</ele><time>2026-04-12T08:39:57Z</time></trkpt><trkpt lat="43.64848609968647" lon="12.096359939629712"><ele>693.6666666666667</ele><time>2026-04-12T08:39:58Z</time></trkpt><trkpt lat="43.64836344557524" lon="12.096186625758504"><ele>690.3333333333334</ele><time>2026-04-12T08:39:59Z</time></trkpt><trkpt lat="43.64827871968621" lon="12.095979209717983"><ele>687.0</ele><time>2026-04-12T08:40:00Z</time></trkpt><trkpt lat="43.64822159751406" lon="12.0957812381007"><ele>684.0</ele><time>2026-04-12T08:40:01Z</time></trkpt><trkpt lat="43.64815037274233" lon="12.095627537613813"><ele>681.0</ele><time>2026-04-12T08:40:02Z</time></trkpt><trkpt lat="43.64804515744126" lon="12.095512689262396"><ele>678.0</ele><time>2026-04-12T08:40:03Z</time></trkpt><trkpt lat="43.64790256228486" lon="12.095454687080679"><ele>675.0</ele><time>2026-04-12T08:40:04Z</time></trkpt><trkpt lat="43.64774380318166" lon="12.095437718973253"><ele>675.0</ele><time>2026-04-12T08:40:05Z</time></trkpt><trkpt lat="43.64760535978828" lon="12.095430784987794"><ele>675.0</ele><time>2026-04-12T08:40:06Z</time></trkpt><trkpt lat="43.64748665704862" lon="12.095442990656693"><ele>675.0</ele><time>2026-04-12T08:40:07Z</time></trkpt><trkpt lat="43.647386417755065" lon="12.095505899717454"><ele>675.0</ele><time>2026-04-12T08:40:08Z</time></trkpt><trkpt lat="43.64731523160317" lon="12.095639519145916"><ele>677.0</ele><time>2026-04-12T08:40:09Z</time></trkpt><trkpt lat="43.647293012568404" lon="12.095819140146805"><ele>679.0</ele><time>2026-04-12T08:40:10Z</time></trkpt><trkpt lat="43.647315144881254" lon="12.096024685017625"><ele>681.0</ele><time>2026-04-12T08:40:11Z</time></trkpt><trkpt lat="43.647346883384394" lon="12.096263894076099"><ele>681.0</ele><time>2026-04-12T08:40:12Z</time></trkpt><trkpt lat="43.64734158873905" lon="12.09651572933767"><ele>681.0</ele><time>2026-04-12T08:40:13Z</time></trkpt><trkpt lat="43.647290702471516" lon="12.096764776437746"><ele>681.0</ele><time>2026-04-12T08:40:14Z</time></trkpt><trkpt lat="43.64724570884196" lon="12.097011742553264"><ele>683.0</ele><time>2026-04-12T08:40:15Z</time></trkpt><trkpt lat="43.6472422077486" lon="12.097270388830783"><ele>685.0</ele><time>2026-04-12T08:40:16Z</time></trkpt><trkpt lat="43.6472722152347" lon="12.097542662072179"><ele>687.0</ele><time>2026-04-12T08:40:17Z</time></trkpt><trkpt lat="43.64730552666341" lon="12.097816666522547"><ele>687.3333333333334</ele><time>2026-04-12T08:40:18Z</time></trkpt><trkpt lat="43.64732332791176" lon="12.098075567320839"><ele>687.6666666666667</ele><time>2026-04-12T08:40:19Z</time></trkpt><trkpt lat="43.64734570432989" lon="12.098301882609945"><ele>688.0</ele><time>2026-04-12T08:40:20Z</time></trkpt><trkpt lat="43.64735878402154" lon="12.098510324806224"><ele>687.3333333333334</ele><time>2026-04-12T08:40:21Z</time></trkpt><trkpt lat="43.64733737162204" lon="12.098716142853778"><ele>686.6666666666666</ele><time>2026-04-12T08:40:22Z</time></trkpt><trkpt lat="43.647231139659624" lon="12.098887201516135"><ele>686.0</ele><time>2026-04-12T08:40:23Z</time></trkpt><trkpt lat="43.6471080842699" lon="12.099026470035643"><ele>684.75</ele><time>2026-04-12T08:40:24Z</time></trkpt><trkpt lat="43.646993653236045" lon="12.099160732680048"><ele>683.5</ele><time>2026-04-12T08:40:25Z</time></trkpt><trkpt lat="43.64689458034526" lon="12.09928551121992"><ele>682.25</ele><time>2026-04-12T08:40:26Z</time></trkpt><trkpt lat="43.646847700025646" lon="12.099445513572721"><ele>681.0</ele><time>2026-04-12T08:40:27Z</time></trkpt><trkpt lat="43.64687352580478" lon="12.099628830890644"><ele>681.0</ele><time>2026-04-12T08:40:28Z</time></trkpt><trkpt lat="43.6469554799871" lon="12.09978480141156"><ele>681.0</ele><time>2026-04-12T08:40:29Z</time></trkpt><trkpt lat="43.64707172348255" lon="12.099912434897023"><ele>681.0</ele><time>2026-04-12T08:40:30Z</time></trkpt><trkpt lat="43.64714918835678" lon="12.10006048341034"><ele>681.0</ele><time>2026-04-12T08:40:31Z</time></trkpt><trkpt lat="43.647144744381485" lon="12.100264488608563"><ele>678.6666666666666</ele><time>2026-04-12T08:40:32Z</time></trkpt><trkpt lat="43.64707355792683" lon="12.100465988437834"><ele>676.3333333333333</ele><time>2026-04-12T08:40:33Z</time></trkpt><trkpt lat="43.64701227776989" lon="12.100708216737091"><ele>674.0</ele><time>2026-04-12T08:40:34Z</time></trkpt><trkpt lat="43.64697228187419" lon="12.100952507858654"><ele>669.6666666666666</ele><time>2026-04-12T08:40:35Z</time></trkpt><trkpt lat="43.64691116729428" lon="12.101179473245038"><ele>665.3333333333334</ele><time>2026-04-12T08:40:36Z</time></trkpt><trkpt lat="43.646806222099734" lon="12.101376889639676"><ele>661.0</ele><time>2026-04-12T08:40:37Z</time></trkpt><trkpt lat="43.64666430662593" lon="12.101560479583036"><ele>661.3333333333334</ele><time>2026-04-12T08:40:38Z</time></trkpt><trkpt lat="43.64650695658844" lon="12.101735196220687"><ele>661.6666666666666</ele><time>2026-04-12T08:40:39Z</time></trkpt><trkpt lat="43.64633445932032" lon="12.10191026245173"><ele>662.0</ele><time>2026-04-12T08:40:40Z</time></trkpt><trkpt lat="43.64617059598452" lon="12.102099341048833"><ele>659.3333333333333</ele><time>2026-04-12T08:40:41Z</time></trkpt><trkpt lat="43.64601051845593" lon="12.102254404148855"><ele>656.6666666666666</ele><time>2026-04-12T08:40:42Z</time></trkpt><trkpt lat="43.64585834590349" lon="12.102400561180476"><ele>654.0</ele><time>2026-04-12T08:40:43Z</time></trkpt><trkpt lat="43.64571884585808" lon="12.102549403354695"><ele>654.0</ele><time>2026-04-12T08:40:44Z</time></trkpt><trkpt lat="43.64558850516178" lon="12.102715453783729"><ele>654.0</ele><time>2026-04-12T08:40:45Z</time></trkpt><trkpt lat="43.645480932715664" lon="12.102901914389834"><ele>654.0</ele><time>2026-04-12T08:40:46Z</time></trkpt><trkpt lat="43.64540416802684" lon="12.103119472820465"><ele>655.0</ele><time>2026-04-12T08:40:47Z</time></trkpt><trkpt lat="43.645357075165336" lon="12.103375021878097"><ele>656.0</ele><time>2026-04-12T08:40:48Z</time></trkpt><trkpt lat="43.64534000754767" lon="12.103654399455781"><ele>657.0</ele><time>2026-04-12T08:40:49Z</time></trkpt><trkpt lat="43.64535693577008" lon="12.103953909584678"><ele>656.3333333333334</ele><time>2026-04-12T08:40:50Z</time></trkpt><trkpt lat="43.64537360359041" lon="12.104254301477136"><ele>655.6666666666667</ele><time>2026-04-12T08:40:51Z</time></trkpt><trkpt lat="43.64538121208034" lon="12.104532484103455"><ele>655.0</ele><time>2026-04-12T08:40:52Z</time></trkpt><trkpt lat="43.64540388689386" lon="12.104797824273824"><ele>654.25</ele><time>2026-04-12T08:40:53Z</time></trkpt><trkpt lat="43.645428948162696" lon="12.105009109373764"><ele>653.5</ele><time>2026-04-12T08:40:54Z</time></trkpt><trkpt lat="43.64549109057367" lon="12.105199761687931"><ele>652.75</ele><time>2026-04-12T08:40:55Z</time></trkpt><trkpt lat="43.64552443660451" lon="12.10537295053014"><ele>652.0</ele><time>2026-04-12T08:40:56Z</time></trkpt><trkpt lat="43.64552536815963" lon="12.105525647009882"><ele>652.0</ele><time>2026-04-12T08:40:57Z</time></trkpt><trkpt lat="43.64549012414294" lon="12.105675356921587"><ele>652.0</ele><time>2026-04-12T08:40:58Z</time></trkpt><trkpt lat="43.64538471819193" lon="12.105760357895043"><ele>652.0</ele><time>2026-04-12T08:40:59Z</time></trkpt><trkpt lat="43.645245973225215" lon="12.105915497501497"><ele>652.0</ele><time>2026-04-12T08:41:00Z</time></trkpt><trkpt lat="43.64511938727224" lon="12.106120935784707"><ele>648.0</ele><time>2026-04-12T08:41:01Z</time></trkpt><trkpt lat="43.645001035567574" lon="12.106353415389835"><ele>644.0</ele><time>2026-04-12T08:41:02Z</time></trkpt><trkpt lat="43.64489613159544" lon="12.106585638352422"><ele>640.0</ele><time>2026-04-12T08:41:03Z</time></trkpt><trkpt lat="43.64474231114428" lon="12.106765660418732"><ele>640.0</ele><time>2026-04-12T08:41:03.999Z</time></trkpt><trkpt lat="43.64457717791948" lon="12.106929349723375"><ele>640.0</ele><time>2026-04-12T08:41:04.999Z</time></trkpt><trkpt lat="43.644391737110226" lon="12.107063606823278"><ele>640.0</ele><time>2026-04-12T08:41:05.999Z</time></trkpt><trkpt lat="43.644214246236544" lon="12.10717781191521"><ele>634.0</ele><time>2026-04-12T08:41:06.999Z</time></trkpt><trkpt lat="43.64405642557096" lon="12.107266542019728"><ele>628.0</ele><time>2026-04-12T08:41:07.999Z</time></trkpt><trkpt lat="43.643907383063826" lon="12.107243107026514"><ele>622.0</ele><time>2026-04-12T08:41:08.999Z</time></trkpt><trkpt lat="43.64374660540112" lon="12.107187984620179"><ele>620.0</ele><time>2026-04-12T08:41:09.999Z</time></trkpt><trkpt lat="43.643564105398056" lon="12.107161530453668"><ele>618.0</ele><time>2026-04-12T08:41:10.999Z</time></trkpt><trkpt lat="43.64338413081485" lon="12.107146791161435"><ele>616.0</ele><time>2026-04-12T08:41:11.999Z</time></trkpt><trkpt lat="43.64319636194128" lon="12.107211886638671"><ele>616.0</ele><time>2026-04-12T08:41:12.999Z</time></trkpt><trkpt lat="43.64300417661341" lon="12.107305460929064"><ele>616.0</ele><time>2026-04-12T08:41:13.999Z</time></trkpt><trkpt lat="43.64280082973191" lon="12.107390876415746"><ele>616.0</ele><time>2026-04-12T08:41:14.999Z</time></trkpt><trkpt lat="43.642591229371654" lon="12.107472906172028"><ele>616.3333333333334</ele><time>2026-04-12T08:41:15.999Z</time></trkpt><trkpt lat="43.642389374089824" lon="12.10754784016482"><ele>616.6666666666666</ele><time>2026-04-12T08:41:16.999Z</time></trkpt><trkpt lat="43.642203321439844" lon="12.107621427592374"><ele>617.0</ele><time>2026-04-12T08:41:17.999Z</time></trkpt><trkpt lat="43.6420131277734" lon="12.107719625055541"><ele>616.6666666666666</ele><time>2026-04-12T08:41:18.999Z</time></trkpt><trkpt lat="43.64182927566592" lon="12.107871841665242"><ele>616.3333333333334</ele><time>2026-04-12T08:41:19.999Z</time></trkpt><trkpt lat="43.6416505095268" lon="12.10806309239822"><ele>616.0</ele><time>2026-04-12T08:41:20.999Z</time></trkpt><trkpt lat="43.641455314875735" lon="12.108272651746141"><ele>616.0</ele><time>2026-04-12T08:41:21.999Z</time></trkpt><trkpt lat="43.64124805001626" lon="12.108479725436158"><ele>616.0</ele><time>2026-04-12T08:41:22.999Z</time></trkpt><trkpt lat="43.64103894478403" lon="12.108682105631873"><ele>611.5</ele><time>2026-04-12T08:41:23.999Z</time></trkpt><trkpt lat="43.64084431968203" lon="12.108868820777394"><ele>607.0</ele><time>2026-04-12T08:41:24.999Z</time></trkpt><trkpt lat="43.640651323234664" lon="12.109011144668697"><ele>607.3333333333334</ele><time>2026-04-12T08:41:25.999Z</time></trkpt><trkpt lat="43.64046362084124" lon="12.109124575768313"><ele>607.6666666666666</ele><time>2026-04-12T08:41:26.999Z</time></trkpt><trkpt lat="43.640293031050724" lon="12.10923690232859"><ele>608.0</ele><time>2026-04-12T08:41:27.999Z</time></trkpt><trkpt lat="43.64013928218734" lon="12.109299667747587"><ele>606.5</ele><time>2026-04-12T08:41:28.999Z</time></trkpt><trkpt lat="43.64000883827605" lon="12.109360531684324"><ele>605.0</ele><time>2026-04-12T08:41:29.999Z</time></trkpt><trkpt lat="43.63989978745174" lon="12.109446287017766"><ele>603.5</ele><time>2026-04-12T08:41:30.999Z</time></trkpt><trkpt lat="43.639821214105545" lon="12.109577089780252"><ele>602.0</ele><time>2026-04-12T08:41:31.999Z</time></trkpt><trkpt lat="43.6397905139407" lon="12.109751568554506"><ele>601.6666666666666</ele><time>2026-04-12T08:41:32.999Z</time></trkpt><trkpt lat="43.639810547452896" lon="12.109955833333917"><ele>601.3333333333334</ele><time>2026-04-12T08:41:33.999Z</time></trkpt><trkpt lat="43.63987262975843" lon="12.110173304622357"><ele>601.0</ele><time>2026-04-12T08:41:34.999Z</time></trkpt><trkpt lat="43.639955894216506" lon="12.110419192189495"><ele>601.0</ele><time>2026-04-12T08:41:35.999Z</time></trkpt><trkpt lat="43.6400205610257" lon="12.110673421858857"><ele>601.0</ele><time>2026-04-12T08:41:36.999Z</time></trkpt><trkpt lat="43.640075380458796" lon="12.11094262228523"><ele>601.0</ele><time>2026-04-12T08:41:37.999Z</time></trkpt><trkpt lat="43.64011753412648" lon="12.111226879584217"><ele>599.0</ele><time>2026-04-12T08:41:38.999Z</time></trkpt><trkpt lat="43.64016054060706" lon="12.111512572436443"><ele>597.0</ele><time>2026-04-12T08:41:39.999Z</time></trkpt><trkpt lat="43.640204215111595" lon="12.111767757087174"><ele>595.0</ele><time>2026-04-12T08:41:40.999Z</time></trkpt><trkpt lat="43.640250087086436" lon="12.111999425736071"><ele>593.5</ele><time>2026-04-12T08:41:41.999Z</time></trkpt><trkpt lat="43.64028823093831" lon="12.112202678757217"><ele>592.0</ele><time>2026-04-12T08:41:43Z</time></trkpt><trkpt lat="43.64029465066523" lon="12.112373901551909"><ele>590.5</ele><time>2026-04-12T08:41:44Z</time></trkpt><trkpt lat="43.64026911884168" lon="12.112529931977166"><ele>589.0</ele><time>2026-04-12T08:41:45Z</time></trkpt><trkpt lat="43.640199734528984" lon="12.112636810512994"><ele>588.75</ele><time>2026-04-12T08:41:46Z</time></trkpt><trkpt lat="43.64011936511427" lon="12.11271042087331"><ele>588.5</ele><time>2026-04-12T08:41:47Z</time></trkpt><trkpt lat="43.64001505512736" lon="12.112672775074289"><ele>588.25</ele><time>2026-04-12T08:41:48Z</time></trkpt><trkpt lat="43.63982437430299" lon="12.112650342022578"><ele>588.0</ele><time>2026-04-12T08:41:49Z</time></trkpt><trkpt lat="43.63965716977599" lon="12.112643866014873"><ele>588.0</ele><time>2026-04-12T08:41:50Z</time></trkpt><trkpt lat="43.639483262197125" lon="12.112704021151995"><ele>588.0</ele><time>2026-04-12T08:41:51Z</time></trkpt><trkpt lat="43.63930593281742" lon="12.112805591157125"><ele>588.0</ele><time>2026-04-12T08:41:52Z</time></trkpt><trkpt lat="43.63912881498941" lon="12.112918613933312"><ele>584.6666666666666</ele><time>2026-04-12T08:41:53Z</time></trkpt><trkpt lat="43.63895165563767" lon="12.112999067995508"><ele>581.3333333333333</ele><time>2026-04-12T08:41:54Z</time></trkpt><trkpt lat="43.63877661141493" lon="12.113058360460702"><ele>578.0</ele><time>2026-04-12T08:41:55Z</time></trkpt><trkpt lat="43.63861027678592" lon="12.113098100770735"><ele>576.0</ele><time>2026-04-12T08:41:56Z</time></trkpt><trkpt lat="43.63845288395902" lon="12.113106045613945"><ele>574.0</ele><time>2026-04-12T08:41:57Z</time></trkpt><trkpt lat="43.63829942058192" lon="12.113090397287655"><ele>572.0</ele><time>2026-04-12T08:41:58Z</time></trkpt><trkpt lat="43.63815080350088" lon="12.11303404764441"><ele>572.0</ele><time>2026-04-12T08:41:59Z</time></trkpt><trkpt lat="43.63801492430395" lon="12.112935646562631"><ele>572.0</ele><time>2026-04-12T08:42:00Z</time></trkpt><trkpt lat="43.637899467763816" lon="12.11282636114266"><ele>572.0</ele><time>2026-04-12T08:42:01Z</time></trkpt><trkpt lat="43.637789610145376" lon="12.112738287090137"><ele>572.0</ele><time>2026-04-12T08:42:02Z</time></trkpt><trkpt lat="43.63766958962291" lon="12.112696272153219"><ele>571.5</ele><time>2026-04-12T08:42:03Z</time></trkpt><trkpt lat="43.63753331480438" lon="12.112713981082129"><ele>571.0</ele><time>2026-04-12T08:42:04Z</time></trkpt><trkpt lat="43.637388967633754" lon="12.112770815379767"><ele>570.5</ele><time>2026-04-12T08:42:05Z</time></trkpt><trkpt lat="43.63724098821001" lon="12.1128586669669"><ele>570.0</ele><time>2026-04-12T08:42:06Z</time></trkpt><trkpt lat="43.63706950077422" lon="12.112930167162595"><ele>567.0</ele><time>2026-04-12T08:42:07Z</time></trkpt><trkpt lat="43.63689495080658" lon="12.11301140966054"><ele>564.0</ele><time>2026-04-12T08:42:08Z</time></trkpt><trkpt lat="43.63671179760326" lon="12.113069674052351"><ele>561.0</ele><time>2026-04-12T08:42:09Z</time></trkpt><trkpt lat="43.636527072041446" lon="12.113094001338844"><ele>561.0</ele><time>2026-04-12T08:42:10Z</time></trkpt><trkpt lat="43.63634594781154" lon="12.113121701177846"><ele>561.0</ele><time>2026-04-12T08:42:11Z</time></trkpt><trkpt lat="43.63617646528239" lon="12.113119860721064"><ele>561.0</ele><time>2026-04-12T08:42:12Z</time></trkpt><trkpt lat="43.636025756901375" lon="12.11312177928379"><ele>562.0</ele><time>2026-04-12T08:42:13Z</time></trkpt><trkpt lat="43.6359038748461" lon="12.113126177017019"><ele>563.0</ele><time>2026-04-12T08:42:14Z</time></trkpt><trkpt lat="43.63580333148615" lon="12.113137197588884"><ele>564.0</ele><time>2026-04-12T08:42:14.999Z</time></trkpt><trkpt lat="43.63574305961393" lon="12.113210875997671"><ele>565.0</ele><time>2026-04-12T08:42:15.999Z</time></trkpt><trkpt lat="43.63567814797819" lon="12.113299390367905"><ele>566.0</ele><time>2026-04-12T08:42:16.999Z</time></trkpt><trkpt lat="43.63568764183856" lon="12.11343416206633"><ele>566.0</ele><time>2026-04-12T08:42:17.999Z</time></trkpt><trkpt lat="43.63574400153521" lon="12.113561107676185"><ele>566.0</ele><time>2026-04-12T08:42:18.999Z</time></trkpt><trkpt lat="43.635841238543755" lon="12.11366054377352"><ele>566.0</ele><time>2026-04-12T08:42:19.999Z</time></trkpt><trkpt lat="43.63593346576101" lon="12.113739482051852"><ele>566.0</ele><time>2026-04-12T08:42:20.999Z</time></trkpt><trkpt lat="43.635968401504535" lon="12.113868342225562"><ele>566.0</ele><time>2026-04-12T08:42:21.999Z</time></trkpt><trkpt lat="43.63597235643075" lon="12.1140085515847"><ele>565.5</ele><time>2026-04-12T08:42:22.999Z</time></trkpt><trkpt lat="43.63590035400205" lon="12.114138373792517"><ele>565.0</ele><time>2026-04-12T08:42:23.999Z</time></trkpt><trkpt lat="43.6358105035307" lon="12.114212292834582"><ele>564.5</ele><time>2026-04-12T08:42:24.999Z</time></trkpt><trkpt lat="43.635703698480484" lon="12.114225452327828"><ele>564.0</ele><time>2026-04-12T08:42:25.999Z</time></trkpt><trkpt lat="43.63559738401773" lon="12.114112957075653"><ele>564.6666666666666</ele><time>2026-04-12T08:42:26.999Z</time></trkpt><trkpt lat="43.635457792342564" lon="12.114023870300413"><ele>565.3333333333333</ele><time>2026-04-12T08:42:27.999Z</time></trkpt><trkpt lat="43.63529872067415" lon="12.113913390010147"><ele>566.0</ele><time>2026-04-12T08:42:28.999Z</time></trkpt><trkpt lat="43.63511399136565" lon="12.113852495880677"><ele>562.0</ele><time>2026-04-12T08:42:29.999Z</time></trkpt><trkpt lat="43.634904133317335" lon="12.113822490380574"><ele>558.0</ele><time>2026-04-12T08:42:30.999Z</time></trkpt><trkpt lat="43.63470714820368" lon="12.113816872718642"><ele>554.0</ele><time>2026-04-12T08:42:31.999Z</time></trkpt><trkpt lat="43.63452461128714" lon="12.113827057070285"><ele>551.0</ele><time>2026-04-12T08:42:32.999Z</time></trkpt><trkpt lat="43.63435826765615" lon="12.113846306204337"><ele>548.0</ele><time>2026-04-12T08:42:33.999Z</time></trkpt><trkpt lat="43.63420849663662" lon="12.11389136168989"><ele>545.0</ele><time>2026-04-12T08:42:34.999Z</time></trkpt><trkpt lat="43.63406458014524" lon="12.113997095925745"><ele>543.6666666666666</ele><time>2026-04-12T08:42:35.999Z</time></trkpt><trkpt lat="43.633922357090185" lon="12.114182641696294"><ele>542.3333333333334</ele><time>2026-04-12T08:42:36.999Z</time></trkpt><trkpt lat="43.633773291015004" lon="12.11437449828609"><ele>541.0</ele><time>2026-04-12T08:42:37.999Z</time></trkpt><trkpt lat="43.633629289394115" lon="12.114567267633927"><ele>541.0</ele><time>2026-04-12T08:42:38.999Z</time></trkpt><trkpt lat="43.63349250779812" lon="12.114772922447232"><ele>541.0</ele><time>2026-04-12T08:42:39.999Z</time></trkpt><trkpt lat="43.633366322576855" lon="12.115000718520253"><ele>541.0</ele><time>2026-04-12T08:42:40.999Z</time></trkpt><trkpt lat="43.633253559119396" lon="12.115247380908519"><ele>542.3333333333334</ele><time>2026-04-12T08:42:41.999Z</time></trkpt><trkpt lat="43.63315120246611" lon="12.115488550627989"><ele>543.6666666666666</ele><time>2026-04-12T08:42:42.999Z</time></trkpt><trkpt lat="43.633060476743864" lon="12.115716189190847"><ele>545.0</ele><time>2026-04-12T08:42:43.999Z</time></trkpt><trkpt lat="43.63297875012127" lon="12.115927048921362"><ele>546.0</ele><time>2026-04-12T08:42:44.999Z</time></trkpt><trkpt lat="43.63291716676874" lon="12.116124586299208"><ele>547.0</ele><time>2026-04-12T08:42:45.999Z</time></trkpt><trkpt lat="43.63288749352676" lon="12.116329620518211"><ele>548.0</ele><time>2026-04-12T08:42:46.999Z</time></trkpt><trkpt lat="43.63290254153223" lon="12.11654350713998"><ele>546.0</ele><time>2026-04-12T08:42:47.999Z</time></trkpt><trkpt lat="43.63296659737536" lon="12.116753146386179"><ele>544.0</ele><time>2026-04-12T08:42:48.999Z</time></trkpt><trkpt lat="43.6330884102972" lon="12.116935676238034"><ele>542.0</ele><time>2026-04-12T08:42:49.999Z</time></trkpt><trkpt lat="43.633248116577015" lon="12.117079399972626"><ele>542.0</ele><time>2026-04-12T08:42:50.999Z</time></trkpt><trkpt lat="43.63340259978258" lon="12.117206858142126"><ele>542.0</ele><time>2026-04-12T08:42:51.999Z</time></trkpt><trkpt lat="43.633524970672866" lon="12.117348264389472"><ele>542.0</ele><time>2026-04-12T08:42:52.999Z</time></trkpt><trkpt lat="43.633629062689" lon="12.117462256545023"><ele>543.4</ele><time>2026-04-12T08:42:53.999Z</time></trkpt><trkpt lat="43.63371440693992" lon="12.117552236485473"><ele>544.8000000000001</ele><time>2026-04-12T08:42:54.999Z</time></trkpt><trkpt lat="43.6337744759714" lon="12.117633586629232"><ele>546.2</ele><time>2026-04-12T08:42:55.999Z</time></trkpt><trkpt lat="43.63377445484956" lon="12.117751267567835"><ele>547.6</ele><time>2026-04-12T08:42:56.999Z</time></trkpt><trkpt lat="43.633729975175775" lon="12.117854855371393"><ele>549.0</ele><time>2026-04-12T08:42:57.999Z</time></trkpt><trkpt lat="43.63363458584272" lon="12.117898475352645"><ele>542.6666666666666</ele><time>2026-04-12T08:42:58.999Z</time></trkpt><trkpt lat="43.63350523203377" lon="12.117865299030228"><ele>536.3333333333333</ele><time>2026-04-12T08:42:59.999Z</time></trkpt><trkpt lat="43.633365721289756" lon="12.117755878697377"><ele>530.0</ele><time>2026-04-12T08:43:00.999Z</time></trkpt><trkpt lat="43.63317540253764" lon="12.117652534424192"><ele>530.0</ele><time>2026-04-12T08:43:01.999Z</time></trkpt><trkpt lat="43.63297161006865" lon="12.117537464415904"><ele>530.0</ele><time>2026-04-12T08:43:02.999Z</time></trkpt><trkpt lat="43.63275375360115" lon="12.11743353263751"><ele>530.0</ele><time>2026-04-12T08:43:03.999Z</time></trkpt><trkpt lat="43.632516698069956" lon="12.117332266221839"><ele>530.0</ele><time>2026-04-12T08:43:04.999Z</time></trkpt><trkpt lat="43.63227287877264" lon="12.117212982415722"><ele>530.0</ele><time>2026-04-12T08:43:05.999Z</time></trkpt><trkpt lat="43.632035075402634" lon="12.117149639451515"><ele>530.0</ele><time>2026-04-12T08:43:06.999Z</time></trkpt><trkpt lat="43.631819906609714" lon="12.117057990517639"><ele>525.6666666666666</ele><time>2026-04-12T08:43:07.999Z</time></trkpt><trkpt lat="43.631627786974036" lon="12.116915063490154"><ele>521.3333333333334</ele><time>2026-04-12T08:43:08.999Z</time></trkpt><trkpt lat="43.631435327036904" lon="12.116800037954267"><ele>517.0</ele><time>2026-04-12T08:43:09.999Z</time></trkpt><trkpt lat="43.63127787999802" lon="12.116676138111004"><ele>517.0</ele><time>2026-04-12T08:43:10.999Z</time></trkpt><trkpt lat="43.631144976728145" lon="12.116579639128156"><ele>517.0</ele><time>2026-04-12T08:43:11.999Z</time></trkpt><trkpt lat="43.63103187524322" lon="12.116496752780009"><ele>517.0</ele><time>2026-04-12T08:43:12.999Z</time></trkpt><trkpt lat="43.63094150850199" lon="12.116427402935205"><ele>517.0</ele><time>2026-04-12T08:43:13.999Z</time></trkpt><trkpt lat="43.63086572539313" lon="12.116392358496173"><ele>514.4</ele><time>2026-04-12T08:43:14.999Z</time></trkpt><trkpt lat="43.63078950059777" lon="12.116406633937483"><ele>511.80000000000007</ele><time>2026-04-12T08:43:15.999Z</time></trkpt><trkpt lat="43.63073767633375" lon="12.116503786502676"><ele>509.2</ele><time>2026-04-12T08:43:16.999Z</time></trkpt><trkpt lat="43.630744297345146" lon="12.11663863999368"><ele>506.6</ele><time>2026-04-12T08:43:17.999Z</time></trkpt><trkpt lat="43.63080825058525" lon="12.116770197896566"><ele>504.0</ele><time>2026-04-12T08:43:18.999Z</time></trkpt><trkpt lat="43.63091999438264" lon="12.116855472515372"><ele>504.0</ele><time>2026-04-12T08:43:19.999Z</time></trkpt><trkpt lat="43.631018357908964" lon="12.116948809829266"><ele>504.0</ele><time>2026-04-12T08:43:20.999Z</time></trkpt><trkpt lat="43.631071211329555" lon="12.11706536245099"><ele>504.0</ele><time>2026-04-12T08:43:21.999Z</time></trkpt><trkpt lat="43.63106077371573" lon="12.11723070021667"><ele>504.0</ele><time>2026-04-12T08:43:22.999Z</time></trkpt><trkpt lat="43.63095387275398" lon="12.117349372685075"><ele>504.0</ele><time>2026-04-12T08:43:23.999Z</time></trkpt><trkpt lat="43.63085921092749" lon="12.117433866021749"><ele>504.0</ele><time>2026-04-12T08:43:24.999Z</time></trkpt><trkpt lat="43.630732913573375" lon="12.117470545771663"><ele>504.0</ele><time>2026-04-12T08:43:25.999Z</time></trkpt><trkpt lat="43.630603773667055" lon="12.117363967524128"><ele>504.0</ele><time>2026-04-12T08:43:26.999Z</time></trkpt><trkpt lat="43.630432796622024" lon="12.117288803029737"><ele>502.33333333333337</ele><time>2026-04-12T08:43:27.999Z</time></trkpt><trkpt lat="43.63026000674384" lon="12.1171756979314"><ele>500.6666666666667</ele><time>2026-04-12T08:43:28.999Z</time></trkpt><trkpt lat="43.63008833942761" lon="12.117083797418152"><ele>499.0</ele><time>2026-04-12T08:43:29.999Z</time></trkpt><trkpt lat="43.62989939073813" lon="12.117008434274032"><ele>499.0</ele><time>2026-04-12T08:43:30.999Z</time></trkpt><trkpt lat="43.62970832979578" lon="12.116972366007344"><ele>499.0</ele><time>2026-04-12T08:43:31.999Z</time></trkpt><trkpt lat="43.629530590434335" lon="12.116963844769037"><ele>499.0</ele><time>2026-04-12T08:43:32.999Z</time></trkpt><trkpt lat="43.629342069704826" lon="12.117017068794821"><ele>496.6666666666667</ele><time>2026-04-12T08:43:33.999Z</time></trkpt><trkpt lat="43.629159815341644" lon="12.117121816093912"><ele>494.33333333333337</ele><time>2026-04-12T08:43:34.999Z</time></trkpt><trkpt lat="43.628997076789545" lon="12.117270651590648"><ele>492.0</ele><time>2026-04-12T08:43:35.999Z</time></trkpt><trkpt lat="43.628855994233014" lon="12.117423503745426"><ele>494.66666666666663</ele><time>2026-04-12T08:43:36.999Z</time></trkpt><trkpt lat="43.628716740818824" lon="12.117535197544722"><ele>497.3333333333333</ele><time>2026-04-12T08:43:37.999Z</time></trkpt><trkpt lat="43.628563548941116" lon="12.117525478358992"><ele>500.0</ele><time>2026-04-12T08:43:38.998Z</time></trkpt><trkpt lat="43.62840044284184" lon="12.11749201456213"><ele>500.0</ele><time>2026-04-12T08:43:39.998Z</time></trkpt><trkpt lat="43.628232385732275" lon="12.117477054788784"><ele>500.0</ele><time>2026-04-12T08:43:40.998Z</time></trkpt><trkpt lat="43.62806938239729" lon="12.117516553557937"><ele>500.0</ele><time>2026-04-12T08:43:41.998Z</time></trkpt><trkpt lat="43.62790892336591" lon="12.117624717843162"><ele>497.3333333333333</ele><time>2026-04-12T08:43:42.998Z</time></trkpt><trkpt lat="43.62775176859904" lon="12.11778733808843"><ele>494.66666666666663</ele><time>2026-04-12T08:43:43.998Z</time></trkpt><trkpt lat="43.62759149423897" lon="12.117968516380907"><ele>492.0</ele><time>2026-04-12T08:43:44.998Z</time></trkpt><trkpt lat="43.627427178314896" lon="12.118139303693495"><ele>493.33333333333337</ele><time>2026-04-12T08:43:45.998Z</time></trkpt><trkpt lat="43.6272631750712" lon="12.118306233040931"><ele>494.6666666666667</ele><time>2026-04-12T08:43:46.998Z</time></trkpt><trkpt lat="43.62711185098636" lon="12.118460943057002"><ele>496.0</ele><time>2026-04-12T08:43:47.998Z</time></trkpt><trkpt lat="43.62697154590727" lon="12.11860204991591"><ele>496.0</ele><time>2026-04-12T08:43:49Z</time></trkpt><trkpt lat="43.626845671825805" lon="12.118712281741507"><ele>496.0</ele><time>2026-04-12T08:43:50Z</time></trkpt><trkpt lat="43.6267152793363" lon="12.118780214257999"><ele>496.0</ele><time>2026-04-12T08:43:51Z</time></trkpt><trkpt lat="43.62656692818304" lon="12.118793336155035"><ele>496.0</ele><time>2026-04-12T08:43:52Z</time></trkpt><trkpt lat="43.62639253559241" lon="12.11875830741122"><ele>496.0</ele><time>2026-04-12T08:43:53Z</time></trkpt><trkpt lat="43.62620757780314" lon="12.11872064239933"><ele>496.0</ele><time>2026-04-12T08:43:54Z</time></trkpt><trkpt lat="43.626012138879794" lon="12.11872933621114"><ele>496.0</ele><time>2026-04-12T08:43:55Z</time></trkpt><trkpt lat="43.62581776988543" lon="12.118772912866262"><ele>495.0</ele><time>2026-04-12T08:43:56Z</time></trkpt><trkpt lat="43.62562352088661" lon="12.118826106251797"><ele>494.0</ele><time>2026-04-12T08:43:57Z</time></trkpt><trkpt lat="43.62542500240123" lon="12.118876729423976"><ele>493.0</ele><time>2026-04-12T08:43:58Z</time></trkpt><trkpt lat="43.62522247173933" lon="12.118925434535933"><ele>489.33333333333337</ele><time>2026-04-12T08:43:59Z</time></trkpt><trkpt lat="43.62502601553587" lon="12.118972451683371"><ele>485.66666666666663</ele><time>2026-04-12T08:44:00Z</time></trkpt><trkpt lat="43.62484291651976" lon="12.119019845733632"><ele>482.0</ele><time>2026-04-12T08:44:01Z</time></trkpt><trkpt lat="43.62466181721366" lon="12.119050130383753"><ele>485.0</ele><time>2026-04-12T08:44:02Z</time></trkpt><trkpt lat="43.62448552107869" lon="12.119073301813767"><ele>488.0</ele><time>2026-04-12T08:44:03Z</time></trkpt><trkpt lat="43.62429930722261" lon="12.119078283730754"><ele>491.0</ele><time>2026-04-12T08:44:04Z</time></trkpt><trkpt lat="43.62410578657194" lon="12.11907343910864"><ele>486.0</ele><time>2026-04-12T08:44:05Z</time></trkpt><trkpt lat="43.62390670949733" lon="12.119063716553558"><ele>481.0</ele><time>2026-04-12T08:44:06Z</time></trkpt><trkpt lat="43.623701819822294" lon="12.119058024820125"><ele>476.0</ele><time>2026-04-12T08:44:07Z</time></trkpt><trkpt lat="43.623491891560235" lon="12.119051978572514"><ele>475.3333333333333</ele><time>2026-04-12T08:44:08Z</time></trkpt><trkpt lat="43.62327881051527" lon="12.119041284977419"><ele>474.66666666666663</ele><time>2026-04-12T08:44:09Z</time></trkpt><trkpt lat="43.62306678895631" lon="12.119030067612767"><ele>474.0</ele><time>2026-04-12T08:44:10Z</time></trkpt><trkpt lat="43.622853896717054" lon="12.119012966598792"><ele>472.33333333333337</ele><time>2026-04-12T08:44:11Z</time></trkpt><trkpt lat="43.622648716410836" lon="12.11899736676465"><ele>470.6666666666667</ele><time>2026-04-12T08:44:12Z</time></trkpt><trkpt lat="43.62244838184454" lon="12.118987253984363"><ele>469.0</ele><time>2026-04-12T08:44:13Z</time></trkpt><trkpt lat="43.62224889964863" lon="12.118988311070686"><ele>469.0</ele><time>2026-04-12T08:44:14Z</time></trkpt><trkpt lat="43.62205141753163" lon="12.119003009653662"><ele>469.0</ele><time>2026-04-12T08:44:15Z</time></trkpt><trkpt lat="43.62185701756904" lon="12.119032344316564"><ele>469.0</ele><time>2026-04-12T08:44:16Z</time></trkpt><trkpt lat="43.62166930758281" lon="12.119060720387616"><ele>469.33333333333337</ele><time>2026-04-12T08:44:17Z</time></trkpt><trkpt lat="43.621488690160746" lon="12.119080859570753"><ele>469.66666666666663</ele><time>2026-04-12T08:44:18Z</time></trkpt><trkpt lat="43.62131069858803" lon="12.119079154552328"><ele>470.0</ele><time>2026-04-12T08:44:19Z</time></trkpt><trkpt lat="43.621138203535786" lon="12.119035115636121"><ele>468.66666666666663</ele><time>2026-04-12T08:44:20Z</time></trkpt><trkpt lat="43.6209826757696" lon="12.118913987281909"><ele>467.33333333333337</ele><time>2026-04-12T08:44:21Z</time></trkpt><trkpt lat="43.62082248698305" lon="12.118769504265183"><ele>466.0</ele><time>2026-04-12T08:44:22Z</time></trkpt><trkpt lat="43.62065193541563" lon="12.118628784889241"><ele>466.0</ele><time>2026-04-12T08:44:23Z</time></trkpt><trkpt lat="43.62049329884843" lon="12.118476390942215"><ele>466.0</ele><time>2026-04-12T08:44:24Z</time></trkpt><trkpt lat="43.62035614084946" lon="12.118303989521246"><ele>466.0</ele><time>2026-04-12T08:44:25Z</time></trkpt><trkpt lat="43.620269883862186" lon="12.118072826601002"><ele>464.33333333333337</ele><time>2026-04-12T08:44:26Z</time></trkpt><trkpt lat="43.62017057357642" lon="12.117851571516573"><ele>462.66666666666663</ele><time>2026-04-12T08:44:27Z</time></trkpt><trkpt lat="43.6200868872527" lon="12.117645793553777"><ele>461.0</ele><time>2026-04-12T08:44:28Z</time></trkpt><trkpt lat="43.62000473708363" lon="12.117471148126807"><ele>460.0</ele><time>2026-04-12T08:44:29Z</time></trkpt><trkpt lat="43.61990634031411" lon="12.117347377667542"><ele>459.0</ele><time>2026-04-12T08:44:30Z</time></trkpt><trkpt lat="43.61977474045224" lon="12.117295284002996"><ele>458.0</ele><time>2026-04-12T08:44:30.999Z</time></trkpt><trkpt lat="43.619629356866845" lon="12.117313762216607"><ele>457.0</ele><time>2026-04-12T08:44:31.999Z</time></trkpt><trkpt lat="43.619479327229755" lon="12.1173948670485"><ele>458.33333333333337</ele><time>2026-04-12T08:44:32.999Z</time></trkpt><trkpt lat="43.619323370813575" lon="12.117523224763634"><ele>459.66666666666663</ele><time>2026-04-12T08:44:33.999Z</time></trkpt><trkpt lat="43.61915038177238" lon="12.117647953456324"><ele>461.0</ele><time>2026-04-12T08:44:34.999Z</time></trkpt><trkpt lat="43.61896148502574" lon="12.117703696939953"><ele>461.0</ele><time>2026-04-12T08:44:35.999Z</time></trkpt><trkpt lat="43.61875984610361" lon="12.117734052673809"><ele>461.0</ele><time>2026-04-12T08:44:36.999Z</time></trkpt><trkpt lat="43.6185446639856" lon="12.117742705759513"><ele>461.0</ele><time>2026-04-12T08:44:37.999Z</time></trkpt><trkpt lat="43.618333383635246" lon="12.117751854302503"><ele>460.66666666666663</ele><time>2026-04-12T08:44:38.999Z</time></trkpt><trkpt lat="43.61813876150338" lon="12.117721798493148"><ele>460.33333333333337</ele><time>2026-04-12T08:44:39.999Z</time></trkpt><trkpt lat="43.61794813342655" lon="12.1176903233891"><ele>460.0</ele><time>2026-04-12T08:44:40.999Z</time></trkpt><trkpt lat="43.61776669253336" lon="12.11769868648279"><ele>460.0</ele><time>2026-04-12T08:44:41.999Z</time></trkpt><trkpt lat="43.61758476845526" lon="12.11775330338581"><ele>460.0</ele><time>2026-04-12T08:44:42.999Z</time></trkpt><trkpt lat="43.61741392084784" lon="12.117861590281759"><ele>460.0</ele><time>2026-04-12T08:44:43.999Z</time></trkpt><trkpt lat="43.617258382015905" lon="12.118021597022516"><ele>460.0</ele><time>2026-04-12T08:44:44.999Z</time></trkpt><trkpt lat="43.617117704292134" lon="12.118222888204327"><ele>460.0</ele><time>2026-04-12T08:44:45.999Z</time></trkpt><trkpt lat="43.61698658091063" lon="12.11843807960254"><ele>460.0</ele><time>2026-04-12T08:44:46.999Z</time></trkpt><trkpt lat="43.61688431296854" lon="12.11866823407672"><ele>462.0</ele><time>2026-04-12T08:44:47.999Z</time></trkpt><trkpt lat="43.61680010738178" lon="12.11887480273253"><ele>464.0</ele><time>2026-04-12T08:44:48.999Z</time></trkpt><trkpt lat="43.61672193523974" lon="12.119044148221668"><ele>466.0</ele><time>2026-04-12T08:44:49.999Z</time></trkpt><trkpt lat="43.61663670991291" lon="12.119187532460973"><ele>467.25</ele><time>2026-04-12T08:44:50.999Z</time></trkpt><trkpt lat="43.616522760968365" lon="12.11926595989948"><ele>468.5</ele><time>2026-04-12T08:44:51.999Z</time></trkpt><trkpt lat="43.616397063157756" lon="12.119287201659773"><ele>469.75</ele><time>2026-04-12T08:44:52.999Z</time></trkpt><trkpt lat="43.616284940998966" lon="12.119254077124417"><ele>471.0</ele><time>2026-04-12T08:44:53.999Z</time></trkpt><trkpt lat="43.616196001055144" lon="12.119157316621703"><ele>469.75</ele><time>2026-04-12T08:44:54.999Z</time></trkpt><trkpt lat="43.616147798121155" lon="12.119020859662292"><ele>468.5</ele><time>2026-04-12T08:44:55.999Z</time></trkpt><trkpt lat="43.616140904321625" lon="12.118857228879966"><ele>467.25</ele><time>2026-04-12T08:44:56.999Z</time></trkpt><trkpt lat="43.61623930594209" lon="12.118691582415966"><ele>466.0</ele><time>2026-04-12T08:44:57.999Z</time></trkpt><trkpt lat="43.616324904581006" lon="12.118509812025167"><ele>466.0</ele><time>2026-04-12T08:44:58.999Z</time></trkpt><trkpt lat="43.6163984716149" lon="12.11834339026313"><ele>466.0</ele><time>2026-04-12T08:44:59.999Z</time></trkpt><trkpt lat="43.616424843416674" lon="12.118141720518544"><ele>466.0</ele><time>2026-04-12T08:45:00.999Z</time></trkpt><trkpt lat="43.61642197051022" lon="12.117950071128696"><ele>466.0</ele><time>2026-04-12T08:45:01.999Z</time></trkpt><trkpt lat="43.6163856006628" lon="12.117788611338334"><ele>467.0</ele><time>2026-04-12T08:45:02.999Z</time></trkpt><trkpt lat="43.61630084611038" lon="12.11767171752397"><ele>468.0</ele><time>2026-04-12T08:45:03.999Z</time></trkpt><trkpt lat="43.61616772107209" lon="12.117605404863324"><ele>469.0</ele><time>2026-04-12T08:45:04.999Z</time></trkpt><trkpt lat="43.61600089616796" lon="12.117594243454333"><ele>470.0</ele><time>2026-04-12T08:45:05.999Z</time></trkpt><trkpt lat="43.61580268629126" lon="12.117615077473053"><ele>470.0</ele><time>2026-04-12T08:45:06.999Z</time></trkpt><trkpt lat="43.61561753424884" lon="12.117597685549928"><ele>470.0</ele><time>2026-04-12T08:45:07.999Z</time></trkpt><trkpt lat="43.615437449010074" lon="12.117581871654238"><ele>470.0</ele><time>2026-04-12T08:45:08.999Z</time></trkpt><trkpt lat="43.61530236918339" lon="12.11741595128681"><ele>471.3333333333333</ele><time>2026-04-12T08:45:09.999Z</time></trkpt><trkpt lat="43.61515955220572" lon="12.117224036988102"><ele>472.66666666666663</ele><time>2026-04-12T08:45:10.999Z</time></trkpt><trkpt lat="43.6150084172052" lon="12.117015347210115"><ele>474.0</ele><time>2026-04-12T08:45:11.999Z</time></trkpt><trkpt lat="43.61486666868636" lon="12.116795923314411"><ele>474.0</ele><time>2026-04-12T08:45:12.999Z</time></trkpt><trkpt lat="43.61472819898111" lon="12.116601376992863"><ele>474.0</ele><time>2026-04-12T08:45:13.999Z</time></trkpt><trkpt lat="43.614594153110176" lon="12.116447656929182"><ele>474.0</ele><time>2026-04-12T08:45:14.999Z</time></trkpt><trkpt lat="43.614460212563635" lon="12.116322682801668"><ele>476.0</ele><time>2026-04-12T08:45:15.999Z</time></trkpt><trkpt lat="43.61432884739741" lon="12.116237891929574"><ele>478.0</ele><time>2026-04-12T08:45:16.999Z</time></trkpt><trkpt lat="43.614227358174915" lon="12.116146238435816"><ele>480.0</ele><time>2026-04-12T08:45:17.999Z</time></trkpt><trkpt lat="43.61418634991616" lon="12.11598621515618"><ele>482.0</ele><time>2026-04-12T08:45:18.999Z</time></trkpt><trkpt lat="43.614202538677624" lon="12.115824196451868"><ele>479.0</ele><time>2026-04-12T08:45:19.999Z</time></trkpt><trkpt lat="43.61428225105059" lon="12.115633571042645"><ele>476.0</ele><time>2026-04-12T08:45:20.999Z</time></trkpt><trkpt lat="43.614328632046586" lon="12.115419241798659"><ele>473.0</ele><time>2026-04-12T08:45:21.999Z</time></trkpt><trkpt lat="43.61433432992186" lon="12.115213330509318"><ele>473.0</ele><time>2026-04-12T08:45:22.999Z</time></trkpt><trkpt lat="43.61430405327075" lon="12.115037809834266"><ele>473.0</ele><time>2026-04-12T08:45:23.999Z</time></trkpt><trkpt lat="43.61421347706718" lon="12.114901313335714"><ele>473.0</ele><time>2026-04-12T08:45:24.999Z</time></trkpt><trkpt lat="43.61407820029377" lon="12.114819580737413"><ele>473.0</ele><time>2026-04-12T08:45:25.999Z</time></trkpt><trkpt lat="43.61389626080735" lon="12.11479851519029"><ele>470.0</ele><time>2026-04-12T08:45:26.999Z</time></trkpt><trkpt lat="43.61368887871483" lon="12.114776655664246"><ele>467.0</ele><time>2026-04-12T08:45:27.999Z</time></trkpt><trkpt lat="43.61347380865644" lon="12.114749207200399"><ele>464.0</ele><time>2026-04-12T08:45:28.999Z</time></trkpt><trkpt lat="43.61327623420464" lon="12.114718890400356"><ele>464.0</ele><time>2026-04-12T08:45:29.999Z</time></trkpt><trkpt lat="43.61310650764692" lon="12.114660878544973"><ele>464.0</ele><time>2026-04-12T08:45:30.999Z</time></trkpt><trkpt lat="43.61294942373287" lon="12.114602389570665"><ele>464.0</ele><time>2026-04-12T08:45:31.999Z</time></trkpt><trkpt lat="43.612804867771416" lon="12.11454162174157"><ele>467.0</ele><time>2026-04-12T08:45:32.999Z</time></trkpt><trkpt lat="43.6127566808502" lon="12.114293776335384"><ele>470.0</ele><time>2026-04-12T08:45:33.999Z</time></trkpt><trkpt lat="43.61267193840426" lon="12.114035924885107"><ele>473.0</ele><time>2026-04-12T08:45:34.999Z</time></trkpt><trkpt lat="43.61254031111773" lon="12.113830351543506"><ele>473.0</ele><time>2026-04-12T08:45:35.999Z</time></trkpt><trkpt lat="43.612410680493284" lon="12.113591504693154"><ele>473.0</ele><time>2026-04-12T08:45:36.999Z</time></trkpt><trkpt lat="43.61226719899569" lon="12.1133513179051"><ele>473.0</ele><time>2026-04-12T08:45:37.999Z</time></trkpt><trkpt lat="43.61212358375309" lon="12.11312230428637"><ele>474.0</ele><time>2026-04-12T08:45:38.999Z</time></trkpt><trkpt lat="43.61196884111776" lon="12.112910217777694"><ele>475.0</ele><time>2026-04-12T08:45:39.999Z</time></trkpt><trkpt lat="43.61179724868497" lon="12.112719245180854"><ele>476.0</ele><time>2026-04-12T08:45:40.999Z</time></trkpt><trkpt lat="43.61162842617547" lon="12.112518101282749"><ele>471.66666666666663</ele><time>2026-04-12T08:45:41.999Z</time></trkpt><trkpt lat="43.61147499538431" lon="12.112290581759169"><ele>467.33333333333337</ele><time>2026-04-12T08:45:42.999Z</time></trkpt><trkpt lat="43.61134105106258" lon="12.112053543900945"><ele>463.0</ele><time>2026-04-12T08:45:43.999Z</time></trkpt><trkpt lat="43.611204461797804" lon="12.11181372802549"><ele>465.0</ele><time>2026-04-12T08:45:44.999Z</time></trkpt><trkpt lat="43.61107848034089" lon="12.11159215727637"><ele>467.0</ele><time>2026-04-12T08:45:45.999Z</time></trkpt><trkpt lat="43.610953738726295" lon="12.111396299439532"><ele>469.0</ele><time>2026-04-12T08:45:46.999Z</time></trkpt><trkpt lat="43.61081917260096" lon="12.111239437647754"><ele>469.0</ele><time>2026-04-12T08:45:47.999Z</time></trkpt><trkpt lat="43.610670766669955" lon="12.111113188771448"><ele>469.0</ele><time>2026-04-12T08:45:48.999Z</time></trkpt><trkpt lat="43.61052107226191" lon="12.111014037340361"><ele>469.0</ele><time>2026-04-12T08:45:49.999Z</time></trkpt><trkpt lat="43.610379342848354" lon="12.11095322747781"><ele>471.33333333333337</ele><time>2026-04-12T08:45:50.999Z</time></trkpt><trkpt lat="43.610229223798626" lon="12.110964510035753"><ele>473.66666666666663</ele><time>2026-04-12T08:45:51.999Z</time></trkpt><trkpt lat="43.6100681223584" lon="12.111042998529765"><ele>476.0</ele><time>2026-04-12T08:45:52.999Z</time></trkpt><trkpt lat="43.60991898199413" lon="12.111138446228848"><ele>476.0</ele><time>2026-04-12T08:45:54Z</time></trkpt><trkpt lat="43.609778920945736" lon="12.11120438279949"><ele>476.0</ele><time>2026-04-12T08:45:55Z</time></trkpt><trkpt lat="43.609650805975406" lon="12.111162505883001"><ele>476.0</ele><time>2026-04-12T08:45:56Z</time></trkpt><trkpt lat="43.609546681609906" lon="12.111052648490224"><ele>476.0</ele><time>2026-04-12T08:45:57Z</time></trkpt><trkpt lat="43.609477551459534" lon="12.11089234337873"><ele>474.25</ele><time>2026-04-12T08:45:58Z</time></trkpt><trkpt lat="43.60941309876834" lon="12.110723062999545"><ele>472.5</ele><time>2026-04-12T08:45:59Z</time></trkpt><trkpt lat="43.60932758100443" lon="12.110614743897944"><ele>470.75</ele><time>2026-04-12T08:46:00Z</time></trkpt><trkpt lat="43.60921891406695" lon="12.11053142435385"><ele>469.0</ele><time>2026-04-12T08:46:01Z</time></trkpt><trkpt lat="43.60907293169072" lon="12.110540965983107"><ele>469.0</ele><time>2026-04-12T08:46:02Z</time></trkpt><trkpt lat="43.60893640309812" lon="12.110623418130501"><ele>469.0</ele><time>2026-04-12T08:46:03Z</time></trkpt><trkpt lat="43.60880867974831" lon="12.110706167035396"><ele>469.0</ele><time>2026-04-12T08:46:04Z</time></trkpt><trkpt lat="43.608712486209804" lon="12.110700656373258"><ele>469.0</ele><time>2026-04-12T08:46:05Z</time></trkpt><trkpt lat="43.608637630355084" lon="12.110552490546217"><ele>472.6666666666667</ele><time>2026-04-12T08:46:06Z</time></trkpt><trkpt lat="43.608594380929304" lon="12.110361444086536"><ele>476.33333333333337</ele><time>2026-04-12T08:46:07Z</time></trkpt><trkpt lat="43.608496501400396" lon="12.110169872369623"><ele>480.0</ele><time>2026-04-12T08:46:08Z</time></trkpt><trkpt lat="43.60842040277814" lon="12.109968965876448"><ele>476.0</ele><time>2026-04-12T08:46:09Z</time></trkpt><trkpt lat="43.60832782268253" lon="12.109819768733876"><ele>472.0</ele><time>2026-04-12T08:46:10Z</time></trkpt><trkpt lat="43.60818173706624" lon="12.10973058444828"><ele>468.0</ele><time>2026-04-12T08:46:11Z</time></trkpt><trkpt lat="43.60800956671053" lon="12.109717528855871"><ele>468.0</ele><time>2026-04-12T08:46:12Z</time></trkpt><trkpt lat="43.60783627745664" lon="12.10978449725912"><ele>468.0</ele><time>2026-04-12T08:46:13Z</time></trkpt><trkpt lat="43.60767854677935" lon="12.109845080174106"><ele>468.0</ele><time>2026-04-12T08:46:14Z</time></trkpt><trkpt lat="43.60751153007645" lon="12.109793623630257"><ele>470.33333333333337</ele><time>2026-04-12T08:46:15Z</time></trkpt><trkpt lat="43.60736419139774" lon="12.109655277767693"><ele>472.6666666666667</ele><time>2026-04-12T08:46:16Z</time></trkpt><trkpt lat="43.60724697777912" lon="12.109436728841557"><ele>475.0</ele><time>2026-04-12T08:46:17Z</time></trkpt><trkpt lat="43.60717088733151" lon="12.109169572838493"><ele>475.6666666666667</ele><time>2026-04-12T08:46:18Z</time></trkpt><trkpt lat="43.60710968069717" lon="12.108912360834458"><ele>476.33333333333337</ele><time>2026-04-12T08:46:19Z</time></trkpt><trkpt lat="43.60701577489427" lon="12.108677894811088"><ele>477.0</ele><time>2026-04-12T08:46:20Z</time></trkpt><trkpt lat="43.60687157105457" lon="12.108482406605269"><ele>477.0</ele><time>2026-04-12T08:46:21Z</time></trkpt><trkpt lat="43.60672234891254" lon="12.108350006054195"><ele>477.0</ele><time>2026-04-12T08:46:22Z</time></trkpt><trkpt lat="43.60659336689621" lon="12.108271247866341"><ele>477.0</ele><time>2026-04-12T08:46:23Z</time></trkpt><trkpt lat="43.60646190639539" lon="12.10825417132718"><ele>477.0</ele><time>2026-04-12T08:46:24Z</time></trkpt><trkpt lat="43.606312679919654" lon="12.108310843267402"><ele>477.0</ele><time>2026-04-12T08:46:25Z</time></trkpt><trkpt lat="43.60616485244507" lon="12.108435100083828"><ele>477.0</ele><time>2026-04-12T08:46:26Z</time></trkpt><trkpt lat="43.60604094123685" lon="12.108583949403144"><ele>478.0</ele><time>2026-04-12T08:46:27Z</time></trkpt><trkpt lat="43.60588781030237" lon="12.108629974302868"><ele>479.0</ele><time>2026-04-12T08:46:28Z</time></trkpt><trkpt lat="43.605719716407165" lon="12.108541555271344"><ele>480.0</ele><time>2026-04-12T08:46:29Z</time></trkpt><trkpt lat="43.60556842374774" lon="12.108389717942238"><ele>480.0</ele><time>2026-04-12T08:46:30Z</time></trkpt><trkpt lat="43.6054310953488" lon="12.108275400282803"><ele>480.0</ele><time>2026-04-12T08:46:31Z</time></trkpt><trkpt lat="43.60527739022288" lon="12.10823991399564"><ele>480.0</ele><time>2026-04-12T08:46:32Z</time></trkpt><trkpt lat="43.60511353181675" lon="12.108313206263569"><ele>480.33333333333337</ele><time>2026-04-12T08:46:33Z</time></trkpt><trkpt lat="43.60494977150462" lon="12.108446421188463"><ele>480.6666666666667</ele><time>2026-04-12T08:46:34Z</time></trkpt><trkpt lat="43.604793469333266" lon="12.108593139844672"><ele>481.0</ele><time>2026-04-12T08:46:35Z</time></trkpt><trkpt lat="43.6046270788976" lon="12.10869309021849"><ele>480.33333333333337</ele><time>2026-04-12T08:46:36Z</time></trkpt><trkpt lat="43.604441843801794" lon="12.108700134804117"><ele>479.66666666666663</ele><time>2026-04-12T08:46:37Z</time></trkpt><trkpt lat="43.60424193270307" lon="12.108616774785228"><ele>479.0</ele><time>2026-04-12T08:46:38Z</time></trkpt><trkpt lat="43.604031872164384" lon="12.108507785538343"><ele>479.0</ele><time>2026-04-12T08:46:39Z</time></trkpt><trkpt lat="43.6038152764573" lon="12.108429781035333"><ele>479.0</ele><time>2026-04-12T08:46:40Z</time></trkpt><trkpt lat="43.60361488394022" lon="12.108384109359829"><ele>479.0</ele><time>2026-04-12T08:46:41Z</time></trkpt><trkpt lat="43.60344249549159" lon="12.108351957389626"><ele>479.0</ele><time>2026-04-12T08:46:42Z</time></trkpt><trkpt lat="43.60328699901663" lon="12.108296212147824"><ele>479.0</ele><time>2026-04-12T08:46:43Z</time></trkpt><trkpt lat="43.60315855989681" lon="12.108186878366228"><ele>479.0</ele><time>2026-04-12T08:46:44Z</time></trkpt><trkpt lat="43.60307811250686" lon="12.10801784036424"><ele>479.0</ele><time>2026-04-12T08:46:45Z</time></trkpt><trkpt lat="43.60304496313198" lon="12.107799091755727"><ele>479.0</ele><time>2026-04-12T08:46:46Z</time></trkpt><trkpt lat="43.603031138746786" lon="12.107560185814592"><ele>479.0</ele><time>2026-04-12T08:46:47Z</time></trkpt><trkpt lat="43.60297679437399" lon="12.10734174557113"><ele>479.3333333333333</ele><time>2026-04-12T08:46:48Z</time></trkpt><trkpt lat="43.60287201976647" lon="12.10715866836333"><ele>479.66666666666663</ele><time>2026-04-12T08:46:49Z</time></trkpt><trkpt lat="43.60273935296939" lon="12.107033091208747"><ele>480.0</ele><time>2026-04-12T08:46:50Z</time></trkpt><trkpt lat="43.60254963521436" lon="12.1069696483291"><ele>480.0</ele><time>2026-04-12T08:46:51Z</time></trkpt><trkpt lat="43.60233988645462" lon="12.106959264482228"><ele>480.0</ele><time>2026-04-12T08:46:52Z</time></trkpt><trkpt lat="43.602115812673105" lon="12.106949204807565"><ele>480.0</ele><time>2026-04-12T08:46:53Z</time></trkpt><trkpt lat="43.60188062337159" lon="12.106942636036731"><ele>479.5</ele><time>2026-04-12T08:46:54Z</time></trkpt><trkpt lat="43.60162859535745" lon="12.106923364612683"><ele>479.0</ele><time>2026-04-12T08:46:55Z</time></trkpt><trkpt lat="43.60140464551806" lon="12.106892461435693"><ele>479.0</ele><time>2026-04-12T08:46:56Z</time></trkpt><trkpt lat="43.601202624056285" lon="12.106865154130384"><ele>479.0</ele><time>2026-04-12T08:46:57Z</time></trkpt><trkpt lat="43.60101899381439" lon="12.106844391945483"><ele>479.0</ele><time>2026-04-12T08:46:58Z</time></trkpt><trkpt lat="43.60084252894905" lon="12.106862856789597"><ele>478.3333333333333</ele><time>2026-04-12T08:46:59Z</time></trkpt><trkpt lat="43.600655432318774" lon="12.106953397008693"><ele>477.66666666666663</ele><time>2026-04-12T08:47:00Z</time></trkpt><trkpt lat="43.60046325687359" lon="12.107108134038336"><ele>477.0</ele><time>2026-04-12T08:47:01Z</time></trkpt><trkpt lat="43.6002709472779" lon="12.107298866960805"><ele>477.0</ele><time>2026-04-12T08:47:02Z</time></trkpt><trkpt lat="43.60007630851401" lon="12.10746213309823"><ele>477.0</ele><time>2026-04-12T08:47:03Z</time></trkpt><trkpt lat="43.59988106883602" lon="12.107595730373514"><ele>477.0</ele><time>2026-04-12T08:47:04Z</time></trkpt><trkpt lat="43.59968853879622" lon="12.107674109018472"><ele>477.0</ele><time>2026-04-12T08:47:05Z</time></trkpt><trkpt lat="43.59952529384823" lon="12.107742803132467"><ele>477.0</ele><time>2026-04-12T08:47:06Z</time></trkpt><trkpt lat="43.59937017325313" lon="12.10777011559842"><ele>477.0</ele><time>2026-04-12T08:47:07Z</time></trkpt><trkpt lat="43.599220508233465" lon="12.107683379352551"><ele>475.66666666666663</ele><time>2026-04-12T08:47:08Z</time></trkpt><trkpt lat="43.5990604249237" lon="12.10753992332953"><ele>474.3333333333333</ele><time>2026-04-12T08:47:09Z</time></trkpt><trkpt lat="43.598884242607085" lon="12.107387988363199"><ele>473.0</ele><time>2026-04-12T08:47:10Z</time></trkpt><trkpt lat="43.598703678126" lon="12.107236360217327"><ele>473.0</ele><time>2026-04-12T08:47:11Z</time></trkpt><trkpt lat="43.59852085236086" lon="12.107100755659237"><ele>473.0</ele><time>2026-04-12T08:47:12Z</time></trkpt><trkpt lat="43.598343713197934" lon="12.106944170874755"><ele>473.0</ele><time>2026-04-12T08:47:12.999Z</time></trkpt><trkpt lat="43.5981698046501" lon="12.10679813985775"><ele>473.0</ele><time>2026-04-12T08:47:13.999Z</time></trkpt><trkpt lat="43.598008673925655" lon="12.106682286280197"><ele>473.0</ele><time>2026-04-12T08:47:14.999Z</time></trkpt><trkpt lat="43.59785887003666" lon="12.106605388783713"><ele>473.0</ele><time>2026-04-12T08:47:15.999Z</time></trkpt><trkpt lat="43.597707475040544" lon="12.106578949063383"><ele>472.0</ele><time>2026-04-12T08:47:16.999Z</time></trkpt><trkpt lat="43.597551968753876" lon="12.10661871000163"><ele>471.0</ele><time>2026-04-12T08:47:17.999Z</time></trkpt><trkpt lat="43.597412972769874" lon="12.106751037819773"><ele>470.0</ele><time>2026-04-12T08:47:18.999Z</time></trkpt><trkpt lat="43.597300154723186" lon="12.106904787543488"><ele>470.0</ele><time>2026-04-12T08:47:19.999Z</time></trkpt><trkpt lat="43.59722562044014" lon="12.107133521097532"><ele>470.0</ele><time>2026-04-12T08:47:20.999Z</time></trkpt><trkpt lat="43.5971847179668" lon="12.107415652928621"><ele>470.0</ele><time>2026-04-12T08:47:21.999Z</time></trkpt><trkpt lat="43.59715910677723" lon="12.107722565817012"><ele>471.66666666666663</ele><time>2026-04-12T08:47:22.999Z</time></trkpt><trkpt lat="43.59712409966168" lon="12.108030297126941"><ele>473.33333333333337</ele><time>2026-04-12T08:47:23.999Z</time></trkpt><trkpt lat="43.59707994214472" lon="12.108333250301937"><ele>475.0</ele><time>2026-04-12T08:47:24.999Z</time></trkpt><trkpt lat="43.59702571270646" lon="12.108635825914794"><ele>470.6666666666667</ele><time>2026-04-12T08:47:25.999Z</time></trkpt><trkpt lat="43.59696876121305" lon="12.10893904439047"><ele>466.33333333333337</ele><time>2026-04-12T08:47:26.999Z</time></trkpt><trkpt lat="43.59689734434912" lon="12.109224659145923"><ele>462.0</ele><time>2026-04-12T08:47:27.999Z</time></trkpt><trkpt lat="43.5968394586662" lon="12.109494596970217"><ele>462.0</ele><time>2026-04-12T08:47:28.999Z</time></trkpt><trkpt lat="43.59678883007491" lon="12.109738088669802"><ele>462.0</ele><time>2026-04-12T08:47:29.999Z</time></trkpt><trkpt lat="43.596742487405486" lon="12.109964410863633"><ele>462.0</ele><time>2026-04-12T08:47:30.999Z</time></trkpt><trkpt lat="43.59668705425915" lon="12.110157212244523"><ele>461.66666666666663</ele><time>2026-04-12T08:47:31.999Z</time></trkpt><trkpt lat="43.5966113184002" lon="12.110318292337332"><ele>461.3333333333333</ele><time>2026-04-12T08:47:32.999Z</time></trkpt><trkpt lat="43.59647014090881" lon="12.110392322039608"><ele>461.0</ele><time>2026-04-12T08:47:33.999Z</time></trkpt><trkpt lat="43.59630348275444" lon="12.110427727022518"><ele>457.66666666666663</ele><time>2026-04-12T08:47:34.999Z</time></trkpt><trkpt lat="43.59611244466728" lon="12.11045969289688"><ele>454.33333333333337</ele><time>2026-04-12T08:47:35.999Z</time></trkpt><trkpt lat="43.5959185667019" lon="12.110478942850763"><ele>451.0</ele><time>2026-04-12T08:47:36.999Z</time></trkpt><trkpt lat="43.59572803042911" lon="12.110555353193304"><ele>451.0</ele><time>2026-04-12T08:47:37.999Z</time></trkpt><trkpt lat="43.59554318163454" lon="12.110678015927766"><ele>451.0</ele><time>2026-04-12T08:47:38.999Z</time></trkpt><trkpt lat="43.595375369116205" lon="12.11083678564203"><ele>451.0</ele><time>2026-04-12T08:47:39.999Z</time></trkpt><trkpt lat="43.59523334556393" lon="12.111039314938312"><ele>450.0</ele><time>2026-04-12T08:47:40.999Z</time></trkpt><trkpt lat="43.595120953323246" lon="12.111281264089621"><ele>449.0</ele><time>2026-04-12T08:47:41.999Z</time></trkpt><trkpt lat="43.594991212313545" lon="12.11152120271131"><ele>448.0</ele><time>2026-04-12T08:47:42.999Z</time></trkpt><trkpt lat="43.59488464052327" lon="12.111792573032817"><ele>448.0</ele><time>2026-04-12T08:47:43.999Z</time></trkpt><trkpt lat="43.59478869047762" lon="12.112044422398178"><ele>448.0</ele><time>2026-04-12T08:47:44.999Z</time></trkpt><trkpt lat="43.594713263113704" lon="12.112291121450456"><ele>448.0</ele><time>2026-04-12T08:47:45.999Z</time></trkpt><trkpt lat="43.59462887903589" lon="12.112507339042171"><ele>448.0</ele><time>2026-04-12T08:47:46.999Z</time></trkpt><trkpt lat="43.594556618840926" lon="12.112716313769553"><ele>448.0</ele><time>2026-04-12T08:47:47.999Z</time></trkpt><trkpt lat="43.594472027795256" lon="12.112909202101887"><ele>448.0</ele><time>2026-04-12T08:47:48.999Z</time></trkpt><trkpt lat="43.59433510531972" lon="12.113036544042405"><ele>445.33333333333337</ele><time>2026-04-12T08:47:49.999Z</time></trkpt><trkpt lat="43.59417611562981" lon="12.113128793929357"><ele>442.66666666666663</ele><time>2026-04-12T08:47:50.999Z</time></trkpt><trkpt lat="43.59401464570891" lon="12.11319814298173"><ele>440.0</ele><time>2026-04-12T08:47:51.999Z</time></trkpt><trkpt lat="43.59388769847788" lon="12.113315437416459"><ele>440.0</ele><time>2026-04-12T08:47:52.999Z</time></trkpt><trkpt lat="43.59380395974459" lon="12.11348454275357"><ele>440.0</ele><time>2026-04-12T08:47:53.999Z</time></trkpt><trkpt lat="43.59375427357838" lon="12.113667036561708"><ele>440.0</ele><time>2026-04-12T08:47:54.999Z</time></trkpt><trkpt lat="43.593690312846846" lon="12.113803635298964"><ele>440.0</ele><time>2026-04-12T08:47:55.999Z</time></trkpt><trkpt lat="43.593590556591835" lon="12.1138690752805"><ele>438.0</ele><time>2026-04-12T08:47:56.999Z</time></trkpt><trkpt lat="43.59348329882333" lon="12.113873526527337"><ele>436.0</ele><time>2026-04-12T08:47:57.999Z</time></trkpt><trkpt lat="43.5933801077754" lon="12.113793874778588"><ele>434.0</ele><time>2026-04-12T08:47:58.999Z</time></trkpt><trkpt lat="43.59328805654833" lon="12.113641358587612"><ele>432.0</ele><time>2026-04-12T08:48:00Z</time></trkpt><trkpt lat="43.59318504933714" lon="12.113471219081724"><ele>432.0</ele><time>2026-04-12T08:48:01Z</time></trkpt><trkpt lat="43.59304769486157" lon="12.113353904058222"><ele>432.0</ele><time>2026-04-12T08:48:02Z</time></trkpt><trkpt lat="43.59285945051581" lon="12.11330111462151"><ele>432.0</ele><time>2026-04-12T08:48:03Z</time></trkpt><trkpt lat="43.59266499063936" lon="12.11329370280039"><ele>430.66666666666663</ele><time>2026-04-12T08:48:04Z</time></trkpt><trkpt lat="43.592502333390655" lon="12.113296915901419"><ele>429.3333333333333</ele><time>2026-04-12T08:48:05Z</time></trkpt><trkpt lat="43.59235296235307" lon="12.11333764989335"><ele>428.0</ele><time>2026-04-12T08:48:06Z</time></trkpt><trkpt lat="43.59221898966759" lon="12.113466859687941"><ele>428.0</ele><time>2026-04-12T08:48:07Z</time></trkpt><trkpt lat="43.59211364660891" lon="12.11366230328725"><ele>428.0</ele><time>2026-04-12T08:48:08Z</time></trkpt><trkpt lat="43.5920349973067" lon="12.113908799935757"><ele>428.0</ele><time>2026-04-12T08:48:09Z</time></trkpt><trkpt lat="43.59196945959697" lon="12.114187962733084"><ele>425.0</ele><time>2026-04-12T08:48:10Z</time></trkpt><trkpt lat="43.591891303059406" lon="12.114453974430228"><ele>422.0</ele><time>2026-04-12T08:48:11Z</time></trkpt><trkpt lat="43.59181422800288" lon="12.11470604563318"><ele>419.0</ele><time>2026-04-12T08:48:12Z</time></trkpt><trkpt lat="43.59174820249398" lon="12.114934996827385"><ele>419.0</ele><time>2026-04-12T08:48:13Z</time></trkpt><trkpt lat="43.5916763331298" lon="12.11512737240087"><ele>419.0</ele><time>2026-04-12T08:48:14Z</time></trkpt><trkpt lat="43.59162583428437" lon="12.115295404952896"><ele>419.0</ele><time>2026-04-12T08:48:15Z</time></trkpt><trkpt lat="43.59156399727631" lon="12.115436641764058"><ele>419.0</ele><time>2026-04-12T08:48:16Z</time></trkpt><trkpt lat="43.59147209594984" lon="12.115547345299925"><ele>419.0</ele><time>2026-04-12T08:48:17Z</time></trkpt><trkpt lat="43.59132293028391" lon="12.115539499942338"><ele>419.0</ele><time>2026-04-12T08:48:18Z</time></trkpt><trkpt lat="43.59114882930225" lon="12.11549561567517"><ele>419.0</ele><time>2026-04-12T08:48:19Z</time></trkpt><trkpt lat="43.59095488353185" lon="12.115456987794955"><ele>416.0</ele><time>2026-04-12T08:48:20Z</time></trkpt><trkpt lat="43.590758604853676" lon="12.115410794029508"><ele>413.0</ele><time>2026-04-12T08:48:21Z</time></trkpt><trkpt lat="43.59055621326297" lon="12.11539861212232"><ele>410.0</ele><time>2026-04-12T08:48:22Z</time></trkpt><trkpt lat="43.590355652393896" lon="12.115419596162672"><ele>409.0</ele><time>2026-04-12T08:48:23Z</time></trkpt><trkpt lat="43.590161426514406" lon="12.11548683779714"><ele>408.0</ele><time>2026-04-12T08:48:24Z</time></trkpt><trkpt lat="43.589968330137" lon="12.115614444966"><ele>407.0</ele><time>2026-04-12T08:48:25Z</time></trkpt><trkpt lat="43.58980022516075" lon="12.115777926076376"><ele>407.0</ele><time>2026-04-12T08:48:26Z</time></trkpt><trkpt lat="43.58964044578626" lon="12.115948505462445"><ele>407.0</ele><time>2026-04-12T08:48:27Z</time></trkpt><trkpt lat="43.589508967672" lon="12.1161460962625"><ele>407.0</ele><time>2026-04-12T08:48:28Z</time></trkpt><trkpt lat="43.589363991231295" lon="12.116360842307623"><ele>405.0</ele><time>2026-04-12T08:48:29Z</time></trkpt><trkpt lat="43.589261511679716" lon="12.116589453254909"><ele>403.0</ele><time>2026-04-12T08:48:30Z</time></trkpt><trkpt lat="43.58917549259903" lon="12.11682142110437"><ele>401.0</ele><time>2026-04-12T08:48:31Z</time></trkpt><trkpt lat="43.58904126684482" lon="12.117004856241024"><ele>401.0</ele><time>2026-04-12T08:48:32Z</time></trkpt><trkpt lat="43.58886263379031" lon="12.117122064855257"><ele>401.0</ele><time>2026-04-12T08:48:33Z</time></trkpt><trkpt lat="43.58867901129725" lon="12.117253762686296"><ele>401.0</ele><time>2026-04-12T08:48:34Z</time></trkpt><trkpt lat="43.58849430498478" lon="12.117346368931418"><ele>397.66666666666663</ele><time>2026-04-12T08:48:35Z</time></trkpt><trkpt lat="43.588333454930755" lon="12.117473919740206"><ele>394.33333333333337</ele><time>2026-04-12T08:48:36Z</time></trkpt><trkpt lat="43.58819872684061" lon="12.117639955116037"><ele>391.0</ele><time>2026-04-12T08:48:37Z</time></trkpt><trkpt lat="43.58809704857495" lon="12.117825760276896"><ele>391.0</ele><time>2026-04-12T08:48:38Z</time></trkpt><trkpt lat="43.58803286327494" lon="12.11804711538568"><ele>391.0</ele><time>2026-04-12T08:48:39Z</time></trkpt><trkpt lat="43.58800182704981" lon="12.118309878520682"><ele>391.0</ele><time>2026-04-12T08:48:40Z</time></trkpt><trkpt lat="43.5880140731181" lon="12.118593523938296"><ele>391.6666666666667</ele><time>2026-04-12T08:48:41Z</time></trkpt><trkpt lat="43.58801343942869" lon="12.118874436713387"><ele>392.33333333333337</ele><time>2026-04-12T08:48:42Z</time></trkpt><trkpt lat="43.58794920837582" lon="12.119136705625824"><ele>393.0</ele><time>2026-04-12T08:48:43Z</time></trkpt><trkpt lat="43.587863194319176" lon="12.119391343420412"><ele>389.0</ele><time>2026-04-12T08:48:44Z</time></trkpt><trkpt lat="43.587751507892214" lon="12.119640243986616"><ele>385.0</ele><time>2026-04-12T08:48:45Z</time></trkpt><trkpt lat="43.58764371234749" lon="12.119894600881368"><ele>381.0</ele><time>2026-04-12T08:48:46Z</time></trkpt><trkpt lat="43.58751382864704" lon="12.120111659251267"><ele>381.0</ele><time>2026-04-12T08:48:47Z</time></trkpt><trkpt lat="43.587366127723634" lon="12.120292801702224"><ele>381.0</ele><time>2026-04-12T08:48:48Z</time></trkpt><trkpt lat="43.58718300585685" lon="12.120406945857386"><ele>381.0</ele><time>2026-04-12T08:48:49Z</time></trkpt><trkpt lat="43.58700574391437" lon="12.120524831783694"><ele>377.6666666666667</ele><time>2026-04-12T08:48:50Z</time></trkpt><trkpt lat="43.58684408644265" lon="12.120630462001644"><ele>374.33333333333337</ele><time>2026-04-12T08:48:51Z</time></trkpt><trkpt lat="43.586715406381984" lon="12.12080196047215"><ele>371.0</ele><time>2026-04-12T08:48:52Z</time></trkpt><trkpt lat="43.58661627984536" lon="12.121053031919127"><ele>371.0</ele><time>2026-04-12T08:48:53Z</time></trkpt><trkpt lat="43.58652788973137" lon="12.121325035667002"><ele>371.0</ele><time>2026-04-12T08:48:54Z</time></trkpt><trkpt lat="43.58642952131753" lon="12.121606158885577"><ele>371.0</ele><time>2026-04-12T08:48:55Z</time></trkpt><trkpt lat="43.58632223208223" lon="12.121878848809416"><ele>372.6666666666667</ele><time>2026-04-12T08:48:56Z</time></trkpt><trkpt lat="43.586225778771684" lon="12.122153878463623"><ele>374.3333333333333</ele><time>2026-04-12T08:48:57Z</time></trkpt><trkpt lat="43.58613926102697" lon="12.122422989818403"><ele>376.0</ele><time>2026-04-12T08:48:58Z</time></trkpt><trkpt lat="43.58606528962666" lon="12.122695451916428"><ele>370.3333333333333</ele><time>2026-04-12T08:48:59Z</time></trkpt><trkpt lat="43.58599211774796" lon="12.122970120647052"><ele>364.6666666666667</ele><time>2026-04-12T08:49:00Z</time></trkpt><trkpt lat="43.58593232362267" lon="12.12324710876886"><ele>359.0</ele><time>2026-04-12T08:49:01Z</time></trkpt><trkpt lat="43.58588822400854" lon="12.123532406958265"><ele>359.0</ele><time>2026-04-12T08:49:02Z</time></trkpt><trkpt lat="43.58586703947349" lon="12.123824946247359"><ele>359.0</ele><time>2026-04-12T08:49:03Z</time></trkpt><trkpt lat="43.585861927370196" lon="12.12411965423986"><ele>359.0</ele><time>2026-04-12T08:49:03.999Z</time></trkpt><trkpt lat="43.58586002576099" lon="12.124396893755334"><ele>358.0</ele><time>2026-04-12T08:49:04.999Z</time></trkpt><trkpt lat="43.58585609353379" lon="12.124645453173429"><ele>357.0</ele><time>2026-04-12T08:49:05.999Z</time></trkpt><trkpt lat="43.585850996934234" lon="12.12487129144142"><ele>356.0</ele><time>2026-04-12T08:49:06.999Z</time></trkpt><trkpt lat="43.58583102946178" lon="12.125069403423709"><ele>354.6666666666667</ele><time>2026-04-12T08:49:07.999Z</time></trkpt><trkpt lat="43.585771265541524" lon="12.12524693307393"><ele>353.3333333333333</ele><time>2026-04-12T08:49:08.999Z</time></trkpt><trkpt lat="43.58564750647013" lon="12.125368401910976"><ele>352.0</ele><time>2026-04-12T08:49:09.999Z</time></trkpt><trkpt lat="43.58549028407541" lon="12.12543737531221"><ele>350.66666666666663</ele><time>2026-04-12T08:49:10.999Z</time></trkpt><trkpt lat="43.58531272845198" lon="12.125435228996952"><ele>349.3333333333333</ele><time>2026-04-12T08:49:11.999Z</time></trkpt><trkpt lat="43.58511869599503" lon="12.125441286073947"><ele>348.0</ele><time>2026-04-12T08:49:12.999Z</time></trkpt><trkpt lat="43.584926279179335" lon="12.125412928444668"><ele>348.0</ele><time>2026-04-12T08:49:13.999Z</time></trkpt><trkpt lat="43.584747823765845" lon="12.125398485235737"><ele>348.0</ele><time>2026-04-12T08:49:14.999Z</time></trkpt><trkpt lat="43.584570809624005" lon="12.125391145880533"><ele>348.0</ele><time>2026-04-12T08:49:15.999Z</time></trkpt><trkpt lat="43.58439165769309" lon="12.125381245998561"><ele>347.6666666666667</ele><time>2026-04-12T08:49:16.999Z</time></trkpt><trkpt lat="43.584207905705874" lon="12.125369426338072"><ele>347.33333333333337</ele><time>2026-04-12T08:49:17.999Z</time></trkpt><trkpt lat="43.58402345063749" lon="12.125357531569371"><ele>347.0</ele><time>2026-04-12T08:49:18.999Z</time></trkpt><trkpt lat="43.583838353734954" lon="12.125353728182143"><ele>345.6666666666667</ele><time>2026-04-12T08:49:19.999Z</time></trkpt><trkpt lat="43.583654359224504" lon="12.125349439972364"><ele>344.3333333333333</ele><time>2026-04-12T08:49:20.999Z</time></trkpt><trkpt lat="43.58346905050593" lon="12.125347290884573"><ele>343.0</ele><time>2026-04-12T08:49:21.999Z</time></trkpt><trkpt lat="43.58328346535732" lon="12.125352119256714"><ele>343.0</ele><time>2026-04-12T08:49:22.999Z</time></trkpt><trkpt lat="43.58309736759886" lon="12.125362607485881"><ele>343.0</ele><time>2026-04-12T08:49:23.999Z</time></trkpt><trkpt lat="43.582910534503526" lon="12.125371337118565"><ele>343.0</ele><time>2026-04-12T08:49:24.999Z</time></trkpt><trkpt lat="43.582723855680264" lon="12.125392321670208"><ele>342.3333333333333</ele><time>2026-04-12T08:49:25.999Z</time></trkpt><trkpt lat="43.582540991385166" lon="12.125435732115408"><ele>341.6666666666667</ele><time>2026-04-12T08:49:26.999Z</time></trkpt><trkpt lat="43.58236003711161" lon="12.125500339550115"><ele>341.0</ele><time>2026-04-12T08:49:27.999Z</time></trkpt><trkpt lat="43.58218649238306" lon="12.125578744936533"><ele>341.0</ele><time>2026-04-12T08:49:28.999Z</time></trkpt><trkpt lat="43.58202341258438" lon="12.125655916292969"><ele>341.0</ele><time>2026-04-12T08:49:29.999Z</time></trkpt><trkpt lat="43.581863479806564" lon="12.125717127755022"><ele>341.0</ele><time>2026-04-12T08:49:30.999Z</time></trkpt><trkpt lat="43.58170046492285" lon="12.125764020397211"><ele>340.6666666666667</ele><time>2026-04-12T08:49:31.999Z</time></trkpt><trkpt lat="43.58153418367555" lon="12.125780252329955"><ele>340.3333333333333</ele><time>2026-04-12T08:49:32.999Z</time></trkpt><trkpt lat="43.58136701390354" lon="12.125747493901358"><ele>340.0</ele><time>2026-04-12T08:49:33.999Z</time></trkpt><trkpt lat="43.58120736203623" lon="12.125729573526261"><ele>339.5</ele><time>2026-04-12T08:49:34.999Z</time></trkpt><trkpt lat="43.581065967378834" lon="12.125715345106613"><ele>339.0</ele><time>2026-04-12T08:49:35.999Z</time></trkpt><trkpt lat="43.580942821018425" lon="12.125717299638891"><ele>338.5</ele><time>2026-04-12T08:49:36.999Z</time></trkpt><trkpt lat="43.58084395589383" lon="12.12568082391954"><ele>338.0</ele><time>2026-04-12T08:49:37.999Z</time></trkpt><trkpt lat="43.58075958768708" lon="12.125599881903193"><ele>338.0</ele><time>2026-04-12T08:49:38.999Z</time></trkpt><trkpt lat="43.580694545326196" lon="12.125467686710694"><ele>338.0</ele><time>2026-04-12T08:49:39.999Z</time></trkpt><trkpt lat="43.580628298861456" lon="12.125337679764817"><ele>338.0</ele><time>2026-04-12T08:49:40.999Z</time></trkpt><trkpt lat="43.58054128886923" lon="12.125250831882296"><ele>338.0</ele><time>2026-04-12T08:49:41.999Z</time></trkpt><trkpt lat="43.58042963495831" lon="12.125216612077109"><ele>336.33333333333337</ele><time>2026-04-12T08:49:42.999Z</time></trkpt><trkpt lat="43.58029462290103" lon="12.12522365217262"><ele>334.6666666666667</ele><time>2026-04-12T08:49:43.999Z</time></trkpt><trkpt lat="43.58013467453038" lon="12.125239522166185"><ele>333.0</ele><time>2026-04-12T08:49:44.999Z</time></trkpt><trkpt lat="43.57995460272838" lon="12.125194529471024"><ele>333.0</ele><time>2026-04-12T08:49:45.999Z</time></trkpt><trkpt lat="43.5797701139447" lon="12.125116129011609"><ele>333.0</ele><time>2026-04-12T08:49:46.999Z</time></trkpt><trkpt lat="43.57956659620599" lon="12.125036040081618"><ele>333.0</ele><time>2026-04-12T08:49:47.999Z</time></trkpt><trkpt lat="43.57936220167331" lon="12.124962163419134"><ele>332.6666666666667</ele><time>2026-04-12T08:49:48.999Z</time></trkpt><trkpt lat="43.57915271839422" lon="12.124888058281917"><ele>332.33333333333337</ele><time>2026-04-12T08:49:49.999Z</time></trkpt><trkpt lat="43.57893844523296" lon="12.12481215778981"><ele>332.0</ele><time>2026-04-12T08:49:50.999Z</time></trkpt><trkpt lat="43.578722841366734" lon="12.124734350426026"><ele>330.6666666666667</ele><time>2026-04-12T08:49:51.999Z</time></trkpt><trkpt lat="43.57850898235389" lon="12.124657487028863"><ele>329.3333333333333</ele><time>2026-04-12T08:49:52.999Z</time></trkpt><trkpt lat="43.57829373075823" lon="12.124576731016628"><ele>328.0</ele><time>2026-04-12T08:49:53.999Z</time></trkpt><trkpt lat="43.578074733298315" lon="12.124490846205642"><ele>328.0</ele><time>2026-04-12T08:49:54.999Z</time></trkpt><trkpt lat="43.5778533573155" lon="12.124407679049295"><ele>328.0</ele><time>2026-04-12T08:49:55.998Z</time></trkpt><trkpt lat="43.57763218703793" lon="12.124327464778835"><ele>327.5</ele><time>2026-04-12T08:49:56.998Z</time></trkpt><trkpt lat="43.577408274109054" lon="12.124247519650721"><ele>327.0</ele><time>2026-04-12T08:49:57.998Z</time></trkpt><trkpt lat="43.577181650440515" lon="12.124163875005628"><ele>325.5</ele><time>2026-04-12T08:49:58.998Z</time></trkpt><trkpt lat="43.576960052840946" lon="12.124076881555762"><ele>324.0</ele><time>2026-04-12T08:49:59.998Z</time></trkpt><trkpt lat="43.57674197217855" lon="12.12399600050202"><ele>324.0</ele><time>2026-04-12T08:50:00.998Z</time></trkpt><trkpt lat="43.576523207556455" lon="12.123913180763534"><ele>324.0</ele><time>2026-04-12T08:50:01.998Z</time></trkpt><trkpt lat="43.57630455605559" lon="12.12382929519045"><ele>323.0</ele><time>2026-04-12T08:50:02.998Z</time></trkpt><trkpt lat="43.57608868734026" lon="12.12375823012752"><ele>322.0</ele><time>2026-04-12T08:50:03.998Z</time></trkpt><trkpt lat="43.57586322066976" lon="12.123709999152322"><ele>322.0</ele><time>2026-04-12T08:50:04.998Z</time></trkpt><trkpt lat="43.57563413878401" lon="12.12368979066095"><ele>322.0</ele><time>2026-04-12T08:50:06Z</time></trkpt><trkpt lat="43.57540243216955" lon="12.123708773786296"><ele>321.0</ele><time>2026-04-12T08:50:07Z</time></trkpt><trkpt lat="43.57517211822717" lon="12.123763337748432"><ele>320.0</ele><time>2026-04-12T08:50:08Z</time></trkpt><trkpt lat="43.574929296304425" lon="12.123828905314546"><ele>320.0</ele><time>2026-04-12T08:50:09Z</time></trkpt><trkpt lat="43.57466421004685" lon="12.123880261499266"><ele>320.0</ele><time>2026-04-12T08:50:10Z</time></trkpt><trkpt lat="43.574397700667625" lon="12.123941237480636"><ele>319.33333333333337</ele><time>2026-04-12T08:50:11Z</time></trkpt><trkpt lat="43.57423345958961" lon="12.123986815937428"><ele>318.6666666666667</ele><time>2026-04-12T08:50:12Z</time></trkpt><trkpt lat="43.573996509280356" lon="12.124047671543948"><ele>318.0</ele><time>2026-04-12T08:50:13Z</time></trkpt><trkpt lat="43.57375980646379" lon="12.12410250616426"><ele>318.0</ele><time>2026-04-12T08:50:14Z</time></trkpt><trkpt lat="43.57352344910883" lon="12.124150964640359"><ele>318.0</ele><time>2026-04-12T08:50:15Z</time></trkpt><trkpt lat="43.57328093429448" lon="12.124147054637842"><ele>318.0</ele><time>2026-04-12T08:50:16Z</time></trkpt><trkpt lat="43.57304289340946" lon="12.124138063850209"><ele>318.0</ele><time>2026-04-12T08:50:17Z</time></trkpt><trkpt lat="43.57280648733375" lon="12.124096379876057"><ele>317.0</ele><time>2026-04-12T08:50:18Z</time></trkpt><trkpt lat="43.572572680574766" lon="12.124025301475267"><ele>316.0</ele><time>2026-04-12T08:50:19Z</time></trkpt><trkpt lat="43.57234051744251" lon="12.123930116546669"><ele>316.0</ele><time>2026-04-12T08:50:20Z</time></trkpt><trkpt lat="43.57211544765242" lon="12.123801941507217"><ele>316.0</ele><time>2026-04-12T08:50:21Z</time></trkpt><trkpt lat="43.57189823029894" lon="12.123647320895156"><ele>316.0</ele><time>2026-04-12T08:50:22Z</time></trkpt><trkpt lat="43.57168789625337" lon="12.123512824366836"><ele>316.0</ele><time>2026-04-12T08:50:23Z</time></trkpt><trkpt lat="43.57150295389801" lon="12.123352433041331"><ele>315.66666666666663</ele><time>2026-04-12T08:50:24Z</time></trkpt><trkpt lat="43.57132651936033" lon="12.123208851601476"><ele>315.3333333333333</ele><time>2026-04-12T08:50:25Z</time></trkpt><trkpt lat="43.57115305486325" lon="12.123073842332216"><ele>315.0</ele><time>2026-04-12T08:50:26Z</time></trkpt><trkpt lat="43.57097348932102" lon="12.122950546422711"><ele>314.6666666666667</ele><time>2026-04-12T08:50:27Z</time></trkpt><trkpt lat="43.57079135630616" lon="12.122870386087943"><ele>314.33333333333337</ele><time>2026-04-12T08:50:28Z</time></trkpt><trkpt lat="43.57061639970835" lon="12.122835245146785"><ele>314.0</ele><time>2026-04-12T08:50:29Z</time></trkpt><trkpt lat="43.57043276348475" lon="12.122858465947322"><ele>314.6666666666667</ele><time>2026-04-12T08:50:30Z</time></trkpt><trkpt lat="43.57025007287089" lon="12.122940785625772"><ele>315.3333333333333</ele><time>2026-04-12T08:50:31Z</time></trkpt><trkpt lat="43.5700669880097" lon="12.123073278450136"><ele>316.0</ele><time>2026-04-12T08:50:32Z</time></trkpt><trkpt lat="43.569890130653455" lon="12.123247079350515"><ele>316.0</ele><time>2026-04-12T08:50:33Z</time></trkpt><trkpt lat="43.569722274166736" lon="12.123443797327772"><ele>316.0</ele><time>2026-04-12T08:50:34Z</time></trkpt><trkpt lat="43.56956491657434" lon="12.123586134591585"><ele>316.0</ele><time>2026-04-12T08:50:35Z</time></trkpt><trkpt lat="43.56941549616776" lon="12.1237174731715"><ele>315.0</ele><time>2026-04-12T08:50:36Z</time></trkpt><trkpt lat="43.56928475018531" lon="12.123833066353782"><ele>314.0</ele><time>2026-04-12T08:50:37Z</time></trkpt><trkpt lat="43.56916807213025" lon="12.123926216344856"><ele>313.0</ele><time>2026-04-12T08:50:38Z</time></trkpt><trkpt lat="43.56906770614414" lon="12.124000134254334"><ele>312.0</ele><time>2026-04-12T08:50:39Z</time></trkpt><trkpt lat="43.568985518773346" lon="12.12404360717197"><ele>312.0</ele><time>2026-04-12T08:50:40Z</time></trkpt><trkpt lat="43.56888476286822" lon="12.124049570258714"><ele>312.0</ele><time>2026-04-12T08:50:42Z</time></trkpt><trkpt lat="43.568764928556114" lon="12.124029273127388"><ele>312.0</ele><time>2026-04-12T08:50:43.999Z</time></trkpt><trkpt lat="43.568696684273505" lon="12.124063287399741"><ele>312.0</ele><time>2026-04-12T08:50:44.999Z</time></trkpt><trkpt lat="43.56863391584143" lon="12.1241403887162"><ele>312.0</ele><time>2026-04-12T08:50:45.999Z</time></trkpt><trkpt lat="43.568584189202475" lon="12.124234879843986"><ele>311.8</ele><time>2026-04-12T08:50:46.999Z</time></trkpt><trkpt lat="43.568568088525" lon="12.1243527211937"><ele>311.6</ele><time>2026-04-12T08:50:47.999Z</time></trkpt><trkpt lat="43.56858259468712" lon="12.12446847545776"><ele>311.40000000000003</ele><time>2026-04-12T08:50:48.999Z</time></trkpt><trkpt lat="43.5686246126201" lon="12.124571871772508"><ele>311.2</ele><time>2026-04-12T08:50:49.999Z</time></trkpt><trkpt lat="43.56869566950344" lon="12.12465613767358"><ele>311.0</ele><time>2026-04-12T08:50:50.999Z</time></trkpt><trkpt lat="43.5687926596468" lon="12.124722510682236"><ele>311.40000000000003</ele><time>2026-04-12T08:50:51.999Z</time></trkpt><trkpt lat="43.56889137784202" lon="12.124801707804949"><ele>311.8</ele><time>2026-04-12T08:50:52.999Z</time></trkpt><trkpt lat="43.56897377317072" lon="12.124907470692843"><ele>312.20000000000005</ele><time>2026-04-12T08:50:53.999Z</time></trkpt><trkpt lat="43.56904383774619" lon="12.125030954028732"><ele>312.6</ele><time>2026-04-12T08:50:54.999Z</time></trkpt><trkpt lat="43.569102644023424" lon="12.125150049477396"><ele>313.0</ele><time>2026-04-12T08:50:55.999Z</time></trkpt><trkpt lat="43.56915591307737" lon="12.125267341779505"><ele>313.0</ele><time>2026-04-12T08:50:56.999Z</time></trkpt><trkpt lat="43.56920016675772" lon="12.125369843602899"><ele>313.0</ele><time>2026-04-12T08:50:57.999Z</time></trkpt><trkpt lat="43.569239363017154" lon="12.12546360068425"><ele>313.0</ele><time>2026-04-12T08:50:58.999Z</time></trkpt><trkpt lat="43.569271593596085" lon="12.125547441575385"><ele>313.0</ele><time>2026-04-12T08:50:59.999Z</time></trkpt><trkpt lat="43.5693031744532" lon="12.125625267429674"><ele>313.0</ele><time>2026-04-12T08:51:00.999Z</time></trkpt><trkpt lat="43.56935431609764" lon="12.12575628535504"><ele>313.0</ele><time>2026-04-12T08:51:02.999Z</time></trkpt><trkpt lat="43.56939017432373" lon="12.125859524391764"><ele>313.0</ele><time>2026-04-12T08:51:04.999Z</time></trkpt><trkpt lat="43.56944919136784" lon="12.12596946884562"><ele>313.0</ele><time>2026-04-12T08:51:06.999Z</time></trkpt><trkpt lat="43.569490848484776" lon="12.126035154158263"><ele>313.0</ele><time>2026-04-12T08:51:07.999Z</time></trkpt><trkpt lat="43.56951772937981" lon="12.1261397135409"><ele>313.0</ele><time>2026-04-12T08:51:08.999Z</time></trkpt><trkpt lat="43.56956681196313" lon="12.12625310428181"><ele>313.0</ele><time>2026-04-12T08:51:09.999Z</time></trkpt><trkpt lat="43.56962511454945" lon="12.126388013812859"><ele>313.0</ele><time>2026-04-12T08:51:10.999Z</time></trkpt><trkpt lat="43.569689510512134" lon="12.126534037794535"><ele>313.0</ele><time>2026-04-12T08:51:11.999Z</time></trkpt><trkpt lat="43.56975940779745" lon="12.1266966642444"><ele>313.0</ele><time>2026-04-12T08:51:12.999Z</time></trkpt><trkpt lat="43.56985166943207" lon="12.126863818446038"><ele>313.0</ele><time>2026-04-12T08:51:13.999Z</time></trkpt><trkpt lat="43.569923161978764" lon="12.127053201634427"><ele>312.66666666666663</ele><time>2026-04-12T08:51:14.999Z</time></trkpt><trkpt lat="43.57001143398757" lon="12.127244798725176"><ele>312.3333333333333</ele><time>2026-04-12T08:51:15.999Z</time></trkpt><trkpt lat="43.5700803442929" lon="12.127432304252814"><ele>312.0</ele><time>2026-04-12T08:51:16.999Z</time></trkpt><trkpt lat="43.5701637372478" lon="12.127580703996337"><ele>312.5</ele><time>2026-04-12T08:51:17.999Z</time></trkpt><trkpt lat="43.570225113179525" lon="12.127727123524156"><ele>313.0</ele><time>2026-04-12T08:51:18.999Z</time></trkpt><trkpt lat="43.57028315874037" lon="12.127870425303858"><ele>313.5</ele><time>2026-04-12T08:51:19.999Z</time></trkpt><trkpt lat="43.57032436037688" lon="12.128014694680388"><ele>314.0</ele><time>2026-04-12T08:51:20.999Z</time></trkpt><trkpt lat="43.57033480166614" lon="12.128158570967475"><ele>314.6666666666667</ele><time>2026-04-12T08:51:21.999Z</time></trkpt><trkpt lat="43.57032065134843" lon="12.128290420971087"><ele>315.33333333333337</ele><time>2026-04-12T08:51:22.999Z</time></trkpt><trkpt lat="43.57031203951605" lon="12.128410600374098"><ele>316.0</ele><time>2026-04-12T08:51:23.999Z</time></trkpt><trkpt lat="43.570341617980446" lon="12.128497865063355"><ele>316.6666666666667</ele><time>2026-04-12T08:51:24.999Z</time></trkpt><trkpt lat="43.57038665975891" lon="12.128575805024532"><ele>317.3333333333333</ele><time>2026-04-12T08:51:26.999Z</time></trkpt><trkpt lat="43.57046957469873" lon="12.128580873787818"><ele>318.0</ele><time>2026-04-12T08:51:28.999Z</time></trkpt><trkpt lat="43.57053802634768" lon="12.128629290432343"><ele>318.25</ele><time>2026-04-12T08:51:29.999Z</time></trkpt><trkpt lat="43.57062422547918" lon="12.1287066281203"><ele>318.5</ele><time>2026-04-12T08:51:30.999Z</time></trkpt><trkpt lat="43.57069586935922" lon="12.128816945117316"><ele>318.75</ele><time>2026-04-12T08:51:31.999Z</time></trkpt><trkpt lat="43.5707520429563" lon="12.128984874097105"><ele>319.0</ele><time>2026-04-12T08:51:32.999Z</time></trkpt><trkpt lat="43.57083646125838" lon="12.129152417043185"><ele>319.0</ele><time>2026-04-12T08:51:33.999Z</time></trkpt><trkpt lat="43.57091416205574" lon="12.129339273242635"><ele>319.0</ele><time>2026-04-12T08:51:34.999Z</time></trkpt><trkpt lat="43.57100157105348" lon="12.129532320929332"><ele>319.0</ele><time>2026-04-12T08:51:35.999Z</time></trkpt><trkpt lat="43.57108796304846" lon="12.12972631540268"><ele>318.66666666666663</ele><time>2026-04-12T08:51:36.999Z</time></trkpt><trkpt lat="43.57117068167787" lon="12.129916426401"><ele>318.3333333333333</ele><time>2026-04-12T08:51:37.999Z</time></trkpt><trkpt lat="43.57125425986485" lon="12.130104981542493"><ele>318.0</ele><time>2026-04-12T08:51:38.999Z</time></trkpt><trkpt lat="43.571336178174" lon="12.130291194963817"><ele>318.5</ele><time>2026-04-12T08:51:39.999Z</time></trkpt><trkpt lat="43.57141351109705" lon="12.130467959449435"><ele>319.0</ele><time>2026-04-12T08:51:40.999Z</time></trkpt><trkpt lat="43.571489035628275" lon="12.130630948877503"><ele>319.5</ele><time>2026-04-12T08:51:41.999Z</time></trkpt><trkpt lat="43.57155911629381" lon="12.130790811640084"><ele>320.0</ele><time>2026-04-12T08:51:42.999Z</time></trkpt><trkpt lat="43.57162428710307" lon="12.13093905539962"><ele>320.2</ele><time>2026-04-12T08:51:43.999Z</time></trkpt><trkpt lat="43.57167963130563" lon="12.131060365075939"><ele>320.4</ele><time>2026-04-12T08:51:44.999Z</time></trkpt><trkpt lat="43.57172210973999" lon="12.131158663556235"><ele>320.6</ele><time>2026-04-12T08:51:45.999Z</time></trkpt><trkpt lat="43.57175699293315" lon="12.131281660163506"><ele>320.8</ele><time>2026-04-12T08:51:47.999Z</time></trkpt><trkpt lat="43.57180511531902" lon="12.131383229885431"><ele>321.0</ele><time>2026-04-12T08:51:50.999Z</time></trkpt><trkpt lat="43.5718532721211" lon="12.13147343877869"><ele>321.0</ele><time>2026-04-12T08:52:35Z</time></trkpt><trkpt lat="43.57189014136103" lon="12.13155335540303"><ele>321.0</ele><time>2026-04-12T08:52:36Z</time></trkpt><trkpt lat="43.57193612059741" lon="12.131663294442422"><ele>321.0</ele><time>2026-04-12T08:52:37Z</time></trkpt><trkpt lat="43.571992567449044" lon="12.13179536905229"><ele>321.0</ele><time>2026-04-12T08:52:38Z</time></trkpt><trkpt lat="43.572057876403726" lon="12.131956274478771"><ele>321.0</ele><time>2026-04-12T08:52:39Z</time></trkpt><trkpt lat="43.57213753492938" lon="12.132136079765086"><ele>321.3333333333333</ele><time>2026-04-12T08:52:40Z</time></trkpt><trkpt lat="43.5722231870682" lon="12.132339241475323"><ele>321.66666666666663</ele><time>2026-04-12T08:52:41Z</time></trkpt><trkpt lat="43.57231926108672" lon="12.132558204799658"><ele>322.0</ele><time>2026-04-12T08:52:42Z</time></trkpt><trkpt lat="43.572420081271765" lon="12.13278407244084"><ele>321.66666666666663</ele><time>2026-04-12T08:52:43Z</time></trkpt><trkpt lat="43.57250684638189" lon="12.13298376969218"><ele>321.3333333333333</ele><time>2026-04-12T08:52:44Z</time></trkpt><trkpt lat="43.57258450191102" lon="12.133160894192846"><ele>321.0</ele><time>2026-04-12T08:52:45Z</time></trkpt><trkpt lat="43.57265625717126" lon="12.133322185978583"><ele>321.0</ele><time>2026-04-12T08:52:46Z</time></trkpt><trkpt lat="43.57272054910724" lon="12.13347012344341"><ele>321.0</ele><time>2026-04-12T08:52:47Z</time></trkpt><trkpt lat="43.57277484675464" lon="12.133605185096902"><ele>321.0</ele><time>2026-04-12T08:52:48Z</time></trkpt><trkpt lat="43.57282937656697" lon="12.13371868643162"><ele>321.0</ele><time>2026-04-12T08:52:49Z</time></trkpt><trkpt lat="43.57285772260473" lon="12.133822205338232"><ele>321.0</ele><time>2026-04-12T08:52:50Z</time></trkpt><trkpt lat="43.57290587633897" lon="12.13393227397417"><ele>321.25</ele><time>2026-04-12T08:52:52Z</time></trkpt><trkpt lat="43.573054406975444" lon="12.133809784520642"><ele>321.5</ele><time>2026-04-12T08:52:53Z</time></trkpt><trkpt lat="43.57309187115356" lon="12.133706488378289"><ele>321.75</ele><time>2026-04-12T08:52:54Z</time></trkpt><trkpt lat="43.5731629312116" lon="12.133581250463049"><ele>322.0</ele><time>2026-04-12T08:52:55Z</time></trkpt><trkpt lat="43.5732387123715" lon="12.133406509859244"><ele>322.0</ele><time>2026-04-12T08:52:56Z</time></trkpt><trkpt lat="43.57333153345481" lon="12.133236461791654"><ele>322.0</ele><time>2026-04-12T08:52:57Z</time></trkpt><trkpt lat="43.57342359744206" lon="12.133076757604593"><ele>322.0</ele><time>2026-04-12T08:52:58Z</time></trkpt><trkpt lat="43.57351237460142" lon="12.132921712425645"><ele>322.0</ele><time>2026-04-12T08:52:59Z</time></trkpt><trkpt lat="43.57360564059238" lon="12.132766194611799"><ele>323.0</ele><time>2026-04-12T08:53:00Z</time></trkpt><trkpt lat="43.5736973673948" lon="12.132603631806582"><ele>324.0</ele><time>2026-04-12T08:53:01Z</time></trkpt><trkpt lat="43.57379160954589" lon="12.132437985977523"><ele>325.0</ele><time>2026-04-12T08:53:02Z</time></trkpt><trkpt lat="43.57388200959302" lon="12.132281564205977"><ele>326.0</ele><time>2026-04-12T08:53:03Z</time></trkpt><trkpt lat="43.573964812481655" lon="12.132141031452106"><ele>326.0</ele><time>2026-04-12T08:53:04Z</time></trkpt><trkpt lat="43.57403730562448" lon="12.13201887258824"><ele>326.0</ele><time>2026-04-12T08:53:05Z</time></trkpt><trkpt lat="43.574097495809525" lon="12.131902875195731"><ele>326.0</ele><time>2026-04-12T08:53:06Z</time></trkpt><trkpt lat="43.57414911271659" lon="12.131812324489651"><ele>326.0</ele><time>2026-04-12T08:53:07Z</time></trkpt><trkpt lat="43.57419164279838" lon="12.13173332858646"><ele>326.0</ele><time>2026-04-12T08:53:08Z</time></trkpt><trkpt lat="43.57423496427153" lon="12.131648382801732"><ele>326.0</ele><time>2026-04-12T08:53:09Z</time></trkpt><trkpt lat="43.57428788189999" lon="12.131553961451267"><ele>325.75</ele><time>2026-04-12T08:53:10Z</time></trkpt><trkpt lat="43.57436953491447" lon="12.131462998209267"><ele>325.5</ele><time>2026-04-12T08:53:11Z</time></trkpt><trkpt lat="43.57443351144021" lon="12.131321518008876"><ele>325.25</ele><time>2026-04-12T08:53:12Z</time></trkpt><trkpt lat="43.57451564423269" lon="12.131178650187282"><ele>325.0</ele><time>2026-04-12T08:53:13Z</time></trkpt><trkpt lat="43.57459818760104" lon="12.13103340511674"><ele>325.4</ele><time>2026-04-12T08:53:14Z</time></trkpt><trkpt lat="43.57467738741793" lon="12.13089926228359"><ele>325.8</ele><time>2026-04-12T08:53:15Z</time></trkpt><trkpt lat="43.57474641110688" lon="12.130778172674294"><ele>326.20000000000005</ele><time>2026-04-12T08:53:16Z</time></trkpt><trkpt lat="43.574801820644204" lon="12.130668943921142"><ele>326.6</ele><time>2026-04-12T08:53:17Z</time></trkpt><trkpt lat="43.574849017536735" lon="12.130575590261516"><ele>327.0</ele><time>2026-04-12T08:53:18Z</time></trkpt><trkpt lat="43.574898606898806" lon="12.130504833944965"><ele>327.0</ele><time>2026-04-12T08:53:19Z</time></trkpt><trkpt lat="43.57494447410084" lon="12.130426236114308"><ele>327.0</ele><time>2026-04-12T08:53:20Z</time></trkpt><trkpt lat="43.57501107668505" lon="12.130346841992148"><ele>327.0</ele><time>2026-04-12T08:53:21Z</time></trkpt><trkpt lat="43.575075245729835" lon="12.130235344793206"><ele>327.0</ele><time>2026-04-12T08:53:21.999Z</time></trkpt><trkpt lat="43.57514273012192" lon="12.130118084437449"><ele>327.0</ele><time>2026-04-12T08:53:22.999Z</time></trkpt><trkpt lat="43.57521582520297" lon="12.129989933802296"><ele>327.0</ele><time>2026-04-12T08:53:23.999Z</time></trkpt><trkpt lat="43.57526931604221" lon="12.129860638958576"><ele>327.0</ele><time>2026-04-12T08:53:24.999Z</time></trkpt><trkpt lat="43.575329270417164" lon="12.12975735844469"><ele>327.0</ele><time>2026-04-12T08:53:25.999Z</time></trkpt><trkpt lat="43.57538167698901" lon="12.129663994417955"><ele>327.0</ele><time>2026-04-12T08:53:26.999Z</time></trkpt><trkpt lat="43.575442649711654" lon="12.129594200713193"><ele>327.0</ele><time>2026-04-12T08:53:27.999Z</time></trkpt><trkpt lat="43.575482652611676" lon="12.12952443763833"><ele>327.0</ele><time>2026-04-12T08:53:28.999Z</time></trkpt><trkpt lat="43.57552470932532" lon="12.129451092723539"><ele>327.0</ele><time>2026-04-12T08:53:30.999Z</time></trkpt><trkpt lat="43.575427273120454" lon="12.129324564817976"><ele>327.0</ele><time>2026-04-12T08:53:32.999Z</time></trkpt><trkpt lat="43.575353423111686" lon="12.129218338747778"><ele>327.0</ele><time>2026-04-12T08:53:34.999Z</time></trkpt><trkpt lat="43.575291673123715" lon="12.129156086860872"><ele>327.0</ele><time>2026-04-12T08:53:36.999Z</time></trkpt><trkpt lat="43.57518940497927" lon="12.12908228208842"><ele>327.0</ele><time>2026-04-12T08:56:02Z</time></trkpt><trkpt lat="43.57509242032348" lon="12.128984413002762"><ele>327.0</ele><time>2026-04-12T08:56:04Z</time></trkpt><trkpt lat="43.57503740889358" lon="12.12891776776223"><ele>327.0</ele><time>2026-04-12T08:56:05Z</time></trkpt><trkpt lat="43.57498497357925" lon="12.128846012305544"><ele>327.0</ele><time>2026-04-12T08:56:06Z</time></trkpt><trkpt lat="43.57493494418805" lon="12.12875510939271"><ele>327.0</ele><time>2026-04-12T08:56:07Z</time></trkpt><trkpt lat="43.574870528492475" lon="12.128685290976623"><ele>327.0</ele><time>2026-04-12T08:56:08Z</time></trkpt><trkpt lat="43.57480259995439" lon="12.128611665157845"><ele>327.0</ele><time>2026-04-12T08:56:09Z</time></trkpt><trkpt lat="43.574723685866864" lon="12.128526132559111"><ele>327.0</ele><time>2026-04-12T08:56:10Z</time></trkpt><trkpt lat="43.574635743598265" lon="12.128430717710227"><ele>327.0</ele><time>2026-04-12T08:56:11Z</time></trkpt><trkpt lat="43.57454694853102" lon="12.128333706811627"><ele>327.0</ele><time>2026-04-12T08:56:12Z</time></trkpt><trkpt lat="43.57445726516873" lon="12.128235724401552"><ele>327.0</ele><time>2026-04-12T08:56:13Z</time></trkpt><trkpt lat="43.57436556301249" lon="12.128134857829187"><ele>326.20000000000005</ele><time>2026-04-12T08:56:14Z</time></trkpt><trkpt lat="43.5742751943691" lon="12.128035607229886"><ele>325.4</ele><time>2026-04-12T08:56:15Z</time></trkpt><trkpt lat="43.574181600509924" lon="12.127951273064147"><ele>324.6</ele><time>2026-04-12T08:56:16Z</time></trkpt><trkpt lat="43.574095687587004" lon="12.127857455549679"><ele>323.79999999999995</ele><time>2026-04-12T08:56:17Z</time></trkpt><trkpt lat="43.574008779811315" lon="12.127765037193889"><ele>323.0</ele><time>2026-04-12T08:56:18Z</time></trkpt><trkpt lat="43.573920033197616" lon="12.127669300253132"><ele>323.0</ele><time>2026-04-12T08:56:19Z</time></trkpt><trkpt lat="43.573835578291" lon="12.127567267966704"><ele>323.0</ele><time>2026-04-12T08:56:20Z</time></trkpt><trkpt lat="43.57375595738498" lon="12.12748365192474"><ele>323.0</ele><time>2026-04-12T08:56:21Z</time></trkpt><trkpt lat="43.57369329349602" lon="12.127416723031343"><ele>323.0</ele><time>2026-04-12T08:56:22Z</time></trkpt><trkpt lat="43.57363773039525" lon="12.127365859198425"><ele>323.0</ele><time>2026-04-12T08:56:23Z</time></trkpt><trkpt lat="43.57357299080539" lon="12.127312836155014"><ele>323.0</ele><time>2026-04-12T08:56:25Z</time></trkpt><trkpt lat="43.573498577492565" lon="12.127417612171742"><ele>322.79999999999995</ele><time>2026-04-12T08:56:29Z</time></trkpt><trkpt lat="43.57347358929963" lon="12.12753307156338"><ele>322.6</ele><time>2026-04-12T08:56:30Z</time></trkpt><trkpt lat="43.57343994651551" lon="12.127668020308072"><ele>322.4</ele><time>2026-04-12T08:56:31Z</time></trkpt><trkpt lat="43.573378679326375" lon="12.127797231368387"><ele>322.20000000000005</ele><time>2026-04-12T08:56:32Z</time></trkpt><trkpt lat="43.573332353561796" lon="12.127955235097204"><ele>322.0</ele><time>2026-04-12T08:56:33Z</time></trkpt><trkpt lat="43.57328396029694" lon="12.128120290082357"><ele>322.5</ele><time>2026-04-12T08:56:33.999Z</time></trkpt><trkpt lat="43.57323066090408" lon="12.128300524948129"><ele>323.0</ele><time>2026-04-12T08:56:34.999Z</time></trkpt><trkpt lat="43.573192331420266" lon="12.12848860774641"><ele>323.5</ele><time>2026-04-12T08:56:35.999Z</time></trkpt><trkpt lat="43.57312235041643" lon="12.128665491667508"><ele>324.0</ele><time>2026-04-12T08:56:36.999Z</time></trkpt><trkpt lat="43.57307852642941" lon="12.128863946236137"><ele>323.75</ele><time>2026-04-12T08:56:37.999Z</time></trkpt><trkpt lat="43.57302256560425" lon="12.129059510103874"><ele>323.5</ele><time>2026-04-12T08:56:38.999Z</time></trkpt><trkpt lat="43.572968088163286" lon="12.129247672843471"><ele>323.25</ele><time>2026-04-12T08:56:39.999Z</time></trkpt><trkpt lat="43.572921555312746" lon="12.129430615493174"><ele>323.0</ele><time>2026-04-12T08:56:40.999Z</time></trkpt><trkpt lat="43.57286596076392" lon="12.129600981306861"><ele>322.5</ele><time>2026-04-12T08:56:41.999Z</time></trkpt><trkpt lat="43.57281478605393" lon="12.129768795391133"><ele>322.0</ele><time>2026-04-12T08:56:42.999Z</time></trkpt><trkpt lat="43.57277471244361" lon="12.1299334280194"><ele>321.5</ele><time>2026-04-12T08:56:43.999Z</time></trkpt><trkpt lat="43.57274127897838" lon="12.130097020335063"><ele>321.0</ele><time>2026-04-12T08:56:44.999Z</time></trkpt><trkpt lat="43.57270696234461" lon="12.130265958296725"><ele>321.0</ele><time>2026-04-12T08:56:45.999Z</time></trkpt><trkpt lat="43.57266231530277" lon="12.130441201081887"><ele>321.0</ele><time>2026-04-12T08:56:46.999Z</time></trkpt><trkpt lat="43.57261442088546" lon="12.130616282879174"><ele>321.0</ele><time>2026-04-12T08:56:47.999Z</time></trkpt><trkpt lat="43.57256427424671" lon="12.130797365845645"><ele>321.0</ele><time>2026-04-12T08:56:48.999Z</time></trkpt><trkpt lat="43.572511600355625" lon="12.130975919985893"><ele>321.0</ele><time>2026-04-12T08:56:49.999Z</time></trkpt><trkpt lat="43.572463270996245" lon="12.131146942893652"><ele>321.0</ele><time>2026-04-12T08:56:50.999Z</time></trkpt><trkpt lat="43.572419325840215" lon="12.131308639712454"><ele>321.0</ele><time>2026-04-12T08:56:51.999Z</time></trkpt><trkpt lat="43.572375225431124" lon="12.131456154548017"><ele>321.0</ele><time>2026-04-12T08:56:52.999Z</time></trkpt><trkpt lat="43.5723384783549" lon="12.131593034642389"><ele>321.20000000000005</ele><time>2026-04-12T08:56:53.999Z</time></trkpt><trkpt lat="43.57229733532266" lon="12.131715963469304"><ele>321.40000000000003</ele><time>2026-04-12T08:56:54.999Z</time></trkpt><trkpt lat="43.57224497021425" lon="12.131804636146743"><ele>321.6</ele><time>2026-04-12T08:56:55.999Z</time></trkpt><trkpt lat="43.572170730335294" lon="12.131869718795194"><ele>321.8</ele><time>2026-04-12T08:56:57.999Z</time></trkpt><trkpt lat="43.57211025762598" lon="12.131913088671483"><ele>322.0</ele><time>2026-04-12T08:57:26.999Z</time></trkpt><trkpt lat="43.57198192210744" lon="12.131725545772793"><ele>322.0</ele><time>2026-04-12T08:57:30Z</time></trkpt><trkpt lat="43.57193073936798" lon="12.131596363449377"><ele>322.0</ele><time>2026-04-12T08:57:31Z</time></trkpt><trkpt lat="43.57187220020102" lon="12.131462940120716"><ele>322.0</ele><time>2026-04-12T08:57:32Z</time></trkpt><trkpt lat="43.57180390701508" lon="12.131302511460397"><ele>322.0</ele><time>2026-04-12T08:57:33Z</time></trkpt><trkpt lat="43.5717320705281" lon="12.131141780073962"><ele>321.75</ele><time>2026-04-12T08:57:34Z</time></trkpt><trkpt lat="43.57165738258529" lon="12.13098041632832"><ele>321.5</ele><time>2026-04-12T08:57:35Z</time></trkpt><trkpt lat="43.57158628729011" lon="12.130811205515675"><ele>321.25</ele><time>2026-04-12T08:57:36Z</time></trkpt><trkpt lat="43.57150845870807" lon="12.13063283532804"><ele>321.0</ele><time>2026-04-12T08:57:37Z</time></trkpt><trkpt lat="43.57142594120345" lon="12.130451056637407"><ele>320.6666666666667</ele><time>2026-04-12T08:57:38Z</time></trkpt><trkpt lat="43.57134181824724" lon="12.130266033878543"><ele>320.33333333333337</ele><time>2026-04-12T08:57:39Z</time></trkpt><trkpt lat="43.57125764956828" lon="12.130076614594254"><ele>320.0</ele><time>2026-04-12T08:57:40Z</time></trkpt><trkpt lat="43.571173653727506" lon="12.129882662180966"><ele>319.6666666666667</ele><time>2026-04-12T08:57:41Z</time></trkpt><trkpt lat="43.571089524489004" lon="12.129684375758897"><ele>319.3333333333333</ele><time>2026-04-12T08:57:42Z</time></trkpt><trkpt lat="43.571002606308745" lon="12.12948274974077"><ele>319.0</ele><time>2026-04-12T08:57:43Z</time></trkpt><trkpt lat="43.57091603567752" lon="12.129281128126484"><ele>319.0</ele><time>2026-04-12T08:57:44Z</time></trkpt><trkpt lat="43.570825039189174" lon="12.129077998786565"><ele>319.0</ele><time>2026-04-12T08:57:45Z</time></trkpt><trkpt lat="43.57074337576467" lon="12.128891755574333"><ele>319.0</ele><time>2026-04-12T08:57:46Z</time></trkpt><trkpt lat="43.570663638468446" lon="12.128738012416717"><ele>319.25</ele><time>2026-04-12T08:57:47Z</time></trkpt><trkpt lat="43.5705877622265" lon="12.128601340652002"><ele>319.5</ele><time>2026-04-12T08:57:48Z</time></trkpt><trkpt lat="43.57051880768728" lon="12.12846731875435"><ele>319.75</ele><time>2026-04-12T08:57:49Z</time></trkpt><trkpt lat="43.57046235349209" lon="12.128307619282179"><ele>320.0</ele><time>2026-04-12T08:57:50Z</time></trkpt><trkpt lat="43.570401119496374" lon="12.12812351438796"><ele>318.0</ele><time>2026-04-12T08:57:51Z</time></trkpt><trkpt lat="43.570327421613236" lon="12.1279299026405"><ele>316.0</ele><time>2026-04-12T08:57:52Z</time></trkpt><trkpt lat="43.5702517263162" lon="12.1277414171373"><ele>314.0</ele><time>2026-04-12T08:57:53Z</time></trkpt><trkpt lat="43.570171483985234" lon="12.127549232141275"><ele>313.33333333333337</ele><time>2026-04-12T08:57:54Z</time></trkpt><trkpt lat="43.570085387088845" lon="12.127366374318855"><ele>312.6666666666667</ele><time>2026-04-12T08:57:55Z</time></trkpt><trkpt lat="43.570001296357006" lon="12.127188010835287"><ele>312.0</ele><time>2026-04-12T08:57:56Z</time></trkpt><trkpt lat="43.569931559603766" lon="12.127018596554398"><ele>312.0</ele><time>2026-04-12T08:57:57Z</time></trkpt><trkpt lat="43.56986946811671" lon="12.12686960299512"><ele>312.0</ele><time>2026-04-12T08:57:58Z</time></trkpt><trkpt lat="43.56980701134766" lon="12.126727943856428"><ele>312.0</ele><time>2026-04-12T08:57:59Z</time></trkpt><trkpt lat="43.569744697442324" lon="12.126592854867473"><ele>312.0</ele><time>2026-04-12T08:58:00Z</time></trkpt><trkpt lat="43.5696843941691" lon="12.12646613736844"><ele>312.25</ele><time>2026-04-12T08:58:01Z</time></trkpt><trkpt lat="43.56962677855848" lon="12.1263317992101"><ele>312.5</ele><time>2026-04-12T08:58:02Z</time></trkpt><trkpt lat="43.569573735964944" lon="12.126199988326373"><ele>312.75</ele><time>2026-04-12T08:58:03Z</time></trkpt><trkpt lat="43.56951802453234" lon="12.126066559472175"><ele>313.0</ele><time>2026-04-12T08:58:04Z</time></trkpt><trkpt lat="43.5694619753055" lon="12.125924958346117"><ele>313.0</ele><time>2026-04-12T08:58:05Z</time></trkpt><trkpt lat="43.56940546727486" lon="12.125778604929415"><ele>313.0</ele><time>2026-04-12T08:58:06Z</time></trkpt><trkpt lat="43.56934237518542" lon="12.125623983567682"><ele>313.0</ele><time>2026-04-12T08:58:07Z</time></trkpt><trkpt lat="43.56927725700592" lon="12.125472355433073"><ele>313.0</ele><time>2026-04-12T08:58:08Z</time></trkpt><trkpt lat="43.56921636452699" lon="12.125330783263662"><ele>313.0</ele><time>2026-04-12T08:58:09Z</time></trkpt><trkpt lat="43.569155735747245" lon="12.125189214815473"><ele>313.0</ele><time>2026-04-12T08:58:10Z</time></trkpt><trkpt lat="43.56910126424794" lon="12.125051741908816"><ele>313.0</ele><time>2026-04-12T08:58:11Z</time></trkpt><trkpt lat="43.56905878053104" lon="12.124921163266748"><ele>313.0</ele><time>2026-04-12T08:58:12Z</time></trkpt><trkpt lat="43.569024450646694" lon="12.124806477578943"><ele>313.0</ele><time>2026-04-12T08:58:13Z</time></trkpt><trkpt lat="43.56899951256167" lon="12.124691926887875"><ele>313.0</ele><time>2026-04-12T08:58:14Z</time></trkpt><trkpt lat="43.568982352783124" lon="12.124579319048623"><ele>313.0</ele><time>2026-04-12T08:58:15Z</time></trkpt><trkpt lat="43.568975900670566" lon="12.124469747682783"><ele>313.0</ele><time>2026-04-12T08:58:16Z</time></trkpt><trkpt lat="43.568968260772714" lon="12.124352277256778"><ele>313.0</ele><time>2026-04-12T08:58:17Z</time></trkpt><trkpt lat="43.56894352108886" lon="12.124238646038501"><ele>313.0</ele><time>2026-04-12T08:58:18Z</time></trkpt><trkpt lat="43.568879090319484" lon="12.124129020174053"><ele>313.0</ele><time>2026-04-12T08:58:19Z</time></trkpt><trkpt lat="43.56880367441456" lon="12.12404057224793"><ele>312.75</ele><time>2026-04-12T08:58:20Z</time></trkpt><trkpt lat="43.56871402743603" lon="12.123969811955496"><ele>312.5</ele><time>2026-04-12T08:58:21Z</time></trkpt><trkpt lat="43.56862829995057" lon="12.123877773817075"><ele>312.25</ele><time>2026-04-12T08:58:22Z</time></trkpt><trkpt lat="43.56854921386675" lon="12.12374821826106"><ele>312.0</ele><time>2026-04-12T08:58:23Z</time></trkpt><trkpt lat="43.56848264810464" lon="12.12360310833316"><ele>311.75</ele><time>2026-04-12T08:58:24Z</time></trkpt><trkpt lat="43.56842041656908" lon="12.123466201904959"><ele>311.5</ele><time>2026-04-12T08:58:25Z</time></trkpt><trkpt lat="43.56834716900611" lon="12.123327529660745"><ele>311.25</ele><time>2026-04-12T08:58:26Z</time></trkpt><trkpt lat="43.56826885319928" lon="12.1231824062376"><ele>311.0</ele><time>2026-04-12T08:58:27Z</time></trkpt><trkpt lat="43.56819589259964" lon="12.123027228711903"><ele>311.0</ele><time>2026-04-12T08:58:28Z</time></trkpt><trkpt lat="43.56812651468729" lon="12.12286231179919"><ele>311.0</ele><time>2026-04-12T08:58:29Z</time></trkpt><trkpt lat="43.568050911843066" lon="12.122703666429"><ele>311.0</ele><time>2026-04-12T08:58:30Z</time></trkpt><trkpt lat="43.56797164493309" lon="12.122589663815617"><ele>311.0</ele><time>2026-04-12T08:58:31Z</time></trkpt><trkpt lat="43.567914809818426" lon="12.122464830450575"><ele>311.0</ele><time>2026-04-12T08:58:32Z</time></trkpt><trkpt lat="43.56787003131949" lon="12.122370363144412"><ele>311.0</ele><time>2026-04-12T08:58:33Z</time></trkpt><trkpt lat="43.56782251375316" lon="12.122213903393392"><ele>311.0</ele><time>2026-04-12T08:58:35Z</time></trkpt><trkpt lat="43.56784807170335" lon="12.122088743209728"><ele>311.0</ele><time>2026-04-12T08:58:37Z</time></trkpt><trkpt lat="43.5678906045296" lon="12.121950337799676"><ele>311.0</ele><time>2026-04-12T08:58:39Z</time></trkpt><trkpt lat="43.567879431729125" lon="12.121814399495136"><ele>310.5</ele><time>2026-04-12T08:58:41Z</time></trkpt><trkpt lat="43.56781205490369" lon="12.121746998065605"><ele>310.0</ele><time>2026-04-12T08:58:42Z</time></trkpt><trkpt lat="43.56774966355263" lon="12.12170522828752"><ele>309.5</ele><time>2026-04-12T08:58:43Z</time></trkpt><trkpt lat="43.567675641833844" lon="12.121693610477822"><ele>309.0</ele><time>2026-04-12T08:58:44Z</time></trkpt><trkpt lat="43.56759486298366" lon="12.121725604966613"><ele>308.5</ele><time>2026-04-12T08:58:45Z</time></trkpt><trkpt lat="43.567498741756864" lon="12.121771249217034"><ele>308.0</ele><time>2026-04-12T08:58:46Z</time></trkpt><trkpt lat="43.56740139693272" lon="12.12178882503508"><ele>308.0</ele><time>2026-04-12T08:58:47Z</time></trkpt><trkpt lat="43.56731088140603" lon="12.121738357903087"><ele>308.0</ele><time>2026-04-12T08:58:48Z</time></trkpt><trkpt lat="43.56721781793103" lon="12.121718021254045"><ele>308.0</ele><time>2026-04-12T08:58:49Z</time></trkpt><trkpt lat="43.56714042332088" lon="12.12166405887196"><ele>308.0</ele><time>2026-04-12T08:58:50Z</time></trkpt><trkpt lat="43.5670728474518" lon="12.121613678855887"><ele>308.0</ele><time>2026-04-12T08:58:51Z</time></trkpt><trkpt lat="43.56701512224218" lon="12.121572010327624"><ele>308.0</ele><time>2026-04-12T08:58:52Z</time></trkpt><trkpt lat="43.56689450939483" lon="12.121484404406372"><ele>308.2</ele><time>2026-04-12T08:58:54Z</time></trkpt><trkpt lat="43.56681365062601" lon="12.121470485868876"><ele>308.4</ele><time>2026-04-12T08:58:55Z</time></trkpt><trkpt lat="43.56672866594935" lon="12.12142480633283"><ele>308.59999999999997</ele><time>2026-04-12T08:58:56Z</time></trkpt><trkpt lat="43.56663825404393" lon="12.121376774393639"><ele>308.8</ele><time>2026-04-12T08:58:57Z</time></trkpt><trkpt lat="43.566539165678115" lon="12.121326397043369"><ele>309.0</ele><time>2026-04-12T08:58:58Z</time></trkpt><trkpt lat="43.56643575582033" lon="12.121281620767103"><ele>309.0</ele><time>2026-04-12T08:58:59Z</time></trkpt><trkpt lat="43.566330013154676" lon="12.121231118337294"><ele>309.0</ele><time>2026-04-12T08:59:00Z</time></trkpt><trkpt lat="43.56622976554635" lon="12.121174633023948"><ele>309.0</ele><time>2026-04-12T08:59:01Z</time></trkpt><trkpt lat="43.566127005653264" lon="12.121123237918095"><ele>309.0</ele><time>2026-04-12T08:59:02Z</time></trkpt><trkpt lat="43.566009930431505" lon="12.121067754695872"><ele>309.25</ele><time>2026-04-12T08:59:03Z</time></trkpt><trkpt lat="43.56588791891569" lon="12.121006075173"><ele>309.5</ele><time>2026-04-12T08:59:04Z</time></trkpt><trkpt lat="43.56575670784922" lon="12.120940808030745"><ele>309.75</ele><time>2026-04-12T08:59:05Z</time></trkpt><trkpt lat="43.56561775039333" lon="12.120877758410204"><ele>310.0</ele><time>2026-04-12T08:59:06Z</time></trkpt><trkpt lat="43.56549232227352" lon="12.120820804331089"><ele>310.0</ele><time>2026-04-12T08:59:07Z</time></trkpt><trkpt lat="43.56536560104929" lon="12.120760835675872"><ele>310.0</ele><time>2026-04-12T08:59:08Z</time></trkpt><trkpt lat="43.56522840647315" lon="12.12069261888692"><ele>310.0</ele><time>2026-04-12T08:59:09Z</time></trkpt><trkpt lat="43.56509702151749" lon="12.120619196645848"><ele>310.0</ele><time>2026-04-12T08:59:09.999Z</time></trkpt><trkpt lat="43.5649586268535" lon="12.120543932865031"><ele>309.75</ele><time>2026-04-12T08:59:10.999Z</time></trkpt><trkpt lat="43.56482136688249" lon="12.120462908783864"><ele>309.5</ele><time>2026-04-12T08:59:11.999Z</time></trkpt><trkpt lat="43.56469570330353" lon="12.120380431584339"><ele>309.25</ele><time>2026-04-12T08:59:12.999Z</time></trkpt><trkpt lat="43.564577379006096" lon="12.12029331816697"><ele>309.0</ele><time>2026-04-12T08:59:13.999Z</time></trkpt><trkpt lat="43.56447187700982" lon="12.120196549559443"><ele>309.0</ele><time>2026-04-12T08:59:14.999Z</time></trkpt><trkpt lat="43.5643712239099" lon="12.120097482420363"><ele>309.0</ele><time>2026-04-12T08:59:15.999Z</time></trkpt><trkpt lat="43.56427715240808" lon="12.119987142902445"><ele>309.0</ele><time>2026-04-12T08:59:16.999Z</time></trkpt><trkpt lat="43.564188684864774" lon="12.119867370279461"><ele>309.0</ele><time>2026-04-12T08:59:17.999Z</time></trkpt><trkpt lat="43.56410355458139" lon="12.119745442768997"><ele>309.2</ele><time>2026-04-12T08:59:18.999Z</time></trkpt><trkpt lat="43.564021107725196" lon="12.119624633883504"><ele>309.4</ele><time>2026-04-12T08:59:19.999Z</time></trkpt><trkpt lat="43.563945720893244" lon="12.119504683912988"><ele>309.6</ele><time>2026-04-12T08:59:20.999Z</time></trkpt><trkpt lat="43.563874710508685" lon="12.119391638024933"><ele>309.8</ele><time>2026-04-12T08:59:21.998Z</time></trkpt><trkpt lat="43.56380595876499" lon="12.119282409566395"><ele>310.0</ele><time>2026-04-12T08:59:22.998Z</time></trkpt><trkpt lat="43.563736163446286" lon="12.119179173730922"><ele>309.8</ele><time>2026-04-12T08:59:23.998Z</time></trkpt><trkpt lat="43.56366591642235" lon="12.119073568887524"><ele>309.6</ele><time>2026-04-12T08:59:24.998Z</time></trkpt><trkpt lat="43.5635972874144" lon="12.118966594805487"><ele>309.4</ele><time>2026-04-12T08:59:25.998Z</time></trkpt><trkpt lat="43.563523751911916" lon="12.118850632730727"><ele>309.2</ele><time>2026-04-12T08:59:26.998Z</time></trkpt><trkpt lat="43.56344379704076" lon="12.118730576652794"><ele>309.0</ele><time>2026-04-12T08:59:27.998Z</time></trkpt><trkpt lat="43.56336765355411" lon="12.118613175253843"><ele>309.0</ele><time>2026-04-12T08:59:28.998Z</time></trkpt><trkpt lat="43.563317703352894" lon="12.118488042455585"><ele>309.0</ele><time>2026-04-12T08:59:29.998Z</time></trkpt><trkpt lat="43.56329368911308" lon="12.11834598844381"><ele>309.0</ele><time>2026-04-12T08:59:30.998Z</time></trkpt><trkpt lat="43.56329287379404" lon="12.11818586380158"><ele>309.0</ele><time>2026-04-12T08:59:31.998Z</time></trkpt><trkpt lat="43.563318923351765" lon="12.118010353975377"><ele>309.0</ele><time>2026-04-12T08:59:32.998Z</time></trkpt><trkpt lat="43.56331852514861" lon="12.117829738163032"><ele>309.0</ele><time>2026-04-12T08:59:33.999Z</time></trkpt><trkpt lat="43.56345166691914" lon="12.117636783771509"><ele>309.0</ele><time>2026-04-12T08:59:34.999Z</time></trkpt><trkpt lat="43.56352871273639" lon="12.117422959329222"><ele>309.0</ele><time>2026-04-12T08:59:35.999Z</time></trkpt><trkpt lat="43.56359398955541" lon="12.11718899861162"><ele>309.0</ele><time>2026-04-12T08:59:36.999Z</time></trkpt><trkpt lat="43.5636503815564" lon="12.116953554388386"><ele>309.0</ele><time>2026-04-12T08:59:37.999Z</time></trkpt><trkpt lat="43.56370426421808" lon="12.116706825123815"><ele>309.3333333333333</ele><time>2026-04-12T08:59:38.999Z</time></trkpt><trkpt lat="43.56375553119526" lon="12.116463683882754"><ele>309.66666666666663</ele><time>2026-04-12T08:59:39.999Z</time></trkpt><trkpt lat="43.56380282059065" lon="12.116218123294486"><ele>310.0</ele><time>2026-04-12T08:59:40.999Z</time></trkpt><trkpt lat="43.56384025038486" lon="12.11598168215067"><ele>310.0</ele><time>2026-04-12T08:59:41.999Z</time></trkpt><trkpt lat="43.563862736693636" lon="12.11575771593562"><ele>310.0</ele><time>2026-04-12T08:59:42.999Z</time></trkpt><trkpt lat="43.56387133661852" lon="12.115530746044659"><ele>310.0</ele><time>2026-04-12T08:59:43.999Z</time></trkpt><trkpt lat="43.56386947640783" lon="12.115291771685142"><ele>310.3333333333333</ele><time>2026-04-12T08:59:44.999Z</time></trkpt><trkpt lat="43.563852936720885" lon="12.115044758083059"><ele>310.6666666666667</ele><time>2026-04-12T08:59:45.999Z</time></trkpt><trkpt lat="43.56382002029742" lon="12.114782357728235"><ele>311.0</ele><time>2026-04-12T08:59:47Z</time></trkpt><trkpt lat="43.56376207512277" lon="12.114521294009029"><ele>311.0</ele><time>2026-04-12T08:59:48Z</time></trkpt><trkpt lat="43.56369206640828" lon="12.114269456808731"><ele>311.0</ele><time>2026-04-12T08:59:48.999Z</time></trkpt><trkpt lat="43.56360437143048" lon="12.114017533085061"><ele>311.0</ele><time>2026-04-12T08:59:49.999Z</time></trkpt><trkpt lat="43.56350081033365" lon="12.113756265208888"><ele>310.5</ele><time>2026-04-12T08:59:50.999Z</time></trkpt><trkpt lat="43.56339356481472" lon="12.11348583979392"><ele>310.0</ele><time>2026-04-12T08:59:51.999Z</time></trkpt><trkpt lat="43.56328698354447" lon="12.113205701666027"><ele>309.5</ele><time>2026-04-12T08:59:52.999Z</time></trkpt><trkpt lat="43.56318032497533" lon="12.112923991626726"><ele>309.0</ele><time>2026-04-12T08:59:53.999Z</time></trkpt><trkpt lat="43.56307202239886" lon="12.112638773694316"><ele>309.5</ele><time>2026-04-12T08:59:54.999Z</time></trkpt><trkpt lat="43.562959301000355" lon="12.112347161144847"><ele>310.0</ele><time>2026-04-12T08:59:55.999Z</time></trkpt><trkpt lat="43.562848576892165" lon="12.11204952708822"><ele>310.0</ele><time>2026-04-12T08:59:56.999Z</time></trkpt><trkpt lat="43.5627367490311" lon="12.111752826035348"><ele>310.0</ele><time>2026-04-12T08:59:57.999Z</time></trkpt><trkpt lat="43.56262579597216" lon="12.1114574051074"><ele>310.5</ele><time>2026-04-12T08:59:58.999Z</time></trkpt><trkpt lat="43.56251361998963" lon="12.111161658935647"><ele>311.0</ele><time>2026-04-12T08:59:59.999Z</time></trkpt><trkpt lat="43.562407082987" lon="12.110877072130846"><ele>310.6666666666667</ele><time>2026-04-12T09:00:00.999Z</time></trkpt><trkpt lat="43.562301680575146" lon="12.110606284314617"><ele>310.3333333333333</ele><time>2026-04-12T09:00:01.999Z</time></trkpt><trkpt lat="43.56219809250036" lon="12.11033977624612"><ele>310.0</ele><time>2026-04-12T09:00:02.999Z</time></trkpt><trkpt lat="43.56209570838523" lon="12.110074864956259"><ele>310.3333333333333</ele><time>2026-04-12T09:00:03.999Z</time></trkpt><trkpt lat="43.56199664633732" lon="12.109815373696163"><ele>310.6666666666667</ele><time>2026-04-12T09:00:04.999Z</time></trkpt><trkpt lat="43.561899003403745" lon="12.10955966600438"><ele>311.0</ele><time>2026-04-12T09:00:05.999Z</time></trkpt><trkpt lat="43.56180497389312" lon="12.10930920483832"><ele>311.33333333333337</ele><time>2026-04-12T09:00:06.999Z</time></trkpt><trkpt lat="43.561710457393055" lon="12.109059416417809"><ele>311.6666666666667</ele><time>2026-04-12T09:00:07.999Z</time></trkpt><trkpt lat="43.561615323690916" lon="12.108805380738323"><ele>312.0</ele><time>2026-04-12T09:00:08.999Z</time></trkpt><trkpt lat="43.56152034081379" lon="12.108549499270636"><ele>312.0</ele><time>2026-04-12T09:00:09.999Z</time></trkpt><trkpt lat="43.56142235041108" lon="12.108291429428517"><ele>312.0</ele><time>2026-04-12T09:00:10.999Z</time></trkpt><trkpt lat="43.561324385353494" lon="12.108031227632969"><ele>312.0</ele><time>2026-04-12T09:00:11.999Z</time></trkpt><trkpt lat="43.561224732349736" lon="12.107771804225699"><ele>312.0</ele><time>2026-04-12T09:00:12.999Z</time></trkpt><trkpt lat="43.561126544121876" lon="12.107514805672004"><ele>312.0</ele><time>2026-04-12T09:00:13.999Z</time></trkpt><trkpt lat="43.56102877536392" lon="12.107255879017291"><ele>312.0</ele><time>2026-04-12T09:00:14.999Z</time></trkpt><trkpt lat="43.56093158712727" lon="12.106996790590472"><ele>312.0</ele><time>2026-04-12T09:00:15.999Z</time></trkpt><trkpt lat="43.56083621313108" lon="12.10673985423056"><ele>312.0</ele><time>2026-04-12T09:00:16.999Z</time></trkpt><trkpt lat="43.560746683786945" lon="12.106501310217897"><ele>312.0</ele><time>2026-04-12T09:00:17.999Z</time></trkpt><trkpt lat="43.56066398259591" lon="12.106276783380217"><ele>312.0</ele><time>2026-04-12T09:00:18.999Z</time></trkpt><trkpt lat="43.560582264913876" lon="12.106061721855214"><ele>312.0</ele><time>2026-04-12T09:00:19.999Z</time></trkpt><trkpt lat="43.560500098165754" lon="12.10585142092729"><ele>312.0</ele><time>2026-04-12T09:00:20.999Z</time></trkpt><trkpt lat="43.5604250490083" lon="12.105647494562023"><ele>312.3333333333333</ele><time>2026-04-12T09:00:21.999Z</time></trkpt><trkpt lat="43.56035112381495" lon="12.105440401258832"><ele>312.66666666666663</ele><time>2026-04-12T09:00:22.999Z</time></trkpt><trkpt lat="43.56027203617816" lon="12.105238350462917"><ele>313.0</ele><time>2026-04-12T09:00:23.999Z</time></trkpt><trkpt lat="43.56019511399177" lon="12.105037076022311"><ele>313.0</ele><time>2026-04-12T09:00:24.999Z</time></trkpt><trkpt lat="43.56011953538026" lon="12.104836609702986"><ele>313.0</ele><time>2026-04-12T09:00:25.999Z</time></trkpt><trkpt lat="43.560045195250495" lon="12.104642924319348"><ele>313.0</ele><time>2026-04-12T09:00:26.999Z</time></trkpt><trkpt lat="43.55997280231606" lon="12.104454512833593"><ele>313.0</ele><time>2026-04-12T09:00:27.999Z</time></trkpt><trkpt lat="43.559903006131506" lon="12.104272198519688"><ele>313.0</ele><time>2026-04-12T09:00:28.999Z</time></trkpt><trkpt lat="43.55983679492711" lon="12.104099534153463"><ele>313.0</ele><time>2026-04-12T09:00:29.999Z</time></trkpt><trkpt lat="43.559769804005484" lon="12.103937752284615"><ele>313.0</ele><time>2026-04-12T09:00:30.999Z</time></trkpt><trkpt lat="43.559718506117484" lon="12.10378464687901"><ele>313.0</ele><time>2026-04-12T09:00:31.999Z</time></trkpt><trkpt lat="43.55968423503756" lon="12.103636556716408"><ele>313.0</ele><time>2026-04-12T09:00:32.999Z</time></trkpt><trkpt lat="43.55967276846002" lon="12.103480106740866"><ele>313.0</ele><time>2026-04-12T09:00:33.999Z</time></trkpt><trkpt lat="43.55966295196248" lon="12.103319937185915"><ele>313.0</ele><time>2026-04-12T09:00:34.999Z</time></trkpt><trkpt lat="43.55961605776311" lon="12.103180252279678"><ele>313.5</ele><time>2026-04-12T09:00:35.999Z</time></trkpt><trkpt lat="43.55951571193451" lon="12.103073978845176"><ele>314.0</ele><time>2026-04-12T09:00:36.999Z</time></trkpt><trkpt lat="43.55943255903198" lon="12.102937338644699"><ele>314.5</ele><time>2026-04-12T09:00:37.999Z</time></trkpt><trkpt lat="43.55933229441025" lon="12.102765438462441"><ele>315.0</ele><time>2026-04-12T09:00:38.999Z</time></trkpt><trkpt lat="43.55924280823253" lon="12.102557452792293"><ele>314.6666666666667</ele><time>2026-04-12T09:00:39.999Z</time></trkpt><trkpt lat="43.55916089750383" lon="12.102328230585094"><ele>314.33333333333337</ele><time>2026-04-12T09:00:40.999Z</time></trkpt><trkpt lat="43.55906925381833" lon="12.102073960078686"><ele>314.0</ele><time>2026-04-12T09:00:41.999Z</time></trkpt><trkpt lat="43.55896081126826" lon="12.10178966526754"><ele>313.5</ele><time>2026-04-12T09:00:42.999Z</time></trkpt><trkpt lat="43.55884953265253" lon="12.10150222464092"><ele>313.0</ele><time>2026-04-12T09:00:43.999Z</time></trkpt><trkpt lat="43.558729130314035" lon="12.101200999719802"><ele>313.0</ele><time>2026-04-12T09:00:44.999Z</time></trkpt><trkpt lat="43.55861631436299" lon="12.100854411638904"><ele>313.0</ele><time>2026-04-12T09:00:45.999Z</time></trkpt><trkpt lat="43.55848525155441" lon="12.100508483316078"><ele>313.0</ele><time>2026-04-12T09:00:46.999Z</time></trkpt><trkpt lat="43.55834623339235" lon="12.100179507463286"><ele>313.0</ele><time>2026-04-12T09:00:47.999Z</time></trkpt><trkpt lat="43.55822832532597" lon="12.099853148018967"><ele>312.5</ele><time>2026-04-12T09:00:48.999Z</time></trkpt><trkpt lat="43.558107594246394" lon="12.099536632183552"><ele>312.0</ele><time>2026-04-12T09:00:49.999Z</time></trkpt><trkpt lat="43.557988261932586" lon="12.099230075716806"><ele>312.0</ele><time>2026-04-12T09:00:50.999Z</time></trkpt><trkpt lat="43.557873543543714" lon="12.098927554861158"><ele>312.0</ele><time>2026-04-12T09:00:51.999Z</time></trkpt><trkpt lat="43.55776011470685" lon="12.09862398130991"><ele>311.5</ele><time>2026-04-12T09:00:52.999Z</time></trkpt><trkpt lat="43.55764989278453" lon="12.098320259023556"><ele>311.0</ele><time>2026-04-12T09:00:53.999Z</time></trkpt><trkpt lat="43.557538806987054" lon="12.098019380529747"><ele>311.0</ele><time>2026-04-12T09:00:54.999Z</time></trkpt><trkpt lat="43.55742366025006" lon="12.097721803417693"><ele>311.0</ele><time>2026-04-12T09:00:55.999Z</time></trkpt><trkpt lat="43.55730822820548" lon="12.097426375573615"><ele>311.5</ele><time>2026-04-12T09:00:56.999Z</time></trkpt><trkpt lat="43.55719564138851" lon="12.09713016231705"><ele>312.0</ele><time>2026-04-12T09:00:57.999Z</time></trkpt><trkpt lat="43.55708436850998" lon="12.096833304156938"><ele>311.5</ele><time>2026-04-12T09:00:58.999Z</time></trkpt><trkpt lat="43.55697354184264" lon="12.096539840035838"><ele>311.0</ele><time>2026-04-12T09:00:59.999Z</time></trkpt><trkpt lat="43.556861929600345" lon="12.09624647632798"><ele>311.0</ele><time>2026-04-12T09:01:00.999Z</time></trkpt><trkpt lat="43.556749992864816" lon="12.095953015966606"><ele>311.0</ele><time>2026-04-12T09:01:01.999Z</time></trkpt><trkpt lat="43.55664142993099" lon="12.095660987508452"><ele>311.5</ele><time>2026-04-12T09:01:02.999Z</time></trkpt><trkpt lat="43.55653090653914" lon="12.095372884562568"><ele>312.0</ele><time>2026-04-12T09:01:03.999Z</time></trkpt><trkpt lat="43.55642117209218" lon="12.095083569165384"><ele>311.5</ele><time>2026-04-12T09:01:04.999Z</time></trkpt><trkpt lat="43.556308670949484" lon="12.094799897065714"><ele>311.0</ele><time>2026-04-12T09:01:05.999Z</time></trkpt><trkpt lat="43.55620117128797" lon="12.094515589481057"><ele>312.0</ele><time>2026-04-12T09:01:06.999Z</time></trkpt><trkpt lat="43.55609945670165" lon="12.094237781880343"><ele>313.0</ele><time>2026-04-12T09:01:07.999Z</time></trkpt><trkpt lat="43.55599314988105" lon="12.093955008891966"><ele>313.0</ele><time>2026-04-12T09:01:08.999Z</time></trkpt><trkpt lat="43.55588402873962" lon="12.093672138778146"><ele>313.0</ele><time>2026-04-12T09:01:09.999Z</time></trkpt><trkpt lat="43.555775664426804" lon="12.093388968929421"><ele>313.0</ele><time>2026-04-12T09:01:10.999Z</time></trkpt><trkpt lat="43.55566337818354" lon="12.09311218742819"><ele>313.0</ele><time>2026-04-12T09:01:11.999Z</time></trkpt><trkpt lat="43.55557183581837" lon="12.092822400096757"><ele>313.0</ele><time>2026-04-12T09:01:12.999Z</time></trkpt><trkpt lat="43.555466929393525" lon="12.092543852540445"><ele>313.0</ele><time>2026-04-12T09:01:13.999Z</time></trkpt><trkpt lat="43.55536151606814" lon="12.092264741185266"><ele>314.0</ele><time>2026-04-12T09:01:14.999Z</time></trkpt><trkpt lat="43.555256368530976" lon="12.09198633313747"><ele>315.0</ele><time>2026-04-12T09:01:15.999Z</time></trkpt><trkpt lat="43.55515193762428" lon="12.091709592263527"><ele>315.5</ele><time>2026-04-12T09:01:16.999Z</time></trkpt><trkpt lat="43.55503584313545" lon="12.091441338618266"><ele>316.0</ele><time>2026-04-12T09:01:17.999Z</time></trkpt><trkpt lat="43.55493563765029" lon="12.091162952740063"><ele>316.0</ele><time>2026-04-12T09:01:18.999Z</time></trkpt><trkpt lat="43.55483256806849" lon="12.09088603658757"><ele>316.0</ele><time>2026-04-12T09:01:19.999Z</time></trkpt><trkpt lat="43.554728486684226" lon="12.090608228927186"><ele>315.5</ele><time>2026-04-12T09:01:20.999Z</time></trkpt><trkpt lat="43.554623659857384" lon="12.09032729033346"><ele>315.0</ele><time>2026-04-12T09:01:21.999Z</time></trkpt><trkpt lat="43.55451731037273" lon="12.090049346889506"><ele>315.5</ele><time>2026-04-12T09:01:22.999Z</time></trkpt><trkpt lat="43.554410930483506" lon="12.089769432211304"><ele>316.0</ele><time>2026-04-12T09:01:23.999Z</time></trkpt><trkpt lat="43.55430501209303" lon="12.089489845090327"><ele>316.0</ele><time>2026-04-12T09:01:24.999Z</time></trkpt><trkpt lat="43.55419880175446" lon="12.089209972732469"><ele>316.0</ele><time>2026-04-12T09:01:25.999Z</time></trkpt><trkpt lat="43.55409147132908" lon="12.088929865675862"><ele>315.5</ele><time>2026-04-12T09:01:26.999Z</time></trkpt><trkpt lat="43.55398476979572" lon="12.088648739638389"><ele>315.0</ele><time>2026-04-12T09:01:27.999Z</time></trkpt><trkpt lat="43.55387846381158" lon="12.088367267469648"><ele>315.0</ele><time>2026-04-12T09:01:28.999Z</time></trkpt><trkpt lat="43.55377315011231" lon="12.088084422823075"><ele>315.0</ele><time>2026-04-12T09:01:29.999Z</time></trkpt><trkpt lat="43.553668009349416" lon="12.087800386335589"><ele>314.5</ele><time>2026-04-12T09:01:30.999Z</time></trkpt><trkpt lat="43.55356022983312" lon="12.087519155067135"><ele>314.0</ele><time>2026-04-12T09:01:31.999Z</time></trkpt><trkpt lat="43.5534530677605" lon="12.087237824586909"><ele>314.0</ele><time>2026-04-12T09:01:32.999Z</time></trkpt><trkpt lat="43.55334622277271" lon="12.086953274136832"><ele>314.0</ele><time>2026-04-12T09:01:33.999Z</time></trkpt><trkpt lat="43.553238793951095" lon="12.086669369106202"><ele>314.5</ele><time>2026-04-12T09:01:34.999Z</time></trkpt><trkpt lat="43.553130838586576" lon="12.086388140077483"><ele>315.0</ele><time>2026-04-12T09:01:35.999Z</time></trkpt><trkpt lat="43.55302289455998" lon="12.086108892828722"><ele>315.0</ele><time>2026-04-12T09:01:36.999Z</time></trkpt><trkpt lat="43.552920603204946" lon="12.08584209762959"><ele>315.0</ele><time>2026-04-12T09:01:37.999Z</time></trkpt><trkpt lat="43.552822314262" lon="12.085585337353624"><ele>315.0</ele><time>2026-04-12T09:01:39Z</time></trkpt><trkpt lat="43.552725061570484" lon="12.08532607169064"><ele>315.6666666666667</ele><time>2026-04-12T09:01:40Z</time></trkpt><trkpt lat="43.55262734615684" lon="12.085065944278453"><ele>316.33333333333337</ele><time>2026-04-12T09:01:41Z</time></trkpt><trkpt lat="43.552530422559386" lon="12.084814249482069"><ele>317.0</ele><time>2026-04-12T09:01:42Z</time></trkpt><trkpt lat="43.55243594010455" lon="12.084566848778813"><ele>317.0</ele><time>2026-04-12T09:01:43Z</time></trkpt><trkpt lat="43.552342033703724" lon="12.084315090221452"><ele>317.0</ele><time>2026-04-12T09:01:44Z</time></trkpt><trkpt lat="43.55224261508692" lon="12.084062678154279"><ele>317.0</ele><time>2026-04-12T09:01:45Z</time></trkpt><trkpt lat="43.55213281857978" lon="12.083802826946023"><ele>316.5</ele><time>2026-04-12T09:01:46Z</time></trkpt><trkpt lat="43.552021797327725" lon="12.083530404540584"><ele>316.0</ele><time>2026-04-12T09:01:47Z</time></trkpt><trkpt lat="43.55191956852114" lon="12.083245287042411"><ele>316.0</ele><time>2026-04-12T09:01:48Z</time></trkpt><trkpt lat="43.551823288385016" lon="12.082955624350868"><ele>316.0</ele><time>2026-04-12T09:01:49Z</time></trkpt><trkpt lat="43.551722670198906" lon="12.082675618599529"><ele>316.0</ele><time>2026-04-12T09:01:50Z</time></trkpt><trkpt lat="43.55161733984384" lon="12.082401608943439"><ele>316.0</ele><time>2026-04-12T09:01:51Z</time></trkpt><trkpt lat="43.551512173602305" lon="12.082130001173136"><ele>316.0</ele><time>2026-04-12T09:01:52Z</time></trkpt><trkpt lat="43.551409739464006" lon="12.081857970836978"><ele>316.0</ele><time>2026-04-12T09:01:53Z</time></trkpt><trkpt lat="43.551306219541644" lon="12.081587728530396"><ele>316.0</ele><time>2026-04-12T09:01:54Z</time></trkpt><trkpt lat="43.55120333275316" lon="12.081314525473198"><ele>316.0</ele><time>2026-04-12T09:01:55Z</time></trkpt><trkpt lat="43.551101882185286" lon="12.081044404613209"><ele>316.0</ele><time>2026-04-12T09:01:56Z</time></trkpt><trkpt lat="43.55100241534401" lon="12.080782102177588"><ele>316.0</ele><time>2026-04-12T09:01:57Z</time></trkpt><trkpt lat="43.55090363534071" lon="12.08052211921187"><ele>316.0</ele><time>2026-04-12T09:01:58Z</time></trkpt><trkpt lat="43.5508022869853" lon="12.080261883118384"><ele>316.3333333333333</ele><time>2026-04-12T09:01:59Z</time></trkpt><trkpt lat="43.55070263983538" lon="12.080001265633658"><ele>316.6666666666667</ele><time>2026-04-12T09:02:00Z</time></trkpt><trkpt lat="43.550602812024266" lon="12.079743358285647"><ele>317.0</ele><time>2026-04-12T09:02:01Z</time></trkpt><trkpt lat="43.55050390602248" lon="12.079485004574908"><ele>317.0</ele><time>2026-04-12T09:02:02Z</time></trkpt><trkpt lat="43.55040392290261" lon="12.07922672202353"><ele>317.0</ele><time>2026-04-12T09:02:03Z</time></trkpt><trkpt lat="43.55030437059427" lon="12.07896920989464"><ele>317.0</ele><time>2026-04-12T09:02:04Z</time></trkpt><trkpt lat="43.550199440399446" lon="12.078709091870248"><ele>317.0</ele><time>2026-04-12T09:02:05Z</time></trkpt><trkpt lat="43.55009486168247" lon="12.078446245961858"><ele>317.0</ele><time>2026-04-12T09:02:06Z</time></trkpt><trkpt lat="43.5499883416782" lon="12.078182130798371"><ele>317.0</ele><time>2026-04-12T09:02:07Z</time></trkpt><trkpt lat="43.54988283950266" lon="12.07791522682613"><ele>317.33333333333337</ele><time>2026-04-12T09:02:08Z</time></trkpt><trkpt lat="43.549781989301124" lon="12.077642493527756"><ele>317.6666666666667</ele><time>2026-04-12T09:02:09Z</time></trkpt><trkpt lat="43.54968584844358" lon="12.077365484982412"><ele>318.0</ele><time>2026-04-12T09:02:10Z</time></trkpt><trkpt lat="43.54958999847117" lon="12.077086167263793"><ele>317.5</ele><time>2026-04-12T09:02:11Z</time></trkpt><trkpt lat="43.549490599601846" lon="12.076807641055446"><ele>317.0</ele><time>2026-04-12T09:02:12Z</time></trkpt><trkpt lat="43.54938681402163" lon="12.076530898612681"><ele>317.0</ele><time>2026-04-12T09:02:13Z</time></trkpt><trkpt lat="43.549281420205524" lon="12.076254309593997"><ele>317.0</ele><time>2026-04-12T09:02:14Z</time></trkpt><trkpt lat="43.549176954596454" lon="12.075976405793051"><ele>318.5</ele><time>2026-04-12T09:02:15Z</time></trkpt><trkpt lat="43.549071906795206" lon="12.07569693598985"><ele>320.0</ele><time>2026-04-12T09:02:16Z</time></trkpt><trkpt lat="43.548965332303744" lon="12.075417532085886"><ele>320.0</ele><time>2026-04-12T09:02:17Z</time></trkpt><trkpt lat="43.54885864201891" lon="12.075137506329654"><ele>320.0</ele><time>2026-04-12T09:02:18Z</time></trkpt><trkpt lat="43.54875136101644" lon="12.074857159035911"><ele>319.5</ele><time>2026-04-12T09:02:19Z</time></trkpt><trkpt lat="43.54864523051369" lon="12.074575895909925"><ele>319.0</ele><time>2026-04-12T09:02:20Z</time></trkpt><trkpt lat="43.54853820653625" lon="12.074292178945344"><ele>319.5</ele><time>2026-04-12T09:02:21Z</time></trkpt><trkpt lat="43.548431599350046" lon="12.074010737945486"><ele>320.0</ele><time>2026-04-12T09:02:22Z</time></trkpt><trkpt lat="43.54832186376136" lon="12.0737295425002"><ele>320.0</ele><time>2026-04-12T09:02:23Z</time></trkpt><trkpt lat="43.54821405244461" lon="12.073448327876676"><ele>320.0</ele><time>2026-04-12T09:02:24Z</time></trkpt><trkpt lat="43.54810637145391" lon="12.073164740556326"><ele>319.5</ele><time>2026-04-12T09:02:25Z</time></trkpt><trkpt lat="43.54799944792029" lon="12.072880485257178"><ele>319.0</ele><time>2026-04-12T09:02:26Z</time></trkpt><trkpt lat="43.54789245484407" lon="12.07259653686282"><ele>318.0</ele><time>2026-04-12T09:02:27Z</time></trkpt><trkpt lat="43.54778549792825" lon="12.072313342749403"><ele>317.0</ele><time>2026-04-12T09:02:28Z</time></trkpt><trkpt lat="43.547677356516296" lon="12.072029214042923"><ele>317.0</ele><time>2026-04-12T09:02:29Z</time></trkpt><trkpt lat="43.54756860473722" lon="12.071744841158715"><ele>317.0</ele><time>2026-04-12T09:02:30Z</time></trkpt><trkpt lat="43.547460648193315" lon="12.071460296959936"><ele>317.5</ele><time>2026-04-12T09:02:31Z</time></trkpt><trkpt lat="43.54735257323782" lon="12.071176478510203"><ele>318.0</ele><time>2026-04-12T09:02:32Z</time></trkpt><trkpt lat="43.54724515797869" lon="12.070892209014753"><ele>318.0</ele><time>2026-04-12T09:02:33Z</time></trkpt><trkpt lat="43.54713827891935" lon="12.07060801140794"><ele>318.0</ele><time>2026-04-12T09:02:33.999Z</time></trkpt><trkpt lat="43.54702961486589" lon="12.070324775220433"><ele>318.0</ele><time>2026-04-12T09:02:34.999Z</time></trkpt><trkpt lat="43.546922025502" lon="12.070042530473549"><ele>318.0</ele><time>2026-04-12T09:02:35.999Z</time></trkpt><trkpt lat="43.546814820951454" lon="12.06975990905432"><ele>318.0</ele><time>2026-04-12T09:02:36.999Z</time></trkpt><trkpt lat="43.54670869017024" lon="12.069474628247278"><ele>318.0</ele><time>2026-04-12T09:02:37.999Z</time></trkpt><trkpt lat="43.54660228385468" lon="12.069191266586493"><ele>318.5</ele><time>2026-04-12T09:02:38.999Z</time></trkpt><trkpt lat="43.54649636241582" lon="12.068911094477004"><ele>319.0</ele><time>2026-04-12T09:02:39.999Z</time></trkpt><trkpt lat="43.54639002353146" lon="12.068629328158146"><ele>319.0</ele><time>2026-04-12T09:02:40.999Z</time></trkpt><trkpt lat="43.546283517012455" lon="12.068351612153432"><ele>319.0</ele><time>2026-04-12T09:02:41.999Z</time></trkpt><trkpt lat="43.54617653477642" lon="12.06807405839531"><ele>319.0</ele><time>2026-04-12T09:02:42.999Z</time></trkpt><trkpt lat="43.546073973032335" lon="12.067797602151018"><ele>319.0</ele><time>2026-04-12T09:02:43.999Z</time></trkpt><trkpt lat="43.54597222164997" lon="12.067523950286931"><ele>319.0</ele><time>2026-04-12T09:02:44.999Z</time></trkpt><trkpt lat="43.545870096443316" lon="12.067257665626526"><ele>320.0</ele><time>2026-04-12T09:02:45.999Z</time></trkpt><trkpt lat="43.54576758689521" lon="12.066994313086918"><ele>321.0</ele><time>2026-04-12T09:02:46.999Z</time></trkpt><trkpt lat="43.54566930167134" lon="12.066733859925693"><ele>322.0</ele><time>2026-04-12T09:02:47.999Z</time></trkpt><trkpt lat="43.54557066256638" lon="12.066473845568417"><ele>322.3333333333333</ele><time>2026-04-12T09:02:48.999Z</time></trkpt><trkpt lat="43.54547421028251" lon="12.066218376295845"><ele>322.6666666666667</ele><time>2026-04-12T09:02:49.999Z</time></trkpt><trkpt lat="43.54537690864009" lon="12.065962439743895"><ele>323.0</ele><time>2026-04-12T09:02:50.999Z</time></trkpt><trkpt lat="43.54528112628561" lon="12.065706691742573"><ele>323.6666666666667</ele><time>2026-04-12T09:02:51.999Z</time></trkpt><trkpt lat="43.54518678559946" lon="12.065452374236152"><ele>324.3333333333333</ele><time>2026-04-12T09:02:52.999Z</time></trkpt><trkpt lat="43.54509163709703" lon="12.065201322483228"><ele>325.0</ele><time>2026-04-12T09:02:53.999Z</time></trkpt><trkpt lat="43.54499663587332" lon="12.06494954188137"><ele>325.66666666666663</ele><time>2026-04-12T09:02:54.999Z</time></trkpt><trkpt lat="43.54490204874562" lon="12.064698963808839"><ele>326.3333333333333</ele><time>2026-04-12T09:02:55.999Z</time></trkpt><trkpt lat="43.54480502034581" lon="12.064451993663624"><ele>327.0</ele><time>2026-04-12T09:02:56.999Z</time></trkpt><trkpt lat="43.54471956681579" lon="12.064221613262793"><ele>327.6666666666667</ele><time>2026-04-12T09:02:57.999Z</time></trkpt><trkpt lat="43.54463667505134" lon="12.063996106246252"><ele>328.33333333333337</ele><time>2026-04-12T09:02:58.999Z</time></trkpt><trkpt lat="43.54455368885651" lon="12.063776291363014"><ele>329.0</ele><time>2026-04-12T09:02:59.999Z</time></trkpt><trkpt lat="43.544479106262195" lon="12.063570178060804"><ele>329.5</ele><time>2026-04-12T09:03:00.999Z</time></trkpt><trkpt lat="43.5444055627426" lon="12.063382278022168"><ele>330.0</ele><time>2026-04-12T09:03:01.999Z</time></trkpt><trkpt lat="43.54434578540185" lon="12.063204529547866"><ele>330.5</ele><time>2026-04-12T09:03:02.999Z</time></trkpt><trkpt lat="43.54429616009608" lon="12.063052684755375"><ele>331.0</ele><time>2026-04-12T09:03:03.999Z</time></trkpt><trkpt lat="43.54425044407654" lon="12.06292622708033"><ele>331.5</ele><time>2026-04-12T09:03:04.999Z</time></trkpt><trkpt lat="43.544210892019954" lon="12.062820734931726"><ele>332.0</ele><time>2026-04-12T09:03:05.999Z</time></trkpt><trkpt lat="43.5441761646178" lon="12.06273005528327"><ele>332.5</ele><time>2026-04-12T09:03:06.999Z</time></trkpt><trkpt lat="43.54413120940227" lon="12.06261435765121"><ele>333.0</ele><time>2026-04-12T09:03:08.999Z</time></trkpt><trkpt lat="43.54407747266699" lon="12.062496667663588"><ele>333.5</ele><time>2026-04-12T09:03:44Z</time></trkpt><trkpt lat="43.54404645429539" lon="12.06239947964729"><ele>334.0</ele><time>2026-04-12T09:03:45Z</time></trkpt><trkpt lat="43.544000483193244" lon="12.062272516686923"><ele>334.75</ele><time>2026-04-12T09:03:46Z</time></trkpt><trkpt lat="43.54395240365603" lon="12.062137395355833"><ele>335.5</ele><time>2026-04-12T09:03:47Z</time></trkpt><trkpt lat="43.54389234674769" lon="12.06198859303669"><ele>336.25</ele><time>2026-04-12T09:03:48Z</time></trkpt><trkpt lat="43.54382043755945" lon="12.061823994943614"><ele>337.0</ele><time>2026-04-12T09:03:49Z</time></trkpt><trkpt lat="43.54375606161193" lon="12.061649634339492"><ele>338.40000000000003</ele><time>2026-04-12T09:03:50Z</time></trkpt><trkpt lat="43.54369951984173" lon="12.061494033962337"><ele>339.8</ele><time>2026-04-12T09:03:51Z</time></trkpt><trkpt lat="43.54365687305836" lon="12.061363385152351"><ele>341.2</ele><time>2026-04-12T09:03:52Z</time></trkpt><trkpt lat="43.54361871498588" lon="12.061255554214357"><ele>342.6</ele><time>2026-04-12T09:03:53Z</time></trkpt><trkpt lat="43.5435879577496" lon="12.061163109107609"><ele>344.0</ele><time>2026-04-12T09:03:54Z</time></trkpt><trkpt lat="43.543581929923576" lon="12.061076252641644"><ele>344.0</ele><time>2026-04-12T09:03:55Z</time></trkpt><trkpt lat="43.543556993941706" lon="12.06096359835647"><ele>344.0</ele><time>2026-04-12T09:03:57Z</time></trkpt><trkpt lat="43.54347496754699" lon="12.060932299336137"><ele>344.0</ele><time>2026-04-12T09:03:58Z</time></trkpt><trkpt lat="43.54333992718515" lon="12.061153221452944"><ele>344.0</ele><time>2026-04-12T09:04:00Z</time></trkpt><trkpt lat="43.543319538722145" lon="12.061280269599582"><ele>344.0</ele><time>2026-04-12T09:04:01Z</time></trkpt><trkpt lat="43.54326971464736" lon="12.061419636439219"><ele>344.0</ele><time>2026-04-12T09:04:02Z</time></trkpt><trkpt lat="43.543227675145964" lon="12.061612210146572"><ele>344.0</ele><time>2026-04-12T09:04:03Z</time></trkpt><trkpt lat="43.54317618941471" lon="12.06178456687547"><ele>344.0</ele><time>2026-04-12T09:04:04Z</time></trkpt><trkpt lat="43.543130297272455" lon="12.061941551540404"><ele>343.2</ele><time>2026-04-12T09:04:05Z</time></trkpt><trkpt lat="43.54309103024286" lon="12.06208175046628"><ele>342.4</ele><time>2026-04-12T09:04:06Z</time></trkpt><trkpt lat="43.54305273383947" lon="12.06221084634548"><ele>341.6</ele><time>2026-04-12T09:04:07Z</time></trkpt><trkpt lat="43.54302000031402" lon="12.062330666983486"><ele>340.8</ele><time>2026-04-12T09:04:08Z</time></trkpt><trkpt lat="43.54299020578667" lon="12.062430090435441"><ele>340.0</ele><time>2026-04-12T09:04:09Z</time></trkpt><trkpt lat="43.54294389740236" lon="12.062539290134328"><ele>341.0</ele><time>2026-04-12T09:04:11Z</time></trkpt><trkpt lat="43.54280382792557" lon="12.062393292231329"><ele>342.0</ele><time>2026-04-12T09:04:14Z</time></trkpt><trkpt lat="43.54271637474653" lon="12.06228575554574"><ele>343.0</ele><time>2026-04-12T09:04:15Z</time></trkpt><trkpt lat="43.54258462738955" lon="12.06216127372672"><ele>343.0</ele><time>2026-04-12T09:04:16Z</time></trkpt><trkpt lat="43.542491604002876" lon="12.062050826643157"><ele>343.0</ele><time>2026-04-12T09:04:17Z</time></trkpt><trkpt lat="43.5424147347097" lon="12.061982369887804"><ele>343.0</ele><time>2026-04-12T09:04:18Z</time></trkpt><trkpt lat="43.54235815772046" lon="12.061915286023371"><ele>343.0</ele><time>2026-04-12T09:04:19Z</time></trkpt><trkpt lat="43.54228904559803" lon="12.061846750420228"><ele>343.0</ele><time>2026-04-12T09:04:21Z</time></trkpt><trkpt lat="43.54242057733424" lon="12.06167251938649"><ele>344.2</ele><time>2026-04-12T09:04:24Z</time></trkpt><trkpt lat="43.542464414246716" lon="12.061589416180858"><ele>345.4</ele><time>2026-04-12T09:04:25Z</time></trkpt><trkpt lat="43.54251253618293" lon="12.06150459014084"><ele>346.59999999999997</ele><time>2026-04-12T09:04:26Z</time></trkpt><trkpt lat="43.54256052006022" lon="12.06141160383277"><ele>347.79999999999995</ele><time>2026-04-12T09:04:28Z</time></trkpt><trkpt lat="43.5426064403265" lon="12.061332645074867"><ele>349.0</ele><time>2026-04-12T09:04:29Z</time></trkpt><trkpt lat="43.542512045675416" lon="12.061176414821256"><ele>349.0</ele><time>2026-04-12T09:04:30Z</time></trkpt><trkpt lat="43.54243896348674" lon="12.061112254357933"><ele>349.0</ele><time>2026-04-12T09:04:32Z</time></trkpt><trkpt lat="43.54239153886014" lon="12.06104664116785"><ele>349.0</ele><time>2026-04-12T09:04:33Z</time></trkpt><trkpt lat="43.54229593088763" lon="12.060946535194494"><ele>349.0</ele><time>2026-04-12T09:04:35Z</time></trkpt><trkpt lat="43.54222191324438" lon="12.06085964717497"><ele>349.0</ele><time>2026-04-12T09:04:37Z</time></trkpt></trkseg><trkseg><trkpt lat="43.54235705976395" lon="12.060685724989634"><ele>353.0</ele><time>2026-04-12T09:16:39.949Z</time></trkpt><trkpt lat="43.54224821484248" lon="12.06077205108813"><ele>353.0</ele><time>2026-04-12T09:16:40.949Z</time></trkpt><trkpt lat="43.54216126232156" lon="12.060828821914757"><ele>353.0</ele><time>2026-04-12T09:16:41.948Z</time></trkpt><trkpt lat="43.54223227703717" lon="12.060884242626706"><ele>353.0</ele><time>2026-04-12T09:16:54Z</time></trkpt><trkpt lat="43.54228934374068" lon="12.060963047914004"><ele>353.0</ele><time>2026-04-12T09:16:56Z</time></trkpt><trkpt lat="43.54238099256132" lon="12.061063676469418"><ele>352.2</ele><time>2026-04-12T09:16:58Z</time></trkpt><trkpt lat="43.5424788250897" lon="12.06115524378153"><ele>351.4</ele><time>2026-04-12T09:17:00Z</time></trkpt><trkpt lat="43.542542960026424" lon="12.06127004091284"><ele>350.59999999999997</ele><time>2026-04-12T09:17:02Z</time></trkpt><trkpt lat="43.54254157572611" lon="12.061370866754407"><ele>349.79999999999995</ele><time>2026-04-12T09:17:05Z</time></trkpt><trkpt lat="43.5424657644368" lon="12.061501222367566"><ele>349.0</ele><time>2026-04-12T09:17:07Z</time></trkpt><trkpt lat="43.54238418174569" lon="12.061641501761061"><ele>348.0</ele><time>2026-04-12T09:17:09Z</time></trkpt><trkpt lat="43.542344348464596" lon="12.061709994082104"><ele>347.0</ele><time>2026-04-12T09:17:10Z</time></trkpt><trkpt lat="43.54228477523848" lon="12.061812428747965"><ele>346.0</ele><time>2026-04-12T09:17:12Z</time></trkpt><trkpt lat="43.54233741359719" lon="12.061947442022026"><ele>345.0</ele><time>2026-04-12T09:17:17Z</time></trkpt><trkpt lat="43.542402763927186" lon="12.062000571907076"><ele>344.0</ele><time>2026-04-12T09:17:18Z</time></trkpt><trkpt lat="43.54247097074874" lon="12.062076105578575"><ele>343.0</ele><time>2026-04-12T09:17:19Z</time></trkpt><trkpt lat="43.54254876760072" lon="12.062156684041003"><ele>343.0</ele><time>2026-04-12T09:17:20Z</time></trkpt><trkpt lat="43.542632326668155" lon="12.062248913825732"><ele>343.0</ele><time>2026-04-12T09:17:21Z</time></trkpt><trkpt lat="43.54270919010334" lon="12.062338342957128"><ele>343.0</ele><time>2026-04-12T09:17:22Z</time></trkpt><trkpt lat="43.54277687837098" lon="12.062421575750987"><ele>343.0</ele><time>2026-04-12T09:17:23Z</time></trkpt><trkpt lat="43.542839481608375" lon="12.062499971366075"><ele>343.0</ele><time>2026-04-12T09:17:24Z</time></trkpt><trkpt lat="43.54288661024325" lon="12.062559337831493"><ele>343.0</ele><time>2026-04-12T09:17:25Z</time></trkpt><trkpt lat="43.542944654618964" lon="12.062616900192603"><ele>342.4</ele><time>2026-04-12T09:17:27Z</time></trkpt><trkpt lat="43.54297444905578" lon="12.062701032351285"><ele>341.79999999999995</ele><time>2026-04-12T09:17:29Z</time></trkpt><trkpt lat="43.54288007411411" lon="12.062880329824743"><ele>341.2</ele><time>2026-04-12T09:17:30Z</time></trkpt><trkpt lat="43.5428295595397" lon="12.06300571249334"><ele>340.6</ele><time>2026-04-12T09:17:31Z</time></trkpt><trkpt lat="43.54278436407058" lon="12.063140079898362"><ele>340.0</ele><time>2026-04-12T09:17:32Z</time></trkpt><trkpt lat="43.542764955969574" lon="12.063236292569497"><ele>339.4</ele><time>2026-04-12T09:17:33Z</time></trkpt><trkpt lat="43.54274337967144" lon="12.063347576697348"><ele>338.8</ele><time>2026-04-12T09:17:35Z</time></trkpt><trkpt lat="43.54289536384092" lon="12.06348403224713"><ele>338.20000000000005</ele><time>2026-04-12T09:17:37Z</time></trkpt><trkpt lat="43.54297565183969" lon="12.063467353960686"><ele>337.6</ele><time>2026-04-12T09:17:38Z</time></trkpt><trkpt lat="43.54304987394798" lon="12.063429635891142"><ele>337.0</ele><time>2026-04-12T09:17:39Z</time></trkpt><trkpt lat="43.54311880176502" lon="12.063363035958199"><ele>337.0</ele><time>2026-04-12T09:17:40Z</time></trkpt><trkpt lat="43.543181821855306" lon="12.063288655707643"><ele>337.0</ele><time>2026-04-12T09:17:41Z</time></trkpt><trkpt lat="43.543242704062344" lon="12.063225834584516"><ele>337.0</ele><time>2026-04-12T09:17:42Z</time></trkpt><trkpt lat="43.543336768908596" lon="12.063162671885378"><ele>337.0</ele><time>2026-04-12T09:17:44Z</time></trkpt><trkpt lat="43.543405655911016" lon="12.063097639868118"><ele>337.0</ele><time>2026-04-12T09:17:46Z</time></trkpt><trkpt lat="43.543521990936576" lon="12.063061239881256"><ele>337.0</ele><time>2026-04-12T09:17:48Z</time></trkpt><trkpt lat="43.5435744041375" lon="12.0629989702612"><ele>337.0</ele><time>2026-04-12T09:17:50Z</time></trkpt><trkpt lat="43.54363208878808" lon="12.062937752493648"><ele>337.0</ele><time>2026-04-12T09:17:52Z</time></trkpt><trkpt lat="43.543719937709206" lon="12.06281514394772"><ele>337.0</ele><time>2026-04-12T09:17:54Z</time></trkpt><trkpt lat="43.543773928058954" lon="12.062739790856035"><ele>337.0</ele><time>2026-04-12T09:17:55Z</time></trkpt><trkpt lat="43.5438233313282" lon="12.062668292066169"><ele>337.0</ele><time>2026-04-12T09:17:56Z</time></trkpt><trkpt lat="43.54388964607228" lon="12.062573245786464"><ele>337.0</ele><time>2026-04-12T09:17:58Z</time></trkpt><trkpt lat="43.5439223521947" lon="12.062496404067652"><ele>337.0</ele><time>2026-04-12T09:18:01Z</time></trkpt><trkpt lat="43.54401223000959" lon="12.062397551073301"><ele>337.0</ele><time>2026-04-12T09:18:03Z</time></trkpt><trkpt lat="43.54405823361282" lon="12.062331615743124"><ele>337.0</ele><time>2026-04-12T09:18:04Z</time></trkpt><trkpt lat="43.543943054393274" lon="12.062064538540813"><ele>337.0</ele><time>2026-04-12T09:18:05Z</time></trkpt><trkpt lat="43.54387588217355" lon="12.061873120477689"><ele>337.0</ele><time>2026-04-12T09:18:06Z</time></trkpt><trkpt lat="43.543779896434074" lon="12.061667374734794"><ele>337.0</ele><time>2026-04-12T09:18:07Z</time></trkpt><trkpt lat="43.54368620544562" lon="12.061447916612511"><ele>339.3333333333333</ele><time>2026-04-12T09:18:08Z</time></trkpt><trkpt lat="43.543613413355224" lon="12.061206860412115"><ele>341.6666666666667</ele><time>2026-04-12T09:18:09Z</time></trkpt><trkpt lat="43.54354549286368" lon="12.060949261897617"><ele>344.0</ele><time>2026-04-12T09:18:10Z</time></trkpt><trkpt lat="43.54348866259295" lon="12.06067120369959"><ele>345.33333333333337</ele><time>2026-04-12T09:18:11Z</time></trkpt><trkpt lat="43.54340419565266" lon="12.060414985850482"><ele>346.6666666666667</ele><time>2026-04-12T09:18:12Z</time></trkpt><trkpt lat="43.54333674456322" lon="12.060147547606572"><ele>348.0</ele><time>2026-04-12T09:18:13Z</time></trkpt><trkpt lat="43.543291474275264" lon="12.059882901728761"><ele>349.6666666666667</ele><time>2026-04-12T09:18:14Z</time></trkpt><trkpt lat="43.54327340068398" lon="12.05961387747339"><ele>351.33333333333337</ele><time>2026-04-12T09:18:15Z</time></trkpt><trkpt lat="43.543303746233946" lon="12.059339826499784"><ele>353.0</ele><time>2026-04-12T09:18:16Z</time></trkpt><trkpt lat="43.54334605737936" lon="12.059062883906801"><ele>356.6666666666667</ele><time>2026-04-12T09:18:17Z</time></trkpt><trkpt lat="43.543396461651504" lon="12.058780497534707"><ele>360.3333333333333</ele><time>2026-04-12T09:18:18Z</time></trkpt><trkpt lat="43.54350863087269" lon="12.058536012615706"><ele>364.0</ele><time>2026-04-12T09:18:19Z</time></trkpt><trkpt lat="43.54360948549574" lon="12.058289251805242"><ele>364.3333333333333</ele><time>2026-04-12T09:18:19.999Z</time></trkpt><trkpt lat="43.54374271136346" lon="12.058093950320428"><ele>364.6666666666667</ele><time>2026-04-12T09:18:20.999Z</time></trkpt><trkpt lat="43.54388012128172" lon="12.057852584731513"><ele>365.0</ele><time>2026-04-12T09:18:21.999Z</time></trkpt><trkpt lat="43.544030672669955" lon="12.057641686106154"><ele>372.0</ele><time>2026-04-12T09:18:22.999Z</time></trkpt><trkpt lat="43.54418540394642" lon="12.057441829109289"><ele>379.0</ele><time>2026-04-12T09:18:23.999Z</time></trkpt><trkpt lat="43.54434227199703" lon="12.057240531988219"><ele>386.0</ele><time>2026-04-12T09:18:24.999Z</time></trkpt><trkpt lat="43.54449099117021" lon="12.05704226337913"><ele>384.66666666666663</ele><time>2026-04-12T09:18:25.999Z</time></trkpt><trkpt lat="43.54462388237641" lon="12.056869051519335"><ele>383.3333333333333</ele><time>2026-04-12T09:18:26.999Z</time></trkpt><trkpt lat="43.54473903644349" lon="12.056727329390588"><ele>382.0</ele><time>2026-04-12T09:18:27.999Z</time></trkpt><trkpt lat="43.54484359160373" lon="12.05661852263587"><ele>382.0</ele><time>2026-04-12T09:18:28.999Z</time></trkpt><trkpt lat="43.544923206554444" lon="12.056517911632978"><ele>382.0</ele><time>2026-04-12T09:18:29.999Z</time></trkpt><trkpt lat="43.54496180460184" lon="12.056419714952446"><ele>382.0</ele><time>2026-04-12T09:18:30.999Z</time></trkpt><trkpt lat="43.544949115072505" lon="12.056316625687506"><ele>382.0</ele><time>2026-04-12T09:18:31.999Z</time></trkpt><trkpt lat="43.5448908630818" lon="12.056244521851898"><ele>382.0</ele><time>2026-04-12T09:18:32.999Z</time></trkpt><trkpt lat="43.54471758252426" lon="12.056298565428719"><ele>382.0</ele><time>2026-04-12T09:18:34.999Z</time></trkpt><trkpt lat="43.5446119195928" lon="12.056394890823311"><ele>382.0</ele><time>2026-04-12T09:18:35.999Z</time></trkpt><trkpt lat="43.54448198874462" lon="12.056525345001099"><ele>382.0</ele><time>2026-04-12T09:18:36.999Z</time></trkpt><trkpt lat="43.54434250158503" lon="12.056649818567571"><ele>383.3333333333333</ele><time>2026-04-12T09:18:37.999Z</time></trkpt><trkpt lat="43.54417439350916" lon="12.056756156481129"><ele>384.66666666666663</ele><time>2026-04-12T09:18:38.999Z</time></trkpt><trkpt lat="43.54400994144837" lon="12.056906388072445"><ele>386.0</ele><time>2026-04-12T09:18:39.999Z</time></trkpt><trkpt lat="43.5438324853584" lon="12.057035459664204"><ele>391.3333333333333</ele><time>2026-04-12T09:18:40.999Z</time></trkpt><trkpt lat="43.54364398080198" lon="12.057169236621105"><ele>396.66666666666663</ele><time>2026-04-12T09:18:41.999Z</time></trkpt><trkpt lat="43.54345833335529" lon="12.057252265951035"><ele>402.0</ele><time>2026-04-12T09:18:42.999Z</time></trkpt><trkpt lat="43.54328882482357" lon="12.057337012496316"><ele>402.0</ele><time>2026-04-12T09:18:43.999Z</time></trkpt><trkpt lat="43.54312273663038" lon="12.057390099986113"><ele>402.0</ele><time>2026-04-12T09:18:44.999Z</time></trkpt><trkpt lat="43.54296432366251" lon="12.057399763000783"><ele>402.0</ele><time>2026-04-12T09:18:45.999Z</time></trkpt><trkpt lat="43.5428127411274" lon="12.057345673386592"><ele>400.33333333333337</ele><time>2026-04-12T09:18:46.999Z</time></trkpt><trkpt lat="43.54268070223932" lon="12.057232993925828"><ele>398.6666666666667</ele><time>2026-04-12T09:18:47.999Z</time></trkpt><trkpt lat="43.54257879175616" lon="12.057064499125868"><ele>397.0</ele><time>2026-04-12T09:18:48.999Z</time></trkpt><trkpt lat="43.542491317069064" lon="12.056851444001298"><ele>400.6666666666667</ele><time>2026-04-12T09:18:49.999Z</time></trkpt><trkpt lat="43.5423938407354" lon="12.056615677142338"><ele>404.33333333333337</ele><time>2026-04-12T09:18:51Z</time></trkpt><trkpt lat="43.54227583223967" lon="12.056381371424456"><ele>408.0</ele><time>2026-04-12T09:18:52Z</time></trkpt><trkpt lat="43.54217643746131" lon="12.056147778693811"><ele>408.0</ele><time>2026-04-12T09:18:53Z</time></trkpt><trkpt lat="43.54208999501037" lon="12.055937191934731"><ele>408.0</ele><time>2026-04-12T09:18:54Z</time></trkpt><trkpt lat="43.542017627858804" lon="12.055755883257605"><ele>408.0</ele><time>2026-04-12T09:18:55Z</time></trkpt><trkpt lat="43.54196063295263" lon="12.055596183280702"><ele>408.0</ele><time>2026-04-12T09:18:56Z</time></trkpt><trkpt lat="43.54194110478042" lon="12.055470828048794"><ele>408.0</ele><time>2026-04-12T09:18:57Z</time></trkpt><trkpt lat="43.54195813090344" lon="12.05537173417054"><ele>408.0</ele><time>2026-04-12T09:18:58Z</time></trkpt><trkpt lat="43.542022044682696" lon="12.055331516540694"><ele>408.0</ele><time>2026-04-12T09:18:59Z</time></trkpt><trkpt lat="43.542100369710205" lon="12.055368834278113"><ele>408.0</ele><time>2026-04-12T09:19:00Z</time></trkpt><trkpt lat="43.54216171864183" lon="12.055497325699578"><ele>408.0</ele><time>2026-04-12T09:19:01Z</time></trkpt><trkpt lat="43.54224490254413" lon="12.055659892210416"><ele>408.0</ele><time>2026-04-12T09:19:01.999Z</time></trkpt><trkpt lat="43.54235149117613" lon="12.0558329534377"><ele>408.0</ele><time>2026-04-12T09:19:02.999Z</time></trkpt><trkpt lat="43.542437261623235" lon="12.056022145823315"><ele>408.0</ele><time>2026-04-12T09:19:04Z</time></trkpt><trkpt lat="43.54252916533439" lon="12.056184160067794"><ele>408.0</ele><time>2026-04-12T09:19:05Z</time></trkpt><trkpt lat="43.54263437299586" lon="12.056317559608763"><ele>408.0</ele><time>2026-04-12T09:19:06Z</time></trkpt><trkpt lat="43.54274831111351" lon="12.056414053989462"><ele>408.0</ele><time>2026-04-12T09:19:07Z</time></trkpt><trkpt lat="43.54287179998336" lon="12.056476426469496"><ele>408.0</ele><time>2026-04-12T09:19:08Z</time></trkpt><trkpt lat="43.543007009592316" lon="12.056495154034877"><ele>411.33333333333337</ele><time>2026-04-12T09:19:09Z</time></trkpt><trkpt lat="43.54315681174864" lon="12.056466931394011"><ele>414.6666666666667</ele><time>2026-04-12T09:19:10Z</time></trkpt><trkpt lat="43.54331332418734" lon="12.056382224551474"><ele>418.0</ele><time>2026-04-12T09:19:11Z</time></trkpt><trkpt lat="43.54346903552945" lon="12.05623728641974"><ele>418.0</ele><time>2026-04-12T09:19:12Z</time></trkpt><trkpt lat="43.543602161165154" lon="12.056088025126849"><ele>418.0</ele><time>2026-04-12T09:19:13Z</time></trkpt><trkpt lat="43.54372091203358" lon="12.055985584837261"><ele>418.0</ele><time>2026-04-12T09:19:14Z</time></trkpt><trkpt lat="43.54382728151431" lon="12.055887656307558"><ele>418.0</ele><time>2026-04-12T09:19:15Z</time></trkpt><trkpt lat="43.543925318101394" lon="12.05581134874927"><ele>417.1666666666667</ele><time>2026-04-12T09:19:16Z</time></trkpt><trkpt lat="43.544000516041756" lon="12.05572861055885"><ele>416.33333333333337</ele><time>2026-04-12T09:19:17Z</time></trkpt><trkpt lat="43.54403429520143" lon="12.055624890644635"><ele>415.5</ele><time>2026-04-12T09:19:18Z</time></trkpt><trkpt lat="43.544019294792676" lon="12.055521304345694"><ele>414.66666666666663</ele><time>2026-04-12T09:19:19Z</time></trkpt><trkpt lat="43.543944419411815" lon="12.055446892306529"><ele>413.8333333333333</ele><time>2026-04-12T09:19:20Z</time></trkpt><trkpt lat="43.54385015294822" lon="12.055408628244157"><ele>413.0</ele><time>2026-04-12T09:19:21Z</time></trkpt><trkpt lat="43.543727881440525" lon="12.055501345992191"><ele>414.25</ele><time>2026-04-12T09:19:21.999Z</time></trkpt><trkpt lat="43.543603651106515" lon="12.055630154419514"><ele>415.5</ele><time>2026-04-12T09:19:22.999Z</time></trkpt><trkpt lat="43.54348661305752" lon="12.055740993984612"><ele>416.75</ele><time>2026-04-12T09:19:23.999Z</time></trkpt><trkpt lat="43.543372629427765" lon="12.05581769940588"><ele>418.0</ele><time>2026-04-12T09:19:24.999Z</time></trkpt><trkpt lat="43.54326164187629" lon="12.05587565630193"><ele>418.0</ele><time>2026-04-12T09:19:25.999Z</time></trkpt><trkpt lat="43.5431516776774" lon="12.055882941591673"><ele>418.0</ele><time>2026-04-12T09:19:26.999Z</time></trkpt><trkpt lat="43.54305131202216" lon="12.055816763347893"><ele>418.0</ele><time>2026-04-12T09:19:27.999Z</time></trkpt><trkpt lat="43.542986186394046" lon="12.05566575779266"><ele>418.0</ele><time>2026-04-12T09:19:28.999Z</time></trkpt><trkpt lat="43.54293306753314" lon="12.055497422333135"><ele>418.25</ele><time>2026-04-12T09:19:29.999Z</time></trkpt><trkpt lat="43.54287572523783" lon="12.055322456683088"><ele>418.5</ele><time>2026-04-12T09:19:30.999Z</time></trkpt><trkpt lat="43.54282732050435" lon="12.055148093131788"><ele>418.75</ele><time>2026-04-12T09:19:31.999Z</time></trkpt><trkpt lat="43.54278211105024" lon="12.054981001167382"><ele>419.0</ele><time>2026-04-12T09:19:32.999Z</time></trkpt><trkpt lat="43.542733263483605" lon="12.054816597957476"><ele>422.25</ele><time>2026-04-12T09:19:33.999Z</time></trkpt><trkpt lat="43.542681166202975" lon="12.054654091666382"><ele>425.5</ele><time>2026-04-12T09:19:34.999Z</time></trkpt><trkpt lat="43.542632533237345" lon="12.054488646573418"><ele>428.75</ele><time>2026-04-12T09:19:35.999Z</time></trkpt><trkpt lat="43.54258741100791" lon="12.054325158717484"><ele>432.0</ele><time>2026-04-12T09:19:36.999Z</time></trkpt><trkpt lat="43.54253450516232" lon="12.054165862822984"><ele>433.5</ele><time>2026-04-12T09:19:37.999Z</time></trkpt><trkpt lat="43.54247980628448" lon="12.054005678002374"><ele>435.0</ele><time>2026-04-12T09:19:38.999Z</time></trkpt><trkpt lat="43.54241460081621" lon="12.053848411132554"><ele>436.5</ele><time>2026-04-12T09:19:39.999Z</time></trkpt><trkpt lat="43.542326392747945" lon="12.053698291623013"><ele>438.0</ele><time>2026-04-12T09:19:40.999Z</time></trkpt><trkpt lat="43.54225417309072" lon="12.05354037944497"><ele>438.0</ele><time>2026-04-12T09:19:41.999Z</time></trkpt><trkpt lat="43.54215352409216" lon="12.053404730412351"><ele>438.0</ele><time>2026-04-12T09:19:42.999Z</time></trkpt><trkpt lat="43.54204429666374" lon="12.053273857773387"><ele>438.0</ele><time>2026-04-12T09:19:43.999Z</time></trkpt><trkpt lat="43.54192486267472" lon="12.053166714139058"><ele>438.0</ele><time>2026-04-12T09:19:44.999Z</time></trkpt><trkpt lat="43.54178792673272" lon="12.053112226570658"><ele>440.0</ele><time>2026-04-12T09:19:45.999Z</time></trkpt><trkpt lat="43.541661083052055" lon="12.0530996373696"><ele>441.99999999999994</ele><time>2026-04-12T09:19:46.999Z</time></trkpt><trkpt lat="43.541552361091135" lon="12.05308838737815"><ele>443.99999999999994</ele><time>2026-04-12T09:19:47.999Z</time></trkpt><trkpt lat="43.541452620683515" lon="12.05306028185157"><ele>446.0</ele><time>2026-04-12T09:19:48.999Z</time></trkpt><trkpt lat="43.54136748587594" lon="12.053010357667919"><ele>448.0</ele><time>2026-04-12T09:19:49.999Z</time></trkpt><trkpt lat="43.5412936967701" lon="12.052955035277225"><ele>448.0</ele><time>2026-04-12T09:19:50.999Z</time></trkpt><trkpt lat="43.54124293485481" lon="12.052855855296128"><ele>447.99999999999994</ele><time>2026-04-12T09:19:51.999Z</time></trkpt><trkpt lat="43.541179030586605" lon="12.052760190686021"><ele>447.99999999999994</ele><time>2026-04-12T09:19:52.999Z</time></trkpt><trkpt lat="43.54112000215409" lon="12.052664811957161"><ele>448.0</ele><time>2026-04-12T09:19:53.999Z</time></trkpt><trkpt lat="43.5410622591997" lon="12.052566281698843"><ele>448.0</ele><time>2026-04-12T09:19:54.999Z</time></trkpt><trkpt lat="43.541005350381525" lon="12.052469174780597"><ele>447.83333333333337</ele><time>2026-04-12T09:19:55.999Z</time></trkpt><trkpt lat="43.54095342867952" lon="12.052380574185367"><ele>447.6666666666667</ele><time>2026-04-12T09:19:56.999Z</time></trkpt><trkpt lat="43.54089752849658" lon="12.052285182943177"><ele>447.5</ele><time>2026-04-12T09:19:57.999Z</time></trkpt><trkpt lat="43.540836148761485" lon="12.052180441085225"><ele>447.33333333333337</ele><time>2026-04-12T09:19:58.999Z</time></trkpt><trkpt lat="43.54078424415449" lon="12.052091868162279"><ele>447.1666666666667</ele><time>2026-04-12T09:19:59.999Z</time></trkpt><trkpt lat="43.540740743364125" lon="12.052017635955508"><ele>447.0</ele><time>2026-04-12T09:20:00.999Z</time></trkpt><trkpt lat="43.540696844672624" lon="12.05194259659434"><ele>447.0</ele><time>2026-04-12T09:20:02.999Z</time></trkpt><trkpt lat="43.54062006676506" lon="12.051811204732019"><ele>447.0</ele><time>2026-04-12T09:20:07.999Z</time></trkpt><trkpt lat="43.540571962309215" lon="12.051731412570875"><ele>447.0</ele><time>2026-04-12T09:20:08.999Z</time></trkpt><trkpt lat="43.54051327142034" lon="12.051660921603979"><ele>447.0</ele><time>2026-04-12T09:20:10.999Z</time></trkpt><trkpt lat="43.54035015917886" lon="12.051866847449677"><ele>445.25</ele><time>2026-04-12T09:20:11.999Z</time></trkpt><trkpt lat="43.5402612184296" lon="12.051964723853132"><ele>443.5</ele><time>2026-04-12T09:20:12.999Z</time></trkpt><trkpt lat="43.540160866721905" lon="12.052072492908545"><ele>441.75</ele><time>2026-04-12T09:20:13.999Z</time></trkpt><trkpt lat="43.5400364938986" lon="12.052167897371502"><ele>440.0</ele><time>2026-04-12T09:20:14.999Z</time></trkpt><trkpt lat="43.53994766793709" lon="12.052349362246042"><ele>440.66666666666663</ele><time>2026-04-12T09:20:15.999Z</time></trkpt><trkpt lat="43.53984907575287" lon="12.052530661440604"><ele>441.33333333333337</ele><time>2026-04-12T09:20:16.999Z</time></trkpt><trkpt lat="43.53974878426007" lon="12.052706436224506"><ele>442.0</ele><time>2026-04-12T09:20:17.999Z</time></trkpt><trkpt lat="43.539637115392516" lon="12.05286923789042"><ele>443.0</ele><time>2026-04-12T09:20:18.999Z</time></trkpt><trkpt lat="43.53950200825093" lon="12.053012184255433"><ele>444.0</ele><time>2026-04-12T09:20:19.999Z</time></trkpt><trkpt lat="43.539384553286254" lon="12.053168453128732"><ele>445.0</ele><time>2026-04-12T09:20:20.999Z</time></trkpt><trkpt lat="43.53927832384297" lon="12.053338233043151"><ele>446.0</ele><time>2026-04-12T09:20:21.999Z</time></trkpt><trkpt lat="43.53916508476479" lon="12.053504616421373"><ele>447.0</ele><time>2026-04-12T09:20:22.999Z</time></trkpt><trkpt lat="43.53906569077347" lon="12.053678011714437"><ele>448.0</ele><time>2026-04-12T09:20:23.999Z</time></trkpt><trkpt lat="43.53897288847601" lon="12.053842317603777"><ele>448.0</ele><time>2026-04-12T09:20:24.999Z</time></trkpt><trkpt lat="43.53887366943011" lon="12.053989804561574"><ele>448.0</ele><time>2026-04-12T09:20:25.999Z</time></trkpt><trkpt lat="43.538769420033226" lon="12.054136092590184"><ele>448.0</ele><time>2026-04-12T09:20:26.999Z</time></trkpt><trkpt lat="43.53866427340821" lon="12.054285127076406"><ele>448.0</ele><time>2026-04-12T09:20:27.999Z</time></trkpt><trkpt lat="43.53856074786623" lon="12.054436430262948"><ele>448.6666666666667</ele><time>2026-04-12T09:20:28.999Z</time></trkpt><trkpt lat="43.538450809441954" lon="12.054583172788437"><ele>449.33333333333337</ele><time>2026-04-12T09:20:29.999Z</time></trkpt><trkpt lat="43.53834818755548" lon="12.054735134640827"><ele>450.0</ele><time>2026-04-12T09:20:30.999Z</time></trkpt><trkpt lat="43.53823499326871" lon="12.054863491124385"><ele>448.75</ele><time>2026-04-12T09:20:31.999Z</time></trkpt><trkpt lat="43.53813375080402" lon="12.055003258913043"><ele>447.5</ele><time>2026-04-12T09:20:32.999Z</time></trkpt><trkpt lat="43.53803029422214" lon="12.055148025904854"><ele>446.25</ele><time>2026-04-12T09:20:33.999Z</time></trkpt><trkpt lat="43.537933748946244" lon="12.055314545941915"><ele>445.0</ele><time>2026-04-12T09:20:34.999Z</time></trkpt><trkpt lat="43.53782048726943" lon="12.055468164031904"><ele>445.0</ele><time>2026-04-12T09:20:35.999Z</time></trkpt><trkpt lat="43.53770388344373" lon="12.055619640738028"><ele>445.0</ele><time>2026-04-12T09:20:36.999Z</time></trkpt><trkpt lat="43.53758102839303" lon="12.05576704165676"><ele>445.0</ele><time>2026-04-12T09:20:37.999Z</time></trkpt><trkpt lat="43.537455416382336" lon="12.05590934485617"><ele>445.0</ele><time>2026-04-12T09:20:38.999Z</time></trkpt><trkpt lat="43.53733361846653" lon="12.0560417750982"><ele>445.0</ele><time>2026-04-12T09:20:39.999Z</time></trkpt><trkpt lat="43.537202758916884" lon="12.056145344482076"><ele>445.0</ele><time>2026-04-12T09:20:40.999Z</time></trkpt><trkpt lat="43.53705393992219" lon="12.05621269315315"><ele>444.33333333333337</ele><time>2026-04-12T09:20:41.999Z</time></trkpt><trkpt lat="43.53689283456749" lon="12.056243461240564"><ele>443.66666666666663</ele><time>2026-04-12T09:20:42.999Z</time></trkpt><trkpt lat="43.536727109023424" lon="12.056207101848393"><ele>443.0</ele><time>2026-04-12T09:20:43.999Z</time></trkpt><trkpt lat="43.536556914221634" lon="12.056147482789399"><ele>443.0</ele><time>2026-04-12T09:20:44.999Z</time></trkpt><trkpt lat="43.536379119280916" lon="12.056085828407763"><ele>443.0</ele><time>2026-04-12T09:20:45.999Z</time></trkpt><trkpt lat="43.53619539044621" lon="12.056040933961773"><ele>443.0</ele><time>2026-04-12T09:20:46.999Z</time></trkpt><trkpt lat="43.5360117636338" lon="12.055977228386359"><ele>442.0</ele><time>2026-04-12T09:20:47.999Z</time></trkpt><trkpt lat="43.53583388052493" lon="12.055924339214126"><ele>441.0</ele><time>2026-04-12T09:20:48.999Z</time></trkpt><trkpt lat="43.5356546519662" lon="12.055891998898915"><ele>440.0</ele><time>2026-04-12T09:20:49.999Z</time></trkpt><trkpt lat="43.5354717430063" lon="12.055881685890968"><ele>438.3333333333333</ele><time>2026-04-12T09:20:50.999Z</time></trkpt><trkpt lat="43.53528322875567" lon="12.055913515387843"><ele>436.66666666666663</ele><time>2026-04-12T09:20:51.999Z</time></trkpt><trkpt lat="43.535088341882904" lon="12.055989260446085"><ele>435.0</ele><time>2026-04-12T09:20:52.999Z</time></trkpt><trkpt lat="43.53489210858704" lon="12.05607021105528"><ele>435.0</ele><time>2026-04-12T09:20:53.999Z</time></trkpt><trkpt lat="43.53468998174669" lon="12.056152361680134"><ele>435.0</ele><time>2026-04-12T09:20:54.999Z</time></trkpt><trkpt lat="43.53448072810489" lon="12.056206572025406"><ele>435.0</ele><time>2026-04-12T09:20:55.999Z</time></trkpt><trkpt lat="43.534275970262556" lon="12.056306330583194"><ele>431.66666666666663</ele><time>2026-04-12T09:20:57Z</time></trkpt><trkpt lat="43.53406133342887" lon="12.05636379575123"><ele>428.3333333333333</ele><time>2026-04-12T09:20:58Z</time></trkpt><trkpt lat="43.53385358778037" lon="12.056462119918791"><ele>425.0</ele><time>2026-04-12T09:20:59Z</time></trkpt><trkpt lat="43.53363923473376" lon="12.056538525818029"><ele>424.3333333333333</ele><time>2026-04-12T09:21:00Z</time></trkpt><trkpt lat="43.533424006615114" lon="12.056615875443777"><ele>423.66666666666663</ele><time>2026-04-12T09:21:01Z</time></trkpt><trkpt lat="43.53320719670585" lon="12.056698516998942"><ele>423.0</ele><time>2026-04-12T09:21:02Z</time></trkpt><trkpt lat="43.53299021991809" lon="12.056779510971204"><ele>421.5</ele><time>2026-04-12T09:21:03Z</time></trkpt><trkpt lat="43.53277806049982" lon="12.056877654815805"><ele>420.0</ele><time>2026-04-12T09:21:04Z</time></trkpt><trkpt lat="43.53256975584345" lon="12.057010927973005"><ele>420.0</ele><time>2026-04-12T09:21:05Z</time></trkpt><trkpt lat="43.53236575749751" lon="12.057162182356656"><ele>420.0</ele><time>2026-04-12T09:21:06Z</time></trkpt><trkpt lat="43.532171037366524" lon="12.057344432717139"><ele>418.0</ele><time>2026-04-12T09:21:07Z</time></trkpt><trkpt lat="43.53198921023754" lon="12.057554184950105"><ele>416.0</ele><time>2026-04-12T09:21:08Z</time></trkpt><trkpt lat="43.53182935191307" lon="12.057798417740127"><ele>416.0</ele><time>2026-04-12T09:21:09Z</time></trkpt><trkpt lat="43.53167991536303" lon="12.058052094581006"><ele>416.0</ele><time>2026-04-12T09:21:10Z</time></trkpt><trkpt lat="43.53153221325534" lon="12.058298742166425"><ele>416.0</ele><time>2026-04-12T09:21:11Z</time></trkpt><trkpt lat="43.53138277869085" lon="12.058540268194061"><ele>416.0</ele><time>2026-04-12T09:21:12Z</time></trkpt><trkpt lat="43.53123207345454" lon="12.058779980286193"><ele>411.0</ele><time>2026-04-12T09:21:13Z</time></trkpt><trkpt lat="43.53107986298739" lon="12.059018178242624"><ele>406.0</ele><time>2026-04-12T09:21:14Z</time></trkpt><trkpt lat="43.53094679103212" lon="12.059275639535299"><ele>406.0</ele><time>2026-04-12T09:21:15Z</time></trkpt><trkpt lat="43.53083779995764" lon="12.059568115741696"><ele>406.0</ele><time>2026-04-12T09:21:16Z</time></trkpt><trkpt lat="43.53073538696239" lon="12.05988949913386"><ele>406.5</ele><time>2026-04-12T09:21:17Z</time></trkpt><trkpt lat="43.53063667695378" lon="12.060190098142769"><ele>407.0</ele><time>2026-04-12T09:21:18Z</time></trkpt><trkpt lat="43.53056270741343" lon="12.060468453309815"><ele>407.0</ele><time>2026-04-12T09:21:19Z</time></trkpt><trkpt lat="43.53044604507594" lon="12.060714944192755"><ele>407.0</ele><time>2026-04-12T09:21:20Z</time></trkpt><trkpt lat="43.53034912547932" lon="12.060974529732329"><ele>407.0</ele><time>2026-04-12T09:21:21Z</time></trkpt><trkpt lat="43.530284175428186" lon="12.061370291205318"><ele>405.5</ele><time>2026-04-12T09:21:22Z</time></trkpt><trkpt lat="43.53018067078899" lon="12.061675846784835"><ele>404.0</ele><time>2026-04-12T09:21:23Z</time></trkpt><trkpt lat="43.530036787414936" lon="12.061949834410072"><ele>404.0</ele><time>2026-04-12T09:21:24Z</time></trkpt><trkpt lat="43.529888331839395" lon="12.062217530295111"><ele>404.0</ele><time>2026-04-12T09:21:25Z</time></trkpt><trkpt lat="43.52971504408401" lon="12.062457283678363"><ele>403.5</ele><time>2026-04-12T09:21:26Z</time></trkpt><trkpt lat="43.529523040359386" lon="12.062673278348457"><ele>403.0</ele><time>2026-04-12T09:21:27Z</time></trkpt><trkpt lat="43.529323630781526" lon="12.062888356762224"><ele>403.0</ele><time>2026-04-12T09:21:28Z</time></trkpt><trkpt lat="43.52912731751666" lon="12.063099344316567"><ele>403.0</ele><time>2026-04-12T09:21:29Z</time></trkpt><trkpt lat="43.5289297115905" lon="12.063313663172794"><ele>403.0</ele><time>2026-04-12T09:21:30Z</time></trkpt><trkpt lat="43.52873430277298" lon="12.063526738481292"><ele>403.0</ele><time>2026-04-12T09:21:31Z</time></trkpt><trkpt lat="43.528546720301236" lon="12.063750266933983"><ele>401.5</ele><time>2026-04-12T09:21:32Z</time></trkpt><trkpt lat="43.52835000974636" lon="12.063961232133138"><ele>400.0</ele><time>2026-04-12T09:21:33Z</time></trkpt><trkpt lat="43.52815370388423" lon="12.064172509558448"><ele>400.0</ele><time>2026-04-12T09:21:34Z</time></trkpt><trkpt lat="43.527960144430224" lon="12.064383736158613"><ele>400.0</ele><time>2026-04-12T09:21:35Z</time></trkpt><trkpt lat="43.52776674846842" lon="12.064597057245884"><ele>400.0</ele><time>2026-04-12T09:21:36Z</time></trkpt><trkpt lat="43.52756761294612" lon="12.064788362284512"><ele>400.0</ele><time>2026-04-12T09:21:37Z</time></trkpt><trkpt lat="43.52737869360563" lon="12.064993102168113"><ele>400.0</ele><time>2026-04-12T09:21:38Z</time></trkpt><trkpt lat="43.52718775258603" lon="12.065200033012836"><ele>400.0</ele><time>2026-04-12T09:21:39Z</time></trkpt><trkpt lat="43.527006595525606" lon="12.065422495631482"><ele>398.5</ele><time>2026-04-12T09:21:40Z</time></trkpt><trkpt lat="43.526823009804446" lon="12.06563358825863"><ele>397.0</ele><time>2026-04-12T09:21:41Z</time></trkpt><trkpt lat="43.52664204735761" lon="12.0658598740552"><ele>397.0</ele><time>2026-04-12T09:21:42Z</time></trkpt><trkpt lat="43.52647384605215" lon="12.066094655660875"><ele>397.0</ele><time>2026-04-12T09:21:43Z</time></trkpt><trkpt lat="43.52632208383042" lon="12.066354196993023"><ele>395.5</ele><time>2026-04-12T09:21:44Z</time></trkpt><trkpt lat="43.526150167309325" lon="12.066586779986292"><ele>394.0</ele><time>2026-04-12T09:21:45Z</time></trkpt><trkpt lat="43.52598896654891" lon="12.066832432183823"><ele>394.0</ele><time>2026-04-12T09:21:46Z</time></trkpt><trkpt lat="43.525829332101644" lon="12.067078886113547"><ele>394.0</ele><time>2026-04-12T09:21:47Z</time></trkpt><trkpt lat="43.525665811667004" lon="12.067320132660425"><ele>393.0</ele><time>2026-04-12T09:21:48Z</time></trkpt><trkpt lat="43.52549602446681" lon="12.067549227050257"><ele>392.0</ele><time>2026-04-12T09:21:49Z</time></trkpt><trkpt lat="43.52531343270634" lon="12.067756566708045"><ele>392.0</ele><time>2026-04-12T09:21:50Z</time></trkpt><trkpt lat="43.52512062039699" lon="12.067948821732124"><ele>392.0</ele><time>2026-04-12T09:21:51Z</time></trkpt><trkpt lat="43.52491930069518" lon="12.068122867430416"><ele>391.5</ele><time>2026-04-12T09:21:52Z</time></trkpt><trkpt lat="43.524706380318456" lon="12.068278363018667"><ele>391.0</ele><time>2026-04-12T09:21:53Z</time></trkpt><trkpt lat="43.52448656213187" lon="12.068423847277352"><ele>391.0</ele><time>2026-04-12T09:21:54Z</time></trkpt><trkpt lat="43.52426020399084" lon="12.068556902527733"><ele>391.0</ele><time>2026-04-12T09:21:55Z</time></trkpt><trkpt lat="43.52402945877956" lon="12.068691349766546"><ele>391.0</ele><time>2026-04-12T09:21:56Z</time></trkpt><trkpt lat="43.523798311646345" lon="12.068827406488772"><ele>391.0</ele><time>2026-04-12T09:21:57Z</time></trkpt><trkpt lat="43.523564933024645" lon="12.068964776665858"><ele>389.0</ele><time>2026-04-12T09:21:58Z</time></trkpt><trkpt lat="43.52333005570243" lon="12.069103029108806"><ele>387.0</ele><time>2026-04-12T09:21:59Z</time></trkpt><trkpt lat="43.5230980844439" lon="12.069240136802044"><ele>386.0</ele><time>2026-04-12T09:22:00Z</time></trkpt><trkpt lat="43.52287670386055" lon="12.069392768093973"><ele>385.0</ele><time>2026-04-12T09:22:01Z</time></trkpt><trkpt lat="43.52265472238353" lon="12.069498030570426"><ele>385.0</ele><time>2026-04-12T09:22:02Z</time></trkpt><trkpt lat="43.52245591765915" lon="12.06964926374263"><ele>385.0</ele><time>2026-04-12T09:22:03Z</time></trkpt><trkpt lat="43.52226173689409" lon="12.069805006028556"><ele>383.5</ele><time>2026-04-12T09:22:04Z</time></trkpt><trkpt lat="43.52208192784246" lon="12.069994348283604"><ele>382.0</ele><time>2026-04-12T09:22:05Z</time></trkpt><trkpt lat="43.521914174674436" lon="12.070219127177975"><ele>381.5</ele><time>2026-04-12T09:22:06Z</time></trkpt><trkpt lat="43.521769001934885" lon="12.070470632338989"><ele>381.0</ele><time>2026-04-12T09:22:07Z</time></trkpt><trkpt lat="43.521635054535004" lon="12.0707444415413"><ele>378.0</ele><time>2026-04-12T09:22:08Z</time></trkpt><trkpt lat="43.521494282128295" lon="12.071022215293691"><ele>375.0</ele><time>2026-04-12T09:22:09Z</time></trkpt><trkpt lat="43.52134897736404" lon="12.071296687856806"><ele>372.0</ele><time>2026-04-12T09:22:10Z</time></trkpt><trkpt lat="43.5212002833587" lon="12.07157076481815"><ele>369.0</ele><time>2026-04-12T09:22:11Z</time></trkpt><trkpt lat="43.52104980945784" lon="12.07184819918691"><ele>367.5</ele><time>2026-04-12T09:22:12Z</time></trkpt><trkpt lat="43.52089937531944" lon="12.072126180336408"><ele>366.0</ele><time>2026-04-12T09:22:13Z</time></trkpt><trkpt lat="43.520746915266194" lon="12.072408083201086"><ele>365.0</ele><time>2026-04-12T09:22:14Z</time></trkpt><trkpt lat="43.52059534090646" lon="12.072692352315297"><ele>364.0</ele><time>2026-04-12T09:22:15Z</time></trkpt><trkpt lat="43.520445672940255" lon="12.072975668183675"><ele>361.5</ele><time>2026-04-12T09:22:16Z</time></trkpt><trkpt lat="43.52029435375913" lon="12.073254691191218"><ele>359.0</ele><time>2026-04-12T09:22:17Z</time></trkpt><trkpt lat="43.5201431166118" lon="12.073533272748127"><ele>358.5</ele><time>2026-04-12T09:22:18Z</time></trkpt><trkpt lat="43.51999406544874" lon="12.07381355229539"><ele>358.0</ele><time>2026-04-12T09:22:19Z</time></trkpt><trkpt lat="43.51984416085221" lon="12.074093530867623"><ele>358.0</ele><time>2026-04-12T09:22:20Z</time></trkpt><trkpt lat="43.51969510079113" lon="12.074371022109887"><ele>358.0</ele><time>2026-04-12T09:22:21Z</time></trkpt><trkpt lat="43.5195473016993" lon="12.074647409050305"><ele>356.0</ele><time>2026-04-12T09:22:22Z</time></trkpt><trkpt lat="43.51940044841833" lon="12.074923695372235"><ele>354.0</ele><time>2026-04-12T09:22:23Z</time></trkpt><trkpt lat="43.519253145460645" lon="12.075197838603529"><ele>354.0</ele><time>2026-04-12T09:22:24Z</time></trkpt><trkpt lat="43.519106147844276" lon="12.075469598581869"><ele>354.0</ele><time>2026-04-12T09:22:25Z</time></trkpt><trkpt lat="43.51896184204925" lon="12.075740020682103"><ele>354.0</ele><time>2026-04-12T09:22:26Z</time></trkpt><trkpt lat="43.51882151745238" lon="12.076003319122046"><ele>354.0</ele><time>2026-04-12T09:22:27Z</time></trkpt><trkpt lat="43.518687340084504" lon="12.076256649229725"><ele>354.5</ele><time>2026-04-12T09:22:28Z</time></trkpt><trkpt lat="43.51854850725013" lon="12.076502991220325"><ele>355.0</ele><time>2026-04-12T09:22:29Z</time></trkpt><trkpt lat="43.51841424214278" lon="12.076758381492182"><ele>355.0</ele><time>2026-04-12T09:22:29.999Z</time></trkpt><trkpt lat="43.51828086615347" lon="12.077014829443154"><ele>355.0</ele><time>2026-04-12T09:22:30.999Z</time></trkpt><trkpt lat="43.518143045109966" lon="12.077271364392006"><ele>355.5</ele><time>2026-04-12T09:22:31.999Z</time></trkpt><trkpt lat="43.51800785162767" lon="12.077523114294973"><ele>356.0</ele><time>2026-04-12T09:22:32.999Z</time></trkpt><trkpt lat="43.517872349826135" lon="12.077779475126919"><ele>355.0</ele><time>2026-04-12T09:22:33.999Z</time></trkpt><trkpt lat="43.517737539495705" lon="12.078037560761551"><ele>354.0</ele><time>2026-04-12T09:22:34.999Z</time></trkpt><trkpt lat="43.517603111326785" lon="12.078295555751492"><ele>354.0</ele><time>2026-04-12T09:22:35.999Z</time></trkpt><trkpt lat="43.51746657968188" lon="12.078557805278107"><ele>354.0</ele><time>2026-04-12T09:22:36.999Z</time></trkpt><trkpt lat="43.5173152490735" lon="12.07881004662958"><ele>354.0</ele><time>2026-04-12T09:22:37.999Z</time></trkpt><trkpt lat="43.517178870175655" lon="12.079071356220865"><ele>354.0</ele><time>2026-04-12T09:22:38.999Z</time></trkpt><trkpt lat="43.51704863768203" lon="12.079320761166743"><ele>354.6666666666667</ele><time>2026-04-12T09:22:39.999Z</time></trkpt><trkpt lat="43.51692371836634" lon="12.079558019005633"><ele>355.33333333333337</ele><time>2026-04-12T09:22:40.999Z</time></trkpt><trkpt lat="43.51680489050319" lon="12.079783707672224"><ele>356.0</ele><time>2026-04-12T09:22:41.999Z</time></trkpt><trkpt lat="43.51669423053681" lon="12.0799938834993"><ele>356.0</ele><time>2026-04-12T09:22:42.999Z</time></trkpt><trkpt lat="43.51658825652513" lon="12.080194708178414"><ele>356.0</ele><time>2026-04-12T09:22:43.999Z</time></trkpt><trkpt lat="43.51648630253741" lon="12.080387777151454"><ele>356.0</ele><time>2026-04-12T09:22:44.999Z</time></trkpt><trkpt lat="43.5163934410304" lon="12.080563506314329"><ele>356.0</ele><time>2026-04-12T09:22:45.999Z</time></trkpt><trkpt lat="43.516308020103295" lon="12.080725154537335"><ele>356.0</ele><time>2026-04-12T09:22:46.999Z</time></trkpt><trkpt lat="43.51622307745362" lon="12.080885897895891"><ele>356.0</ele><time>2026-04-12T09:22:47.999Z</time></trkpt><trkpt lat="43.516148486184925" lon="12.081027023507497"><ele>356.0</ele><time>2026-04-12T09:22:48.999Z</time></trkpt><trkpt lat="43.516080767458675" lon="12.081155795983388"><ele>355.20000000000005</ele><time>2026-04-12T09:22:49.999Z</time></trkpt><trkpt lat="43.51602792119727" lon="12.081260953906844"><ele>354.40000000000003</ele><time>2026-04-12T09:22:50.999Z</time></trkpt><trkpt lat="43.5160018821007" lon="12.081353885061217"><ele>353.6</ele><time>2026-04-12T09:22:51.999Z</time></trkpt><trkpt lat="43.51594169906982" lon="12.08144243688564"><ele>352.8</ele><time>2026-04-12T09:22:53.999Z</time></trkpt><trkpt lat="43.515901896694515" lon="12.081532346051326"><ele>352.0</ele><time>2026-04-12T09:22:55.999Z</time></trkpt><trkpt lat="43.51578061314496" lon="12.081656109333725"><ele>352.0</ele><time>2026-04-12T09:22:57.999Z</time></trkpt><trkpt lat="43.51569011794734" lon="12.081752618644849"><ele>352.0</ele><time>2026-04-12T09:22:58.999Z</time></trkpt><trkpt lat="43.51558495078947" lon="12.081851510535989"><ele>352.0</ele><time>2026-04-12T09:22:59.999Z</time></trkpt><trkpt lat="43.515451305474386" lon="12.081913938549311"><ele>352.0</ele><time>2026-04-12T09:23:00.999Z</time></trkpt><trkpt lat="43.515291363072876" lon="12.08190304311507"><ele>350.66666666666663</ele><time>2026-04-12T09:23:01.999Z</time></trkpt><trkpt lat="43.51509155329921" lon="12.081899505250759"><ele>349.3333333333333</ele><time>2026-04-12T09:23:03Z</time></trkpt><trkpt lat="43.514871591451374" lon="12.081896570105767"><ele>348.0</ele><time>2026-04-12T09:23:04Z</time></trkpt><trkpt lat="43.51466413494898" lon="12.081896020413295"><ele>345.0</ele><time>2026-04-12T09:23:05Z</time></trkpt><trkpt lat="43.51448187276342" lon="12.081896020407784"><ele>342.0</ele><time>2026-04-12T09:23:06Z</time></trkpt><trkpt lat="43.51433130872434" lon="12.081896020403095"><ele>339.0</ele><time>2026-04-12T09:23:07Z</time></trkpt><trkpt lat="43.5141784872562" lon="12.081899246486156"><ele>339.0</ele><time>2026-04-12T09:23:08Z</time></trkpt><trkpt lat="43.51401388450246" lon="12.081917077940531"><ele>339.0</ele><time>2026-04-12T09:23:09Z</time></trkpt><trkpt lat="43.513871004803704" lon="12.081962786063379"><ele>339.0</ele><time>2026-04-12T09:23:10Z</time></trkpt><trkpt lat="43.513747605378065" lon="12.082009793266955"><ele>339.0</ele><time>2026-04-12T09:23:11Z</time></trkpt><trkpt lat="43.513627575801834" lon="12.082067967806632"><ele>338.0</ele><time>2026-04-12T09:23:12Z</time></trkpt><trkpt lat="43.51349784928878" lon="12.082156284768683"><ele>337.0</ele><time>2026-04-12T09:23:13Z</time></trkpt><trkpt lat="43.513338609145315" lon="12.082261844705931"><ele>336.0</ele><time>2026-04-12T09:23:14Z</time></trkpt><trkpt lat="43.51318374607042" lon="12.082444706162562"><ele>336.0</ele><time>2026-04-12T09:23:15Z</time></trkpt><trkpt lat="43.51302213654111" lon="12.082631343010341"><ele>336.0</ele><time>2026-04-12T09:23:16Z</time></trkpt><trkpt lat="43.51286156368561" lon="12.082833601044833"><ele>336.0</ele><time>2026-04-12T09:23:17Z</time></trkpt><trkpt lat="43.512695642221345" lon="12.083062772514644"><ele>333.0</ele><time>2026-04-12T09:23:18Z</time></trkpt><trkpt lat="43.51253191125923" lon="12.083278673734245"><ele>330.0</ele><time>2026-04-12T09:23:19Z</time></trkpt><trkpt lat="43.51237333042112" lon="12.083491461107833"><ele>327.0</ele><time>2026-04-12T09:23:20Z</time></trkpt><trkpt lat="43.51220882929477" lon="12.083707261114098"><ele>323.5</ele><time>2026-04-12T09:23:21Z</time></trkpt><trkpt lat="43.51203524041463" lon="12.083919438342011"><ele>320.0</ele><time>2026-04-12T09:23:22Z</time></trkpt><trkpt lat="43.51184994789507" lon="12.084108779730808"><ele>318.5</ele><time>2026-04-12T09:23:23Z</time></trkpt><trkpt lat="43.511647244727236" lon="12.084260117061794"><ele>317.0</ele><time>2026-04-12T09:23:24Z</time></trkpt><trkpt lat="43.511424044071376" lon="12.084364341359498"><ele>314.0</ele><time>2026-04-12T09:23:25Z</time></trkpt><trkpt lat="43.51118957007376" lon="12.084437257752484"><ele>311.0</ele><time>2026-04-12T09:23:26Z</time></trkpt><trkpt lat="43.5109472498466" lon="12.084487508209136"><ele>311.0</ele><time>2026-04-12T09:23:27Z</time></trkpt><trkpt lat="43.510707530015566" lon="12.084463349661632"><ele>311.0</ele><time>2026-04-12T09:23:28Z</time></trkpt><trkpt lat="43.51046392317358" lon="12.08443027104059"><ele>311.0</ele><time>2026-04-12T09:23:29Z</time></trkpt><trkpt lat="43.51022130531112" lon="12.084391354204993"><ele>311.0</ele><time>2026-04-12T09:23:30Z</time></trkpt><trkpt lat="43.50997718397734" lon="12.084352196220655"><ele>311.0</ele><time>2026-04-12T09:23:31Z</time></trkpt><trkpt lat="43.509733479781964" lon="12.084331088978077"><ele>311.0</ele><time>2026-04-12T09:23:32Z</time></trkpt><trkpt lat="43.50949426814367" lon="12.084280002387912"><ele>310.5</ele><time>2026-04-12T09:23:33Z</time></trkpt><trkpt lat="43.509259464940975" lon="12.08421728850832"><ele>310.0</ele><time>2026-04-12T09:23:34Z</time></trkpt><trkpt lat="43.50903222717332" lon="12.084113371111034"><ele>310.0</ele><time>2026-04-12T09:23:35Z</time></trkpt><trkpt lat="43.508809527079755" lon="12.084030227413022"><ele>310.0</ele><time>2026-04-12T09:23:36Z</time></trkpt><trkpt lat="43.508600238729855" lon="12.08397115470192"><ele>310.0</ele><time>2026-04-12T09:23:37Z</time></trkpt><trkpt lat="43.50839712412901" lon="12.083892466475955"><ele>310.0</ele><time>2026-04-12T09:23:38Z</time></trkpt><trkpt lat="43.50820425969539" lon="12.08382136374231"><ele>310.0</ele><time>2026-04-12T09:23:39Z</time></trkpt><trkpt lat="43.50801846442492" lon="12.083751355263871"><ele>310.0</ele><time>2026-04-12T09:23:40Z</time></trkpt><trkpt lat="43.50784889025831" lon="12.083685734509821"><ele>309.3333333333333</ele><time>2026-04-12T09:23:41Z</time></trkpt><trkpt lat="43.50768744579975" lon="12.083606425718672"><ele>308.6666666666667</ele><time>2026-04-12T09:23:42Z</time></trkpt><trkpt lat="43.50752670509782" lon="12.083545686648716"><ele>308.0</ele><time>2026-04-12T09:23:43Z</time></trkpt><trkpt lat="43.50737245561384" lon="12.083487400459575"><ele>308.0</ele><time>2026-04-12T09:23:44Z</time></trkpt><trkpt lat="43.50722291879134" lon="12.083430895066112"><ele>308.0</ele><time>2026-04-12T09:23:45Z</time></trkpt><trkpt lat="43.50707305926581" lon="12.083374267685478"><ele>308.0</ele><time>2026-04-12T09:23:46Z</time></trkpt><trkpt lat="43.50692559377105" lon="12.08331812345441"><ele>308.33333333333337</ele><time>2026-04-12T09:23:47Z</time></trkpt><trkpt lat="43.506774590208636" lon="12.08326057995245"><ele>308.6666666666667</ele><time>2026-04-12T09:23:48Z</time></trkpt><trkpt lat="43.50661286719849" lon="12.083198951550221"><ele>309.0</ele><time>2026-04-12T09:23:49Z</time></trkpt><trkpt lat="43.50643336144092" lon="12.083130546613653"><ele>309.3333333333333</ele><time>2026-04-12T09:23:50Z</time></trkpt><trkpt lat="43.506234221786215" lon="12.083054659712962"><ele>309.66666666666663</ele><time>2026-04-12T09:23:51Z</time></trkpt><trkpt lat="43.50601400269127" lon="12.082970739972398"><ele>310.0</ele><time>2026-04-12T09:23:52Z</time></trkpt><trkpt lat="43.50577814092051" lon="12.082880859247979"><ele>310.0</ele><time>2026-04-12T09:23:53Z</time></trkpt><trkpt lat="43.505531128500536" lon="12.082786858158112"><ele>310.0</ele><time>2026-04-12T09:23:54Z</time></trkpt><trkpt lat="43.50527787357195" lon="12.082712457986117"><ele>310.0</ele><time>2026-04-12T09:23:55Z</time></trkpt><trkpt lat="43.50503774799066" lon="12.082599867902212"><ele>310.0</ele><time>2026-04-12T09:23:56Z</time></trkpt><trkpt lat="43.50479402742607" lon="12.082530102931985"><ele>309.5</ele><time>2026-04-12T09:23:57Z</time></trkpt><trkpt lat="43.50455130106202" lon="12.082437285149293"><ele>309.0</ele><time>2026-04-12T09:23:58Z</time></trkpt><trkpt lat="43.50430606041551" lon="12.082343290879395"><ele>309.0</ele><time>2026-04-12T09:23:59Z</time></trkpt><trkpt lat="43.50406946760023" lon="12.082230248113596"><ele>309.0</ele><time>2026-04-12T09:24:00Z</time></trkpt><trkpt lat="43.50382681914261" lon="12.08213761114521"><ele>309.0</ele><time>2026-04-12T09:24:01Z</time></trkpt><trkpt lat="43.50357563999792" lon="12.082062295424034"><ele>309.0</ele><time>2026-04-12T09:24:02Z</time></trkpt><trkpt lat="43.503332567977026" lon="12.081964261932528"><ele>309.0</ele><time>2026-04-12T09:24:03Z</time></trkpt><trkpt lat="43.50308980254085" lon="12.08187801061439"><ele>309.0</ele><time>2026-04-12T09:24:04Z</time></trkpt><trkpt lat="43.50284647509632" lon="12.081824781231658"><ele>310.0</ele><time>2026-04-12T09:24:05Z</time></trkpt><trkpt lat="43.502607538978104" lon="12.081814774135955"><ele>311.0</ele><time>2026-04-12T09:24:06Z</time></trkpt><trkpt lat="43.5023681468131" lon="12.081830473060787"><ele>311.0</ele><time>2026-04-12T09:24:07Z</time></trkpt><trkpt lat="43.50213336377611" lon="12.081897677151867"><ele>311.0</ele><time>2026-04-12T09:24:08Z</time></trkpt><trkpt lat="43.50190628105035" lon="12.08200313066644"><ele>311.0</ele><time>2026-04-12T09:24:09Z</time></trkpt><trkpt lat="43.50169188318107" lon="12.082137537203513"><ele>311.0</ele><time>2026-04-12T09:24:10Z</time></trkpt><trkpt lat="43.50148760941333" lon="12.082302971734407"><ele>311.0</ele><time>2026-04-12T09:24:11Z</time></trkpt><trkpt lat="43.501297911312086" lon="12.08249847531754"><ele>311.0</ele><time>2026-04-12T09:24:12Z</time></trkpt><trkpt lat="43.50112293629737" lon="12.082719244281897"><ele>315.5</ele><time>2026-04-12T09:24:13Z</time></trkpt><trkpt lat="43.50097300560171" lon="12.082962076409128"><ele>320.0</ele><time>2026-04-12T09:24:14Z</time></trkpt><trkpt lat="43.500804502223474" lon="12.083188493400991"><ele>320.0</ele><time>2026-04-12T09:24:15Z</time></trkpt><trkpt lat="43.500659657032045" lon="12.083417570795225"><ele>320.0</ele><time>2026-04-12T09:24:16Z</time></trkpt><trkpt lat="43.50049848429483" lon="12.083636560028715"><ele>320.0</ele><time>2026-04-12T09:24:17Z</time></trkpt><trkpt lat="43.500330871302715" lon="12.083848210291151"><ele>327.5</ele><time>2026-04-12T09:24:18Z</time></trkpt><trkpt lat="43.500184570492436" lon="12.084103599876716"><ele>335.0</ele><time>2026-04-12T09:24:19Z</time></trkpt><trkpt lat="43.50002659704138" lon="12.084325014003177"><ele>335.0</ele><time>2026-04-12T09:24:20Z</time></trkpt><trkpt lat="43.499858740781676" lon="12.084511566957667"><ele>335.0</ele><time>2026-04-12T09:24:21Z</time></trkpt><trkpt lat="43.49968385396587" lon="12.084677075345963"><ele>335.0</ele><time>2026-04-12T09:24:22Z</time></trkpt><trkpt lat="43.49949665682624" lon="12.084821167743213"><ele>335.33333333333337</ele><time>2026-04-12T09:24:23Z</time></trkpt><trkpt lat="43.49929855114698" lon="12.084931574354737"><ele>335.6666666666667</ele><time>2026-04-12T09:24:24Z</time></trkpt><trkpt lat="43.49908668919902" lon="12.084996681880364"><ele>336.0</ele><time>2026-04-12T09:24:25Z</time></trkpt><trkpt lat="43.4988721068329" lon="12.085009125913578"><ele>337.6666666666667</ele><time>2026-04-12T09:24:26Z</time></trkpt><trkpt lat="43.49865127149843" lon="12.084991959657136"><ele>339.33333333333337</ele><time>2026-04-12T09:24:27Z</time></trkpt><trkpt lat="43.49842773015838" lon="12.084944553840979"><ele>341.0</ele><time>2026-04-12T09:24:28Z</time></trkpt><trkpt lat="43.498214021869266" lon="12.084848667820348"><ele>343.0</ele><time>2026-04-12T09:24:29Z</time></trkpt><trkpt lat="43.49799753277668" lon="12.084749445429441"><ele>345.0</ele><time>2026-04-12T09:24:30Z</time></trkpt><trkpt lat="43.497777053034405" lon="12.084652994665808"><ele>345.0</ele><time>2026-04-12T09:24:31Z</time></trkpt><trkpt lat="43.497550220726254" lon="12.084548844589943"><ele>345.0</ele><time>2026-04-12T09:24:32Z</time></trkpt><trkpt lat="43.49733052233427" lon="12.08438240404567"><ele>345.0</ele><time>2026-04-12T09:24:33Z</time></trkpt><trkpt lat="43.49711424507844" lon="12.084189877334678"><ele>345.0</ele><time>2026-04-12T09:24:34Z</time></trkpt><trkpt lat="43.49694461003917" lon="12.084060193269668"><ele>340.0</ele><time>2026-04-12T09:24:35Z</time></trkpt><trkpt lat="43.49676778661942" lon="12.083897479816795"><ele>335.0</ele><time>2026-04-12T09:24:36Z</time></trkpt><trkpt lat="43.49655694394574" lon="12.083701410167764"><ele>335.0</ele><time>2026-04-12T09:24:37Z</time></trkpt><trkpt lat="43.496342338131825" lon="12.083549082690721"><ele>335.0</ele><time>2026-04-12T09:24:38Z</time></trkpt><trkpt lat="43.49611802975903" lon="12.083420441035596"><ele>334.5</ele><time>2026-04-12T09:24:39Z</time></trkpt><trkpt lat="43.49588648225191" lon="12.08331040201791"><ele>334.0</ele><time>2026-04-12T09:24:40Z</time></trkpt><trkpt lat="43.49565340884373" lon="12.083216499059729"><ele>334.0</ele><time>2026-04-12T09:24:41Z</time></trkpt><trkpt lat="43.49542289524313" lon="12.08312756463793"><ele>334.0</ele><time>2026-04-12T09:24:42Z</time></trkpt><trkpt lat="43.49520022025782" lon="12.083037471971853"><ele>331.3333333333333</ele><time>2026-04-12T09:24:43Z</time></trkpt><trkpt lat="43.49498831454591" lon="12.082951799956454"><ele>328.6666666666667</ele><time>2026-04-12T09:24:44Z</time></trkpt><trkpt lat="43.494790355164945" lon="12.082870061404867"><ele>326.0</ele><time>2026-04-12T09:24:45Z</time></trkpt><trkpt lat="43.494609018755426" lon="12.082797453872985"><ele>324.6666666666667</ele><time>2026-04-12T09:24:46Z</time></trkpt><trkpt lat="43.494445745947516" lon="12.08273207986778"><ele>323.3333333333333</ele><time>2026-04-12T09:24:47Z</time></trkpt><trkpt lat="43.49428594142112" lon="12.08265939445817"><ele>322.0</ele><time>2026-04-12T09:24:48Z</time></trkpt><trkpt lat="43.49412356736894" lon="12.082601353448496"><ele>322.0</ele><time>2026-04-12T09:24:49Z</time></trkpt><trkpt lat="43.493965021863936" lon="12.082513061651325"><ele>322.0</ele><time>2026-04-12T09:24:50Z</time></trkpt><trkpt lat="43.49379867837131" lon="12.08246350491379"><ele>322.0</ele><time>2026-04-12T09:24:51Z</time></trkpt><trkpt lat="43.49363832137274" lon="12.082389086188495"><ele>325.0</ele><time>2026-04-12T09:24:52Z</time></trkpt><trkpt lat="43.493482629482266" lon="12.082313335791426"><ele>328.0</ele><time>2026-04-12T09:24:53Z</time></trkpt><trkpt lat="43.493331942611086" lon="12.082225411246029"><ele>331.0</ele><time>2026-04-12T09:24:54Z</time></trkpt><trkpt lat="43.493184275257974" lon="12.082113619073521"><ele>331.0</ele><time>2026-04-12T09:24:55Z</time></trkpt><trkpt lat="43.4930595013413" lon="12.08196281098514"><ele>331.0</ele><time>2026-04-12T09:24:56Z</time></trkpt><trkpt lat="43.4929361613746" lon="12.081818616267299"><ele>331.0</ele><time>2026-04-12T09:24:57Z</time></trkpt><trkpt lat="43.49282714681754" lon="12.081663987391314"><ele>327.66666666666663</ele><time>2026-04-12T09:24:58Z</time></trkpt><trkpt lat="43.49272023361041" lon="12.081500546982195"><ele>324.3333333333333</ele><time>2026-04-12T09:24:59Z</time></trkpt><trkpt lat="43.4926037092485" lon="12.0813470852227"><ele>321.0</ele><time>2026-04-12T09:25:00Z</time></trkpt><trkpt lat="43.492499939999576" lon="12.081176955716483"><ele>321.0</ele><time>2026-04-12T09:25:01Z</time></trkpt><trkpt lat="43.492395650363356" lon="12.081006205273942"><ele>321.0</ele><time>2026-04-12T09:25:02Z</time></trkpt><trkpt lat="43.492289322282886" lon="12.080836656078242"><ele>321.0</ele><time>2026-04-12T09:25:03Z</time></trkpt><trkpt lat="43.492182720690366" lon="12.080670754827484"><ele>321.5</ele><time>2026-04-12T09:25:04Z</time></trkpt><trkpt lat="43.49207958366298" lon="12.080525373272188"><ele>322.0</ele><time>2026-04-12T09:25:05Z</time></trkpt><trkpt lat="43.4919804293026" lon="12.080397572162884"><ele>322.5</ele><time>2026-04-12T09:25:06Z</time></trkpt><trkpt lat="43.49187445855679" lon="12.080277856393396"><ele>323.0</ele><time>2026-04-12T09:25:06.999Z</time></trkpt><trkpt lat="43.49176096126617" lon="12.080153721579578"><ele>323.0</ele><time>2026-04-12T09:25:08Z</time></trkpt><trkpt lat="43.491637576241644" lon="12.080036856312331"><ele>323.0</ele><time>2026-04-12T09:25:09Z</time></trkpt><trkpt lat="43.49150549980685" lon="12.079928797695079"><ele>323.0</ele><time>2026-04-12T09:25:10Z</time></trkpt><trkpt lat="43.49136073743932" lon="12.079825614813414"><ele>321.33333333333337</ele><time>2026-04-12T09:25:11Z</time></trkpt><trkpt lat="43.491208353167224" lon="12.079733295034105"><ele>319.6666666666667</ele><time>2026-04-12T09:25:12Z</time></trkpt><trkpt lat="43.49105121233518" lon="12.079662444460476"><ele>318.0</ele><time>2026-04-12T09:25:13Z</time></trkpt><trkpt lat="43.49090129235341" lon="12.079597942642724"><ele>318.0</ele><time>2026-04-12T09:25:14Z</time></trkpt><trkpt lat="43.49075743652884" lon="12.079543483856234"><ele>318.0</ele><time>2026-04-12T09:25:15Z</time></trkpt><trkpt lat="43.49061358912037" lon="12.0795017448054"><ele>318.0</ele><time>2026-04-12T09:25:16Z</time></trkpt><trkpt lat="43.49046073991898" lon="12.079471931060544"><ele>318.6666666666667</ele><time>2026-04-12T09:25:17Z</time></trkpt><trkpt lat="43.49030304814943" lon="12.07943637423888"><ele>319.33333333333337</ele><time>2026-04-12T09:25:18Z</time></trkpt><trkpt lat="43.49014543780701" lon="12.079398885779923"><ele>320.0</ele><time>2026-04-12T09:25:19Z</time></trkpt><trkpt lat="43.4899865985587" lon="12.079352090872622"><ele>320.0</ele><time>2026-04-12T09:25:20Z</time></trkpt><trkpt lat="43.48982570088279" lon="12.079314445484215"><ele>320.0</ele><time>2026-04-12T09:25:21Z</time></trkpt><trkpt lat="43.489668308302754" lon="12.079274066287168"><ele>320.0</ele><time>2026-04-12T09:25:22Z</time></trkpt><trkpt lat="43.489522588823235" lon="12.079218334396936"><ele>320.75</ele><time>2026-04-12T09:25:23Z</time></trkpt><trkpt lat="43.4893781793606" lon="12.079204889632562"><ele>321.5</ele><time>2026-04-12T09:25:24Z</time></trkpt><trkpt lat="43.489240467372206" lon="12.079170389231129"><ele>322.25</ele><time>2026-04-12T09:25:25Z</time></trkpt><trkpt lat="43.48910593866208" lon="12.079141630013027"><ele>323.0</ele><time>2026-04-12T09:25:26Z</time></trkpt><trkpt lat="43.48897197018996" lon="12.079128188665226"><ele>323.0</ele><time>2026-04-12T09:25:27Z</time></trkpt><trkpt lat="43.488842513901425" lon="12.079129557182682"><ele>323.0</ele><time>2026-04-12T09:25:28Z</time></trkpt><trkpt lat="43.48871206083568" lon="12.079147748599345"><ele>323.0</ele><time>2026-04-12T09:25:29Z</time></trkpt><trkpt lat="43.48857637968064" lon="12.079177888849463"><ele>323.0</ele><time>2026-04-12T09:25:30Z</time></trkpt><trkpt lat="43.48843842796534" lon="12.079219831584359"><ele>325.0</ele><time>2026-04-12T09:25:31Z</time></trkpt><trkpt lat="43.48830197594427" lon="12.079275093989434"><ele>327.0</ele><time>2026-04-12T09:25:32Z</time></trkpt><trkpt lat="43.488171750873214" lon="12.079347030978363"><ele>329.0</ele><time>2026-04-12T09:25:33Z</time></trkpt><trkpt lat="43.488053678655675" lon="12.079425733999695"><ele>331.0</ele><time>2026-04-12T09:25:34Z</time></trkpt><trkpt lat="43.48794032810697" lon="12.079510501021595"><ele>332.25</ele><time>2026-04-12T09:25:35Z</time></trkpt><trkpt lat="43.48782531625617" lon="12.079593774030567"><ele>333.5</ele><time>2026-04-12T09:25:36Z</time></trkpt><trkpt lat="43.48770276444539" lon="12.079678321575038"><ele>334.75</ele><time>2026-04-12T09:25:37Z</time></trkpt><trkpt lat="43.48757416058284" lon="12.079745146248522"><ele>336.0</ele><time>2026-04-12T09:25:38Z</time></trkpt><trkpt lat="43.487443624358136" lon="12.07980271395773"><ele>336.0</ele><time>2026-04-12T09:25:39Z</time></trkpt><trkpt lat="43.48732884025371" lon="12.07982434158233"><ele>336.0</ele><time>2026-04-12T09:25:40Z</time></trkpt><trkpt lat="43.48720691858055" lon="12.079834683262883"><ele>336.0</ele><time>2026-04-12T09:25:41Z</time></trkpt><trkpt lat="43.487082805001386" lon="12.079812741108025"><ele>336.0</ele><time>2026-04-12T09:25:42Z</time></trkpt><trkpt lat="43.486962194499725" lon="12.079755864238773"><ele>332.75</ele><time>2026-04-12T09:25:43Z</time></trkpt><trkpt lat="43.48684289473358" lon="12.07967589383861"><ele>329.5</ele><time>2026-04-12T09:25:44Z</time></trkpt><trkpt lat="43.486720777535" lon="12.079562055498478"><ele>326.25</ele><time>2026-04-12T09:25:45Z</time></trkpt><trkpt lat="43.48659626382363" lon="12.0794336385524"><ele>323.0</ele><time>2026-04-12T09:25:46Z</time></trkpt><trkpt lat="43.48647814068539" lon="12.07931142744427"><ele>323.0</ele><time>2026-04-12T09:25:47Z</time></trkpt><trkpt lat="43.486363009971875" lon="12.079191727150898"><ele>323.0</ele><time>2026-04-12T09:25:48Z</time></trkpt><trkpt lat="43.48625468900225" lon="12.079078818049066"><ele>323.0</ele><time>2026-04-12T09:25:49Z</time></trkpt><trkpt lat="43.486150076476434" lon="12.078970223275075"><ele>323.0</ele><time>2026-04-12T09:25:50Z</time></trkpt><trkpt lat="43.48604744074837" lon="12.078865964778773"><ele>322.0</ele><time>2026-04-12T09:25:51Z</time></trkpt><trkpt lat="43.48593023127508" lon="12.07878322993178"><ele>321.0</ele><time>2026-04-12T09:25:51.999Z</time></trkpt><trkpt lat="43.48581993439297" lon="12.078683543762592"><ele>320.0</ele><time>2026-04-12T09:25:52.999Z</time></trkpt><trkpt lat="43.485702258275104" lon="12.078605060870764"><ele>319.0</ele><time>2026-04-12T09:25:53.999Z</time></trkpt><trkpt lat="43.48557986601971" lon="12.078543943891066"><ele>319.0</ele><time>2026-04-12T09:25:54.999Z</time></trkpt><trkpt lat="43.48545949294832" lon="12.078471203424481"><ele>319.0</ele><time>2026-04-12T09:25:55.999Z</time></trkpt><trkpt lat="43.485340104244045" lon="12.078411543528835"><ele>319.0</ele><time>2026-04-12T09:25:56.999Z</time></trkpt><trkpt lat="43.485220216678535" lon="12.078370903014893"><ele>319.0</ele><time>2026-04-12T09:25:57.999Z</time></trkpt><trkpt lat="43.48511028955084" lon="12.07830143901073"><ele>318.4</ele><time>2026-04-12T09:25:58.999Z</time></trkpt><trkpt lat="43.485019876602315" lon="12.078197697581757"><ele>317.79999999999995</ele><time>2026-04-12T09:25:59.999Z</time></trkpt><trkpt lat="43.48492407185014" lon="12.078120313560762"><ele>317.20000000000005</ele><time>2026-04-12T09:26:00.999Z</time></trkpt><trkpt lat="43.484856742176625" lon="12.078014778900927"><ele>316.6</ele><time>2026-04-12T09:26:01.999Z</time></trkpt><trkpt lat="43.4847976937291" lon="12.077903794969727"><ele>316.0</ele><time>2026-04-12T09:26:02.999Z</time></trkpt><trkpt lat="43.48476419463579" lon="12.077777883247022"><ele>316.0</ele><time>2026-04-12T09:26:03.999Z</time></trkpt><trkpt lat="43.484721896254534" lon="12.077670225624525"><ele>316.0</ele><time>2026-04-12T09:26:04.999Z</time></trkpt><trkpt lat="43.48468464898015" lon="12.07756689584949"><ele>316.0</ele><time>2026-04-12T09:26:05.999Z</time></trkpt><trkpt lat="43.48464974721123" lon="12.077461796116397"><ele>316.0</ele><time>2026-04-12T09:26:06.999Z</time></trkpt><trkpt lat="43.48461218728647" lon="12.07734606360011"><ele>316.0</ele><time>2026-04-12T09:26:07.999Z</time></trkpt><trkpt lat="43.484575564234845" lon="12.077241775712023"><ele>316.0</ele><time>2026-04-12T09:26:08.999Z</time></trkpt><trkpt lat="43.48454343073844" lon="12.077150272252268"><ele>315.40000000000003</ele><time>2026-04-12T09:26:09.999Z</time></trkpt><trkpt lat="43.48451385192115" lon="12.077066043503818"><ele>314.8</ele><time>2026-04-12T09:26:10.999Z</time></trkpt><trkpt lat="43.48446316927986" lon="12.07691771202857"><ele>314.20000000000005</ele><time>2026-04-12T09:26:12.999Z</time></trkpt><trkpt lat="43.48442894993342" lon="12.076816360221647"><ele>313.6</ele><time>2026-04-12T09:26:14.999Z</time></trkpt><trkpt lat="43.48439541319213" lon="12.076717029809936"><ele>313.0</ele><time>2026-04-12T09:26:16.999Z</time></trkpt><trkpt lat="43.48433587439589" lon="12.076540686081637"><ele>313.0</ele><time>2026-04-12T09:26:18.999Z</time></trkpt><trkpt lat="43.484295531005955" lon="12.076424002983751"><ele>313.0</ele><time>2026-04-12T09:26:19.999Z</time></trkpt><trkpt lat="43.48425917668195" lon="12.076319472328771"><ele>313.0</ele><time>2026-04-12T09:26:20.999Z</time></trkpt><trkpt lat="43.484205892473554" lon="12.076217978171623"><ele>313.0</ele><time>2026-04-12T09:26:21.999Z</time></trkpt><trkpt lat="43.484168173792796" lon="12.076108941538843"><ele>313.0</ele><time>2026-04-12T09:26:22.999Z</time></trkpt><trkpt lat="43.484135552917756" lon="12.076007299208499"><ele>313.0</ele><time>2026-04-12T09:26:23.999Z</time></trkpt><trkpt lat="43.48410217317226" lon="12.075906700210988"><ele>313.0</ele><time>2026-04-12T09:26:24.999Z</time></trkpt><trkpt lat="43.48406120390777" lon="12.075797360421618"><ele>313.0</ele><time>2026-04-12T09:26:25.999Z</time></trkpt><trkpt lat="43.484025834780354" lon="12.075683902840021"><ele>313.0</ele><time>2026-04-12T09:26:26.999Z</time></trkpt><trkpt lat="43.483993487787465" lon="12.075587629741843"><ele>313.0</ele><time>2026-04-12T09:26:27.999Z</time></trkpt><trkpt lat="43.48396283360011" lon="12.075511424763583"><ele>313.0</ele><time>2026-04-12T09:26:28.999Z</time></trkpt><trkpt lat="43.4839323378589" lon="12.075417384212605"><ele>313.0</ele><time>2026-04-12T09:26:30.999Z</time></trkpt><trkpt lat="43.483898061056" lon="12.07532230421737"><ele>313.5</ele><time>2026-04-12T09:26:32.999Z</time></trkpt><trkpt lat="43.483845058158465" lon="12.075162776331176"><ele>314.0</ele><time>2026-04-12T09:26:34.999Z</time></trkpt><trkpt lat="43.483814519387984" lon="12.07503185061398"><ele>314.5</ele><time>2026-04-12T09:26:35.999Z</time></trkpt><trkpt lat="43.48374303391392" lon="12.07492620905169"><ele>315.0</ele><time>2026-04-12T09:26:36.999Z</time></trkpt><trkpt lat="43.48366136095343" lon="12.074751332655138"><ele>315.0</ele><time>2026-04-12T09:26:37.999Z</time></trkpt><trkpt lat="43.48358193751297" lon="12.074595573616392"><ele>315.0</ele><time>2026-04-12T09:26:38.999Z</time></trkpt><trkpt lat="43.48350434226556" lon="12.074454556931686"><ele>315.0</ele><time>2026-04-12T09:26:39.999Z</time></trkpt><trkpt lat="43.483414080794084" lon="12.07431128649437"><ele>315.0</ele><time>2026-04-12T09:26:40.999Z</time></trkpt><trkpt lat="43.483318122781085" lon="12.074153054167898"><ele>316.3333333333333</ele><time>2026-04-12T09:26:41.999Z</time></trkpt><trkpt lat="43.483220895538466" lon="12.073977906408134"><ele>317.66666666666663</ele><time>2026-04-12T09:26:42.999Z</time></trkpt><trkpt lat="43.48312924294965" lon="12.073806794417552"><ele>319.0</ele><time>2026-04-12T09:26:43.999Z</time></trkpt><trkpt lat="43.48303081855692" lon="12.073628048461426"><ele>319.0</ele><time>2026-04-12T09:26:44.999Z</time></trkpt><trkpt lat="43.482936922332115" lon="12.073439182014994"><ele>319.0</ele><time>2026-04-12T09:26:45.999Z</time></trkpt><trkpt lat="43.482845659228396" lon="12.073246064528478"><ele>319.0</ele><time>2026-04-12T09:26:46.999Z</time></trkpt><trkpt lat="43.482760946470975" lon="12.07305619602399"><ele>317.66666666666663</ele><time>2026-04-12T09:26:47.999Z</time></trkpt><trkpt lat="43.4826799587056" lon="12.072862097311342"><ele>316.3333333333333</ele><time>2026-04-12T09:26:48.999Z</time></trkpt><trkpt lat="43.48259845840499" lon="12.072661195209886"><ele>315.0</ele><time>2026-04-12T09:26:49.999Z</time></trkpt><trkpt lat="43.482514517863535" lon="12.072454762396664"><ele>317.6666666666667</ele><time>2026-04-12T09:26:50.999Z</time></trkpt><trkpt lat="43.48243263929668" lon="12.072242711029967"><ele>320.33333333333337</ele><time>2026-04-12T09:26:51.999Z</time></trkpt><trkpt lat="43.48234963092464" lon="12.072030819834113"><ele>323.0</ele><time>2026-04-12T09:26:52.999Z</time></trkpt><trkpt lat="43.48226760777636" lon="12.071818317076652"><ele>322.0</ele><time>2026-04-12T09:26:53.999Z</time></trkpt><trkpt lat="43.48218424698305" lon="12.071603888263978"><ele>321.0</ele><time>2026-04-12T09:26:54.999Z</time></trkpt><trkpt lat="43.48209952626454" lon="12.07138793572451"><ele>320.0</ele><time>2026-04-12T09:26:55.999Z</time></trkpt><trkpt lat="43.482016028313886" lon="12.071173075052934"><ele>316.6666666666667</ele><time>2026-04-12T09:26:56.999Z</time></trkpt><trkpt lat="43.481933494179344" lon="12.0709558906009"><ele>313.3333333333333</ele><time>2026-04-12T09:26:57.999Z</time></trkpt><trkpt lat="43.48184906197642" lon="12.070738379666446"><ele>310.0</ele><time>2026-04-12T09:26:58.999Z</time></trkpt><trkpt lat="43.481764626985594" lon="12.070523541802451"><ele>310.0</ele><time>2026-04-12T09:26:59.999Z</time></trkpt><trkpt lat="43.48168040242613" lon="12.07030605428921"><ele>310.0</ele><time>2026-04-12T09:27:00.999Z</time></trkpt><trkpt lat="43.48159886073181" lon="12.070089063230828"><ele>310.0</ele><time>2026-04-12T09:27:01.999Z</time></trkpt><trkpt lat="43.48151859217494" lon="12.069875001163423"><ele>313.0</ele><time>2026-04-12T09:27:02.999Z</time></trkpt><trkpt lat="43.481451395489174" lon="12.0696556442127"><ele>316.0</ele><time>2026-04-12T09:27:03.999Z</time></trkpt><trkpt lat="43.4814074977522" lon="12.069437779225929"><ele>319.0</ele><time>2026-04-12T09:27:04.999Z</time></trkpt><trkpt lat="43.481427460799566" lon="12.069226622949909"><ele>321.3333333333333</ele><time>2026-04-12T09:27:05.999Z</time></trkpt><trkpt lat="43.48129429156337" lon="12.068954047932555"><ele>323.6666666666667</ele><time>2026-04-12T09:27:06.999Z</time></trkpt><trkpt lat="43.48125386566953" lon="12.068709742236624"><ele>326.0</ele><time>2026-04-12T09:27:07.999Z</time></trkpt><trkpt lat="43.481221365884934" lon="12.068459485776504"><ele>320.0</ele><time>2026-04-12T09:27:08.999Z</time></trkpt><trkpt lat="43.48119929059404" lon="12.068209135007008"><ele>314.0</ele><time>2026-04-12T09:27:09.999Z</time></trkpt><trkpt lat="43.481207330517485" lon="12.067955751852267"><ele>308.0</ele><time>2026-04-12T09:27:10.999Z</time></trkpt><trkpt lat="43.481188315369266" lon="12.067703692979865"><ele>308.0</ele><time>2026-04-12T09:27:11.999Z</time></trkpt><trkpt lat="43.48118706085419" lon="12.067453312696845"><ele>308.0</ele><time>2026-04-12T09:27:12.999Z</time></trkpt><trkpt lat="43.481187913010295" lon="12.067201399584732"><ele>308.0</ele><time>2026-04-12T09:27:14Z</time></trkpt><trkpt lat="43.481185180421114" lon="12.066948682570084"><ele>308.33333333333337</ele><time>2026-04-12T09:27:15Z</time></trkpt><trkpt lat="43.48117855173642" lon="12.066695451131357"><ele>308.6666666666667</ele><time>2026-04-12T09:27:16Z</time></trkpt><trkpt lat="43.48116548789299" lon="12.066443331062597"><ele>309.0</ele><time>2026-04-12T09:27:17Z</time></trkpt><trkpt lat="43.481144296718725" lon="12.066189395819551"><ele>309.3333333333333</ele><time>2026-04-12T09:27:18Z</time></trkpt><trkpt lat="43.481109599822" lon="12.065931764774781"><ele>309.66666666666663</ele><time>2026-04-12T09:27:19Z</time></trkpt><trkpt lat="43.48107131690574" lon="12.065677560905103"><ele>310.0</ele><time>2026-04-12T09:27:20Z</time></trkpt><trkpt lat="43.48103110806941" lon="12.065422412200718"><ele>310.3333333333333</ele><time>2026-04-12T09:27:21Z</time></trkpt><trkpt lat="43.48098997823588" lon="12.065164528956947"><ele>310.6666666666667</ele><time>2026-04-12T09:27:22Z</time></trkpt><trkpt lat="43.48095123897465" lon="12.064904622364628"><ele>311.0</ele><time>2026-04-12T09:27:23Z</time></trkpt><trkpt lat="43.48091470288658" lon="12.064643268513368"><ele>311.6666666666667</ele><time>2026-04-12T09:27:24Z</time></trkpt><trkpt lat="43.48087423061513" lon="12.064380502380299"><ele>312.3333333333333</ele><time>2026-04-12T09:27:25Z</time></trkpt><trkpt lat="43.48083391846033" lon="12.064120920841285"><ele>313.0</ele><time>2026-04-12T09:27:26Z</time></trkpt><trkpt lat="43.48078565640479" lon="12.063862815683274"><ele>315.3333333333333</ele><time>2026-04-12T09:27:27Z</time></trkpt><trkpt lat="43.48072047231058" lon="12.06360670897118"><ele>317.6666666666667</ele><time>2026-04-12T09:27:28Z</time></trkpt><trkpt lat="43.48064660420487" lon="12.063360569207568"><ele>320.0</ele><time>2026-04-12T09:27:29Z</time></trkpt><trkpt lat="43.48055377438516" lon="12.063138170468829"><ele>323.33333333333337</ele><time>2026-04-12T09:27:30Z</time></trkpt><trkpt lat="43.48046994390243" lon="12.062909679117364"><ele>326.6666666666667</ele><time>2026-04-12T09:27:31Z</time></trkpt><trkpt lat="43.480386821442956" lon="12.06268559058354"><ele>330.0</ele><time>2026-04-12T09:27:32Z</time></trkpt><trkpt lat="43.48029292076699" lon="12.062501893373199"><ele>325.6666666666667</ele><time>2026-04-12T09:27:33Z</time></trkpt><trkpt lat="43.48021667446138" lon="12.062323006644949"><ele>321.33333333333337</ele><time>2026-04-12T09:27:34Z</time></trkpt><trkpt lat="43.4800347371087" lon="12.062219533107408"><ele>317.0</ele><time>2026-04-12T09:27:35Z</time></trkpt><trkpt lat="43.479850480599886" lon="12.062130667681565"><ele>317.0</ele><time>2026-04-12T09:27:36Z</time></trkpt><trkpt lat="43.47968353461849" lon="12.062124512846843"><ele>317.0</ele><time>2026-04-12T09:27:37Z</time></trkpt><trkpt lat="43.47951647866283" lon="12.062157648152633"><ele>317.0</ele><time>2026-04-12T09:27:38Z</time></trkpt><trkpt lat="43.47933118272337" lon="12.06225049999319"><ele>314.33333333333337</ele><time>2026-04-12T09:27:39Z</time></trkpt><trkpt lat="43.479154795815994" lon="12.062368340224568"><ele>311.6666666666667</ele><time>2026-04-12T09:27:40Z</time></trkpt><trkpt lat="43.47897192164466" lon="12.062443657214272"><ele>309.0</ele><time>2026-04-12T09:27:41Z</time></trkpt><trkpt lat="43.47873750099434" lon="12.062416224652301"><ele>309.0</ele><time>2026-04-12T09:27:42Z</time></trkpt><trkpt lat="43.478537590198144" lon="12.062483344339933"><ele>309.0</ele><time>2026-04-12T09:27:43Z</time></trkpt><trkpt lat="43.47834877846737" lon="12.062526132574925"><ele>309.0</ele><time>2026-04-12T09:27:44Z</time></trkpt><trkpt lat="43.47815795039914" lon="12.062507673895901"><ele>309.0</ele><time>2026-04-12T09:27:45Z</time></trkpt><trkpt lat="43.477969944749226" lon="12.062424032226007"><ele>309.0</ele><time>2026-04-12T09:27:46Z</time></trkpt><trkpt lat="43.477798428026546" lon="12.06227554291404"><ele>309.0</ele><time>2026-04-12T09:27:47Z</time></trkpt><trkpt lat="43.477645414069904" lon="12.062062150807009"><ele>309.0</ele><time>2026-04-12T09:27:48Z</time></trkpt><trkpt lat="43.4775304776909" lon="12.061805648136769"><ele>309.0</ele><time>2026-04-12T09:27:49Z</time></trkpt><trkpt lat="43.47745179003885" lon="12.061498240347088"><ele>309.0</ele><time>2026-04-12T09:27:50Z</time></trkpt><trkpt lat="43.47738904499334" lon="12.06117131322936"><ele>309.0</ele><time>2026-04-12T09:27:51Z</time></trkpt><trkpt lat="43.47731136166007" lon="12.060836164205629"><ele>309.0</ele><time>2026-04-12T09:27:52Z</time></trkpt><trkpt lat="43.47722736517477" lon="12.060493902519022"><ele>309.0</ele><time>2026-04-12T09:27:53Z</time></trkpt><trkpt lat="43.477149739515504" lon="12.060141286339546"><ele>309.5</ele><time>2026-04-12T09:27:54Z</time></trkpt><trkpt lat="43.47708129557522" lon="12.059782033626382"><ele>310.0</ele><time>2026-04-12T09:27:55Z</time></trkpt><trkpt lat="43.47700000876512" lon="12.059425129981449"><ele>311.0</ele><time>2026-04-12T09:27:56Z</time></trkpt><trkpt lat="43.47691011715562" lon="12.059079440290079"><ele>312.0</ele><time>2026-04-12T09:27:57Z</time></trkpt><trkpt lat="43.4768042153676" lon="12.058747614659211"><ele>312.0</ele><time>2026-04-12T09:27:58Z</time></trkpt><trkpt lat="43.476683167252155" lon="12.058430347995024"><ele>312.0</ele><time>2026-04-12T09:27:59Z</time></trkpt><trkpt lat="43.47655217908798" lon="12.058120585809172"><ele>312.5</ele><time>2026-04-12T09:28:00Z</time></trkpt><trkpt lat="43.476406564334006" lon="12.057817764915777"><ele>313.0</ele><time>2026-04-12T09:28:01Z</time></trkpt><trkpt lat="43.476247996534774" lon="12.057530990232554"><ele>312.5</ele><time>2026-04-12T09:28:02Z</time></trkpt><trkpt lat="43.47607217796952" lon="12.057255890601489"><ele>312.0</ele><time>2026-04-12T09:28:03Z</time></trkpt><trkpt lat="43.47587852901666" lon="12.057003048697831"><ele>312.0</ele><time>2026-04-12T09:28:04Z</time></trkpt><trkpt lat="43.47568436851285" lon="12.056758894215031"><ele>312.0</ele><time>2026-04-12T09:28:05Z</time></trkpt><trkpt lat="43.475479430668265" lon="12.056532287862025"><ele>313.0</ele><time>2026-04-12T09:28:06Z</time></trkpt><trkpt lat="43.47526478083053" lon="12.056322667452232"><ele>314.0</ele><time>2026-04-12T09:28:07Z</time></trkpt><trkpt lat="43.47504378512272" lon="12.056129045113886"><ele>314.0</ele><time>2026-04-12T09:28:08Z</time></trkpt><trkpt lat="43.47481394995708" lon="12.055951892835012"><ele>314.0</ele><time>2026-04-12T09:28:09Z</time></trkpt><trkpt lat="43.47458120085935" lon="12.055782866778662"><ele>313.5</ele><time>2026-04-12T09:28:10Z</time></trkpt><trkpt lat="43.47434675905563" lon="12.055615695939954"><ele>313.0</ele><time>2026-04-12T09:28:11Z</time></trkpt><trkpt lat="43.47411475053787" lon="12.055445094920726"><ele>313.0</ele><time>2026-04-12T09:28:12Z</time></trkpt><trkpt lat="43.47388312188693" lon="12.05527234647608"><ele>313.0</ele><time>2026-04-12T09:28:13Z</time></trkpt><trkpt lat="43.47365116876258" lon="12.055099294989493"><ele>312.5</ele><time>2026-04-12T09:28:14Z</time></trkpt><trkpt lat="43.47341999553579" lon="12.054927400635684"><ele>312.0</ele><time>2026-04-12T09:28:15Z</time></trkpt><trkpt lat="43.473188359156566" lon="12.05475527206404"><ele>312.0</ele><time>2026-04-12T09:28:16Z</time></trkpt><trkpt lat="43.47295649328837" lon="12.054582755332078"><ele>312.0</ele><time>2026-04-12T09:28:17Z</time></trkpt><trkpt lat="43.472724431808565" lon="12.054408449688323"><ele>312.0</ele><time>2026-04-12T09:28:18Z</time></trkpt><trkpt lat="43.47249242183317" lon="12.054236612217984"><ele>312.0</ele><time>2026-04-12T09:28:19Z</time></trkpt><trkpt lat="43.47226071068124" lon="12.05405993160966"><ele>313.0</ele><time>2026-04-12T09:28:20Z</time></trkpt><trkpt lat="43.47203061366103" lon="12.053884781591602"><ele>314.0</ele><time>2026-04-12T09:28:21Z</time></trkpt><trkpt lat="43.47179949149256" lon="12.05371168173587"><ele>314.0</ele><time>2026-04-12T09:28:22Z</time></trkpt><trkpt lat="43.471566974530134" lon="12.053541051350306"><ele>314.0</ele><time>2026-04-12T09:28:23Z</time></trkpt><trkpt lat="43.47133466822581" lon="12.053371096265401"><ele>316.0</ele><time>2026-04-12T09:28:24Z</time></trkpt><trkpt lat="43.47110293592726" lon="12.053199800644409"><ele>318.0</ele><time>2026-04-12T09:28:25Z</time></trkpt><trkpt lat="43.47087008860853" lon="12.053027004126209"><ele>318.0</ele><time>2026-04-12T09:28:26Z</time></trkpt><trkpt lat="43.47063976525496" lon="12.0528495953961"><ele>318.0</ele><time>2026-04-12T09:28:27Z</time></trkpt><trkpt lat="43.47041027703304" lon="12.052672383518772"><ele>318.5</ele><time>2026-04-12T09:28:28Z</time></trkpt><trkpt lat="43.47017964488952" lon="12.052495656713592"><ele>319.0</ele><time>2026-04-12T09:28:29Z</time></trkpt><trkpt lat="43.46995009180003" lon="12.052315581899046"><ele>319.0</ele><time>2026-04-12T09:28:30Z</time></trkpt><trkpt lat="43.46972352050794" lon="12.052129724081423"><ele>319.0</ele><time>2026-04-12T09:28:31Z</time></trkpt><trkpt lat="43.46950376423084" lon="12.051933009039368"><ele>319.5</ele><time>2026-04-12T09:28:32Z</time></trkpt><trkpt lat="43.46928972274374" lon="12.051720975379489"><ele>320.0</ele><time>2026-04-12T09:28:33Z</time></trkpt><trkpt lat="43.46908407155246" lon="12.051491252505006"><ele>320.0</ele><time>2026-04-12T09:28:34Z</time></trkpt><trkpt lat="43.468885155635625" lon="12.05125366613822"><ele>320.0</ele><time>2026-04-12T09:28:35Z</time></trkpt><trkpt lat="43.468692429122356" lon="12.05099961319057"><ele>320.0</ele><time>2026-04-12T09:28:36Z</time></trkpt><trkpt lat="43.468505766150834" lon="12.050728703785921"><ele>320.0</ele><time>2026-04-12T09:28:37Z</time></trkpt><trkpt lat="43.4683233528384" lon="12.050447394275501"><ele>320.0</ele><time>2026-04-12T09:28:38Z</time></trkpt><trkpt lat="43.468148544641664" lon="12.050154908525496"><ele>320.0</ele><time>2026-04-12T09:28:39Z</time></trkpt><trkpt lat="43.46798272727734" lon="12.049852475639758"><ele>317.5</ele><time>2026-04-12T09:28:40Z</time></trkpt><trkpt lat="43.46782737765173" lon="12.049537571563535"><ele>315.0</ele><time>2026-04-12T09:28:40.999Z</time></trkpt><trkpt lat="43.46767978246755" lon="12.049211838161503"><ele>315.5</ele><time>2026-04-12T09:28:41.999Z</time></trkpt><trkpt lat="43.467545942566915" lon="12.048874630099068"><ele>316.0</ele><time>2026-04-12T09:28:42.999Z</time></trkpt><trkpt lat="43.467419306672866" lon="12.048532274027695"><ele>320.0</ele><time>2026-04-12T09:28:43.999Z</time></trkpt><trkpt lat="43.46730667966634" lon="12.048181516555776"><ele>324.0</ele><time>2026-04-12T09:28:44.999Z</time></trkpt><trkpt lat="43.46720167830245" lon="12.047823178834124"><ele>321.5</ele><time>2026-04-12T09:28:45.999Z</time></trkpt><trkpt lat="43.4670979235169" lon="12.04746652278649"><ele>319.0</ele><time>2026-04-12T09:28:46.999Z</time></trkpt><trkpt lat="43.466993828818694" lon="12.047107849423593"><ele>319.0</ele><time>2026-04-12T09:28:47.999Z</time></trkpt><trkpt lat="43.466891220200736" lon="12.046748525258359"><ele>319.0</ele><time>2026-04-12T09:28:48.999Z</time></trkpt><trkpt lat="43.46679047893702" lon="12.046389773203561"><ele>322.5</ele><time>2026-04-12T09:28:49.999Z</time></trkpt><trkpt lat="43.466687606222074" lon="12.046031323975525"><ele>326.0</ele><time>2026-04-12T09:28:50.999Z</time></trkpt><trkpt lat="43.46658492714863" lon="12.04567370891543"><ele>329.0</ele><time>2026-04-12T09:28:51.999Z</time></trkpt><trkpt lat="43.466481495808736" lon="12.04531748037242"><ele>332.0</ele><time>2026-04-12T09:28:52.999Z</time></trkpt><trkpt lat="43.466377999570575" lon="12.044959366081288"><ele>325.0</ele><time>2026-04-12T09:28:53.999Z</time></trkpt><trkpt lat="43.46627438587926" lon="12.044600291289564"><ele>318.0</ele><time>2026-04-12T09:28:54.999Z</time></trkpt><trkpt lat="43.466171559000394" lon="12.044244963601644"><ele>318.0</ele><time>2026-04-12T09:28:55.999Z</time></trkpt><trkpt lat="43.46606647066181" lon="12.043888402384603"><ele>318.0</ele><time>2026-04-12T09:28:56.999Z</time></trkpt><trkpt lat="43.465960859435754" lon="12.043532347216672"><ele>318.0</ele><time>2026-04-12T09:28:57.999Z</time></trkpt><trkpt lat="43.465856788225544" lon="12.04317574075425"><ele>318.0</ele><time>2026-04-12T09:28:58.999Z</time></trkpt><trkpt lat="43.46575324033963" lon="12.042816547625863"><ele>320.0</ele><time>2026-04-12T09:28:59.999Z</time></trkpt><trkpt lat="43.46565263738053" lon="12.042459630813065"><ele>322.0</ele><time>2026-04-12T09:29:00.999Z</time></trkpt><trkpt lat="43.46555206765719" lon="12.042103021126021"><ele>322.0</ele><time>2026-04-12T09:29:01.999Z</time></trkpt><trkpt lat="43.46545089423506" lon="12.041746092166763"><ele>322.0</ele><time>2026-04-12T09:29:02.999Z</time></trkpt><trkpt lat="43.465346507588556" lon="12.041388625257714"><ele>321.0</ele><time>2026-04-12T09:29:03.999Z</time></trkpt><trkpt lat="43.465239240201555" lon="12.041035498907602"><ele>320.0</ele><time>2026-04-12T09:29:04.999Z</time></trkpt><trkpt lat="43.46513448944308" lon="12.0406796750499"><ele>320.0</ele><time>2026-04-12T09:29:05.999Z</time></trkpt><trkpt lat="43.465030703164594" lon="12.04032040761842"><ele>320.0</ele><time>2026-04-12T09:29:06.999Z</time></trkpt><trkpt lat="43.46492909242686" lon="12.039959912262864"><ele>320.0</ele><time>2026-04-12T09:29:07.999Z</time></trkpt><trkpt lat="43.46482471306373" lon="12.039602176690531"><ele>320.0</ele><time>2026-04-12T09:29:08.999Z</time></trkpt><trkpt lat="43.464719516291666" lon="12.039244401107288"><ele>320.5</ele><time>2026-04-12T09:29:09.999Z</time></trkpt><trkpt lat="43.464615725618245" lon="12.038889369247661"><ele>321.0</ele><time>2026-04-12T09:29:10.999Z</time></trkpt><trkpt lat="43.464513133439766" lon="12.038531445740203"><ele>321.5</ele><time>2026-04-12T09:29:11.999Z</time></trkpt><trkpt lat="43.46441072440096" lon="12.038172933023564"><ele>322.0</ele><time>2026-04-12T09:29:12.999Z</time></trkpt><trkpt lat="43.46430838900937" lon="12.03781610063957"><ele>323.0</ele><time>2026-04-12T09:29:13.999Z</time></trkpt><trkpt lat="43.464204074075646" lon="12.037459292533272"><ele>324.0</ele><time>2026-04-12T09:29:14.999Z</time></trkpt><trkpt lat="43.464098503582086" lon="12.037103207647919"><ele>324.0</ele><time>2026-04-12T09:29:15.999Z</time></trkpt><trkpt lat="43.46399494389807" lon="12.036750108272528"><ele>324.0</ele><time>2026-04-12T09:29:16.999Z</time></trkpt><trkpt lat="43.463891082952664" lon="12.036394099591055"><ele>323.5</ele><time>2026-04-12T09:29:17.999Z</time></trkpt><trkpt lat="43.46378732461498" lon="12.036039313961192"><ele>323.0</ele><time>2026-04-12T09:29:18.999Z</time></trkpt><trkpt lat="43.46368456186344" lon="12.035680533436757"><ele>323.0</ele><time>2026-04-12T09:29:20Z</time></trkpt><trkpt lat="43.463581451703924" lon="12.035323150177645"><ele>323.0</ele><time>2026-04-12T09:29:21Z</time></trkpt><trkpt lat="43.46347867422265" lon="12.034966991019274"><ele>324.0</ele><time>2026-04-12T09:29:22Z</time></trkpt><trkpt lat="43.46337552204275" lon="12.034610199231883"><ele>325.0</ele><time>2026-04-12T09:29:23Z</time></trkpt><trkpt lat="43.463271448864006" lon="12.034254271156371"><ele>327.0</ele><time>2026-04-12T09:29:24Z</time></trkpt><trkpt lat="43.463170552199436" lon="12.033894294742444"><ele>329.0</ele><time>2026-04-12T09:29:25Z</time></trkpt><trkpt lat="43.46307880718355" lon="12.033529656985698"><ele>331.0</ele><time>2026-04-12T09:29:26Z</time></trkpt><trkpt lat="43.46299627867174" lon="12.033163083019305"><ele>333.0</ele><time>2026-04-12T09:29:27Z</time></trkpt><trkpt lat="43.46291668075573" lon="12.032794020195592"><ele>329.5</ele><time>2026-04-12T09:29:28Z</time></trkpt><trkpt lat="43.46284254087848" lon="12.03242233658774"><ele>326.0</ele><time>2026-04-12T09:29:29Z</time></trkpt><trkpt lat="43.4627749344798" lon="12.032050521134023"><ele>326.0</ele><time>2026-04-12T09:29:30Z</time></trkpt><trkpt lat="43.462714037904796" lon="12.031673493107666"><ele>326.0</ele><time>2026-04-12T09:29:31Z</time></trkpt><trkpt lat="43.46266670886541" lon="12.031291948858385"><ele>325.5</ele><time>2026-04-12T09:29:32Z</time></trkpt><trkpt lat="43.46263812903047" lon="12.030909652460625"><ele>325.0</ele><time>2026-04-12T09:29:33Z</time></trkpt><trkpt lat="43.462635281408225" lon="12.03052984912943"><ele>326.0</ele><time>2026-04-12T09:29:34Z</time></trkpt><trkpt lat="43.46266123113131" lon="12.030153254294264"><ele>327.0</ele><time>2026-04-12T09:29:35Z</time></trkpt><trkpt lat="43.46270157475157" lon="12.029776393475156"><ele>327.0</ele><time>2026-04-12T09:29:36Z</time></trkpt><trkpt lat="43.46276743159546" lon="12.029404085828235"><ele>327.0</ele><time>2026-04-12T09:29:37Z</time></trkpt><trkpt lat="43.462848828796275" lon="12.029038540615138"><ele>327.0</ele><time>2026-04-12T09:29:38Z</time></trkpt><trkpt lat="43.46295059668941" lon="12.028684172731095"><ele>327.0</ele><time>2026-04-12T09:29:39Z</time></trkpt><trkpt lat="43.46307438938836" lon="12.028341559901179"><ele>326.0</ele><time>2026-04-12T09:29:40Z</time></trkpt><trkpt lat="43.46321337340737" lon="12.028009316683637"><ele>325.0</ele><time>2026-04-12T09:29:41Z</time></trkpt><trkpt lat="43.463353443338995" lon="12.027677876991405"><ele>326.5</ele><time>2026-04-12T09:29:42Z</time></trkpt><trkpt lat="43.46348029851467" lon="12.027338826285169"><ele>328.0</ele><time>2026-04-12T09:29:43Z</time></trkpt><trkpt lat="43.46358345409825" lon="12.02701122432302"><ele>328.0</ele><time>2026-04-12T09:29:44Z</time></trkpt><trkpt lat="43.46365699057792" lon="12.026696868476316"><ele>328.0</ele><time>2026-04-12T09:29:45Z</time></trkpt><trkpt lat="43.46371521433222" lon="12.026388894949005"><ele>328.3333333333333</ele><time>2026-04-12T09:29:46Z</time></trkpt><trkpt lat="43.46376417480636" lon="12.026085339575777"><ele>328.6666666666667</ele><time>2026-04-12T09:29:47Z</time></trkpt><trkpt lat="43.463790637415876" lon="12.025784302981812"><ele>329.0</ele><time>2026-04-12T09:29:48Z</time></trkpt><trkpt lat="43.4638057609275" lon="12.02547393733616"><ele>329.0</ele><time>2026-04-12T09:29:49Z</time></trkpt><trkpt lat="43.46380669446738" lon="12.025152903383864"><ele>329.0</ele><time>2026-04-12T09:29:50Z</time></trkpt><trkpt lat="43.463797740622795" lon="12.024829573989159"><ele>328.0</ele><time>2026-04-12T09:29:51Z</time></trkpt><trkpt lat="43.46376435028006" lon="12.024502561588926"><ele>327.0</ele><time>2026-04-12T09:29:52Z</time></trkpt><trkpt lat="43.46371990457292" lon="12.024163641944162"><ele>328.5</ele><time>2026-04-12T09:29:53Z</time></trkpt><trkpt lat="43.463662615496055" lon="12.023825942867495"><ele>330.0</ele><time>2026-04-12T09:29:54Z</time></trkpt><trkpt lat="43.4635906089684" lon="12.023494826271179"><ele>333.5</ele><time>2026-04-12T09:29:55Z</time></trkpt><trkpt lat="43.46348808630827" lon="12.023171054966262"><ele>337.0</ele><time>2026-04-12T09:29:56Z</time></trkpt><trkpt lat="43.46335626486288" lon="12.022869249837228"><ele>337.0</ele><time>2026-04-12T09:29:57Z</time></trkpt><trkpt lat="43.46320874605913" lon="12.022574475509446"><ele>337.0</ele><time>2026-04-12T09:29:58Z</time></trkpt><trkpt lat="43.46305363536773" lon="12.022272890775993"><ele>334.0</ele><time>2026-04-12T09:29:59Z</time></trkpt><trkpt lat="43.46289922405795" lon="12.02196054191498"><ele>331.0</ele><time>2026-04-12T09:30:00Z</time></trkpt><trkpt lat="43.46274484173617" lon="12.021642228138175"><ele>331.0</ele><time>2026-04-12T09:30:01Z</time></trkpt><trkpt lat="43.46259076098964" lon="12.02132306475816"><ele>331.0</ele><time>2026-04-12T09:30:02Z</time></trkpt><trkpt lat="43.4624348988055" lon="12.0210053700996"><ele>332.0</ele><time>2026-04-12T09:30:03Z</time></trkpt><trkpt lat="43.46227591056008" lon="12.020689780647258"><ele>333.0</ele><time>2026-04-12T09:30:04Z</time></trkpt><trkpt lat="43.462111063069415" lon="12.02037898372762"><ele>332.5</ele><time>2026-04-12T09:30:05Z</time></trkpt><trkpt lat="43.46194838230392" lon="12.02006697891124"><ele>332.0</ele><time>2026-04-12T09:30:06Z</time></trkpt><trkpt lat="43.461786724099504" lon="12.01975371643936"><ele>332.0</ele><time>2026-04-12T09:30:07Z</time></trkpt><trkpt lat="43.461623300460744" lon="12.019443747459306"><ele>332.0</ele><time>2026-04-12T09:30:08Z</time></trkpt><trkpt lat="43.46145566232011" lon="12.01913723854269"><ele>337.0</ele><time>2026-04-12T09:30:09Z</time></trkpt><trkpt lat="43.46129176553628" lon="12.018832143175429"><ele>342.0</ele><time>2026-04-12T09:30:10Z</time></trkpt><trkpt lat="43.461128292023936" lon="12.018523912518562"><ele>350.0</ele><time>2026-04-12T09:30:11Z</time></trkpt><trkpt lat="43.4609653423683" lon="12.018211937857483"><ele>358.0</ele><time>2026-04-12T09:30:12Z</time></trkpt><trkpt lat="43.460800195834715" lon="12.0179018408203"><ele>358.0</ele><time>2026-04-12T09:30:13Z</time></trkpt><trkpt lat="43.4606278042778" lon="12.017604309053318"><ele>358.0</ele><time>2026-04-12T09:30:14Z</time></trkpt><trkpt lat="43.4604400879561" lon="12.017324549245076"><ele>357.0</ele><time>2026-04-12T09:30:15Z</time></trkpt><trkpt lat="43.46023522301586" lon="12.01707167049674"><ele>356.0</ele><time>2026-04-12T09:30:16Z</time></trkpt><trkpt lat="43.46001449340235" lon="12.016848706183282"><ele>356.0</ele><time>2026-04-12T09:30:17Z</time></trkpt><trkpt lat="43.459777201104814" lon="12.01665505881143"><ele>356.0</ele><time>2026-04-12T09:30:18Z</time></trkpt><trkpt lat="43.45952764495579" lon="12.01649729121039"><ele>362.5</ele><time>2026-04-12T09:30:19Z</time></trkpt><trkpt lat="43.459269276812606" lon="12.016359718087722"><ele>369.0</ele><time>2026-04-12T09:30:20Z</time></trkpt><trkpt lat="43.45900672304432" lon="12.016218457175817"><ele>367.5</ele><time>2026-04-12T09:30:21Z</time></trkpt><trkpt lat="43.45874932321782" lon="12.016064819712524"><ele>366.0</ele><time>2026-04-12T09:30:22Z</time></trkpt><trkpt lat="43.45850058355039" lon="12.015890304746295"><ele>378.5</ele><time>2026-04-12T09:30:23Z</time></trkpt><trkpt lat="43.458261471225164" lon="12.01569377714426"><ele>391.0</ele><time>2026-04-12T09:30:24Z</time></trkpt><trkpt lat="43.458023173120274" lon="12.01545981345344"><ele>389.0</ele><time>2026-04-12T09:30:25Z</time></trkpt><trkpt lat="43.45779772623074" lon="12.015180163577062"><ele>387.0</ele><time>2026-04-12T09:30:26Z</time></trkpt><trkpt lat="43.45758496183124" lon="12.014886561922998"><ele>387.0</ele><time>2026-04-12T09:30:27Z</time></trkpt><trkpt lat="43.45738803419297" lon="12.014609901063302"><ele>387.0</ele><time>2026-04-12T09:30:28Z</time></trkpt><trkpt lat="43.45727379309004" lon="12.014322541368278"><ele>396.0</ele><time>2026-04-12T09:30:29Z</time></trkpt><trkpt lat="43.457172810717516" lon="12.013997979454151"><ele>405.0</ele><time>2026-04-12T09:30:30Z</time></trkpt><trkpt lat="43.45704457248981" lon="12.013651892968527"><ele>393.5</ele><time>2026-04-12T09:30:31Z</time></trkpt><trkpt lat="43.45691966619706" lon="12.013301430008665"><ele>382.0</ele><time>2026-04-12T09:30:32Z</time></trkpt><trkpt lat="43.45678854250464" lon="12.012959998829082"><ele>382.0</ele><time>2026-04-12T09:30:33Z</time></trkpt><trkpt lat="43.45664397102945" lon="12.012626804373447"><ele>382.0</ele><time>2026-04-12T09:30:34Z</time></trkpt><trkpt lat="43.45649531045596" lon="12.01230337273241"><ele>384.0</ele><time>2026-04-12T09:30:35Z</time></trkpt><trkpt lat="43.45634323814715" lon="12.011978869679313"><ele>386.0</ele><time>2026-04-12T09:30:36Z</time></trkpt><trkpt lat="43.456188134535445" lon="12.011656917768166"><ele>386.0</ele><time>2026-04-12T09:30:37Z</time></trkpt><trkpt lat="43.45602236882262" lon="12.01134966116342"><ele>386.0</ele><time>2026-04-12T09:30:38Z</time></trkpt><trkpt lat="43.45584944356228" lon="12.01105000004194"><ele>390.5</ele><time>2026-04-12T09:30:39Z</time></trkpt><trkpt lat="43.45566957177321" lon="12.010755709374001"><ele>395.0</ele><time>2026-04-12T09:30:40Z</time></trkpt><trkpt lat="43.45548659948106" lon="12.010461578847437"><ele>381.5</ele><time>2026-04-12T09:30:41Z</time></trkpt><trkpt lat="43.455303504135316" lon="12.01017103053749"><ele>368.0</ele><time>2026-04-12T09:30:42Z</time></trkpt><trkpt lat="43.45512111943522" lon="12.009880194293968"><ele>368.0</ele><time>2026-04-12T09:30:43Z</time></trkpt><trkpt lat="43.45493849761539" lon="12.009589938974953"><ele>368.0</ele><time>2026-04-12T09:30:44Z</time></trkpt><trkpt lat="43.454759993650796" lon="12.00929515638796"><ele>364.0</ele><time>2026-04-12T09:30:45Z</time></trkpt><trkpt lat="43.45458318196263" lon="12.008997751566426"><ele>360.0</ele><time>2026-04-12T09:30:46Z</time></trkpt><trkpt lat="43.45440997471834" lon="12.008698073135589"><ele>360.0</ele><time>2026-04-12T09:30:47Z</time></trkpt><trkpt lat="43.45424079281819" lon="12.008390589629048"><ele>360.0</ele><time>2026-04-12T09:30:48Z</time></trkpt><trkpt lat="43.45407467588209" lon="12.008079289386476"><ele>363.5</ele><time>2026-04-12T09:30:49Z</time></trkpt><trkpt lat="43.45391705276042" lon="12.007762808156613"><ele>367.0</ele><time>2026-04-12T09:30:50Z</time></trkpt><trkpt lat="43.453766054925374" lon="12.007439387552221"><ele>370.0</ele><time>2026-04-12T09:30:51Z</time></trkpt><trkpt lat="43.453619892254856" lon="12.007114051785578"><ele>373.0</ele><time>2026-04-12T09:30:52Z</time></trkpt><trkpt lat="43.45347603076232" lon="12.006781539912474"><ele>373.5</ele><time>2026-04-12T09:30:53Z</time></trkpt><trkpt lat="43.45333646903108" lon="12.006446903859029"><ele>374.0</ele><time>2026-04-12T09:30:54Z</time></trkpt><trkpt lat="43.45319761086711" lon="12.00611052384659"><ele>370.5</ele><time>2026-04-12T09:30:55Z</time></trkpt><trkpt lat="43.45306121207914" lon="12.00577364128084"><ele>367.0</ele><time>2026-04-12T09:30:56Z</time></trkpt><trkpt lat="43.45292280612363" lon="12.005438020208668"><ele>366.0</ele><time>2026-04-12T09:30:57Z</time></trkpt><trkpt lat="43.452783514711214" lon="12.005102518627156"><ele>365.0</ele><time>2026-04-12T09:30:58Z</time></trkpt><trkpt lat="43.452643156526534" lon="12.004766017724155"><ele>363.5</ele><time>2026-04-12T09:30:59Z</time></trkpt><trkpt lat="43.45250239290661" lon="12.004430836531114"><ele>362.0</ele><time>2026-04-12T09:31:00Z</time></trkpt><trkpt lat="43.45236149765263" lon="12.004098066324518"><ele>359.5</ele><time>2026-04-12T09:31:01Z</time></trkpt><trkpt lat="43.452216340346894" lon="12.003771533321299"><ele>357.0</ele><time>2026-04-12T09:31:02Z</time></trkpt><trkpt lat="43.4520670231079" lon="12.003447506868488"><ele>363.0</ele><time>2026-04-12T09:31:03Z</time></trkpt><trkpt lat="43.4519081076978" lon="12.00313196805932"><ele>369.0</ele><time>2026-04-12T09:31:04Z</time></trkpt><trkpt lat="43.451744817897385" lon="12.002823816933612"><ele>369.0</ele><time>2026-04-12T09:31:05Z</time></trkpt><trkpt lat="43.451575536713634" lon="12.002516845573181"><ele>369.0</ele><time>2026-04-12T09:31:06Z</time></trkpt><trkpt lat="43.45140667331681" lon="12.002212205582175"><ele>369.5</ele><time>2026-04-12T09:31:07Z</time></trkpt><trkpt lat="43.45123721430999" lon="12.001912544624457"><ele>370.0</ele><time>2026-04-12T09:31:08Z</time></trkpt><trkpt lat="43.45106612551838" lon="12.001608941460328"><ele>370.0</ele><time>2026-04-12T09:31:09Z</time></trkpt><trkpt lat="43.45089644213402" lon="12.001306339989144"><ele>370.0</ele><time>2026-04-12T09:31:10Z</time></trkpt><trkpt lat="43.45072787926102" lon="12.001000053569841"><ele>368.5</ele><time>2026-04-12T09:31:11Z</time></trkpt><trkpt lat="43.45055938163678" lon="12.000693775362665"><ele>367.0</ele><time>2026-04-12T09:31:12Z</time></trkpt><trkpt lat="43.45039130000561" lon="12.000387997682722"><ele>371.5</ele><time>2026-04-12T09:31:13Z</time></trkpt><trkpt lat="43.45022174236327" lon="12.000083948779745"><ele>376.0</ele><time>2026-04-12T09:31:14Z</time></trkpt><trkpt lat="43.450052559556184" lon="11.999777322624391"><ele>376.0</ele><time>2026-04-12T09:31:15Z</time></trkpt><trkpt lat="43.44988347007447" lon="11.99947367755689"><ele>376.0</ele><time>2026-04-12T09:31:16Z</time></trkpt><trkpt lat="43.44971539080749" lon="11.999169819499537"><ele>381.0</ele><time>2026-04-12T09:31:17Z</time></trkpt><trkpt lat="43.44955210236031" lon="11.998879399491532"><ele>386.0</ele><time>2026-04-12T09:31:17.999Z</time></trkpt><trkpt lat="43.44938471735256" lon="11.998588976159203"><ele>388.0</ele><time>2026-04-12T09:31:18.999Z</time></trkpt><trkpt lat="43.449208846819175" lon="11.9982873564761"><ele>390.0</ele><time>2026-04-12T09:31:19.999Z</time></trkpt><trkpt lat="43.44904134498272" lon="11.997960699543334"><ele>390.0</ele><time>2026-04-12T09:31:20.999Z</time></trkpt><trkpt lat="43.44886740169931" lon="11.997653519720986"><ele>390.0</ele><time>2026-04-12T09:31:21.999Z</time></trkpt><trkpt lat="43.44869713286491" lon="11.99734479690748"><ele>386.5</ele><time>2026-04-12T09:31:22.999Z</time></trkpt><trkpt lat="43.44852923661237" lon="11.997034124324857"><ele>383.0</ele><time>2026-04-12T09:31:23.999Z</time></trkpt><trkpt lat="43.44835956609202" lon="11.996726941827726"><ele>383.5</ele><time>2026-04-12T09:31:24.999Z</time></trkpt><trkpt lat="43.448188047520446" lon="11.996420027454521"><ele>384.0</ele><time>2026-04-12T09:31:26.001Z</time></trkpt><trkpt lat="43.448017554622574" lon="11.996116289584565"><ele>394.5</ele><time>2026-04-12T09:31:27.001Z</time></trkpt><trkpt lat="43.447845555862095" lon="11.995809761725397"><ele>405.0</ele><time>2026-04-12T09:31:28.001Z</time></trkpt><trkpt lat="43.447674287068516" lon="11.995505360051592"><ele>405.0</ele><time>2026-04-12T09:31:29.001Z</time></trkpt><trkpt lat="43.44750197228082" lon="11.99520094202546"><ele>405.0</ele><time>2026-04-12T09:31:30.001Z</time></trkpt><trkpt lat="43.447330989292645" lon="11.994894265667046"><ele>395.5</ele><time>2026-04-12T09:31:31.001Z</time></trkpt><trkpt lat="43.44716115533333" lon="11.994587109933613"><ele>386.0</ele><time>2026-04-12T09:31:32.001Z</time></trkpt><trkpt lat="43.446992728524656" lon="11.994279652562987"><ele>385.5</ele><time>2026-04-12T09:31:33.001Z</time></trkpt><trkpt lat="43.44682313909601" lon="11.993972608107486"><ele>385.0</ele><time>2026-04-12T09:31:34.001Z</time></trkpt><trkpt lat="43.44665370646656" lon="11.993667077806103"><ele>385.0</ele><time>2026-04-12T09:31:35.001Z</time></trkpt><trkpt lat="43.44648476498973" lon="11.993359984674369"><ele>385.0</ele><time>2026-04-12T09:31:36.001Z</time></trkpt><trkpt lat="43.44631503217233" lon="11.993055803422543"><ele>384.5</ele><time>2026-04-12T09:31:37.001Z</time></trkpt><trkpt lat="43.44614339820772" lon="11.99275053060762"><ele>384.0</ele><time>2026-04-12T09:31:38.001Z</time></trkpt><trkpt lat="43.445971506016875" lon="11.992449828723462"><ele>390.0</ele><time>2026-04-12T09:31:39.001Z</time></trkpt><trkpt lat="43.445793665779085" lon="11.99215295833233"><ele>396.0</ele><time>2026-04-12T09:31:40.001Z</time></trkpt><trkpt lat="43.44560723087393" lon="11.991865109827303"><ele>393.0</ele><time>2026-04-12T09:31:41.001Z</time></trkpt><trkpt lat="43.44541415394776" lon="11.991588681838229"><ele>390.0</ele><time>2026-04-12T09:31:42.001Z</time></trkpt><trkpt lat="43.44521714540472" lon="11.991315515299622"><ele>390.0</ele><time>2026-04-12T09:31:43.001Z</time></trkpt><trkpt lat="43.44502391710967" lon="11.991038539025334"><ele>390.0</ele><time>2026-04-12T09:31:44.001Z</time></trkpt><trkpt lat="43.44483134147779" lon="11.990761002967858"><ele>390.5</ele><time>2026-04-12T09:31:45.001Z</time></trkpt><trkpt lat="43.444638744242425" lon="11.990481539140385"><ele>391.0</ele><time>2026-04-12T09:31:46.001Z</time></trkpt><trkpt lat="43.44444645499057" lon="11.990201102657528"><ele>395.5</ele><time>2026-04-12T09:31:47.001Z</time></trkpt><trkpt lat="43.44425421798699" lon="11.989921871958225"><ele>400.0</ele><time>2026-04-12T09:31:48.001Z</time></trkpt><trkpt lat="43.444059866711115" lon="11.989644806989357"><ele>400.0</ele><time>2026-04-12T09:31:49Z</time></trkpt><trkpt lat="43.44386596597786" lon="11.989369157244345"><ele>400.0</ele><time>2026-04-12T09:31:50Z</time></trkpt><trkpt lat="43.44367303110681" lon="11.989089151597929"><ele>399.0</ele><time>2026-04-12T09:31:51Z</time></trkpt><trkpt lat="43.443482786716" lon="11.988806524946783"><ele>398.0</ele><time>2026-04-12T09:31:52Z</time></trkpt><trkpt lat="43.443302059304706" lon="11.988514959331734"><ele>402.0</ele><time>2026-04-12T09:31:53Z</time></trkpt><trkpt lat="43.443133501177165" lon="11.988209074292604"><ele>406.0</ele><time>2026-04-12T09:31:54Z</time></trkpt><trkpt lat="43.442981140652286" lon="11.987889412098557"><ele>402.0</ele><time>2026-04-12T09:31:54.999Z</time></trkpt><trkpt lat="43.442842849725906" lon="11.987558187115784"><ele>398.0</ele><time>2026-04-12T09:31:55.999Z</time></trkpt><trkpt lat="43.44272297022248" lon="11.987213793048744"><ele>398.0</ele><time>2026-04-12T09:31:56.999Z</time></trkpt><trkpt lat="43.442615114626754" lon="11.986859802199149"><ele>398.0</ele><time>2026-04-12T09:31:57.999Z</time></trkpt><trkpt lat="43.44251838874583" lon="11.98649715023924"><ele>400.5</ele><time>2026-04-12T09:31:58.999Z</time></trkpt><trkpt lat="43.44242578808201" lon="11.986133411735258"><ele>403.0</ele><time>2026-04-12T09:31:59.999Z</time></trkpt><trkpt lat="43.44233849992985" lon="11.985768049613974"><ele>408.5</ele><time>2026-04-12T09:32:00.999Z</time></trkpt><trkpt lat="43.44224704897909" lon="11.985401477254191"><ele>414.0</ele><time>2026-04-12T09:32:01.999Z</time></trkpt><trkpt lat="43.44215488698913" lon="11.98503899264953"><ele>404.5</ele><time>2026-04-12T09:32:02.999Z</time></trkpt><trkpt lat="43.44206282676443" lon="11.9846735077166"><ele>395.0</ele><time>2026-04-12T09:32:03.999Z</time></trkpt><trkpt lat="43.441970352393064" lon="11.984309934212943"><ele>396.5</ele><time>2026-04-12T09:32:04.999Z</time></trkpt><trkpt lat="43.44187520598556" lon="11.983947336974497"><ele>398.0</ele><time>2026-04-12T09:32:05.999Z</time></trkpt><trkpt lat="43.441779448268576" lon="11.98358554847607"><ele>402.5</ele><time>2026-04-12T09:32:06.999Z</time></trkpt><trkpt lat="43.44168481783209" lon="11.983221555460501"><ele>407.0</ele><time>2026-04-12T09:32:07.999Z</time></trkpt><trkpt lat="43.44159288304793" lon="11.982856845020265"><ele>413.0</ele><time>2026-04-12T09:32:08.999Z</time></trkpt><trkpt lat="43.44150200682327" lon="11.982491080663628"><ele>419.0</ele><time>2026-04-12T09:32:09.999Z</time></trkpt><trkpt lat="43.44140895353114" lon="11.982127573945794"><ele>419.0</ele><time>2026-04-12T09:32:10.999Z</time></trkpt><trkpt lat="43.44131230784836" lon="11.981765980170307"><ele>419.0</ele><time>2026-04-12T09:32:11.999Z</time></trkpt><trkpt lat="43.44121041376894" lon="11.981407602984222"><ele>405.5</ele><time>2026-04-12T09:32:12.999Z</time></trkpt><trkpt lat="43.44109994128992" lon="11.981055592937546"><ele>392.0</ele><time>2026-04-12T09:32:13.999Z</time></trkpt><trkpt lat="43.44097683644034" lon="11.98071064806568"><ele>390.5</ele><time>2026-04-12T09:32:14.999Z</time></trkpt><trkpt lat="43.440837597669386" lon="11.980375537850847"><ele>389.0</ele><time>2026-04-12T09:32:15.999Z</time></trkpt><trkpt lat="43.440685021087965" lon="11.980050997000161"><ele>390.0</ele><time>2026-04-12T09:32:16.999Z</time></trkpt><trkpt lat="43.440515293681166" lon="11.979741801223776"><ele>391.0</ele><time>2026-04-12T09:32:17.999Z</time></trkpt><trkpt lat="43.44033016466172" lon="11.979443531803476"><ele>397.5</ele><time>2026-04-12T09:32:18.999Z</time></trkpt><trkpt lat="43.44013526289969" lon="11.979157346424135"><ele>404.0</ele><time>2026-04-12T09:32:19.999Z</time></trkpt><trkpt lat="43.43993084101294" lon="11.978886082793654"><ele>404.0</ele><time>2026-04-12T09:32:20.999Z</time></trkpt><trkpt lat="43.43971560233818" lon="11.978629670973252"><ele>404.0</ele><time>2026-04-12T09:32:21.999Z</time></trkpt><trkpt lat="43.43949181202293" lon="11.978391989449248"><ele>398.5</ele><time>2026-04-12T09:32:22.999Z</time></trkpt><trkpt lat="43.439258242424145" lon="11.978169842837765"><ele>393.0</ele><time>2026-04-12T09:32:23.999Z</time></trkpt><trkpt lat="43.43901606088176" lon="11.977963548765608"><ele>393.5</ele><time>2026-04-12T09:32:24.999Z</time></trkpt><trkpt lat="43.43876800976017" lon="11.977776711565816"><ele>394.0</ele><time>2026-04-12T09:32:25.999Z</time></trkpt><trkpt lat="43.43851176805068" lon="11.977607931756545"><ele>399.0</ele><time>2026-04-12T09:32:26.999Z</time></trkpt><trkpt lat="43.438249120387965" lon="11.977459975842278"><ele>404.0</ele><time>2026-04-12T09:32:27.999Z</time></trkpt><trkpt lat="43.43797950548565" lon="11.977330055394436"><ele>398.5</ele><time>2026-04-12T09:32:28.999Z</time></trkpt><trkpt lat="43.43770581311295" lon="11.977220339084333"><ele>393.0</ele><time>2026-04-12T09:32:29.999Z</time></trkpt><trkpt lat="43.43742931220089" lon="11.977131955890588"><ele>393.0</ele><time>2026-04-12T09:32:30.999Z</time></trkpt><trkpt lat="43.437150461846386" lon="11.97706708458413"><ele>393.0</ele><time>2026-04-12T09:32:31.999Z</time></trkpt><trkpt lat="43.436867541729264" lon="11.977022462734551"><ele>393.5</ele><time>2026-04-12T09:32:32.999Z</time></trkpt><trkpt lat="43.43658439526292" lon="11.976998201923335"><ele>394.0</ele><time>2026-04-12T09:32:33.999Z</time></trkpt><trkpt lat="43.43630015422365" lon="11.976993816267463"><ele>399.5</ele><time>2026-04-12T09:32:34.999Z</time></trkpt><trkpt lat="43.43601840012582" lon="11.977007056609976"><ele>405.0</ele><time>2026-04-12T09:32:35.999Z</time></trkpt><trkpt lat="43.43573423726661" lon="11.977037429185597"><ele>419.5</ele><time>2026-04-12T09:32:36.999Z</time></trkpt><trkpt lat="43.43545263637818" lon="11.977067598705784"><ele>434.0</ele><time>2026-04-12T09:32:37.999Z</time></trkpt><trkpt lat="43.4351504235261" lon="11.977081119332155"><ele>434.0</ele><time>2026-04-12T09:32:38.999Z</time></trkpt><trkpt lat="43.43483496162126" lon="11.977083615559337"><ele>434.0</ele><time>2026-04-12T09:32:39.999Z</time></trkpt><trkpt lat="43.434515402141606" lon="11.977077388855834"><ele>431.5</ele><time>2026-04-12T09:32:40.999Z</time></trkpt><trkpt lat="43.43419874894507" lon="11.97710190498304"><ele>429.0</ele><time>2026-04-12T09:32:41.999Z</time></trkpt><trkpt lat="43.4338717119676" lon="11.977133216461173"><ele>418.5</ele><time>2026-04-12T09:32:42.999Z</time></trkpt><trkpt lat="43.43352155625714" lon="11.977166741384009"><ele>408.0</ele><time>2026-04-12T09:32:44.058Z</time></trkpt><trkpt lat="43.43320041329761" lon="11.977197488576747"><ele>403.0</ele><time>2026-04-12T09:32:45.06Z</time></trkpt><trkpt lat="43.4328776140729" lon="11.97722831704062"><ele>398.0</ele><time>2026-04-12T09:32:46.059Z</time></trkpt><trkpt lat="43.432614728326556" lon="11.97733693806092"><ele>398.0</ele><time>2026-04-12T09:32:47.999Z</time></trkpt><trkpt lat="43.43233130507817" lon="11.977365402107303"><ele>398.0</ele><time>2026-04-12T09:32:48.999Z</time></trkpt><trkpt lat="43.432039218796724" lon="11.977385565778606"><ele>398.0</ele><time>2026-04-12T09:32:49.999Z</time></trkpt><trkpt lat="43.43176057708825" lon="11.977413192746978"><ele>398.0</ele><time>2026-04-12T09:32:50.999Z</time></trkpt><trkpt lat="43.43145754231712" lon="11.977417442097565"><ele>398.0</ele><time>2026-04-12T09:32:51.999Z</time></trkpt><trkpt lat="43.43118260072873" lon="11.977397971140045"><ele>398.0</ele><time>2026-04-12T09:32:52.999Z</time></trkpt><trkpt lat="43.43090770920162" lon="11.977340224209964"><ele>398.0</ele><time>2026-04-12T09:32:53.999Z</time></trkpt><trkpt lat="43.43063169594529" lon="11.97726386901535"><ele>398.0</ele><time>2026-04-12T09:32:54.999Z</time></trkpt><trkpt lat="43.43035777661446" lon="11.977166880347383"><ele>397.0</ele><time>2026-04-12T09:32:55.999Z</time></trkpt><trkpt lat="43.43008438461788" lon="11.977055549016704"><ele>396.0</ele><time>2026-04-12T09:32:56.999Z</time></trkpt><trkpt lat="43.429814459085016" lon="11.976927812671128"><ele>396.0</ele><time>2026-04-12T09:32:57.999Z</time></trkpt><trkpt lat="43.42954571143045" lon="11.976794205866357"><ele>396.0</ele><time>2026-04-12T09:32:58.999Z</time></trkpt><trkpt lat="43.42928004201359" lon="11.976655306667107"><ele>398.5</ele><time>2026-04-12T09:32:59.999Z</time></trkpt><trkpt lat="43.42901373492862" lon="11.976513991516905"><ele>401.0</ele><time>2026-04-12T09:33:00.999Z</time></trkpt><trkpt lat="43.42874997570289" lon="11.976370467387227"><ele>401.0</ele><time>2026-04-12T09:33:01.999Z</time></trkpt><trkpt lat="43.42848452623625" lon="11.976229229421959"><ele>401.0</ele><time>2026-04-12T09:33:02.999Z</time></trkpt><trkpt lat="43.428219756619995" lon="11.976089633915185"><ele>400.5</ele><time>2026-04-12T09:33:03.999Z</time></trkpt><trkpt lat="43.427952851036764" lon="11.975947165467732"><ele>400.0</ele><time>2026-04-12T09:33:04.999Z</time></trkpt><trkpt lat="43.427687904761115" lon="11.975804772383203"><ele>405.0</ele><time>2026-04-12T09:33:05.999Z</time></trkpt><trkpt lat="43.42742308491419" lon="11.975664788308531"><ele>410.0</ele><time>2026-04-12T09:33:06.999Z</time></trkpt><trkpt lat="43.42715633413841" lon="11.975525944677683"><ele>407.0</ele><time>2026-04-12T09:33:07.999Z</time></trkpt><trkpt lat="43.426892210881206" lon="11.975383210173346"><ele>404.0</ele><time>2026-04-12T09:33:08.999Z</time></trkpt><trkpt lat="43.42662763581175" lon="11.975241633871432"><ele>404.0</ele><time>2026-04-12T09:33:09.999Z</time></trkpt><trkpt lat="43.42636294305801" lon="11.975098632472575"><ele>404.0</ele><time>2026-04-12T09:33:10.999Z</time></trkpt><trkpt lat="43.42609857599224" lon="11.974955325500353"><ele>405.5</ele><time>2026-04-12T09:33:11.999Z</time></trkpt><trkpt lat="43.425834589189435" lon="11.97481202780967"><ele>407.0</ele><time>2026-04-12T09:33:12.999Z</time></trkpt><trkpt lat="43.42557181693216" lon="11.97466348441148"><ele>405.5</ele><time>2026-04-12T09:33:13.999Z</time></trkpt><trkpt lat="43.42531431783889" lon="11.974494169376927"><ele>404.0</ele><time>2026-04-12T09:33:14.999Z</time></trkpt><trkpt lat="43.425069057969466" lon="11.974303800109587"><ele>407.0</ele><time>2026-04-12T09:33:15.999Z</time></trkpt><trkpt lat="43.424832514081736" lon="11.974084920752862"><ele>410.0</ele><time>2026-04-12T09:33:16.999Z</time></trkpt><trkpt lat="43.42462414587428" lon="11.973864119247215"><ele>410.0</ele><time>2026-04-12T09:33:17.999Z</time></trkpt><trkpt lat="43.42442950101894" lon="11.973626502865752"><ele>410.0</ele><time>2026-04-12T09:33:18.999Z</time></trkpt><trkpt lat="43.4242268050791" lon="11.973371180602946"><ele>414.0</ele><time>2026-04-12T09:33:19.999Z</time></trkpt><trkpt lat="43.4239969118269" lon="11.97313821383868"><ele>418.0</ele><time>2026-04-12T09:33:20.999Z</time></trkpt><trkpt lat="43.423823483704524" lon="11.97285793824135"><ele>413.5</ele><time>2026-04-12T09:33:21.999Z</time></trkpt><trkpt lat="43.4236438569894" lon="11.97249766500724"><ele>409.0</ele><time>2026-04-12T09:33:22.999Z</time></trkpt><trkpt lat="43.423492515357175" lon="11.972130228573388"><ele>409.0</ele><time>2026-04-12T09:33:23.999Z</time></trkpt><trkpt lat="43.42337609830225" lon="11.97177687983234"><ele>409.0</ele><time>2026-04-12T09:33:24.999Z</time></trkpt><trkpt lat="43.423298132450064" lon="11.971356903820725"><ele>410.0</ele><time>2026-04-12T09:33:25.999Z</time></trkpt><trkpt lat="43.42321632842263" lon="11.970971016945619"><ele>411.0</ele><time>2026-04-12T09:33:26.999Z</time></trkpt><trkpt lat="43.42314484808277" lon="11.970591940691502"><ele>411.0</ele><time>2026-04-12T09:33:27.999Z</time></trkpt><trkpt lat="43.423099383780404" lon="11.970207301916592"><ele>411.0</ele><time>2026-04-12T09:33:28.999Z</time></trkpt><trkpt lat="43.423069545907516" lon="11.969822493110957"><ele>410.0</ele><time>2026-04-12T09:33:29.999Z</time></trkpt><trkpt lat="43.42305612009487" lon="11.96943107494433"><ele>409.0</ele><time>2026-04-12T09:33:30.999Z</time></trkpt><trkpt lat="43.423059945671596" lon="11.969042217380396"><ele>408.5</ele><time>2026-04-12T09:33:32Z</time></trkpt><trkpt lat="43.42308301060034" lon="11.968653241324827"><ele>408.0</ele><time>2026-04-12T09:33:33Z</time></trkpt><trkpt lat="43.42312120447792" lon="11.968266587873238"><ele>408.0</ele><time>2026-04-12T09:33:34Z</time></trkpt><trkpt lat="43.423171473179444" lon="11.967879698596338"><ele>408.0</ele><time>2026-04-12T09:33:35Z</time></trkpt><trkpt lat="43.42323238289531" lon="11.96749739337658"><ele>409.5</ele><time>2026-04-12T09:33:36Z</time></trkpt><trkpt lat="43.42329332942947" lon="11.967116935422455"><ele>411.0</ele><time>2026-04-12T09:33:37Z</time></trkpt><trkpt lat="43.42335569655248" lon="11.96673423754999"><ele>414.0</ele><time>2026-04-12T09:33:38Z</time></trkpt><trkpt lat="43.42342092648162" lon="11.966355090231438"><ele>417.0</ele><time>2026-04-12T09:33:39Z</time></trkpt><trkpt lat="43.42349254887027" lon="11.965978154815735"><ele>420.0</ele><time>2026-04-12T09:33:40Z</time></trkpt><trkpt lat="43.42356517793015" lon="11.965606285983757"><ele>423.0</ele><time>2026-04-12T09:33:41Z</time></trkpt><trkpt lat="43.423634183846474" lon="11.96523654877788"><ele>422.0</ele><time>2026-04-12T09:33:42Z</time></trkpt><trkpt lat="43.42370405089644" lon="11.964864456034833"><ele>421.0</ele><time>2026-04-12T09:33:43Z</time></trkpt><trkpt lat="43.42377600812838" lon="11.964481968402243"><ele>425.0</ele><time>2026-04-12T09:33:44Z</time></trkpt><trkpt lat="43.42384917772806" lon="11.964087289955415"><ele>429.0</ele><time>2026-04-12T09:33:45.062Z</time></trkpt><trkpt lat="43.42388107797653" lon="11.963740275923596"><ele>426.0</ele><time>2026-04-12T09:33:46.062Z</time></trkpt><trkpt lat="43.423949673394716" lon="11.963343488923494"><ele>423.0</ele><time>2026-04-12T09:33:47Z</time></trkpt><trkpt lat="43.423991638155954" lon="11.96293280307635"><ele>423.0</ele><time>2026-04-12T09:33:48Z</time></trkpt><trkpt lat="43.42405665103111" lon="11.962551381102738"><ele>423.0</ele><time>2026-04-12T09:33:49Z</time></trkpt><trkpt lat="43.42412263255301" lon="11.962172653038698"><ele>423.0</ele><time>2026-04-12T09:33:50Z</time></trkpt><trkpt lat="43.42418438003336" lon="11.961789003938886"><ele>423.0</ele><time>2026-04-12T09:33:51Z</time></trkpt><trkpt lat="43.42424278871136" lon="11.961403832387346"><ele>423.5</ele><time>2026-04-12T09:33:52Z</time></trkpt><trkpt lat="43.42430314904846" lon="11.961021608521342"><ele>424.0</ele><time>2026-04-12T09:33:53Z</time></trkpt><trkpt lat="43.424362594288986" lon="11.960640601740474"><ele>424.0</ele><time>2026-04-12T09:33:54Z</time></trkpt><trkpt lat="43.42442468983364" lon="11.960259533479737"><ele>424.0</ele><time>2026-04-12T09:33:55Z</time></trkpt><trkpt lat="43.424485820307055" lon="11.959881036107156"><ele>423.0</ele><time>2026-04-12T09:33:56Z</time></trkpt><trkpt lat="43.42454755688153" lon="11.959500397129753"><ele>422.0</ele><time>2026-04-12T09:33:57Z</time></trkpt><trkpt lat="43.42460689415757" lon="11.959120309893956"><ele>431.0</ele><time>2026-04-12T09:33:58Z</time></trkpt><trkpt lat="43.424666822383756" lon="11.958736939548997"><ele>440.0</ele><time>2026-04-12T09:33:59Z</time></trkpt><trkpt lat="43.424728036734074" lon="11.958354961196864"><ele>440.5</ele><time>2026-04-12T09:34:00Z</time></trkpt><trkpt lat="43.42479180145931" lon="11.957974039258083"><ele>441.0</ele><time>2026-04-12T09:34:01Z</time></trkpt><trkpt lat="43.42485410668868" lon="11.957592814063942"><ele>441.0</ele><time>2026-04-12T09:34:02Z</time></trkpt><trkpt lat="43.42491378761511" lon="11.957211319596054"><ele>441.0</ele><time>2026-04-12T09:34:03Z</time></trkpt><trkpt lat="43.42497432929609" lon="11.956828655714208"><ele>439.0</ele><time>2026-04-12T09:34:04Z</time></trkpt><trkpt lat="43.42503605352942" lon="11.956447760012097"><ele>437.0</ele><time>2026-04-12T09:34:05Z</time></trkpt><trkpt lat="43.42509679268035" lon="11.956065219959925"><ele>436.0</ele><time>2026-04-12T09:34:06Z</time></trkpt><trkpt lat="43.42515783069392" lon="11.955684287698343"><ele>435.0</ele><time>2026-04-12T09:34:07Z</time></trkpt><trkpt lat="43.4252206451047" lon="11.955301537899748"><ele>436.0</ele><time>2026-04-12T09:34:08Z</time></trkpt><trkpt lat="43.42528148545028" lon="11.954923606466345"><ele>437.0</ele><time>2026-04-12T09:34:09Z</time></trkpt><trkpt lat="43.425340967888346" lon="11.954567671785355"><ele>437.0</ele><time>2026-04-12T09:34:10Z</time></trkpt><trkpt lat="43.42539540359856" lon="11.954232355886088"><ele>437.0</ele><time>2026-04-12T09:34:11Z</time></trkpt><trkpt lat="43.42544123674603" lon="11.953922622846495"><ele>437.66666666666663</ele><time>2026-04-12T09:34:12Z</time></trkpt><trkpt lat="43.42548482257348" lon="11.953626477644507"><ele>438.33333333333337</ele><time>2026-04-12T09:34:13Z</time></trkpt><trkpt lat="43.4255290559127" lon="11.953351874260802"><ele>439.0</ele><time>2026-04-12T09:34:14Z</time></trkpt><trkpt lat="43.42556925144432" lon="11.953086493945461"><ele>439.0</ele><time>2026-04-12T09:34:15Z</time></trkpt><trkpt lat="43.42561272651497" lon="11.95284143449582"><ele>439.0</ele><time>2026-04-12T09:34:16Z</time></trkpt><trkpt lat="43.42566364268117" lon="11.95260694257672"><ele>439.0</ele><time>2026-04-12T09:34:17Z</time></trkpt><trkpt lat="43.42572687133513" lon="11.952384336638596"><ele>439.33333333333337</ele><time>2026-04-12T09:34:18Z</time></trkpt><trkpt lat="43.42580314810104" lon="11.952172663773144"><ele>439.66666666666663</ele><time>2026-04-12T09:34:19Z</time></trkpt><trkpt lat="43.42587493318088" lon="11.951957181795557"><ele>440.0</ele><time>2026-04-12T09:34:20Z</time></trkpt><trkpt lat="43.425917386293484" lon="11.951718162960418"><ele>442.66666666666663</ele><time>2026-04-12T09:34:21Z</time></trkpt><trkpt lat="43.42594591019021" lon="11.951464001492788"><ele>445.33333333333337</ele><time>2026-04-12T09:34:22Z</time></trkpt><trkpt lat="43.425971115069984" lon="11.951198875945785"><ele>448.0</ele><time>2026-04-12T09:34:23Z</time></trkpt><trkpt lat="43.42602530814026" lon="11.950925432251493"><ele>449.6666666666667</ele><time>2026-04-12T09:34:24Z</time></trkpt><trkpt lat="43.426105908966335" lon="11.950653804702656"><ele>451.33333333333337</ele><time>2026-04-12T09:34:25Z</time></trkpt><trkpt lat="43.42619905687803" lon="11.950384527681518"><ele>453.0</ele><time>2026-04-12T09:34:26Z</time></trkpt><trkpt lat="43.426288524183356" lon="11.950124231810832"><ele>453.66666666666663</ele><time>2026-04-12T09:34:27Z</time></trkpt><trkpt lat="43.426367452943325" lon="11.94988016877881"><ele>454.3333333333333</ele><time>2026-04-12T09:34:28Z</time></trkpt><trkpt lat="43.42644345568462" lon="11.949633485513885"><ele>455.0</ele><time>2026-04-12T09:34:29Z</time></trkpt><trkpt lat="43.4265177440467" lon="11.949371831680876"><ele>453.0</ele><time>2026-04-12T09:34:30Z</time></trkpt><trkpt lat="43.42659421792421" lon="11.949102897615886"><ele>451.0</ele><time>2026-04-12T09:34:31Z</time></trkpt><trkpt lat="43.426676707990396" lon="11.948824439069647"><ele>449.0</ele><time>2026-04-12T09:34:32Z</time></trkpt><trkpt lat="43.426756451532555" lon="11.948550289303123"><ele>449.66666666666663</ele><time>2026-04-12T09:34:32.999Z</time></trkpt><trkpt lat="43.42683165366917" lon="11.948262202731305"><ele>450.33333333333337</ele><time>2026-04-12T09:34:33.999Z</time></trkpt><trkpt lat="43.4269082523024" lon="11.947970599441824"><ele>451.0</ele><time>2026-04-12T09:34:34.999Z</time></trkpt><trkpt lat="43.42702172581215" lon="11.947698336489365"><ele>452.0</ele><time>2026-04-12T09:34:35.999Z</time></trkpt><trkpt lat="43.42711336009609" lon="11.947422628293436"><ele>453.0</ele><time>2026-04-12T09:34:36.999Z</time></trkpt><trkpt lat="43.42720136736228" lon="11.94715549458732"><ele>454.0</ele><time>2026-04-12T09:34:37.999Z</time></trkpt><trkpt lat="43.42727078194425" lon="11.946881141392828"><ele>457.6666666666667</ele><time>2026-04-12T09:34:38.999Z</time></trkpt><trkpt lat="43.427346555337955" lon="11.946613340912718"><ele>461.33333333333337</ele><time>2026-04-12T09:34:39.999Z</time></trkpt><trkpt lat="43.42740983538396" lon="11.946342784835968"><ele>465.0</ele><time>2026-04-12T09:34:40.999Z</time></trkpt><trkpt lat="43.42745394077061" lon="11.946076888139663"><ele>464.0</ele><time>2026-04-12T09:34:41.999Z</time></trkpt><trkpt lat="43.42748359369315" lon="11.945823165841713"><ele>463.0</ele><time>2026-04-12T09:34:42.999Z</time></trkpt><trkpt lat="43.42750378653938" lon="11.94556852363381"><ele>462.0</ele><time>2026-04-12T09:34:43.999Z</time></trkpt><trkpt lat="43.42753480106309" lon="11.945307613616382"><ele>460.33333333333337</ele><time>2026-04-12T09:34:44.999Z</time></trkpt><trkpt lat="43.42752563624295" lon="11.945034035176672"><ele>458.6666666666667</ele><time>2026-04-12T09:34:45.999Z</time></trkpt><trkpt lat="43.427521145969884" lon="11.944745768030291"><ele>457.0</ele><time>2026-04-12T09:34:46.999Z</time></trkpt><trkpt lat="43.427503819455076" lon="11.944454559980807"><ele>457.6666666666667</ele><time>2026-04-12T09:34:47.999Z</time></trkpt><trkpt lat="43.42747273151814" lon="11.944166203886658"><ele>458.33333333333337</ele><time>2026-04-12T09:34:48.999Z</time></trkpt><trkpt lat="43.427426370194006" lon="11.943884714466268"><ele>459.0</ele><time>2026-04-12T09:34:49.999Z</time></trkpt><trkpt lat="43.427370443200935" lon="11.943614202134835"><ele>463.33333333333337</ele><time>2026-04-12T09:34:50.999Z</time></trkpt><trkpt lat="43.42730415599369" lon="11.94335020697755"><ele>467.6666666666667</ele><time>2026-04-12T09:34:51.999Z</time></trkpt><trkpt lat="43.42722812000574" lon="11.943089574122919"><ele>472.0</ele><time>2026-04-12T09:34:52.999Z</time></trkpt><trkpt lat="43.427158822971265" lon="11.94282352512114"><ele>469.33333333333337</ele><time>2026-04-12T09:34:53.999Z</time></trkpt><trkpt lat="43.427050205064894" lon="11.942584915271187"><ele>466.66666666666663</ele><time>2026-04-12T09:34:54.999Z</time></trkpt><trkpt lat="43.42694886575697" lon="11.942345251460239"><ele>464.0</ele><time>2026-04-12T09:34:55.999Z</time></trkpt><trkpt lat="43.426837730074425" lon="11.942116273489846"><ele>463.3333333333333</ele><time>2026-04-12T09:34:56.999Z</time></trkpt><trkpt lat="43.42671593506714" lon="11.941899970434212"><ele>462.66666666666663</ele><time>2026-04-12T09:34:57.999Z</time></trkpt><trkpt lat="43.42658237689989" lon="11.941694849517654"><ele>462.0</ele><time>2026-04-12T09:34:58.999Z</time></trkpt><trkpt lat="43.42644083348265" lon="11.941497057858607"><ele>460.66666666666663</ele><time>2026-04-12T09:34:59.999Z</time></trkpt><trkpt lat="43.42628967010234" lon="11.94131164367869"><ele>459.3333333333333</ele><time>2026-04-12T09:35:00.999Z</time></trkpt><trkpt lat="43.42613190622935" lon="11.941136819401242"><ele>458.0</ele><time>2026-04-12T09:35:01.999Z</time></trkpt><trkpt lat="43.42596385730039" lon="11.940972729685862"><ele>459.3333333333333</ele><time>2026-04-12T09:35:02.999Z</time></trkpt><trkpt lat="43.425787781370936" lon="11.9408180189078"><ele>460.66666666666663</ele><time>2026-04-12T09:35:03.999Z</time></trkpt><trkpt lat="43.425603719475326" lon="11.94067299802836"><ele>462.0</ele><time>2026-04-12T09:35:04.999Z</time></trkpt><trkpt lat="43.42540727350669" lon="11.940545438444177"><ele>462.0</ele><time>2026-04-12T09:35:05.999Z</time></trkpt><trkpt lat="43.425198607608" lon="11.940408111052488"><ele>462.0</ele><time>2026-04-12T09:35:06.999Z</time></trkpt><trkpt lat="43.42496176546994" lon="11.94029841390967"><ele>462.0</ele><time>2026-04-12T09:35:07.999Z</time></trkpt><trkpt lat="43.42469542368821" lon="11.940184777766694"><ele>462.0</ele><time>2026-04-12T09:35:08.999Z</time></trkpt><trkpt lat="43.424413303213974" lon="11.940066697364598"><ele>470.0</ele><time>2026-04-12T09:35:09.999Z</time></trkpt><trkpt lat="43.42421865240885" lon="11.939985164439548"><ele>478.0</ele><time>2026-04-12T09:35:10.999Z</time></trkpt><trkpt lat="43.423946206621544" lon="11.939888488541907"><ele>476.5</ele><time>2026-04-12T09:35:11.999Z</time></trkpt><trkpt lat="43.42367504363714" lon="11.939764038474946"><ele>475.0</ele><time>2026-04-12T09:35:12.999Z</time></trkpt><trkpt lat="43.42340199256647" lon="11.939642535662"><ele>475.0</ele><time>2026-04-12T09:35:13.999Z</time></trkpt><trkpt lat="43.42312470298922" lon="11.93952732383285"><ele>475.0</ele><time>2026-04-12T09:35:14.999Z</time></trkpt><trkpt lat="43.42284700659963" lon="11.939413273558797"><ele>474.0</ele><time>2026-04-12T09:35:15.999Z</time></trkpt><trkpt lat="43.422571482481054" lon="11.939295619786735"><ele>473.0</ele><time>2026-04-12T09:35:16.999Z</time></trkpt><trkpt lat="43.42229202887507" lon="11.939177210493039"><ele>480.0</ele><time>2026-04-12T09:35:17.999Z</time></trkpt><trkpt lat="43.42200962793115" lon="11.939065007368798"><ele>487.0</ele><time>2026-04-12T09:35:18.999Z</time></trkpt><trkpt lat="43.42172928116746" lon="11.93895206929673"><ele>487.0</ele><time>2026-04-12T09:35:19.999Z</time></trkpt><trkpt lat="43.421450513463505" lon="11.938834670556249"><ele>487.0</ele><time>2026-04-12T09:35:20.999Z</time></trkpt><trkpt lat="43.421175507450364" lon="11.938711868303779"><ele>482.0</ele><time>2026-04-12T09:35:21.999Z</time></trkpt><trkpt lat="43.42090265742603" lon="11.938587957512635"><ele>477.0</ele><time>2026-04-12T09:35:22.999Z</time></trkpt><trkpt lat="43.420623552996766" lon="11.938471453032433"><ele>482.5</ele><time>2026-04-12T09:35:23.999Z</time></trkpt><trkpt lat="43.420355295599165" lon="11.938346852284782"><ele>488.0</ele><time>2026-04-12T09:35:24.999Z</time></trkpt><trkpt lat="43.42010260253858" lon="11.938181852185066"><ele>488.0</ele><time>2026-04-12T09:35:25.999Z</time></trkpt><trkpt lat="43.419856394005656" lon="11.938023087092764"><ele>488.0</ele><time>2026-04-12T09:35:26.999Z</time></trkpt><trkpt lat="43.419621493830576" lon="11.937842231978998"><ele>485.5</ele><time>2026-04-12T09:35:27.999Z</time></trkpt><trkpt lat="43.419392534342364" lon="11.937649947663672"><ele>483.0</ele><time>2026-04-12T09:35:28.999Z</time></trkpt><trkpt lat="43.41916733667209" lon="11.937444866067752"><ele>484.5</ele><time>2026-04-12T09:35:29.999Z</time></trkpt><trkpt lat="43.418959604707005" lon="11.93721997101918"><ele>486.0</ele><time>2026-04-12T09:35:30.999Z</time></trkpt><trkpt lat="43.418755276720105" lon="11.936983873089964"><ele>486.0</ele><time>2026-04-12T09:35:31.999Z</time></trkpt><trkpt lat="43.418565278563584" lon="11.93673506677862"><ele>486.0</ele><time>2026-04-12T09:35:32.999Z</time></trkpt><trkpt lat="43.418379329277016" lon="11.93648099603961"><ele>489.5</ele><time>2026-04-12T09:35:33.999Z</time></trkpt><trkpt lat="43.418193219308975" lon="11.936225729953657"><ele>493.0</ele><time>2026-04-12T09:35:34.999Z</time></trkpt><trkpt lat="43.418003297727545" lon="11.93599424042139"><ele>492.5</ele><time>2026-04-12T09:35:35.999Z</time></trkpt><trkpt lat="43.417831638595835" lon="11.935754031214273"><ele>492.0</ele><time>2026-04-12T09:35:36.999Z</time></trkpt><trkpt lat="43.417673705699" lon="11.9355074617457"><ele>492.0</ele><time>2026-04-12T09:35:38Z</time></trkpt><trkpt lat="43.41750391998943" lon="11.935272719715506"><ele>492.0</ele><time>2026-04-12T09:35:39Z</time></trkpt><trkpt lat="43.417332144816186" lon="11.935035227101569"><ele>491.5</ele><time>2026-04-12T09:35:40Z</time></trkpt><trkpt lat="43.417163911445094" lon="11.934784606822026"><ele>491.0</ele><time>2026-04-12T09:35:41Z</time></trkpt><trkpt lat="43.417008149804985" lon="11.934516537794646"><ele>491.0</ele><time>2026-04-12T09:35:42Z</time></trkpt><trkpt lat="43.41685237301373" lon="11.934231575018519"><ele>491.0</ele><time>2026-04-12T09:35:43Z</time></trkpt><trkpt lat="43.41675065485697" lon="11.93390419261024"><ele>495.5</ele><time>2026-04-12T09:35:44Z</time></trkpt><trkpt lat="43.416632367059854" lon="11.933583016941228"><ele>500.0</ele><time>2026-04-12T09:35:45Z</time></trkpt><trkpt lat="43.41656107069821" lon="11.93323764430953"><ele>505.0</ele><time>2026-04-12T09:35:46Z</time></trkpt><trkpt lat="43.41651125044329" lon="11.932883605757013"><ele>510.0</ele><time>2026-04-12T09:35:47Z</time></trkpt><trkpt lat="43.416488329734776" lon="11.932521145531535"><ele>512.5</ele><time>2026-04-12T09:35:48Z</time></trkpt><trkpt lat="43.41649316484208" lon="11.932153558493999"><ele>515.0</ele><time>2026-04-12T09:35:49Z</time></trkpt><trkpt lat="43.416521493916036" lon="11.931785735261867"><ele>511.5</ele><time>2026-04-12T09:35:50Z</time></trkpt><trkpt lat="43.41657892704918" lon="11.931424482683648"><ele>508.0</ele><time>2026-04-12T09:35:51Z</time></trkpt><trkpt lat="43.416643735036956" lon="11.931091104320483"><ele>505.5</ele><time>2026-04-12T09:35:52Z</time></trkpt><trkpt lat="43.41671047654654" lon="11.93077377129149"><ele>503.0</ele><time>2026-04-12T09:35:53Z</time></trkpt><trkpt lat="43.41677045818421" lon="11.93044869438194"><ele>503.0</ele><time>2026-04-12T09:35:54Z</time></trkpt><trkpt lat="43.41682880601934" lon="11.930113521540441"><ele>503.0</ele><time>2026-04-12T09:35:55Z</time></trkpt><trkpt lat="43.416891898080884" lon="11.929771175931839"><ele>503.5</ele><time>2026-04-12T09:35:56Z</time></trkpt><trkpt lat="43.416955543950955" lon="11.92942136016349"><ele>504.0</ele><time>2026-04-12T09:35:57Z</time></trkpt><trkpt lat="43.41702352925105" lon="11.929069698909846"><ele>504.0</ele><time>2026-04-12T09:35:58Z</time></trkpt><trkpt lat="43.41708949945988" lon="11.928709050381881"><ele>504.0</ele><time>2026-04-12T09:35:59Z</time></trkpt><trkpt lat="43.417155351939975" lon="11.928342572153367"><ele>490.0</ele><time>2026-04-12T09:36:00Z</time></trkpt><trkpt lat="43.41723064746324" lon="11.927972803151865"><ele>476.0</ele><time>2026-04-12T09:36:01Z</time></trkpt><trkpt lat="43.41732180651435" lon="11.927609982694156"><ele>478.0</ele><time>2026-04-12T09:36:02Z</time></trkpt><trkpt lat="43.41743498296499" lon="11.927250795740457"><ele>480.0</ele><time>2026-04-12T09:36:03Z</time></trkpt><trkpt lat="43.41757782414512" lon="11.926908243235975"><ele>485.0</ele><time>2026-04-12T09:36:04Z</time></trkpt><trkpt lat="43.41773925213184" lon="11.926576413450913"><ele>490.0</ele><time>2026-04-12T09:36:05Z</time></trkpt><trkpt lat="43.41791810304212" lon="11.926259164987094"><ele>482.5</ele><time>2026-04-12T09:36:06Z</time></trkpt><trkpt lat="43.41811730918575" lon="11.925962825825913"><ele>475.0</ele><time>2026-04-12T09:36:07Z</time></trkpt><trkpt lat="43.41833825177421" lon="11.925689645993565"><ele>475.0</ele><time>2026-04-12T09:36:08Z</time></trkpt><trkpt lat="43.41857335704943" lon="11.925440247267264"><ele>475.0</ele><time>2026-04-12T09:36:09Z</time></trkpt><trkpt lat="43.41881517347447" lon="11.925200264512615"><ele>477.0</ele><time>2026-04-12T09:36:10Z</time></trkpt><trkpt lat="43.4190601235729" lon="11.924965652786199"><ele>479.0</ele><time>2026-04-12T09:36:11Z</time></trkpt><trkpt lat="43.41930409568485" lon="11.924725925288099"><ele>479.0</ele><time>2026-04-12T09:36:12Z</time></trkpt><trkpt lat="43.41954877663319" lon="11.92448087720197"><ele>479.0</ele><time>2026-04-12T09:36:13Z</time></trkpt><trkpt lat="43.419793518421265" lon="11.924234657626522"><ele>467.0</ele><time>2026-04-12T09:36:14Z</time></trkpt><trkpt lat="43.42003824997281" lon="11.923989916317575"><ele>455.0</ele><time>2026-04-12T09:36:15Z</time></trkpt><trkpt lat="43.42028413314275" lon="11.923749567231182"><ele>451.5</ele><time>2026-04-12T09:36:16Z</time></trkpt><trkpt lat="43.42052872387617" lon="11.923514034385805"><ele>448.0</ele><time>2026-04-12T09:36:17Z</time></trkpt><trkpt lat="43.42077260953681" lon="11.923276607180295"><ele>448.0</ele><time>2026-04-12T09:36:18Z</time></trkpt><trkpt lat="43.421014568635385" lon="11.923038429412536"><ele>448.0</ele><time>2026-04-12T09:36:19Z</time></trkpt><trkpt lat="43.421256895742694" lon="11.922803349267399"><ele>448.0</ele><time>2026-04-12T09:36:20Z</time></trkpt><trkpt lat="43.42150227410327" lon="11.922577480316534"><ele>448.0</ele><time>2026-04-12T09:36:21Z</time></trkpt><trkpt lat="43.42175084283377" lon="11.922354326618128"><ele>443.5</ele><time>2026-04-12T09:36:22Z</time></trkpt><trkpt lat="43.42200213606561" lon="11.922140001879336"><ele>439.0</ele><time>2026-04-12T09:36:23Z</time></trkpt><trkpt lat="43.422272198958424" lon="11.921961483837514"><ele>439.0</ele><time>2026-04-12T09:36:24Z</time></trkpt><trkpt lat="43.42253662314218" lon="11.92177117757361"><ele>439.0</ele><time>2026-04-12T09:36:25Z</time></trkpt><trkpt lat="43.42280276716833" lon="11.921582520789828"><ele>439.0</ele><time>2026-04-12T09:36:26Z</time></trkpt><trkpt lat="43.423065309587166" lon="11.921393261955426"><ele>439.0</ele><time>2026-04-12T09:36:27Z</time></trkpt><trkpt lat="43.423331036776375" lon="11.921204793030729"><ele>439.0</ele><time>2026-04-12T09:36:28Z</time></trkpt><trkpt lat="43.423594394032435" lon="11.92101800499658"><ele>439.0</ele><time>2026-04-12T09:36:29Z</time></trkpt><trkpt lat="43.423858807987465" lon="11.92082991499439"><ele>435.0</ele><time>2026-04-12T09:36:30Z</time></trkpt><trkpt lat="43.424123126506274" lon="11.920641500248198"><ele>431.0</ele><time>2026-04-12T09:36:31Z</time></trkpt><trkpt lat="43.42438572782268" lon="11.920454358677869"><ele>431.0</ele><time>2026-04-12T09:36:32Z</time></trkpt><trkpt lat="43.424648012007076" lon="11.92026793770085"><ele>431.0</ele><time>2026-04-12T09:36:33Z</time></trkpt><trkpt lat="43.42490865360462" lon="11.920084434202243"><ele>434.0</ele><time>2026-04-12T09:36:34Z</time></trkpt><trkpt lat="43.42516768047245" lon="11.919902151494481"><ele>437.0</ele><time>2026-04-12T09:36:35Z</time></trkpt><trkpt lat="43.42542414564162" lon="11.91971857056153"><ele>431.5</ele><time>2026-04-12T09:36:36Z</time></trkpt><trkpt lat="43.42568006446957" lon="11.919540048143034"><ele>426.0</ele><time>2026-04-12T09:36:37Z</time></trkpt><trkpt lat="43.425932487151606" lon="11.919356921349502"><ele>423.0</ele><time>2026-04-12T09:36:38Z</time></trkpt><trkpt lat="43.426193087599195" lon="11.91921167612063"><ele>420.0</ele><time>2026-04-12T09:36:39Z</time></trkpt><trkpt lat="43.42645829101978" lon="11.919087325783783"><ele>420.0</ele><time>2026-04-12T09:36:40Z</time></trkpt><trkpt lat="43.42672501153211" lon="11.918988607611928"><ele>420.0</ele><time>2026-04-12T09:36:41Z</time></trkpt><trkpt lat="43.42697982204341" lon="11.918905335258145"><ele>412.5</ele><time>2026-04-12T09:36:42Z</time></trkpt><trkpt lat="43.42722544196528" lon="11.918823249733478"><ele>405.0</ele><time>2026-04-12T09:36:43Z</time></trkpt><trkpt lat="43.42746752658989" lon="11.918737880476117"><ele>405.0</ele><time>2026-04-12T09:36:44Z</time></trkpt><trkpt lat="43.427713425791424" lon="11.918652195370607"><ele>405.0</ele><time>2026-04-12T09:36:45Z</time></trkpt><trkpt lat="43.42795836751627" lon="11.918571401985394"><ele>402.5</ele><time>2026-04-12T09:36:46Z</time></trkpt><trkpt lat="43.42820141729474" lon="11.918487500151878"><ele>400.0</ele><time>2026-04-12T09:36:47Z</time></trkpt><trkpt lat="43.428441743335576" lon="11.918403352300167"><ele>404.0</ele><time>2026-04-12T09:36:48Z</time></trkpt><trkpt lat="43.428676745736304" lon="11.918323701572175"><ele>408.0</ele><time>2026-04-12T09:36:49Z</time></trkpt><trkpt lat="43.42890744191711" lon="11.918239547040184"><ele>408.0</ele><time>2026-04-12T09:36:50Z</time></trkpt><trkpt lat="43.429136586350104" lon="11.918138886593836"><ele>408.0</ele><time>2026-04-12T09:36:51Z</time></trkpt><trkpt lat="43.42936341645223" lon="11.918019592550305"><ele>408.0</ele><time>2026-04-12T09:36:52Z</time></trkpt><trkpt lat="43.42958393794702" lon="11.917881378630376"><ele>408.0</ele><time>2026-04-12T09:36:53Z</time></trkpt><trkpt lat="43.429797131189844" lon="11.917720562630034"><ele>409.5</ele><time>2026-04-12T09:36:54Z</time></trkpt><trkpt lat="43.43000176646089" lon="11.917538697946553"><ele>411.0</ele><time>2026-04-12T09:36:55Z</time></trkpt><trkpt lat="43.430190059587716" lon="11.917336869016625"><ele>411.0</ele><time>2026-04-12T09:36:56Z</time></trkpt><trkpt lat="43.4303672144895" lon="11.917130194859244"><ele>411.0</ele><time>2026-04-12T09:36:57Z</time></trkpt><trkpt lat="43.43053554827868" lon="11.916902819641397"><ele>407.0</ele><time>2026-04-12T09:36:58Z</time></trkpt><trkpt lat="43.430686599829365" lon="11.916664179069498"><ele>403.0</ele><time>2026-04-12T09:36:59Z</time></trkpt><trkpt lat="43.43083232686022" lon="11.916409273488417"><ele>403.0</ele><time>2026-04-12T09:37:00Z</time></trkpt><trkpt lat="43.43097039812428" lon="11.916138694439727"><ele>403.0</ele><time>2026-04-12T09:37:01Z</time></trkpt><trkpt lat="43.43108796812512" lon="11.915855177676905"><ele>409.5</ele><time>2026-04-12T09:37:02Z</time></trkpt><trkpt lat="43.43119102026425" lon="11.915561075991084"><ele>416.0</ele><time>2026-04-12T09:37:03Z</time></trkpt><trkpt lat="43.431293494989454" lon="11.915241262584857"><ele>408.5</ele><time>2026-04-12T09:37:03.999Z</time></trkpt><trkpt lat="43.4313999197668" lon="11.914899013182476"><ele>401.0</ele><time>2026-04-12T09:37:04.999Z</time></trkpt><trkpt lat="43.43150572664203" lon="11.914514327482502"><ele>404.5</ele><time>2026-04-12T09:37:05.999Z</time></trkpt><trkpt lat="43.43161707754777" lon="11.914119283790198"><ele>408.0</ele><time>2026-04-12T09:37:06.999Z</time></trkpt><trkpt lat="43.431732198053986" lon="11.91372903098692"><ele>407.5</ele><time>2026-04-12T09:37:07.999Z</time></trkpt><trkpt lat="43.431851498712646" lon="11.913355261856456"><ele>407.0</ele><time>2026-04-12T09:37:08.999Z</time></trkpt><trkpt lat="43.43197289305241" lon="11.912996972553552"><ele>407.0</ele><time>2026-04-12T09:37:09.999Z</time></trkpt><trkpt lat="43.43210334002776" lon="11.912649627353467"><ele>407.0</ele><time>2026-04-12T09:37:10.999Z</time></trkpt><trkpt lat="43.43224897811298" lon="11.9123254982032"><ele>401.5</ele><time>2026-04-12T09:37:11.999Z</time></trkpt><trkpt lat="43.43244598220152" lon="11.911997549479302"><ele>396.0</ele><time>2026-04-12T09:37:12.999Z</time></trkpt><trkpt lat="43.4326309580584" lon="11.911680722606452"><ele>396.0</ele><time>2026-04-12T09:37:13.999Z</time></trkpt><trkpt lat="43.43283670571527" lon="11.911404456127974"><ele>396.0</ele><time>2026-04-12T09:37:14.999Z</time></trkpt><trkpt lat="43.43304743642822" lon="11.911142338734336"><ele>393.0</ele><time>2026-04-12T09:37:15.999Z</time></trkpt><trkpt lat="43.43327932281301" lon="11.91091261204669"><ele>390.0</ele><time>2026-04-12T09:37:16.999Z</time></trkpt><trkpt lat="43.43351519052217" lon="11.910691961418783"><ele>390.0</ele><time>2026-04-12T09:37:17.999Z</time></trkpt><trkpt lat="43.43375763847414" lon="11.910485237958701"><ele>390.0</ele><time>2026-04-12T09:37:18.999Z</time></trkpt><trkpt lat="43.43399672278337" lon="11.910265836239217"><ele>385.0</ele><time>2026-04-12T09:37:19.999Z</time></trkpt><trkpt lat="43.43424208895113" lon="11.910063540790544"><ele>380.0</ele><time>2026-04-12T09:37:20.999Z</time></trkpt><trkpt lat="43.43448841696476" lon="11.909859213529426"><ele>373.5</ele><time>2026-04-12T09:37:21.999Z</time></trkpt><trkpt lat="43.43473267723162" lon="11.909653776337459"><ele>367.0</ele><time>2026-04-12T09:37:22.999Z</time></trkpt><trkpt lat="43.43497611744718" lon="11.909447018743283"><ele>373.0</ele><time>2026-04-12T09:37:23.999Z</time></trkpt><trkpt lat="43.43521404494316" lon="11.909229355213307"><ele>379.0</ele><time>2026-04-12T09:37:24.999Z</time></trkpt><trkpt lat="43.4354400524901" lon="11.908988234152993"><ele>370.0</ele><time>2026-04-12T09:37:25.999Z</time></trkpt><trkpt lat="43.43564515395786" lon="11.908717060534167"><ele>361.0</ele><time>2026-04-12T09:37:26.999Z</time></trkpt><trkpt lat="43.435832237451635" lon="11.908421975083371"><ele>365.5</ele><time>2026-04-12T09:37:27.999Z</time></trkpt><trkpt lat="43.43598512433708" lon="11.9080952632431"><ele>370.0</ele><time>2026-04-12T09:37:28.999Z</time></trkpt><trkpt lat="43.43611448537971" lon="11.90775349546583"><ele>375.5</ele><time>2026-04-12T09:37:29.999Z</time></trkpt><trkpt lat="43.436215266026004" lon="11.90739208469397"><ele>381.0</ele><time>2026-04-12T09:37:30.999Z</time></trkpt><trkpt lat="43.43629879643225" lon="11.907025067702556"><ele>376.5</ele><time>2026-04-12T09:37:31.999Z</time></trkpt><trkpt lat="43.43638090495083" lon="11.90665419389475"><ele>372.0</ele><time>2026-04-12T09:37:32.999Z</time></trkpt><trkpt lat="43.43647103259849" lon="11.906288578712163"><ele>372.0</ele><time>2026-04-12T09:37:33.999Z</time></trkpt><trkpt lat="43.43656216183263" lon="11.905919852625427"><ele>372.0</ele><time>2026-04-12T09:37:34.999Z</time></trkpt><trkpt lat="43.4366468851939" lon="11.90555058235749"><ele>368.5</ele><time>2026-04-12T09:37:35.999Z</time></trkpt><trkpt lat="43.43672785413786" lon="11.905179302831803"><ele>365.0</ele><time>2026-04-12T09:37:36.999Z</time></trkpt><trkpt lat="43.43679296857369" lon="11.904810359775704"><ele>358.5</ele><time>2026-04-12T09:37:37.999Z</time></trkpt><trkpt lat="43.43682993005846" lon="11.90443193515219"><ele>352.0</ele><time>2026-04-12T09:37:38.999Z</time></trkpt><trkpt lat="43.43684186035448" lon="11.904053204132758"><ele>346.5</ele><time>2026-04-12T09:37:39.999Z</time></trkpt><trkpt lat="43.43683091273295" lon="11.903675813468189"><ele>341.0</ele><time>2026-04-12T09:37:40.999Z</time></trkpt><trkpt lat="43.436811240105676" lon="11.903298445903213"><ele>341.0</ele><time>2026-04-12T09:37:41.999Z</time></trkpt><trkpt lat="43.43679903696141" lon="11.902922564439233"><ele>341.0</ele><time>2026-04-12T09:37:42.999Z</time></trkpt><trkpt lat="43.436809389023544" lon="11.902546009107953"><ele>340.5</ele><time>2026-04-12T09:37:44Z</time></trkpt><trkpt lat="43.43684815154608" lon="11.902174141440405"><ele>340.0</ele><time>2026-04-12T09:37:45Z</time></trkpt><trkpt lat="43.43691139933126" lon="11.901808052237332"><ele>336.0</ele><time>2026-04-12T09:37:46Z</time></trkpt><trkpt lat="43.43702374417166" lon="11.901462936973708"><ele>332.0</ele><time>2026-04-12T09:37:47Z</time></trkpt><trkpt lat="43.43714628674491" lon="11.90112492217139"><ele>336.0</ele><time>2026-04-12T09:37:48Z</time></trkpt><trkpt lat="43.43729301711533" lon="11.900807285691876"><ele>340.0</ele><time>2026-04-12T09:37:49Z</time></trkpt><trkpt lat="43.43746107484044" lon="11.90050905724283"><ele>340.0</ele><time>2026-04-12T09:37:50Z</time></trkpt><trkpt lat="43.437651381964876" lon="11.900238473130198"><ele>340.0</ele><time>2026-04-12T09:37:51Z</time></trkpt><trkpt lat="43.43786339791309" lon="11.899994585829113"><ele>335.0</ele><time>2026-04-12T09:37:52Z</time></trkpt><trkpt lat="43.438091311237905" lon="11.899777200731043"><ele>330.0</ele><time>2026-04-12T09:37:53Z</time></trkpt><trkpt lat="43.43833538184153" lon="11.899596926394683"><ele>330.0</ele><time>2026-04-12T09:37:54Z</time></trkpt><trkpt lat="43.438593039087195" lon="11.899444977329017"><ele>330.0</ele><time>2026-04-12T09:37:55Z</time></trkpt><trkpt lat="43.43886207356773" lon="11.89933560543003"><ele>331.0</ele><time>2026-04-12T09:37:56Z</time></trkpt><trkpt lat="43.439139302201454" lon="11.899272698028232"><ele>332.0</ele><time>2026-04-12T09:37:57Z</time></trkpt><trkpt lat="43.43942325908808" lon="11.89923100987708"><ele>330.0</ele><time>2026-04-12T09:37:58Z</time></trkpt><trkpt lat="43.43970573961771" lon="11.899232773789397"><ele>328.0</ele><time>2026-04-12T09:37:59Z</time></trkpt><trkpt lat="43.43998739349678" lon="11.89923695025852"><ele>328.0</ele><time>2026-04-12T09:38:00Z</time></trkpt><trkpt lat="43.44026820708414" lon="11.89922224098477"><ele>328.0</ele><time>2026-04-12T09:38:01Z</time></trkpt><trkpt lat="43.440546014503525" lon="11.899180340663856"><ele>326.5</ele><time>2026-04-12T09:38:02Z</time></trkpt><trkpt lat="43.44081999266745" lon="11.899107983844635"><ele>325.0</ele><time>2026-04-12T09:38:03Z</time></trkpt><trkpt lat="43.44108820969571" lon="11.898988729692212"><ele>325.0</ele><time>2026-04-12T09:38:04Z</time></trkpt><trkpt lat="43.44134608386993" lon="11.898841321168419"><ele>325.0</ele><time>2026-04-12T09:38:05Z</time></trkpt><trkpt lat="43.44159036485949" lon="11.898663737287276"><ele>325.0</ele><time>2026-04-12T09:38:06Z</time></trkpt><trkpt lat="43.4418162717866" lon="11.898442462256323"><ele>325.0</ele><time>2026-04-12T09:38:07Z</time></trkpt><trkpt lat="43.44202169249942" lon="11.898184593025743"><ele>323.5</ele><time>2026-04-12T09:38:08Z</time></trkpt><trkpt lat="43.44220799631101" lon="11.897904353697136"><ele>322.0</ele><time>2026-04-12T09:38:09Z</time></trkpt><trkpt lat="43.44237828983426" lon="11.897604891133348"><ele>318.5</ele><time>2026-04-12T09:38:10Z</time></trkpt><trkpt lat="43.442519435647405" lon="11.897280284026227"><ele>315.0</ele><time>2026-04-12T09:38:11Z</time></trkpt><trkpt lat="43.442637057992116" lon="11.896939760361366"><ele>310.5</ele><time>2026-04-12T09:38:12Z</time></trkpt><trkpt lat="43.44272637884639" lon="11.89658548234232"><ele>306.0</ele><time>2026-04-12T09:38:13Z</time></trkpt><trkpt lat="43.442786732112" lon="11.896219475549625"><ele>303.5</ele><time>2026-04-12T09:38:14Z</time></trkpt><trkpt lat="43.44282735589293" lon="11.895845881754706"><ele>301.0</ele><time>2026-04-12T09:38:15Z</time></trkpt><trkpt lat="43.442871781926186" lon="11.89547816667639"><ele>301.0</ele><time>2026-04-12T09:38:16Z</time></trkpt><trkpt lat="43.442926621596214" lon="11.895111319438765"><ele>301.0</ele><time>2026-04-12T09:38:17Z</time></trkpt><trkpt lat="43.44298861376781" lon="11.894743736806447"><ele>302.0</ele><time>2026-04-12T09:38:18Z</time></trkpt><trkpt lat="43.44305265197711" lon="11.89437806911753"><ele>303.0</ele><time>2026-04-12T09:38:19Z</time></trkpt><trkpt lat="43.443115642449385" lon="11.894015329417611"><ele>303.0</ele><time>2026-04-12T09:38:20Z</time></trkpt><trkpt lat="43.443176092840346" lon="11.893672924665294"><ele>303.0</ele><time>2026-04-12T09:38:21Z</time></trkpt><trkpt lat="43.44322993812924" lon="11.893359295769793"><ele>299.6666666666667</ele><time>2026-04-12T09:38:22Z</time></trkpt><trkpt lat="43.443278097670415" lon="11.893076714508519"><ele>296.33333333333337</ele><time>2026-04-12T09:38:23Z</time></trkpt><trkpt lat="43.443320256900236" lon="11.892818098675011"><ele>293.0</ele><time>2026-04-12T09:38:24Z</time></trkpt><trkpt lat="43.44335665584547" lon="11.892588777768125"><ele>291.25</ele><time>2026-04-12T09:38:25Z</time></trkpt><trkpt lat="43.44338896032704" lon="11.892378479906897"><ele>289.5</ele><time>2026-04-12T09:38:26Z</time></trkpt><trkpt lat="43.44341907580965" lon="11.892194759730154"><ele>287.75</ele><time>2026-04-12T09:38:27Z</time></trkpt><trkpt lat="43.44344026171911" lon="11.892036722992788"><ele>286.0</ele><time>2026-04-12T09:38:28Z</time></trkpt><trkpt lat="43.443461046743145" lon="11.89189722797152"><ele>286.0</ele><time>2026-04-12T09:38:29Z</time></trkpt><trkpt lat="43.443482724524" lon="11.891774982080573"><ele>286.0</ele><time>2026-04-12T09:38:30Z</time></trkpt><trkpt lat="43.44352315391112" lon="11.891677082558889"><ele>286.0</ele><time>2026-04-12T09:38:31Z</time></trkpt><trkpt lat="43.44359117366266" lon="11.891606478152967"><ele>286.0</ele><time>2026-04-12T09:38:32Z</time></trkpt><trkpt lat="43.443697621504484" lon="11.89159699058877"><ele>286.0</ele><time>2026-04-12T09:38:33Z</time></trkpt><trkpt lat="43.44379878472292" lon="11.891660970645423"><ele>285.8</ele><time>2026-04-12T09:38:34Z</time></trkpt><trkpt lat="43.443874531587596" lon="11.891765006857744"><ele>285.6</ele><time>2026-04-12T09:38:35Z</time></trkpt><trkpt lat="43.443912106709526" lon="11.891911556655293"><ele>285.4</ele><time>2026-04-12T09:38:36Z</time></trkpt><trkpt lat="43.44394225708355" lon="11.892068241116052"><ele>285.2</ele><time>2026-04-12T09:38:37Z</time></trkpt><trkpt lat="43.443962032212916" lon="11.892219411111178"><ele>285.0</ele><time>2026-04-12T09:38:38Z</time></trkpt><trkpt lat="43.44381754396183" lon="11.892370575470974"><ele>285.25</ele><time>2026-04-12T09:38:39Z</time></trkpt><trkpt lat="43.44373152719653" lon="11.892475011280121"><ele>285.5</ele><time>2026-04-12T09:38:40Z</time></trkpt><trkpt lat="43.44362735191316" lon="11.892570172240307"><ele>285.75</ele><time>2026-04-12T09:38:41Z</time></trkpt><trkpt lat="43.44346561029106" lon="11.89256511564901"><ele>286.0</ele><time>2026-04-12T09:38:42Z</time></trkpt><trkpt lat="43.44330786667671" lon="11.892617893784704"><ele>287.0</ele><time>2026-04-12T09:38:42.999Z</time></trkpt><trkpt lat="43.44312047395555" lon="11.892673922166308"><ele>288.0</ele><time>2026-04-12T09:38:43.999Z</time></trkpt><trkpt lat="43.44293676806744" lon="11.892710734281376"><ele>289.0</ele><time>2026-04-12T09:38:44.999Z</time></trkpt><trkpt lat="43.44275161028475" lon="11.892818392817603"><ele>289.0</ele><time>2026-04-12T09:38:45.999Z</time></trkpt><trkpt lat="43.44257528523402" lon="11.892945057971042"><ele>289.0</ele><time>2026-04-12T09:38:46.999Z</time></trkpt><trkpt lat="43.442406479865824" lon="11.893059946474398"><ele>289.0</ele><time>2026-04-12T09:38:47.999Z</time></trkpt><trkpt lat="43.44223286579955" lon="11.893149500644034"><ele>288.3333333333333</ele><time>2026-04-12T09:38:48.999Z</time></trkpt><trkpt lat="43.44204901557744" lon="11.893208858070812"><ele>287.6666666666667</ele><time>2026-04-12T09:38:49.999Z</time></trkpt><trkpt lat="43.44185121952781" lon="11.893239787293936"><ele>287.0</ele><time>2026-04-12T09:38:50.999Z</time></trkpt><trkpt lat="43.44164375418717" lon="11.893297783165275"><ele>287.0</ele><time>2026-04-12T09:38:51.999Z</time></trkpt><trkpt lat="43.441435043754865" lon="11.893317907789454"><ele>287.0</ele><time>2026-04-12T09:38:52.999Z</time></trkpt><trkpt lat="43.44122379080247" lon="11.893310337234583"><ele>287.0</ele><time>2026-04-12T09:38:53.999Z</time></trkpt><trkpt lat="43.44100660804411" lon="11.893289498877014"><ele>285.0</ele><time>2026-04-12T09:38:54.999Z</time></trkpt><trkpt lat="43.44079002582455" lon="11.893274721353324"><ele>283.0</ele><time>2026-04-12T09:38:55.999Z</time></trkpt><trkpt lat="43.44057339730006" lon="11.893279212735663"><ele>281.0</ele><time>2026-04-12T09:38:56.999Z</time></trkpt><trkpt lat="43.44036076134204" lon="11.89329914879286"><ele>280.33333333333337</ele><time>2026-04-12T09:38:57.999Z</time></trkpt><trkpt lat="43.44015210875821" lon="11.893323004292261"><ele>279.6666666666667</ele><time>2026-04-12T09:38:58.999Z</time></trkpt><trkpt lat="43.43994606276313" lon="11.893370915089193"><ele>279.0</ele><time>2026-04-12T09:38:59.999Z</time></trkpt><trkpt lat="43.43974260968892" lon="11.893437701758069"><ele>278.3333333333333</ele><time>2026-04-12T09:39:00.999Z</time></trkpt><trkpt lat="43.43953925234566" lon="11.893501875537327"><ele>277.66666666666663</ele><time>2026-04-12T09:39:01.999Z</time></trkpt><trkpt lat="43.43933850592906" lon="11.893550754230562"><ele>277.0</ele><time>2026-04-12T09:39:02.999Z</time></trkpt><trkpt lat="43.4391405101504" lon="11.893581370612932"><ele>277.0</ele><time>2026-04-12T09:39:03.999Z</time></trkpt><trkpt lat="43.43895196446588" lon="11.893591152123117"><ele>277.0</ele><time>2026-04-12T09:39:04.999Z</time></trkpt><trkpt lat="43.43877125345522" lon="11.893589044749"><ele>277.0</ele><time>2026-04-12T09:39:05.999Z</time></trkpt><trkpt lat="43.438592493079994" lon="11.893602995874486"><ele>276.66666666666663</ele><time>2026-04-12T09:39:06.999Z</time></trkpt><trkpt lat="43.43841451547511" lon="11.893632378549063"><ele>276.3333333333333</ele><time>2026-04-12T09:39:07.999Z</time></trkpt><trkpt lat="43.43823894909357" lon="11.8936572075807"><ele>276.0</ele><time>2026-04-12T09:39:08.999Z</time></trkpt><trkpt lat="43.43805987442887" lon="11.893658084083864"><ele>277.0</ele><time>2026-04-12T09:39:09.999Z</time></trkpt><trkpt lat="43.437888915171044" lon="11.893625368847447"><ele>278.0</ele><time>2026-04-12T09:39:10.999Z</time></trkpt><trkpt lat="43.43774766735446" lon="11.89358782417863"><ele>279.0</ele><time>2026-04-12T09:39:11.999Z</time></trkpt><trkpt lat="43.43764683594873" lon="11.89352917066465"><ele>280.0</ele><time>2026-04-12T09:39:12.999Z</time></trkpt><trkpt lat="43.437452679150006" lon="11.893437426045697"><ele>279.0</ele><time>2026-04-12T09:39:13.999Z</time></trkpt><trkpt lat="43.43735442070661" lon="11.893406166244247"><ele>278.0</ele><time>2026-04-12T09:39:14.999Z</time></trkpt><trkpt lat="43.43726014379079" lon="11.893365513935084"><ele>277.0</ele><time>2026-04-12T09:39:16.999Z</time></trkpt><trkpt lat="43.43713026983907" lon="11.89332382285533"><ele>276.0</ele><time>2026-04-12T09:39:19.999Z</time></trkpt><trkpt lat="43.43703330889958" lon="11.893279852317841"><ele>275.0</ele><time>2026-04-12T09:39:20.999Z</time></trkpt><trkpt lat="43.43688684445481" lon="11.893263436062513"><ele>275.0</ele><time>2026-04-12T09:39:21.999Z</time></trkpt><trkpt lat="43.43673868689952" lon="11.893249658128436"><ele>275.0</ele><time>2026-04-12T09:39:22.999Z</time></trkpt><trkpt lat="43.43657400531143" lon="11.893229725576075"><ele>275.0</ele><time>2026-04-12T09:39:23.999Z</time></trkpt><trkpt lat="43.43640809905173" lon="11.893190104685647"><ele>274.6666666666667</ele><time>2026-04-12T09:39:24.999Z</time></trkpt><trkpt lat="43.43623316772723" lon="11.893123169405046"><ele>274.3333333333333</ele><time>2026-04-12T09:39:25.999Z</time></trkpt><trkpt lat="43.43606308369565" lon="11.893056636184706"><ele>274.0</ele><time>2026-04-12T09:39:26.999Z</time></trkpt><trkpt lat="43.435892780240984" lon="11.892989252129716"><ele>274.0</ele><time>2026-04-12T09:39:27.999Z</time></trkpt><trkpt lat="43.43571893438354" lon="11.892919555023408"><ele>274.0</ele><time>2026-04-12T09:39:28.999Z</time></trkpt><trkpt lat="43.43554725868924" lon="11.892856373638708"><ele>274.0</ele><time>2026-04-12T09:39:29.999Z</time></trkpt><trkpt lat="43.43538855256208" lon="11.892800802919632"><ele>274.25</ele><time>2026-04-12T09:39:30.999Z</time></trkpt><trkpt lat="43.43523710016298" lon="11.892749622946868"><ele>274.5</ele><time>2026-04-12T09:39:31.999Z</time></trkpt><trkpt lat="43.43510036045978" lon="11.892699297276941"><ele>274.75</ele><time>2026-04-12T09:39:32.999Z</time></trkpt><trkpt lat="43.43497531161252" lon="11.892649990742587"><ele>275.0</ele><time>2026-04-12T09:39:33.999Z</time></trkpt><trkpt lat="43.434871539301604" lon="11.892616203963485"><ele>275.0</ele><time>2026-04-12T09:39:34.999Z</time></trkpt><trkpt lat="43.43479776692378" lon="11.892591098538606"><ele>275.0</ele><time>2026-04-12T09:39:35.999Z</time></trkpt><trkpt lat="43.43472776506882" lon="11.892567002278343"><ele>275.0</ele><time>2026-04-12T09:39:36.999Z</time></trkpt><trkpt lat="43.43464370809172" lon="11.892512798107875"><ele>275.0</ele><time>2026-04-12T09:39:38.998Z</time></trkpt><trkpt lat="43.4346618233007" lon="11.892412889925366"><ele>275.0</ele><time>2026-04-12T09:39:41.998Z</time></trkpt><trkpt lat="43.43474578540414" lon="11.892343759132881"><ele>275.0</ele><time>2026-04-12T09:39:43.998Z</time></trkpt><trkpt lat="43.4346749442385" lon="11.892167597578373"><ele>275.5</ele><time>2026-04-12T09:39:45.998Z</time></trkpt><trkpt lat="43.43458544483538" lon="11.892074926465952"><ele>276.0</ele><time>2026-04-12T09:39:46.998Z</time></trkpt><trkpt lat="43.434487880725435" lon="11.891996010336511"><ele>276.5</ele><time>2026-04-12T09:39:47.998Z</time></trkpt><trkpt lat="43.434374382219744" lon="11.891900455305489"><ele>277.0</ele><time>2026-04-12T09:39:48.998Z</time></trkpt><trkpt lat="43.43424677664577" lon="11.891791503799649"><ele>276.66666666666663</ele><time>2026-04-12T09:39:50Z</time></trkpt><trkpt lat="43.434127293632876" lon="11.891670424675597"><ele>276.3333333333333</ele><time>2026-04-12T09:39:51Z</time></trkpt><trkpt lat="43.43399191873806" lon="11.891554688155594"><ele>276.0</ele><time>2026-04-12T09:39:52Z</time></trkpt><trkpt lat="43.43386234663416" lon="11.891435965602957"><ele>276.3333333333333</ele><time>2026-04-12T09:39:53Z</time></trkpt><trkpt lat="43.43374212894781" lon="11.89131084590577"><ele>276.66666666666663</ele><time>2026-04-12T09:39:54Z</time></trkpt><trkpt lat="43.43361532701336" lon="11.891180566177985"><ele>277.0</ele><time>2026-04-12T09:39:55Z</time></trkpt><trkpt lat="43.43348127130233" lon="11.891056614206354"><ele>277.0</ele><time>2026-04-12T09:39:56Z</time></trkpt><trkpt lat="43.43333763657209" lon="11.890940316180805"><ele>277.0</ele><time>2026-04-12T09:39:57Z</time></trkpt><trkpt lat="43.43320052447061" lon="11.890805419839548"><ele>277.0</ele><time>2026-04-12T09:39:58Z</time></trkpt><trkpt lat="43.43307716262123" lon="11.890653046512828"><ele>278.3333333333333</ele><time>2026-04-12T09:39:59Z</time></trkpt><trkpt lat="43.432949747062125" lon="11.890517692092915"><ele>279.6666666666667</ele><time>2026-04-12T09:40:00Z</time></trkpt><trkpt lat="43.43281729854576" lon="11.890392096258768"><ele>281.0</ele><time>2026-04-12T09:40:01Z</time></trkpt><trkpt lat="43.43268035958251" lon="11.890280398236587"><ele>281.0</ele><time>2026-04-12T09:40:02Z</time></trkpt><trkpt lat="43.43253922519108" lon="11.890181482008948"><ele>281.0</ele><time>2026-04-12T09:40:03Z</time></trkpt><trkpt lat="43.432401750261725" lon="11.890104079864935"><ele>281.0</ele><time>2026-04-12T09:40:04Z</time></trkpt><trkpt lat="43.43230666263675" lon="11.889977661449532"><ele>281.0</ele><time>2026-04-12T09:40:05Z</time></trkpt><trkpt lat="43.432197068713045" lon="11.889892415545454"><ele>281.40000000000003</ele><time>2026-04-12T09:40:06Z</time></trkpt><trkpt lat="43.4321020045761" lon="11.889800498958303"><ele>281.8</ele><time>2026-04-12T09:40:07Z</time></trkpt><trkpt lat="43.43201536138131" lon="11.88970269495941"><ele>282.20000000000005</ele><time>2026-04-12T09:40:08Z</time></trkpt><trkpt lat="43.43192211211138" lon="11.889634107611192"><ele>282.6</ele><time>2026-04-12T09:40:09Z</time></trkpt><trkpt lat="43.43183032522757" lon="11.889575239632588"><ele>283.0</ele><time>2026-04-12T09:40:10Z</time></trkpt><trkpt lat="43.431740645700344" lon="11.889523868811418"><ele>283.0</ele><time>2026-04-12T09:40:11Z</time></trkpt><trkpt lat="43.43163876214196" lon="11.889489509180793"><ele>283.0</ele><time>2026-04-12T09:40:12Z</time></trkpt><trkpt lat="43.43153460629594" lon="11.88942542344925"><ele>283.0</ele><time>2026-04-12T09:40:13Z</time></trkpt><trkpt lat="43.43142036000333" lon="11.889354048432061"><ele>283.0</ele><time>2026-04-12T09:40:14Z</time></trkpt><trkpt lat="43.43130516567373" lon="11.889266313466731"><ele>283.4</ele><time>2026-04-12T09:40:15Z</time></trkpt><trkpt lat="43.431193443187574" lon="11.889203243556635"><ele>283.8</ele><time>2026-04-12T09:40:16Z</time></trkpt><trkpt lat="43.43109111234282" lon="11.889155480392402"><ele>284.2</ele><time>2026-04-12T09:40:17Z</time></trkpt><trkpt lat="43.431000675789775" lon="11.889117361611873"><ele>284.6</ele><time>2026-04-12T09:40:18Z</time></trkpt><trkpt lat="43.43092274030249" lon="11.889084511964164"><ele>285.0</ele><time>2026-04-12T09:40:19Z</time></trkpt><trkpt lat="43.430856081034484" lon="11.889054890742344"><ele>285.0</ele><time>2026-04-12T09:40:20Z</time></trkpt><trkpt lat="43.43073697403311" lon="11.889199613683385"><ele>285.0</ele><time>2026-04-12T09:40:22Z</time></trkpt><trkpt lat="43.43069730136077" lon="11.889284235380678"><ele>285.0</ele><time>2026-04-12T09:40:23Z</time></trkpt><trkpt lat="43.43066622436716" lon="11.88937008462725"><ele>285.0</ele><time>2026-04-12T09:40:24Z</time></trkpt><trkpt lat="43.43063484027069" lon="11.889446596186803"><ele>285.0</ele><time>2026-04-12T09:40:25Z</time></trkpt><trkpt lat="43.430574935712315" lon="11.889591499563313"><ele>285.0</ele><time>2026-04-12T09:40:27Z</time></trkpt><trkpt lat="43.43054587711901" lon="11.889671177662635"><ele>285.0</ele><time>2026-04-12T09:40:28Z</time></trkpt><trkpt lat="43.43051259643448" lon="11.889763741713116"><ele>285.0</ele><time>2026-04-12T09:40:29Z</time></trkpt><trkpt lat="43.43048073733776" lon="11.889852351851312"><ele>285.0</ele><time>2026-04-12T09:40:29.999Z</time></trkpt><trkpt lat="43.4304497620545" lon="11.889937024324581"><ele>285.0</ele><time>2026-04-12T09:40:30.999Z</time></trkpt><trkpt lat="43.43041819209494" lon="11.890019522845872"><ele>285.0</ele><time>2026-04-12T09:40:31.999Z</time></trkpt><trkpt lat="43.43037199037155" lon="11.8901532860681"><ele>285.6</ele><time>2026-04-12T09:40:33.999Z</time></trkpt><trkpt lat="43.430306407178" lon="11.89025243160015"><ele>286.2</ele><time>2026-04-12T09:40:36.999Z</time></trkpt><trkpt lat="43.43013945796505" lon="11.890182573650128"><ele>286.8</ele><time>2026-04-12T09:40:39.999Z</time></trkpt><trkpt lat="43.43006708632578" lon="11.890166193494602"><ele>287.4</ele><time>2026-04-12T09:40:41.999Z</time></trkpt><trkpt lat="43.430020284299935" lon="11.890098430345612"><ele>288.0</ele><time>2026-04-12T09:40:44.999Z</time></trkpt><trkpt lat="43.43008514810578" lon="11.890047208839015"><ele>288.0</ele><time>2026-04-12T09:40:47.999Z</time></trkpt></trkseg></trk></gpx>